<?xml version='1.0' encoding='UTF-8'?><gpx version="1.1" creator="JPX - https://github.com/jenetics/jpx" xmlns="http://www.topografix.com/GPX/1/1"><trk><trkseg><trkpt lat="45.7901413" lon="13.6416444"><ele>158.8</ele><time>2026-05-02T09:16:01.268Z</time></trkpt><trkpt lat="45.7901838" lon="13.641553"><ele>160.6</ele><time>2026-05-02T09:16:02.268Z</time></trkpt><trkpt lat="45.7902428" lon="13.6414351"><ele>162.4</ele><time>2026-05-02T09:16:04.268Z</time></trkpt><trkpt lat="45.790293" lon="13.6413125"><ele>164.20000000000002</ele><time>2026-05-02T09:16:06.268Z</time></trkpt><trkpt lat="45.7903636" lon="13.6411705"><ele>166.0</ele><time>2026-05-02T09:16:08.268Z</time></trkpt><trkpt lat="45.7904139" lon="13.6410901"><ele>166.0</ele><time>2026-05-02T09:16:09.268Z</time></trkpt><trkpt lat="45.7904627" lon="13.6410101"><ele>166.0</ele><time>2026-05-02T09:16:10.268Z</time></trkpt><trkpt lat="45.7905343" lon="13.6408837"><ele>166.0</ele><time>2026-05-02T09:16:12.268Z</time></trkpt><trkpt lat="45.7905987" lon="13.6407811"><ele>166.0</ele><time>2026-05-02T09:16:14.268Z</time></trkpt><trkpt lat="45.7906837" lon="13.6406755"><ele>166.0</ele><time>2026-05-02T09:16:16.268Z</time></trkpt><trkpt lat="45.7907456" lon="13.6406267"><ele>166.0</ele><time>2026-05-02T09:16:17.268Z</time></trkpt><trkpt lat="45.7908092" lon="13.6405789"><ele>166.0</ele><time>2026-05-02T09:16:18.268Z</time></trkpt><trkpt lat="45.7908754" lon="13.6405318"><ele>166.0</ele><time>2026-05-02T09:16:19.268Z</time></trkpt><trkpt lat="45.7909469" lon="13.6404806"><ele>166.0</ele><time>2026-05-02T09:16:20.269Z</time></trkpt><trkpt lat="45.7910202" lon="13.6404247"><ele>166.0</ele><time>2026-05-02T09:16:21.269Z</time></trkpt><trkpt lat="45.791087" lon="13.64038"><ele>166.0</ele><time>2026-05-02T09:16:22.268Z</time></trkpt><trkpt lat="45.7911539" lon="13.6403443"><ele>166.33333333333334</ele><time>2026-05-02T09:16:23.268Z</time></trkpt><trkpt lat="45.7912221" lon="13.6403069"><ele>166.66666666666669</ele><time>2026-05-02T09:16:24.268Z</time></trkpt><trkpt lat="45.7912907" lon="13.6402608"><ele>167.0</ele><time>2026-05-02T09:16:25.268Z</time></trkpt><trkpt lat="45.7913573" lon="13.6402074"><ele>167.33333333333334</ele><time>2026-05-02T09:16:26.268Z</time></trkpt><trkpt lat="45.7914199" lon="13.6401657"><ele>167.66666666666666</ele><time>2026-05-02T09:16:27.268Z</time></trkpt><trkpt lat="45.7915326" lon="13.6401099"><ele>168.0</ele><time>2026-05-02T09:16:29.269Z</time></trkpt><trkpt lat="45.7916338" lon="13.6400464"><ele>168.0</ele><time>2026-05-02T09:16:31.268Z</time></trkpt><trkpt lat="45.7917088" lon="13.6400068"><ele>168.0</ele><time>2026-05-02T09:16:33.268Z</time></trkpt><trkpt lat="45.7917964" lon="13.640047"><ele>168.0</ele><time>2026-05-02T09:16:38.268Z</time></trkpt><trkpt lat="45.7918564" lon="13.6401062"><ele>168.0</ele><time>2026-05-02T09:16:40.269Z</time></trkpt><trkpt lat="45.791902" lon="13.6402242"><ele>168.0</ele><time>2026-05-02T09:16:42.268Z</time></trkpt><trkpt lat="45.7919836" lon="13.6403402"><ele>169.60000000000002</ele><time>2026-05-02T09:16:44.268Z</time></trkpt><trkpt lat="45.7920589" lon="13.6404659"><ele>171.20000000000002</ele><time>2026-05-02T09:16:46.268Z</time></trkpt><trkpt lat="45.7921353" lon="13.6405892"><ele>172.8</ele><time>2026-05-02T09:16:48.268Z</time></trkpt><trkpt lat="45.7921955" lon="13.6407196"><ele>174.4</ele><time>2026-05-02T09:16:50.268Z</time></trkpt><trkpt lat="45.7922481" lon="13.640854"><ele>176.0</ele><time>2026-05-02T09:16:52.268Z</time></trkpt><trkpt lat="45.7923185" lon="13.6409432"><ele>176.0</ele><time>2026-05-02T09:16:54.268Z</time></trkpt><trkpt lat="45.7924263" lon="13.6409865"><ele>176.0</ele><time>2026-05-02T09:16:56.268Z</time></trkpt><trkpt lat="45.7925087" lon="13.6410726"><ele>176.0</ele><time>2026-05-02T09:16:58.268Z</time></trkpt><trkpt lat="45.7925687" lon="13.6412053"><ele>176.0</ele><time>2026-05-02T09:17:00.269Z</time></trkpt><trkpt lat="45.7926125" lon="13.6413001"><ele>176.0</ele><time>2026-05-02T09:17:01.268Z</time></trkpt><trkpt lat="45.792655" lon="13.6413948"><ele>175.8</ele><time>2026-05-02T09:17:02.268Z</time></trkpt><trkpt lat="45.7926806" lon="13.6414839"><ele>175.60000000000002</ele><time>2026-05-02T09:17:03.268Z</time></trkpt><trkpt lat="45.7927326" lon="13.6416247"><ele>175.4</ele><time>2026-05-02T09:17:05.268Z</time></trkpt><trkpt lat="45.7927934" lon="13.6417421"><ele>175.2</ele><time>2026-05-02T09:17:07.268Z</time></trkpt><trkpt lat="45.7928714" lon="13.64184"><ele>175.0</ele><time>2026-05-02T09:17:09.268Z</time></trkpt><trkpt lat="45.792979" lon="13.6418923"><ele>175.0</ele><time>2026-05-02T09:17:11.268Z</time></trkpt><trkpt lat="45.7931116" lon="13.6418968"><ele>175.0</ele><time>2026-05-02T09:17:13.268Z</time></trkpt><trkpt lat="45.7931978" lon="13.6418989"><ele>175.0</ele><time>2026-05-02T09:17:14.268Z</time></trkpt><trkpt lat="45.7932749" lon="13.6419177"><ele>175.0</ele><time>2026-05-02T09:17:15.268Z</time></trkpt><trkpt lat="45.7933474" lon="13.6419115"><ele>175.0</ele><time>2026-05-02T09:17:16.268Z</time></trkpt><trkpt lat="45.7934329" lon="13.6419223"><ele>175.0</ele><time>2026-05-02T09:17:17.268Z</time></trkpt><trkpt lat="45.7935042" lon="13.6419216"><ele>175.0</ele><time>2026-05-02T09:17:18.268Z</time></trkpt><trkpt lat="45.7935751" lon="13.6419137"><ele>175.0</ele><time>2026-05-02T09:17:19.268Z</time></trkpt><trkpt lat="45.7936971" lon="13.6418397"><ele>175.0</ele><time>2026-05-02T09:17:21.268Z</time></trkpt><trkpt lat="45.7937609" lon="13.641804"><ele>175.0</ele><time>2026-05-02T09:17:22.268Z</time></trkpt><trkpt lat="45.7938235" lon="13.6417755"><ele>175.0</ele><time>2026-05-02T09:17:23.268Z</time></trkpt><trkpt lat="45.7938913" lon="13.641751"><ele>175.33333333333334</ele><time>2026-05-02T09:17:24.268Z</time></trkpt><trkpt lat="45.7939607" lon="13.6417318"><ele>175.66666666666669</ele><time>2026-05-02T09:17:25.268Z</time></trkpt><trkpt lat="45.7940278" lon="13.6417183"><ele>176.0</ele><time>2026-05-02T09:17:26.268Z</time></trkpt><trkpt lat="45.7940894" lon="13.6416911"><ele>176.33333333333334</ele><time>2026-05-02T09:17:27.269Z</time></trkpt><trkpt lat="45.7942033" lon="13.6415931"><ele>176.66666666666666</ele><time>2026-05-02T09:17:29.268Z</time></trkpt><trkpt lat="45.7942582" lon="13.641532"><ele>177.0</ele><time>2026-05-02T09:17:30.269Z</time></trkpt><trkpt lat="45.7943698" lon="13.6414666"><ele>177.0</ele><time>2026-05-02T09:17:32.268Z</time></trkpt><trkpt lat="45.7944854" lon="13.6414231"><ele>177.0</ele><time>2026-05-02T09:17:34.268Z</time></trkpt><trkpt lat="45.7945865" lon="13.6413432"><ele>177.0</ele><time>2026-05-02T09:17:36.268Z</time></trkpt><trkpt lat="45.7946354" lon="13.6412753"><ele>177.0</ele><time>2026-05-02T09:17:37.268Z</time></trkpt><trkpt lat="45.7946787" lon="13.6411904"><ele>177.0</ele><time>2026-05-02T09:17:38.268Z</time></trkpt><trkpt lat="45.7947091" lon="13.6410924"><ele>177.16666666666666</ele><time>2026-05-02T09:17:39.268Z</time></trkpt><trkpt lat="45.7947349" lon="13.6409937"><ele>177.33333333333334</ele><time>2026-05-02T09:17:40.268Z</time></trkpt><trkpt lat="45.7947651" lon="13.6409005"><ele>177.5</ele><time>2026-05-02T09:17:41.269Z</time></trkpt><trkpt lat="45.7948188" lon="13.6408161"><ele>177.66666666666669</ele><time>2026-05-02T09:17:42.268Z</time></trkpt><trkpt lat="45.7948785" lon="13.64074"><ele>177.83333333333334</ele><time>2026-05-02T09:17:43.268Z</time></trkpt><trkpt lat="45.7949393" lon="13.6406581"><ele>178.0</ele><time>2026-05-02T09:17:44.268Z</time></trkpt><trkpt lat="45.7949965" lon="13.6405773"><ele>178.0</ele><time>2026-05-02T09:17:45.269Z</time></trkpt><trkpt lat="45.7950586" lon="13.640506"><ele>178.0</ele><time>2026-05-02T09:17:46.268Z</time></trkpt><trkpt lat="45.7951303" lon="13.6404473"><ele>178.0</ele><time>2026-05-02T09:17:47.268Z</time></trkpt><trkpt lat="45.7952" lon="13.640406"><ele>178.0</ele><time>2026-05-02T09:17:48.268Z</time></trkpt><trkpt lat="45.7952955" lon="13.6403629"><ele>178.0</ele><time>2026-05-02T09:17:50.268Z</time></trkpt><trkpt lat="45.7953564" lon="13.6403269"><ele>178.0</ele><time>2026-05-02T09:17:53.268Z</time></trkpt><trkpt lat="45.795428" lon="13.6402828"><ele>177.66666666666669</ele><time>2026-05-02T09:17:57.268Z</time></trkpt><trkpt lat="45.7954842" lon="13.640238"><ele>177.33333333333334</ele><time>2026-05-02T09:17:59.284Z</time></trkpt><trkpt lat="45.7955753" lon="13.6401801"><ele>177.0</ele><time>2026-05-02T09:18:01.268Z</time></trkpt><trkpt lat="45.7956637" lon="13.6401862"><ele>176.66666666666666</ele><time>2026-05-02T09:18:03.268Z</time></trkpt><trkpt lat="45.7957822" lon="13.640214"><ele>176.33333333333331</ele><time>2026-05-02T09:18:05.268Z</time></trkpt><trkpt lat="45.7958487" lon="13.6402301"><ele>176.0</ele><time>2026-05-02T09:18:06.268Z</time></trkpt><trkpt lat="45.7959126" lon="13.6402563"><ele>176.0</ele><time>2026-05-02T09:18:07.268Z</time></trkpt><trkpt lat="45.7959744" lon="13.6402736"><ele>176.0</ele><time>2026-05-02T09:18:08.268Z</time></trkpt><trkpt lat="45.7960904" lon="13.6402714"><ele>176.0</ele><time>2026-05-02T09:18:10.269Z</time></trkpt><trkpt lat="45.7961606" lon="13.6402504"><ele>176.0</ele><time>2026-05-02T09:18:11.268Z</time></trkpt><trkpt lat="45.7962366" lon="13.64023"><ele>176.0</ele><time>2026-05-02T09:18:12.268Z</time></trkpt><trkpt lat="45.796305" lon="13.6402176"><ele>176.0</ele><time>2026-05-02T09:18:13.268Z</time></trkpt><trkpt lat="45.7963715" lon="13.6402086"><ele>176.0</ele><time>2026-05-02T09:18:14.268Z</time></trkpt><trkpt lat="45.7964809" lon="13.6401946"><ele>176.0</ele><time>2026-05-02T09:18:16.268Z</time></trkpt><trkpt lat="45.7965935" lon="13.640249"><ele>176.0</ele><time>2026-05-02T09:18:18.268Z</time></trkpt><trkpt lat="45.7967051" lon="13.6402821"><ele>176.0</ele><time>2026-05-02T09:18:20.268Z</time></trkpt><trkpt lat="45.7968125" lon="13.6402971"><ele>175.60000000000002</ele><time>2026-05-02T09:18:22.268Z</time></trkpt><trkpt lat="45.7969023" lon="13.6403714"><ele>175.2</ele><time>2026-05-02T09:18:24.268Z</time></trkpt><trkpt lat="45.7969585" lon="13.6405134"><ele>174.8</ele><time>2026-05-02T09:18:26.269Z</time></trkpt><trkpt lat="45.7970128" lon="13.6406364"><ele>174.39999999999998</ele><time>2026-05-02T09:18:28.268Z</time></trkpt><trkpt lat="45.7970653" lon="13.6407782"><ele>174.0</ele><time>2026-05-02T09:18:30.268Z</time></trkpt><trkpt lat="45.7971397" lon="13.6408815"><ele>174.0</ele><time>2026-05-02T09:18:32.268Z</time></trkpt><trkpt lat="45.7972424" lon="13.6409327"><ele>174.0</ele><time>2026-05-02T09:18:34.268Z</time></trkpt><trkpt lat="45.7973075" lon="13.6409373"><ele>174.0</ele><time>2026-05-02T09:18:35.268Z</time></trkpt><trkpt lat="45.797417" lon="13.6408793"><ele>174.0</ele><time>2026-05-02T09:18:37.268Z</time></trkpt><trkpt lat="45.7975047" lon="13.6407727"><ele>174.0</ele><time>2026-05-02T09:18:39.268Z</time></trkpt><trkpt lat="45.7975988" lon="13.6406624"><ele>174.0</ele><time>2026-05-02T09:18:41.268Z</time></trkpt><trkpt lat="45.7976593" lon="13.640622"><ele>174.0</ele><time>2026-05-02T09:18:42.268Z</time></trkpt><trkpt lat="45.7977254" lon="13.6405831"><ele>174.0</ele><time>2026-05-02T09:18:43.268Z</time></trkpt><trkpt lat="45.7977967" lon="13.6405548"><ele>174.0</ele><time>2026-05-02T09:18:44.268Z</time></trkpt><trkpt lat="45.797868" lon="13.6405296"><ele>174.0</ele><time>2026-05-02T09:18:45.269Z</time></trkpt><trkpt lat="45.7979744" lon="13.6404781"><ele>174.0</ele><time>2026-05-02T09:18:47.268Z</time></trkpt><trkpt lat="45.7980795" lon="13.6404187"><ele>173.6</ele><time>2026-05-02T09:18:49.268Z</time></trkpt><trkpt lat="45.798182" lon="13.6403928"><ele>173.2</ele><time>2026-05-02T09:18:51.268Z</time></trkpt><trkpt lat="45.7983175" lon="13.6403904"><ele>172.79999999999998</ele><time>2026-05-02T09:18:53.269Z</time></trkpt><trkpt lat="45.79839" lon="13.640404"><ele>172.39999999999998</ele><time>2026-05-02T09:18:54.269Z</time></trkpt><trkpt lat="45.7984621" lon="13.6404319"><ele>172.0</ele><time>2026-05-02T09:18:55.268Z</time></trkpt><trkpt lat="45.7985288" lon="13.6404633"><ele>170.6</ele><time>2026-05-02T09:18:56.268Z</time></trkpt><trkpt lat="45.7986389" lon="13.6405045"><ele>169.2</ele><time>2026-05-02T09:18:58.268Z</time></trkpt><trkpt lat="45.7987522" lon="13.6404944"><ele>167.8</ele><time>2026-05-02T09:19:00.268Z</time></trkpt><trkpt lat="45.7988696" lon="13.6404236"><ele>166.4</ele><time>2026-05-02T09:19:02.268Z</time></trkpt><trkpt lat="45.7989332" lon="13.6403782"><ele>165.0</ele><time>2026-05-02T09:19:03.268Z</time></trkpt><trkpt lat="45.7989925" lon="13.6403305"><ele>164.71428571428572</ele><time>2026-05-02T09:19:04.269Z</time></trkpt><trkpt lat="45.7990524" lon="13.640275"><ele>164.42857142857144</ele><time>2026-05-02T09:19:05.268Z</time></trkpt><trkpt lat="45.7991193" lon="13.6402245"><ele>164.14285714285717</ele><time>2026-05-02T09:19:06.268Z</time></trkpt><trkpt lat="45.7991879" lon="13.6401776"><ele>163.85714285714286</ele><time>2026-05-02T09:19:07.268Z</time></trkpt><trkpt lat="45.7992539" lon="13.6401307"><ele>163.57142857142856</ele><time>2026-05-02T09:19:08.269Z</time></trkpt><trkpt lat="45.7993209" lon="13.640085"><ele>163.2857142857143</ele><time>2026-05-02T09:19:09.269Z</time></trkpt><trkpt lat="45.7993921" lon="13.6400418"><ele>163.0</ele><time>2026-05-02T09:19:10.268Z</time></trkpt><trkpt lat="45.7994642" lon="13.6399912"><ele>163.0</ele><time>2026-05-02T09:19:11.268Z</time></trkpt><trkpt lat="45.7995344" lon="13.6399362"><ele>163.0</ele><time>2026-05-02T09:19:12.268Z</time></trkpt><trkpt lat="45.7996012" lon="13.6398773"><ele>163.0</ele><time>2026-05-02T09:19:13.268Z</time></trkpt><trkpt lat="45.7996649" lon="13.6398206"><ele>163.0</ele><time>2026-05-02T09:19:14.268Z</time></trkpt><trkpt lat="45.7997219" lon="13.6397651"><ele>163.0</ele><time>2026-05-02T09:19:15.268Z</time></trkpt><trkpt lat="45.7997802" lon="13.6397061"><ele>163.0</ele><time>2026-05-02T09:19:16.268Z</time></trkpt><trkpt lat="45.7998404" lon="13.6396572"><ele>163.0</ele><time>2026-05-02T09:19:17.268Z</time></trkpt><trkpt lat="45.7999033" lon="13.639627"><ele>163.0</ele><time>2026-05-02T09:19:18.268Z</time></trkpt><trkpt lat="45.7999689" lon="13.6396076"><ele>163.0</ele><time>2026-05-02T09:19:19.268Z</time></trkpt><trkpt lat="45.8000897" lon="13.6395733"><ele>163.0</ele><time>2026-05-02T09:19:21.268Z</time></trkpt><trkpt lat="45.8002042" lon="13.6395108"><ele>163.0</ele><time>2026-05-02T09:19:23.268Z</time></trkpt><trkpt lat="45.8002986" lon="13.6394862"><ele>163.0</ele><time>2026-05-02T09:19:25.268Z</time></trkpt><trkpt lat="45.8003865" lon="13.6395174"><ele>161.6</ele><time>2026-05-02T09:19:27.268Z</time></trkpt><trkpt lat="45.8004784" lon="13.6395841"><ele>160.20000000000002</ele><time>2026-05-02T09:19:29.268Z</time></trkpt><trkpt lat="45.8005893" lon="13.6396636"><ele>158.8</ele><time>2026-05-02T09:19:31.268Z</time></trkpt><trkpt lat="45.8006473" lon="13.6397172"><ele>157.4</ele><time>2026-05-02T09:19:32.268Z</time></trkpt><trkpt lat="45.8006966" lon="13.639777"><ele>156.0</ele><time>2026-05-02T09:19:33.268Z</time></trkpt><trkpt lat="45.8007964" lon="13.6398718"><ele>156.0</ele><time>2026-05-02T09:19:35.268Z</time></trkpt><trkpt lat="45.8008592" lon="13.639905"><ele>156.0</ele><time>2026-05-02T09:19:36.268Z</time></trkpt><trkpt lat="45.8009272" lon="13.6399185"><ele>156.0</ele><time>2026-05-02T09:19:37.268Z</time></trkpt><trkpt lat="45.8010049" lon="13.6399244"><ele>156.0</ele><time>2026-05-02T09:19:38.268Z</time></trkpt><trkpt lat="45.801079" lon="13.6399295"><ele>156.0</ele><time>2026-05-02T09:19:39.268Z</time></trkpt><trkpt lat="45.8011485" lon="13.6399372"><ele>156.0</ele><time>2026-05-02T09:19:40.268Z</time></trkpt><trkpt lat="45.8012139" lon="13.6399444"><ele>156.0</ele><time>2026-05-02T09:19:41.268Z</time></trkpt><trkpt lat="45.8013302" lon="13.6399411"><ele>155.16666666666666</ele><time>2026-05-02T09:19:43.268Z</time></trkpt><trkpt lat="45.8014417" lon="13.6400071"><ele>154.33333333333334</ele><time>2026-05-02T09:19:45.268Z</time></trkpt><trkpt lat="45.8014934" lon="13.640063"><ele>153.5</ele><time>2026-05-02T09:19:46.268Z</time></trkpt><trkpt lat="45.8015394" lon="13.6401257"><ele>152.66666666666669</ele><time>2026-05-02T09:19:47.268Z</time></trkpt><trkpt lat="45.8015865" lon="13.640187"><ele>151.83333333333334</ele><time>2026-05-02T09:19:48.268Z</time></trkpt><trkpt lat="45.80168" lon="13.6402878"><ele>151.0</ele><time>2026-05-02T09:19:50.268Z</time></trkpt><trkpt lat="45.801734" lon="13.6403351"><ele>151.0</ele><time>2026-05-02T09:19:51.269Z</time></trkpt><trkpt lat="45.8017795" lon="13.6404012"><ele>151.0</ele><time>2026-05-02T09:19:52.268Z</time></trkpt><trkpt lat="45.8018221" lon="13.6404741"><ele>151.0</ele><time>2026-05-02T09:19:53.268Z</time></trkpt><trkpt lat="45.8019084" lon="13.6406059"><ele>151.0</ele><time>2026-05-02T09:19:55.268Z</time></trkpt><trkpt lat="45.8019567" lon="13.6406727"><ele>151.0</ele><time>2026-05-02T09:19:56.268Z</time></trkpt><trkpt lat="45.8020477" lon="13.6407915"><ele>151.0</ele><time>2026-05-02T09:19:58.268Z</time></trkpt><trkpt lat="45.8021119" lon="13.6409216"><ele>149.6</ele><time>2026-05-02T09:20:00.268Z</time></trkpt><trkpt lat="45.8021557" lon="13.641061"><ele>148.2</ele><time>2026-05-02T09:20:02.268Z</time></trkpt><trkpt lat="45.8022077" lon="13.6412065"><ele>146.8</ele><time>2026-05-02T09:20:04.268Z</time></trkpt><trkpt lat="45.8022582" lon="13.6412698"><ele>145.4</ele><time>2026-05-02T09:20:05.268Z</time></trkpt><trkpt lat="45.802319" lon="13.6413165"><ele>144.0</ele><time>2026-05-02T09:20:06.268Z</time></trkpt><trkpt lat="45.8024468" lon="13.6413541"><ele>144.0</ele><time>2026-05-02T09:20:08.268Z</time></trkpt><trkpt lat="45.8025177" lon="13.6413803"><ele>144.0</ele><time>2026-05-02T09:20:09.268Z</time></trkpt><trkpt lat="45.8025792" lon="13.6414148"><ele>144.0</ele><time>2026-05-02T09:20:10.269Z</time></trkpt><trkpt lat="45.8026469" lon="13.641469"><ele>144.0</ele><time>2026-05-02T09:20:11.268Z</time></trkpt><trkpt lat="45.8027104" lon="13.6415327"><ele>144.0</ele><time>2026-05-02T09:20:12.268Z</time></trkpt><trkpt lat="45.8027716" lon="13.6415912"><ele>144.0</ele><time>2026-05-02T09:20:13.268Z</time></trkpt><trkpt lat="45.8028732" lon="13.6416874"><ele>142.2</ele><time>2026-05-02T09:20:15.268Z</time></trkpt><trkpt lat="45.8029739" lon="13.6417768"><ele>140.4</ele><time>2026-05-02T09:20:17.268Z</time></trkpt><trkpt lat="45.803058" lon="13.6418351"><ele>138.6</ele><time>2026-05-02T09:20:19.268Z</time></trkpt><trkpt lat="45.8031477" lon="13.641848"><ele>136.8</ele><time>2026-05-02T09:20:21.268Z</time></trkpt><trkpt lat="45.8032435" lon="13.6418314"><ele>135.0</ele><time>2026-05-02T09:20:23.268Z</time></trkpt><trkpt lat="45.8033274" lon="13.6417383"><ele>135.0</ele><time>2026-05-02T09:20:25.268Z</time></trkpt><trkpt lat="45.8033571" lon="13.6415985"><ele>135.0</ele><time>2026-05-02T09:20:27.268Z</time></trkpt><trkpt lat="45.8033731" lon="13.6414513"><ele>135.0</ele><time>2026-05-02T09:20:29.268Z</time></trkpt><trkpt lat="45.8033943" lon="13.6412804"><ele>135.0</ele><time>2026-05-02T09:20:31.269Z</time></trkpt><trkpt lat="45.8034056" lon="13.6411103"><ele>135.0</ele><time>2026-05-02T09:20:33.268Z</time></trkpt><trkpt lat="45.8034085" lon="13.6410179"><ele>134.5</ele><time>2026-05-02T09:20:34.268Z</time></trkpt><trkpt lat="45.803417" lon="13.6409141"><ele>134.0</ele><time>2026-05-02T09:20:35.268Z</time></trkpt><trkpt lat="45.8034312" lon="13.6408149"><ele>133.5</ele><time>2026-05-02T09:20:36.268Z</time></trkpt><trkpt lat="45.803452" lon="13.6407089"><ele>133.0</ele><time>2026-05-02T09:20:37.268Z</time></trkpt><trkpt lat="45.8034723" lon="13.6405931"><ele>132.5</ele><time>2026-05-02T09:20:38.268Z</time></trkpt><trkpt lat="45.8034913" lon="13.6404782"><ele>132.0</ele><time>2026-05-02T09:20:39.268Z</time></trkpt><trkpt lat="45.8035137" lon="13.6403576"><ele>130.5</ele><time>2026-05-02T09:20:40.268Z</time></trkpt><trkpt lat="45.8035427" lon="13.6402473"><ele>129.0</ele><time>2026-05-02T09:20:41.268Z</time></trkpt><trkpt lat="45.8035708" lon="13.6401604"><ele>127.5</ele><time>2026-05-02T09:20:42.268Z</time></trkpt><trkpt lat="45.8036149" lon="13.6400107"><ele>126.0</ele><time>2026-05-02T09:20:44.268Z</time></trkpt><trkpt lat="45.8036284" lon="13.6398484"><ele>124.5</ele><time>2026-05-02T09:20:46.268Z</time></trkpt><trkpt lat="45.8036365" lon="13.6397493"><ele>123.0</ele><time>2026-05-02T09:20:47.269Z</time></trkpt><trkpt lat="45.8036544" lon="13.6396522"><ele>123.0</ele><time>2026-05-02T09:20:48.268Z</time></trkpt><trkpt lat="45.8036867" lon="13.6395555"><ele>123.0</ele><time>2026-05-02T09:20:49.268Z</time></trkpt><trkpt lat="45.8037398" lon="13.6394613"><ele>123.0</ele><time>2026-05-02T09:20:50.268Z</time></trkpt><trkpt lat="45.8037997" lon="13.6393711"><ele>123.0</ele><time>2026-05-02T09:20:51.268Z</time></trkpt><trkpt lat="45.803858" lon="13.6392752"><ele>123.0</ele><time>2026-05-02T09:20:52.268Z</time></trkpt><trkpt lat="45.8039107" lon="13.6391617"><ele>123.0</ele><time>2026-05-02T09:20:53.268Z</time></trkpt><trkpt lat="45.8039556" lon="13.6390462"><ele>123.00000000000001</ele><time>2026-05-02T09:20:54.268Z</time></trkpt><trkpt lat="45.8039964" lon="13.63894"><ele>123.0</ele><time>2026-05-02T09:20:55.268Z</time></trkpt><trkpt lat="45.8040331" lon="13.6388405"><ele>123.00000000000001</ele><time>2026-05-02T09:20:56.268Z</time></trkpt><trkpt lat="45.8040649" lon="13.6387425"><ele>123.00000000000001</ele><time>2026-05-02T09:20:57.269Z</time></trkpt><trkpt lat="45.8040877" lon="13.6386557"><ele>123.0</ele><time>2026-05-02T09:20:58.268Z</time></trkpt><trkpt lat="45.8040972" lon="13.6385617"><ele>123.00000000000001</ele><time>2026-05-02T09:20:59.268Z</time></trkpt><trkpt lat="45.8040996" lon="13.6384646"><ele>123.00000000000001</ele><time>2026-05-02T09:21:00.268Z</time></trkpt><trkpt lat="45.8040878" lon="13.6383414"><ele>123.0</ele><time>2026-05-02T09:21:01.268Z</time></trkpt><trkpt lat="45.8040762" lon="13.6382222"><ele>123.0</ele><time>2026-05-02T09:21:02.268Z</time></trkpt><trkpt lat="45.804074" lon="13.6381005"><ele>123.0</ele><time>2026-05-02T09:21:03.269Z</time></trkpt><trkpt lat="45.8040797" lon="13.6379702"><ele>123.0</ele><time>2026-05-02T09:21:04.268Z</time></trkpt><trkpt lat="45.8040961" lon="13.6378442"><ele>123.0</ele><time>2026-05-02T09:21:05.268Z</time></trkpt><trkpt lat="45.8041133" lon="13.6377235"><ele>123.0</ele><time>2026-05-02T09:21:06.268Z</time></trkpt><trkpt lat="45.804127" lon="13.6376174"><ele>123.0</ele><time>2026-05-02T09:21:07.268Z</time></trkpt><trkpt lat="45.8041584" lon="13.637452"><ele>123.0</ele><time>2026-05-02T09:21:09.268Z</time></trkpt><trkpt lat="45.8041944" lon="13.6372926"><ele>123.0</ele><time>2026-05-02T09:21:11.268Z</time></trkpt><trkpt lat="45.8042248" lon="13.637145"><ele>123.0</ele><time>2026-05-02T09:21:13.268Z</time></trkpt><trkpt lat="45.8042343" lon="13.6369906"><ele>122.83333333333333</ele><time>2026-05-02T09:21:15.268Z</time></trkpt><trkpt lat="45.8042448" lon="13.6368911"><ele>122.66666666666666</ele><time>2026-05-02T09:21:16.268Z</time></trkpt><trkpt lat="45.8042669" lon="13.6367256"><ele>122.5</ele><time>2026-05-02T09:21:18.268Z</time></trkpt><trkpt lat="45.8043377" lon="13.6365959"><ele>122.33333333333333</ele><time>2026-05-02T09:21:20.268Z</time></trkpt><trkpt lat="45.8044005" lon="13.6365555"><ele>122.16666666666666</ele><time>2026-05-02T09:21:21.268Z</time></trkpt><trkpt lat="45.8044703" lon="13.6365305"><ele>122.0</ele><time>2026-05-02T09:21:22.269Z</time></trkpt><trkpt lat="45.8045439" lon="13.6365096"><ele>120.66666666666666</ele><time>2026-05-02T09:21:23.268Z</time></trkpt><trkpt lat="45.8046145" lon="13.636492"><ele>119.33333333333333</ele><time>2026-05-02T09:21:24.268Z</time></trkpt><trkpt lat="45.8046839" lon="13.6364743"><ele>118.0</ele><time>2026-05-02T09:21:25.268Z</time></trkpt><trkpt lat="45.8047482" lon="13.6364572"><ele>116.66666666666666</ele><time>2026-05-02T09:21:26.268Z</time></trkpt><trkpt lat="45.8048682" lon="13.6364369"><ele>115.33333333333333</ele><time>2026-05-02T09:21:28.269Z</time></trkpt><trkpt lat="45.8049869" lon="13.6364029"><ele>114.0</ele><time>2026-05-02T09:21:30.268Z</time></trkpt><trkpt lat="45.8050871" lon="13.6363135"><ele>114.0</ele><time>2026-05-02T09:21:32.268Z</time></trkpt><trkpt lat="45.8051534" lon="13.6361669"><ele>114.0</ele><time>2026-05-02T09:21:34.268Z</time></trkpt><trkpt lat="45.8051901" lon="13.6360796"><ele>114.0</ele><time>2026-05-02T09:21:35.268Z</time></trkpt><trkpt lat="45.80524" lon="13.6359914"><ele>114.0</ele><time>2026-05-02T09:21:36.268Z</time></trkpt><trkpt lat="45.8052863" lon="13.635916"><ele>114.0</ele><time>2026-05-02T09:21:37.268Z</time></trkpt><trkpt lat="45.8053668" lon="13.6357956"><ele>113.0</ele><time>2026-05-02T09:21:39.268Z</time></trkpt><trkpt lat="45.8054619" lon="13.6357045"><ele>112.0</ele><time>2026-05-02T09:21:41.268Z</time></trkpt><trkpt lat="45.8055353" lon="13.6356697"><ele>111.0</ele><time>2026-05-02T09:21:42.268Z</time></trkpt><trkpt lat="45.8056202" lon="13.6356399"><ele>110.0</ele><time>2026-05-02T09:21:43.268Z</time></trkpt><trkpt lat="45.80571" lon="13.6356155"><ele>109.0</ele><time>2026-05-02T09:21:44.268Z</time></trkpt><trkpt lat="45.8057975" lon="13.635584"><ele>109.00000000000001</ele><time>2026-05-02T09:21:45.268Z</time></trkpt><trkpt lat="45.8058767" lon="13.6355527"><ele>109.0</ele><time>2026-05-02T09:21:46.268Z</time></trkpt><trkpt lat="45.8059535" lon="13.6355261"><ele>109.0</ele><time>2026-05-02T09:21:47.268Z</time></trkpt><trkpt lat="45.8060206" lon="13.6355042"><ele>109.0</ele><time>2026-05-02T09:21:48.268Z</time></trkpt><trkpt lat="45.8060885" lon="13.6354819"><ele>109.00000000000001</ele><time>2026-05-02T09:21:49.268Z</time></trkpt><trkpt lat="45.8061523" lon="13.6354602"><ele>109.0</ele><time>2026-05-02T09:21:50.268Z</time></trkpt><trkpt lat="45.8062716" lon="13.6354072"><ele>108.50000000000001</ele><time>2026-05-02T09:21:52.269Z</time></trkpt><trkpt lat="45.80635" lon="13.6353375"><ele>108.0</ele><time>2026-05-02T09:21:54.268Z</time></trkpt><trkpt lat="45.8063881" lon="13.6352437"><ele>107.5</ele><time>2026-05-02T09:21:56.269Z</time></trkpt><trkpt lat="45.8064143" lon="13.6350901"><ele>107.0</ele><time>2026-05-02T09:21:58.268Z</time></trkpt><trkpt lat="45.8064522" lon="13.6349992"><ele>106.50000000000001</ele><time>2026-05-02T09:21:59.268Z</time></trkpt><trkpt lat="45.8065131" lon="13.634904"><ele>106.0</ele><time>2026-05-02T09:22:00.268Z</time></trkpt><trkpt lat="45.8065915" lon="13.6348123"><ele>106.0</ele><time>2026-05-02T09:22:01.268Z</time></trkpt><trkpt lat="45.8066746" lon="13.6347354"><ele>106.0</ele><time>2026-05-02T09:22:02.268Z</time></trkpt><trkpt lat="45.8067564" lon="13.634668"><ele>106.0</ele><time>2026-05-02T09:22:03.268Z</time></trkpt><trkpt lat="45.8068341" lon="13.6346039"><ele>106.0</ele><time>2026-05-02T09:22:04.269Z</time></trkpt><trkpt lat="45.8069139" lon="13.6345396"><ele>106.0</ele><time>2026-05-02T09:22:05.268Z</time></trkpt><trkpt lat="45.8069967" lon="13.6344749"><ele>105.50000000000001</ele><time>2026-05-02T09:22:06.268Z</time></trkpt><trkpt lat="45.8070786" lon="13.6344096"><ele>105.0</ele><time>2026-05-02T09:22:07.268Z</time></trkpt><trkpt lat="45.8071555" lon="13.6343483"><ele>104.5</ele><time>2026-05-02T09:22:08.268Z</time></trkpt><trkpt lat="45.8072281" lon="13.6342877"><ele>104.0</ele><time>2026-05-02T09:22:09.268Z</time></trkpt><trkpt lat="45.8073024" lon="13.6342382"><ele>103.50000000000001</ele><time>2026-05-02T09:22:10.268Z</time></trkpt><trkpt lat="45.8073764" lon="13.6342013"><ele>103.0</ele><time>2026-05-02T09:22:11.268Z</time></trkpt><trkpt lat="45.8074458" lon="13.634171"><ele>103.00000000000001</ele><time>2026-05-02T09:22:12.268Z</time></trkpt><trkpt lat="45.8075081" lon="13.6341455"><ele>103.0</ele><time>2026-05-02T09:22:13.268Z</time></trkpt><trkpt lat="45.8076208" lon="13.6340844"><ele>103.0</ele><time>2026-05-02T09:22:15.268Z</time></trkpt><trkpt lat="45.8076776" lon="13.6340315"><ele>103.0</ele><time>2026-05-02T09:22:16.268Z</time></trkpt><trkpt lat="45.8077374" lon="13.6339677"><ele>103.00000000000001</ele><time>2026-05-02T09:22:17.268Z</time></trkpt><trkpt lat="45.8077932" lon="13.6339126"><ele>103.0</ele><time>2026-05-02T09:22:18.268Z</time></trkpt><trkpt lat="45.8078777" lon="13.6337702"><ele>102.50000000000001</ele><time>2026-05-02T09:22:20.268Z</time></trkpt><trkpt lat="45.807905" lon="13.6336774"><ele>102.0</ele><time>2026-05-02T09:22:21.268Z</time></trkpt><trkpt lat="45.8079296" lon="13.6335882"><ele>101.5</ele><time>2026-05-02T09:22:22.268Z</time></trkpt><trkpt lat="45.8079486" lon="13.6334842"><ele>101.0</ele><time>2026-05-02T09:22:23.268Z</time></trkpt><trkpt lat="45.8079648" lon="13.6333681"><ele>100.50000000000001</ele><time>2026-05-02T09:22:24.268Z</time></trkpt><trkpt lat="45.8079851" lon="13.6332596"><ele>100.0</ele><time>2026-05-02T09:22:25.268Z</time></trkpt><trkpt lat="45.8080135" lon="13.6331463"><ele>99.83333333333334</ele><time>2026-05-02T09:22:26.268Z</time></trkpt><trkpt lat="45.8080494" lon="13.6330423"><ele>99.66666666666667</ele><time>2026-05-02T09:22:27.268Z</time></trkpt><trkpt lat="45.8080883" lon="13.6329517"><ele>99.5</ele><time>2026-05-02T09:22:28.268Z</time></trkpt><trkpt lat="45.8081185" lon="13.6328602"><ele>99.33333333333334</ele><time>2026-05-02T09:22:29.268Z</time></trkpt><trkpt lat="45.8081366" lon="13.6327646"><ele>99.16666666666667</ele><time>2026-05-02T09:22:30.268Z</time></trkpt><trkpt lat="45.8081453" lon="13.6326732"><ele>99.0</ele><time>2026-05-02T09:22:31.268Z</time></trkpt><trkpt lat="45.8081338" lon="13.6324939"><ele>98.71428571428572</ele><time>2026-05-02T09:22:33.268Z</time></trkpt><trkpt lat="45.8081127" lon="13.6323883"><ele>98.42857142857142</ele><time>2026-05-02T09:22:34.268Z</time></trkpt><trkpt lat="45.8080918" lon="13.632294"><ele>98.14285714285714</ele><time>2026-05-02T09:22:35.268Z</time></trkpt><trkpt lat="45.8080717" lon="13.6322008"><ele>97.85714285714286</ele><time>2026-05-02T09:22:36.268Z</time></trkpt><trkpt lat="45.8080542" lon="13.6320977"><ele>97.57142857142858</ele><time>2026-05-02T09:22:37.268Z</time></trkpt><trkpt lat="45.8080444" lon="13.6319875"><ele>97.28571428571428</ele><time>2026-05-02T09:22:38.268Z</time></trkpt><trkpt lat="45.8080626" lon="13.6318769"><ele>97.0</ele><time>2026-05-02T09:22:39.268Z</time></trkpt><trkpt lat="45.8080913" lon="13.6317591"><ele>96.6</ele><time>2026-05-02T09:22:40.269Z</time></trkpt><trkpt lat="45.8081255" lon="13.631628"><ele>96.19999999999999</ele><time>2026-05-02T09:22:41.268Z</time></trkpt><trkpt lat="45.8081615" lon="13.6314937"><ele>95.8</ele><time>2026-05-02T09:22:42.268Z</time></trkpt><trkpt lat="45.8081953" lon="13.6313583"><ele>95.4</ele><time>2026-05-02T09:22:43.268Z</time></trkpt><trkpt lat="45.808231" lon="13.6312259"><ele>95.0</ele><time>2026-05-02T09:22:44.268Z</time></trkpt><trkpt lat="45.8082568" lon="13.6310946"><ele>94.83333333333334</ele><time>2026-05-02T09:22:45.268Z</time></trkpt><trkpt lat="45.8082794" lon="13.6309608"><ele>94.66666666666667</ele><time>2026-05-02T09:22:46.268Z</time></trkpt><trkpt lat="45.808303" lon="13.6308263"><ele>94.5</ele><time>2026-05-02T09:22:47.269Z</time></trkpt><trkpt lat="45.8083224" lon="13.6306995"><ele>94.33333333333333</ele><time>2026-05-02T09:22:48.268Z</time></trkpt><trkpt lat="45.8083412" lon="13.6305785"><ele>94.16666666666666</ele><time>2026-05-02T09:22:49.268Z</time></trkpt><trkpt lat="45.8083561" lon="13.6304765"><ele>94.0</ele><time>2026-05-02T09:22:50.268Z</time></trkpt><trkpt lat="45.8083741" lon="13.6303143"><ele>94.0</ele><time>2026-05-02T09:22:52.268Z</time></trkpt><trkpt lat="45.8084199" lon="13.6301667"><ele>94.0</ele><time>2026-05-02T09:22:54.268Z</time></trkpt><trkpt lat="45.8084756" lon="13.6301149"><ele>94.0</ele><time>2026-05-02T09:22:55.268Z</time></trkpt><trkpt lat="45.8085419" lon="13.6300578"><ele>94.0</ele><time>2026-05-02T09:22:56.268Z</time></trkpt><trkpt lat="45.8086133" lon="13.6300034"><ele>94.0</ele><time>2026-05-02T09:22:57.268Z</time></trkpt><trkpt lat="45.8086871" lon="13.6299684"><ele>94.0</ele><time>2026-05-02T09:22:58.268Z</time></trkpt><trkpt lat="45.8087638" lon="13.6299526"><ele>93.83333333333333</ele><time>2026-05-02T09:22:59.269Z</time></trkpt><trkpt lat="45.8088415" lon="13.6299601"><ele>93.66666666666666</ele><time>2026-05-02T09:23:00.268Z</time></trkpt><trkpt lat="45.8089238" lon="13.6299872"><ele>93.5</ele><time>2026-05-02T09:23:01.268Z</time></trkpt><trkpt lat="45.8090128" lon="13.6300154"><ele>93.33333333333333</ele><time>2026-05-02T09:23:02.268Z</time></trkpt><trkpt lat="45.8090998" lon="13.6300289"><ele>93.16666666666667</ele><time>2026-05-02T09:23:03.268Z</time></trkpt><trkpt lat="45.8091781" lon="13.630036"><ele>93.0</ele><time>2026-05-02T09:23:04.268Z</time></trkpt><trkpt lat="45.8092494" lon="13.6300454"><ele>93.0</ele><time>2026-05-02T09:23:05.268Z</time></trkpt><trkpt lat="45.8093185" lon="13.6300657"><ele>93.0</ele><time>2026-05-02T09:23:06.268Z</time></trkpt><trkpt lat="45.8093825" lon="13.6300866"><ele>93.0</ele><time>2026-05-02T09:23:07.268Z</time></trkpt><trkpt lat="45.8094909" lon="13.6301203"><ele>93.0</ele><time>2026-05-02T09:23:09.268Z</time></trkpt><trkpt lat="45.8096069" lon="13.6301419"><ele>93.0</ele><time>2026-05-02T09:23:11.268Z</time></trkpt><trkpt lat="45.8097379" lon="13.6301445"><ele>92.4</ele><time>2026-05-02T09:23:13.269Z</time></trkpt><trkpt lat="45.8098091" lon="13.6301533"><ele>91.80000000000001</ele><time>2026-05-02T09:23:14.268Z</time></trkpt><trkpt lat="45.8098772" lon="13.6301735"><ele>91.2</ele><time>2026-05-02T09:23:15.268Z</time></trkpt><trkpt lat="45.8099908" lon="13.6302211"><ele>90.6</ele><time>2026-05-02T09:23:17.268Z</time></trkpt><trkpt lat="45.8101058" lon="13.6302416"><ele>90.0</ele><time>2026-05-02T09:23:19.268Z</time></trkpt><trkpt lat="45.8102295" lon="13.6302358"><ele>88.66666666666667</ele><time>2026-05-02T09:23:21.268Z</time></trkpt><trkpt lat="45.8103021" lon="13.6302431"><ele>87.33333333333333</ele><time>2026-05-02T09:23:22.268Z</time></trkpt><trkpt lat="45.8103731" lon="13.6302473"><ele>86.0</ele><time>2026-05-02T09:23:23.268Z</time></trkpt><trkpt lat="45.8104411" lon="13.6302524"><ele>84.66666666666666</ele><time>2026-05-02T09:23:24.268Z</time></trkpt><trkpt lat="45.8105607" lon="13.6302499"><ele>83.33333333333333</ele><time>2026-05-02T09:23:26.268Z</time></trkpt><trkpt lat="45.8106302" lon="13.6302349"><ele>82.0</ele><time>2026-05-02T09:23:27.269Z</time></trkpt><trkpt lat="45.8107063" lon="13.6302145"><ele>81.99999999999999</ele><time>2026-05-02T09:23:28.268Z</time></trkpt><trkpt lat="45.8107803" lon="13.6301933"><ele>82.0</ele><time>2026-05-02T09:23:29.269Z</time></trkpt><trkpt lat="45.810857" lon="13.6301791"><ele>82.0</ele><time>2026-05-02T09:23:30.269Z</time></trkpt><trkpt lat="45.810937" lon="13.6301712"><ele>82.0</ele><time>2026-05-02T09:23:31.268Z</time></trkpt><trkpt lat="45.8110121" lon="13.6301692"><ele>82.0</ele><time>2026-05-02T09:23:32.268Z</time></trkpt><trkpt lat="45.8110795" lon="13.630161"><ele>81.99999999999999</ele><time>2026-05-02T09:23:33.268Z</time></trkpt><trkpt lat="45.8111515" lon="13.63014"><ele>82.0</ele><time>2026-05-02T09:23:34.268Z</time></trkpt><trkpt lat="45.81123" lon="13.6301031"><ele>80.33333333333333</ele><time>2026-05-02T09:23:35.269Z</time></trkpt><trkpt lat="45.8113105" lon="13.6300539"><ele>78.66666666666666</ele><time>2026-05-02T09:23:36.269Z</time></trkpt><trkpt lat="45.8113947" lon="13.6300018"><ele>77.0</ele><time>2026-05-02T09:23:37.268Z</time></trkpt><trkpt lat="45.8114761" lon="13.6299585"><ele>75.33333333333333</ele><time>2026-05-02T09:23:38.268Z</time></trkpt><trkpt lat="45.8115511" lon="13.6299143"><ele>73.66666666666667</ele><time>2026-05-02T09:23:39.268Z</time></trkpt><trkpt lat="45.8116243" lon="13.6298736"><ele>72.0</ele><time>2026-05-02T09:23:40.268Z</time></trkpt><trkpt lat="45.8117002" lon="13.6298327"><ele>72.0</ele><time>2026-05-02T09:23:41.268Z</time></trkpt><trkpt lat="45.8117813" lon="13.6297838"><ele>72.0</ele><time>2026-05-02T09:23:42.269Z</time></trkpt><trkpt lat="45.8118577" lon="13.6297298"><ele>72.0</ele><time>2026-05-02T09:23:43.269Z</time></trkpt><trkpt lat="45.8119351" lon="13.6296649"><ele>72.0</ele><time>2026-05-02T09:23:44.268Z</time></trkpt><trkpt lat="45.8120091" lon="13.6295965"><ele>72.0</ele><time>2026-05-02T09:23:45.268Z</time></trkpt><trkpt lat="45.8120804" lon="13.6295212"><ele>72.0</ele><time>2026-05-02T09:23:46.268Z</time></trkpt><trkpt lat="45.8121466" lon="13.6294494"><ele>71.66666666666667</ele><time>2026-05-02T09:23:47.268Z</time></trkpt><trkpt lat="45.8122036" lon="13.6293942"><ele>71.33333333333333</ele><time>2026-05-02T09:23:48.268Z</time></trkpt><trkpt lat="45.8122935" lon="13.6292765"><ele>71.0</ele><time>2026-05-02T09:23:50.268Z</time></trkpt><trkpt lat="45.8123303" lon="13.6292013"><ele>70.66666666666666</ele><time>2026-05-02T09:23:51.268Z</time></trkpt><trkpt lat="45.8123639" lon="13.6291068"><ele>70.33333333333333</ele><time>2026-05-02T09:23:52.268Z</time></trkpt><trkpt lat="45.8123938" lon="13.6290012"><ele>70.0</ele><time>2026-05-02T09:23:53.269Z</time></trkpt><trkpt lat="45.8124213" lon="13.6289057"><ele>70.0</ele><time>2026-05-02T09:23:54.269Z</time></trkpt><trkpt lat="45.8124532" lon="13.628818"><ele>70.0</ele><time>2026-05-02T09:23:55.269Z</time></trkpt><trkpt lat="45.8124852" lon="13.6287271"><ele>70.0</ele><time>2026-05-02T09:23:56.268Z</time></trkpt><trkpt lat="45.8125191" lon="13.6286319"><ele>70.0</ele><time>2026-05-02T09:23:57.268Z</time></trkpt><trkpt lat="45.8125518" lon="13.628533"><ele>70.0</ele><time>2026-05-02T09:23:58.268Z</time></trkpt><trkpt lat="45.8125839" lon="13.6284319"><ele>70.0</ele><time>2026-05-02T09:23:59.268Z</time></trkpt><trkpt lat="45.8126131" lon="13.6283223"><ele>70.16666666666666</ele><time>2026-05-02T09:24:00.268Z</time></trkpt><trkpt lat="45.8126336" lon="13.6282017"><ele>70.33333333333333</ele><time>2026-05-02T09:24:01.269Z</time></trkpt><trkpt lat="45.8126512" lon="13.6280743"><ele>70.5</ele><time>2026-05-02T09:24:02.268Z</time></trkpt><trkpt lat="45.812669" lon="13.6279593"><ele>70.66666666666667</ele><time>2026-05-02T09:24:03.268Z</time></trkpt><trkpt lat="45.8126856" lon="13.6278547"><ele>70.83333333333334</ele><time>2026-05-02T09:24:04.268Z</time></trkpt><trkpt lat="45.8126915" lon="13.6277646"><ele>71.0</ele><time>2026-05-02T09:24:05.268Z</time></trkpt><trkpt lat="45.812681" lon="13.6275903"><ele>70.83333333333334</ele><time>2026-05-02T09:24:07.268Z</time></trkpt><trkpt lat="45.8126619" lon="13.6274959"><ele>70.66666666666667</ele><time>2026-05-02T09:24:08.268Z</time></trkpt><trkpt lat="45.8126453" lon="13.6274043"><ele>70.5</ele><time>2026-05-02T09:24:09.268Z</time></trkpt><trkpt lat="45.8126267" lon="13.6272368"><ele>70.33333333333333</ele><time>2026-05-02T09:24:11.268Z</time></trkpt><trkpt lat="45.8126232" lon="13.6271354"><ele>70.16666666666666</ele><time>2026-05-02T09:24:12.268Z</time></trkpt><trkpt lat="45.8126267" lon="13.6270263"><ele>70.0</ele><time>2026-05-02T09:24:13.268Z</time></trkpt><trkpt lat="45.8126315" lon="13.6269116"><ele>69.83333333333333</ele><time>2026-05-02T09:24:14.268Z</time></trkpt><trkpt lat="45.8126381" lon="13.6267999"><ele>69.66666666666666</ele><time>2026-05-02T09:24:15.268Z</time></trkpt><trkpt lat="45.812646" lon="13.6266992"><ele>69.5</ele><time>2026-05-02T09:24:16.268Z</time></trkpt><trkpt lat="45.8126562" lon="13.6265962"><ele>69.33333333333333</ele><time>2026-05-02T09:24:17.268Z</time></trkpt><trkpt lat="45.8126743" lon="13.6264968"><ele>69.16666666666667</ele><time>2026-05-02T09:24:18.268Z</time></trkpt><trkpt lat="45.8126934" lon="13.626408"><ele>69.0</ele><time>2026-05-02T09:24:19.268Z</time></trkpt><trkpt lat="45.8127368" lon="13.6262417"><ele>67.33333333333333</ele><time>2026-05-02T09:24:21.269Z</time></trkpt><trkpt lat="45.8127705" lon="13.6261542"><ele>65.66666666666667</ele><time>2026-05-02T09:24:22.268Z</time></trkpt><trkpt lat="45.8128043" lon="13.626063"><ele>64.0</ele><time>2026-05-02T09:24:23.268Z</time></trkpt><trkpt lat="45.8128294" lon="13.6259788"><ele>62.333333333333336</ele><time>2026-05-02T09:24:24.269Z</time></trkpt><trkpt lat="45.8128795" lon="13.6258364"><ele>60.66666666666667</ele><time>2026-05-02T09:24:26.268Z</time></trkpt><trkpt lat="45.8129501" lon="13.6257041"><ele>59.0</ele><time>2026-05-02T09:24:28.268Z</time></trkpt><trkpt lat="45.8129918" lon="13.6256296"><ele>59.00000000000001</ele><time>2026-05-02T09:24:29.269Z</time></trkpt><trkpt lat="45.8130461" lon="13.625564"><ele>59.0</ele><time>2026-05-02T09:24:30.268Z</time></trkpt><trkpt lat="45.8131235" lon="13.6255273"><ele>59.0</ele><time>2026-05-02T09:24:31.268Z</time></trkpt><trkpt lat="45.8132203" lon="13.625515"><ele>59.0</ele><time>2026-05-02T09:24:32.268Z</time></trkpt><trkpt lat="45.8133151" lon="13.6255062"><ele>59.00000000000001</ele><time>2026-05-02T09:24:33.268Z</time></trkpt><trkpt lat="45.8133948" lon="13.625493"><ele>59.0</ele><time>2026-05-02T09:24:34.268Z</time></trkpt><trkpt lat="45.8134654" lon="13.6254808"><ele>59.0</ele><time>2026-05-02T09:24:35.268Z</time></trkpt><trkpt lat="45.8135322" lon="13.6254746"><ele>59.00000000000001</ele><time>2026-05-02T09:24:36.269Z</time></trkpt><trkpt lat="45.8136162" lon="13.6254418"><ele>59.00000000000001</ele><time>2026-05-02T09:24:38.268Z</time></trkpt><trkpt lat="45.8136688" lon="13.6253561"><ele>59.0</ele><time>2026-05-02T09:24:42.268Z</time></trkpt><trkpt lat="45.8136774" lon="13.6252045"><ele>59.0</ele><time>2026-05-02T09:24:44.268Z</time></trkpt><trkpt lat="45.8137856" lon="13.6251675"><ele>59.50000000000001</ele><time>2026-05-02T09:24:47.268Z</time></trkpt><trkpt lat="45.8138498" lon="13.6251981"><ele>60.0</ele><time>2026-05-02T09:24:49.273Z</time></trkpt><trkpt lat="45.8139275" lon="13.6252139"><ele>60.5</ele><time>2026-05-02T09:24:52.268Z</time></trkpt><trkpt lat="45.8139895" lon="13.6252354"><ele>61.0</ele><time>2026-05-02T09:24:53.268Z</time></trkpt><trkpt lat="45.814068" lon="13.6252714"><ele>61.50000000000001</ele><time>2026-05-02T09:24:54.268Z</time></trkpt><trkpt lat="45.8141397" lon="13.6252915"><ele>62.0</ele><time>2026-05-02T09:24:55.268Z</time></trkpt><trkpt lat="45.8142233" lon="13.6253085"><ele>61.57142857142858</ele><time>2026-05-02T09:24:56.268Z</time></trkpt><trkpt lat="45.8143018" lon="13.6253284"><ele>61.14285714285715</ele><time>2026-05-02T09:24:57.268Z</time></trkpt><trkpt lat="45.8143698" lon="13.6253517"><ele>60.714285714285715</ele><time>2026-05-02T09:24:58.268Z</time></trkpt><trkpt lat="45.8144329" lon="13.6253823"><ele>60.28571428571429</ele><time>2026-05-02T09:24:59.268Z</time></trkpt><trkpt lat="45.8145026" lon="13.6254206"><ele>59.85714285714286</ele><time>2026-05-02T09:25:00.268Z</time></trkpt><trkpt lat="45.8145772" lon="13.6254587"><ele>59.42857142857143</ele><time>2026-05-02T09:25:01.268Z</time></trkpt><trkpt lat="45.8146465" lon="13.6254931"><ele>59.0</ele><time>2026-05-02T09:25:02.268Z</time></trkpt><trkpt lat="45.814715" lon="13.6255237"><ele>60.2</ele><time>2026-05-02T09:25:03.268Z</time></trkpt><trkpt lat="45.8147772" lon="13.625564"><ele>61.400000000000006</ele><time>2026-05-02T09:25:04.268Z</time></trkpt><trkpt lat="45.8148441" lon="13.6256831"><ele>62.6</ele><time>2026-05-02T09:25:06.268Z</time></trkpt><trkpt lat="45.8148688" lon="13.6258262"><ele>63.8</ele><time>2026-05-02T09:25:08.268Z</time></trkpt><trkpt lat="45.814982" lon="13.6258952"><ele>65.0</ele><time>2026-05-02T09:25:10.268Z</time></trkpt><trkpt lat="45.815086" lon="13.6258753"><ele>65.0</ele><time>2026-05-02T09:25:12.268Z</time></trkpt><trkpt lat="45.8151272" lon="13.6259889"><ele>65.0</ele><time>2026-05-02T09:25:22.268Z</time></trkpt><trkpt lat="45.8151045" lon="13.6261102"><ele>65.0</ele><time>2026-05-02T09:25:24.268Z</time></trkpt><trkpt lat="45.8151047" lon="13.6262067"><ele>65.0</ele><time>2026-05-02T09:25:26.301Z</time></trkpt><trkpt lat="45.8151812" lon="13.6262626"><ele>65.0</ele><time>2026-05-02T09:25:28.268Z</time></trkpt><trkpt lat="45.8153118" lon="13.6263123"><ele>68.0</ele><time>2026-05-02T09:25:30.268Z</time></trkpt><trkpt lat="45.8153842" lon="13.6263445"><ele>71.0</ele><time>2026-05-02T09:25:31.269Z</time></trkpt><trkpt lat="45.8154613" lon="13.6263719"><ele>74.0</ele><time>2026-05-02T09:25:32.268Z</time></trkpt><trkpt lat="45.8155434" lon="13.626393"><ele>77.0</ele><time>2026-05-02T09:25:33.268Z</time></trkpt><trkpt lat="45.8156244" lon="13.6264169"><ele>80.0</ele><time>2026-05-02T09:25:34.268Z</time></trkpt><trkpt lat="45.8156993" lon="13.6264659"><ele>83.0</ele><time>2026-05-02T09:25:35.268Z</time></trkpt><trkpt lat="45.8157599" lon="13.6265458"><ele>83.0</ele><time>2026-05-02T09:25:36.268Z</time></trkpt><trkpt lat="45.8158037" lon="13.6266604"><ele>83.0</ele><time>2026-05-02T09:25:37.268Z</time></trkpt><trkpt lat="45.8158413" lon="13.6267998"><ele>83.0</ele><time>2026-05-02T09:25:38.268Z</time></trkpt><trkpt lat="45.8158894" lon="13.6269351"><ele>83.0</ele><time>2026-05-02T09:25:39.269Z</time></trkpt><trkpt lat="45.8159391" lon="13.6270624"><ele>83.0</ele><time>2026-05-02T09:25:40.269Z</time></trkpt><trkpt lat="45.8159868" lon="13.6271748"><ele>89.80000000000001</ele><time>2026-05-02T09:25:41.268Z</time></trkpt><trkpt lat="45.816034" lon="13.6272888"><ele>96.6</ele><time>2026-05-02T09:25:42.268Z</time></trkpt><trkpt lat="45.8160784" lon="13.6274046"><ele>103.39999999999999</ele><time>2026-05-02T09:25:43.268Z</time></trkpt><trkpt lat="45.8161097" lon="13.6275255"><ele>110.19999999999999</ele><time>2026-05-02T09:25:44.268Z</time></trkpt><trkpt lat="45.8161316" lon="13.6276417"><ele>117.0</ele><time>2026-05-02T09:25:45.268Z</time></trkpt><trkpt lat="45.8161989" lon="13.6277604"><ele>117.0</ele><time>2026-05-02T09:25:47.268Z</time></trkpt><trkpt lat="45.8162922" lon="13.6277158"><ele>116.99999999999999</ele><time>2026-05-02T09:25:49.268Z</time></trkpt><trkpt lat="45.8163193" lon="13.6276217"><ele>116.99999999999999</ele><time>2026-05-02T09:25:50.268Z</time></trkpt><trkpt lat="45.8163329" lon="13.6274928"><ele>117.0</ele><time>2026-05-02T09:25:51.268Z</time></trkpt><trkpt lat="45.816347" lon="13.6273459"><ele>117.0</ele><time>2026-05-02T09:25:52.269Z</time></trkpt><trkpt lat="45.8163695" lon="13.6271974"><ele>117.0</ele><time>2026-05-02T09:25:53.268Z</time></trkpt><trkpt lat="45.8163953" lon="13.6270451"><ele>117.0</ele><time>2026-05-02T09:25:54.268Z</time></trkpt><trkpt lat="45.8164181" lon="13.6268821"><ele>117.0</ele><time>2026-05-02T09:25:55.269Z</time></trkpt><trkpt lat="45.8164418" lon="13.6267185"><ele>117.0</ele><time>2026-05-02T09:25:56.268Z</time></trkpt><trkpt lat="45.8164731" lon="13.6265553"><ele>116.6</ele><time>2026-05-02T09:25:57.268Z</time></trkpt><trkpt lat="45.816509" lon="13.6263824"><ele>116.19999999999999</ele><time>2026-05-02T09:25:58.268Z</time></trkpt><trkpt lat="45.8165364" lon="13.6262126"><ele>115.8</ele><time>2026-05-02T09:25:59.268Z</time></trkpt><trkpt lat="45.8165498" lon="13.6260611"><ele>115.4</ele><time>2026-05-02T09:26:00.268Z</time></trkpt><trkpt lat="45.8165597" lon="13.6259286"><ele>115.0</ele><time>2026-05-02T09:26:01.268Z</time></trkpt><trkpt lat="45.8165706" lon="13.6258237"><ele>115.00000000000001</ele><time>2026-05-02T09:26:02.269Z</time></trkpt><trkpt lat="45.8165826" lon="13.6257124"><ele>115.0</ele><time>2026-05-02T09:26:03.268Z</time></trkpt><trkpt lat="45.8165972" lon="13.6255954"><ele>115.0</ele><time>2026-05-02T09:26:04.269Z</time></trkpt><trkpt lat="45.8166157" lon="13.6254981"><ele>115.0</ele><time>2026-05-02T09:26:05.268Z</time></trkpt><trkpt lat="45.8166381" lon="13.6254001"><ele>115.00000000000001</ele><time>2026-05-02T09:26:06.268Z</time></trkpt><trkpt lat="45.8166728" lon="13.6252613"><ele>115.0</ele><time>2026-05-02T09:26:08.269Z</time></trkpt><trkpt lat="45.8167119" lon="13.6251198"><ele>114.6</ele><time>2026-05-02T09:26:10.268Z</time></trkpt><trkpt lat="45.8167418" lon="13.6250218"><ele>114.2</ele><time>2026-05-02T09:26:11.268Z</time></trkpt><trkpt lat="45.8167737" lon="13.6249129"><ele>113.80000000000001</ele><time>2026-05-02T09:26:12.268Z</time></trkpt><trkpt lat="45.8168114" lon="13.6247803"><ele>113.4</ele><time>2026-05-02T09:26:13.269Z</time></trkpt><trkpt lat="45.8168538" lon="13.6246383"><ele>113.0</ele><time>2026-05-02T09:26:14.268Z</time></trkpt><trkpt lat="45.816902" lon="13.6244864"><ele>123.75</ele><time>2026-05-02T09:26:15.269Z</time></trkpt><trkpt lat="45.8169625" lon="13.6243112"><ele>134.5</ele><time>2026-05-02T09:26:16.268Z</time></trkpt><trkpt lat="45.8170196" lon="13.6241436"><ele>145.25</ele><time>2026-05-02T09:26:17.268Z</time></trkpt><trkpt lat="45.8170635" lon="13.6240119"><ele>156.0</ele><time>2026-05-02T09:26:18.268Z</time></trkpt><trkpt lat="45.8171018" lon="13.623894"><ele>156.0</ele><time>2026-05-02T09:26:19.269Z</time></trkpt><trkpt lat="45.8171385" lon="13.6237836"><ele>156.0</ele><time>2026-05-02T09:26:20.268Z</time></trkpt><trkpt lat="45.8171767" lon="13.6236784"><ele>156.0</ele><time>2026-05-02T09:26:21.268Z</time></trkpt><trkpt lat="45.8172165" lon="13.6235748"><ele>156.0</ele><time>2026-05-02T09:26:22.268Z</time></trkpt><trkpt lat="45.8172543" lon="13.6234722"><ele>156.0</ele><time>2026-05-02T09:26:23.268Z</time></trkpt><trkpt lat="45.8172929" lon="13.6233627"><ele>156.0</ele><time>2026-05-02T09:26:24.268Z</time></trkpt><trkpt lat="45.8173354" lon="13.6232324"><ele>155.0</ele><time>2026-05-02T09:26:25.268Z</time></trkpt><trkpt lat="45.8173866" lon="13.6230753"><ele>154.0</ele><time>2026-05-02T09:26:26.268Z</time></trkpt><trkpt lat="45.8174488" lon="13.6228962"><ele>153.0</ele><time>2026-05-02T09:26:27.268Z</time></trkpt><trkpt lat="45.8175241" lon="13.6226982"><ele>152.0</ele><time>2026-05-02T09:26:28.268Z</time></trkpt><trkpt lat="45.8175933" lon="13.6225163"><ele>150.2</ele><time>2026-05-02T09:26:29.268Z</time></trkpt><trkpt lat="45.8176449" lon="13.6223729"><ele>148.39999999999998</ele><time>2026-05-02T09:26:30.268Z</time></trkpt><trkpt lat="45.8176885" lon="13.6222387"><ele>146.60000000000002</ele><time>2026-05-02T09:26:31.268Z</time></trkpt><trkpt lat="45.8177263" lon="13.6221183"><ele>144.8</ele><time>2026-05-02T09:26:32.268Z</time></trkpt><trkpt lat="45.8177614" lon="13.6220208"><ele>143.0</ele><time>2026-05-02T09:26:33.268Z</time></trkpt><trkpt lat="45.8178074" lon="13.6218941"><ele>150.60000000000002</ele><time>2026-05-02T09:26:35.268Z</time></trkpt><trkpt lat="45.8178857" lon="13.6219534"><ele>158.20000000000002</ele><time>2026-05-02T09:26:38.269Z</time></trkpt><trkpt lat="45.8178677" lon="13.6221747"><ele>165.8</ele><time>2026-05-02T09:26:40.268Z</time></trkpt><trkpt lat="45.8178445" lon="13.6223247"><ele>173.4</ele><time>2026-05-02T09:26:41.268Z</time></trkpt><trkpt lat="45.8178315" lon="13.6224635"><ele>181.0</ele><time>2026-05-02T09:26:42.268Z</time></trkpt><trkpt lat="45.8178181" lon="13.6225685"><ele>183.20000000000002</ele><time>2026-05-02T09:26:43.268Z</time></trkpt><trkpt lat="45.8178157" lon="13.6227086"><ele>185.4</ele><time>2026-05-02T09:26:45.268Z</time></trkpt><trkpt lat="45.8179076" lon="13.6226848"><ele>187.6</ele><time>2026-05-02T09:26:47.269Z</time></trkpt><trkpt lat="45.8179709" lon="13.6225271"><ele>189.8</ele><time>2026-05-02T09:26:49.268Z</time></trkpt><trkpt lat="45.8180019" lon="13.6223935"><ele>192.0</ele><time>2026-05-02T09:26:50.268Z</time></trkpt><trkpt lat="45.8180517" lon="13.6222577"><ele>192.0</ele><time>2026-05-02T09:26:51.268Z</time></trkpt><trkpt lat="45.818111" lon="13.6221273"><ele>192.0</ele><time>2026-05-02T09:26:52.268Z</time></trkpt><trkpt lat="45.8181633" lon="13.621998"><ele>192.0</ele><time>2026-05-02T09:26:53.268Z</time></trkpt><trkpt lat="45.8182207" lon="13.6218679"><ele>192.0</ele><time>2026-05-02T09:26:54.268Z</time></trkpt><trkpt lat="45.8182913" lon="13.6217417"><ele>192.0</ele><time>2026-05-02T09:26:55.268Z</time></trkpt><trkpt lat="45.818365" lon="13.6216188"><ele>189.8</ele><time>2026-05-02T09:26:56.268Z</time></trkpt><trkpt lat="45.818433" lon="13.6214983"><ele>187.6</ele><time>2026-05-02T09:26:57.268Z</time></trkpt><trkpt lat="45.8185036" lon="13.6213775"><ele>185.4</ele><time>2026-05-02T09:26:58.268Z</time></trkpt><trkpt lat="45.8185844" lon="13.6212605"><ele>183.20000000000002</ele><time>2026-05-02T09:26:59.268Z</time></trkpt><trkpt lat="45.8186692" lon="13.6211588"><ele>181.0</ele><time>2026-05-02T09:27:00.268Z</time></trkpt><trkpt lat="45.8187528" lon="13.6210687"><ele>185.16666666666669</ele><time>2026-05-02T09:27:01.268Z</time></trkpt><trkpt lat="45.8188399" lon="13.6209958"><ele>189.33333333333334</ele><time>2026-05-02T09:27:02.268Z</time></trkpt><trkpt lat="45.8189233" lon="13.6209446"><ele>193.5</ele><time>2026-05-02T09:27:03.268Z</time></trkpt><trkpt lat="45.8189974" lon="13.6208963"><ele>197.66666666666669</ele><time>2026-05-02T09:27:04.268Z</time></trkpt><trkpt lat="45.8190454" lon="13.6208253"><ele>201.83333333333334</ele><time>2026-05-02T09:27:05.268Z</time></trkpt><trkpt lat="45.8190724" lon="13.6207222"><ele>206.0</ele><time>2026-05-02T09:27:06.268Z</time></trkpt><trkpt lat="45.8190817" lon="13.6205799"><ele>206.0</ele><time>2026-05-02T09:27:07.268Z</time></trkpt><trkpt lat="45.8190879" lon="13.6204122"><ele>206.0</ele><time>2026-05-02T09:27:08.268Z</time></trkpt><trkpt lat="45.8190998" lon="13.6202414"><ele>206.0</ele><time>2026-05-02T09:27:09.268Z</time></trkpt><trkpt lat="45.8191112" lon="13.6200817"><ele>206.0</ele><time>2026-05-02T09:27:10.268Z</time></trkpt><trkpt lat="45.8191177" lon="13.6199333"><ele>206.0</ele><time>2026-05-02T09:27:11.268Z</time></trkpt><trkpt lat="45.8191252" lon="13.6197942"><ele>206.0</ele><time>2026-05-02T09:27:12.268Z</time></trkpt><trkpt lat="45.8191399" lon="13.6196479"><ele>206.0</ele><time>2026-05-02T09:27:13.268Z</time></trkpt><trkpt lat="45.8191727" lon="13.6194877"><ele>206.0</ele><time>2026-05-02T09:27:14.269Z</time></trkpt><trkpt lat="45.8192182" lon="13.6193231"><ele>206.0</ele><time>2026-05-02T09:27:15.268Z</time></trkpt><trkpt lat="45.8192694" lon="13.6191491"><ele>206.75</ele><time>2026-05-02T09:27:16.268Z</time></trkpt><trkpt lat="45.8193154" lon="13.6189878"><ele>207.5</ele><time>2026-05-02T09:27:17.268Z</time></trkpt><trkpt lat="45.8193551" lon="13.6188236"><ele>208.25</ele><time>2026-05-02T09:27:18.269Z</time></trkpt><trkpt lat="45.8193898" lon="13.618659"><ele>209.0</ele><time>2026-05-02T09:27:19.268Z</time></trkpt><trkpt lat="45.8194144" lon="13.6185059"><ele>212.0</ele><time>2026-05-02T09:27:20.268Z</time></trkpt><trkpt lat="45.8194348" lon="13.6183539"><ele>215.0</ele><time>2026-05-02T09:27:21.268Z</time></trkpt><trkpt lat="45.8194526" lon="13.6182103"><ele>217.99999999999997</ele><time>2026-05-02T09:27:22.268Z</time></trkpt><trkpt lat="45.8194686" lon="13.6180712"><ele>221.0</ele><time>2026-05-02T09:27:23.268Z</time></trkpt><trkpt lat="45.8194864" lon="13.6179283"><ele>224.0</ele><time>2026-05-02T09:27:24.268Z</time></trkpt><trkpt lat="45.8195106" lon="13.6177803"><ele>224.0</ele><time>2026-05-02T09:27:25.269Z</time></trkpt><trkpt lat="45.8195358" lon="13.6176412"><ele>223.99999999999997</ele><time>2026-05-02T09:27:26.268Z</time></trkpt><trkpt lat="45.8195592" lon="13.6175067"><ele>223.99999999999997</ele><time>2026-05-02T09:27:27.268Z</time></trkpt><trkpt lat="45.8195817" lon="13.6173681"><ele>224.0</ele><time>2026-05-02T09:27:28.268Z</time></trkpt><trkpt lat="45.8196039" lon="13.6172342"><ele>224.0</ele><time>2026-05-02T09:27:29.269Z</time></trkpt><trkpt lat="45.8196267" lon="13.6171084"><ele>224.00000000000003</ele><time>2026-05-02T09:27:30.268Z</time></trkpt><trkpt lat="45.8196512" lon="13.6169859"><ele>224.0</ele><time>2026-05-02T09:27:31.268Z</time></trkpt><trkpt lat="45.8196749" lon="13.6168701"><ele>224.0</ele><time>2026-05-02T09:27:32.268Z</time></trkpt><trkpt lat="45.8197015" lon="13.6167648"><ele>224.0</ele><time>2026-05-02T09:27:33.268Z</time></trkpt><trkpt lat="45.8197373" lon="13.6166645"><ele>224.00000000000003</ele><time>2026-05-02T09:27:34.268Z</time></trkpt><trkpt lat="45.8197915" lon="13.6165796"><ele>224.0</ele><time>2026-05-02T09:27:35.268Z</time></trkpt><trkpt lat="45.819859" lon="13.6165389"><ele>224.00000000000003</ele><time>2026-05-02T09:27:36.268Z</time></trkpt><trkpt lat="45.8199285" lon="13.6165377"><ele>224.0</ele><time>2026-05-02T09:27:37.268Z</time></trkpt><trkpt lat="45.8199909" lon="13.6165584"><ele>224.0</ele><time>2026-05-02T09:27:38.268Z</time></trkpt><trkpt lat="45.8200714" lon="13.6165476"><ele>224.0</ele><time>2026-05-02T09:27:40.268Z</time></trkpt><trkpt lat="45.8201029" lon="13.6164478"><ele>224.00000000000003</ele><time>2026-05-02T09:27:42.268Z</time></trkpt><trkpt lat="45.8201621" lon="13.6163564"><ele>224.0</ele><time>2026-05-02T09:27:44.268Z</time></trkpt><trkpt lat="45.8201828" lon="13.6162498"><ele>224.0</ele><time>2026-05-02T09:27:46.268Z</time></trkpt><trkpt lat="45.8201439" lon="13.6161172"><ele>223.99999999999997</ele><time>2026-05-02T09:27:48.269Z</time></trkpt><trkpt lat="45.8200912" lon="13.615982"><ele>223.99999999999997</ele><time>2026-05-02T09:27:50.268Z</time></trkpt><trkpt lat="45.8200553" lon="13.6158249"><ele>224.0</ele><time>2026-05-02T09:27:52.268Z</time></trkpt><trkpt lat="45.8200469" lon="13.6157353"><ele>224.0</ele><time>2026-05-02T09:27:53.268Z</time></trkpt><trkpt lat="45.8200444" lon="13.6156401"><ele>224.00000000000003</ele><time>2026-05-02T09:27:54.268Z</time></trkpt><trkpt lat="45.820046" lon="13.6155423"><ele>224.0</ele><time>2026-05-02T09:27:55.269Z</time></trkpt><trkpt lat="45.8200502" lon="13.6154435"><ele>224.0</ele><time>2026-05-02T09:27:56.268Z</time></trkpt><trkpt lat="45.8200559" lon="13.6153493"><ele>224.0</ele><time>2026-05-02T09:27:57.268Z</time></trkpt><trkpt lat="45.8200618" lon="13.6151615"><ele>224.00000000000003</ele><time>2026-05-02T09:27:59.268Z</time></trkpt><trkpt lat="45.8200697" lon="13.6150699"><ele>224.0</ele><time>2026-05-02T09:28:00.268Z</time></trkpt><trkpt lat="45.8201015" lon="13.6149055"><ele>224.39999999999998</ele><time>2026-05-02T09:28:02.268Z</time></trkpt><trkpt lat="45.8201364" lon="13.6147541"><ele>224.79999999999998</ele><time>2026-05-02T09:28:04.268Z</time></trkpt><trkpt lat="45.8201737" lon="13.6145823"><ele>225.20000000000002</ele><time>2026-05-02T09:28:06.268Z</time></trkpt><trkpt lat="45.8201947" lon="13.6144936"><ele>225.60000000000002</ele><time>2026-05-02T09:28:07.268Z</time></trkpt><trkpt lat="45.820213" lon="13.6144042"><ele>226.0</ele><time>2026-05-02T09:28:08.268Z</time></trkpt><trkpt lat="45.8202451" lon="13.6142427"><ele>225.60000000000002</ele><time>2026-05-02T09:28:10.268Z</time></trkpt><trkpt lat="45.8202709" lon="13.6140724"><ele>225.20000000000002</ele><time>2026-05-02T09:28:12.268Z</time></trkpt><trkpt lat="45.8203044" lon="13.6139084"><ele>224.79999999999998</ele><time>2026-05-02T09:28:14.269Z</time></trkpt><trkpt lat="45.8203229" lon="13.6137404"><ele>224.39999999999998</ele><time>2026-05-02T09:28:16.268Z</time></trkpt><trkpt lat="45.8203204" lon="13.6136441"><ele>224.0</ele><time>2026-05-02T09:28:17.268Z</time></trkpt><trkpt lat="45.8203106" lon="13.6135474"><ele>224.00000000000003</ele><time>2026-05-02T09:28:18.268Z</time></trkpt><trkpt lat="45.8202984" lon="13.6134513"><ele>224.0</ele><time>2026-05-02T09:28:19.268Z</time></trkpt><trkpt lat="45.8202823" lon="13.6133617"><ele>224.0</ele><time>2026-05-02T09:28:20.268Z</time></trkpt><trkpt lat="45.8202739" lon="13.6132713"><ele>224.0</ele><time>2026-05-02T09:28:21.268Z</time></trkpt><trkpt lat="45.8202678" lon="13.6131777"><ele>224.00000000000003</ele><time>2026-05-02T09:28:22.268Z</time></trkpt><trkpt lat="45.8202645" lon="13.6130095"><ele>224.0</ele><time>2026-05-02T09:28:24.268Z</time></trkpt><trkpt lat="45.820266" lon="13.6128544"><ele>223.39999999999998</ele><time>2026-05-02T09:28:26.268Z</time></trkpt><trkpt lat="45.8202556" lon="13.6127151"><ele>222.79999999999998</ele><time>2026-05-02T09:28:28.268Z</time></trkpt><trkpt lat="45.8202249" lon="13.6125676"><ele>222.20000000000002</ele><time>2026-05-02T09:28:30.268Z</time></trkpt><trkpt lat="45.8202155" lon="13.6124054"><ele>221.60000000000002</ele><time>2026-05-02T09:28:32.268Z</time></trkpt><trkpt lat="45.8202127" lon="13.6122501"><ele>221.0</ele><time>2026-05-02T09:28:34.268Z</time></trkpt><trkpt lat="45.8202333" lon="13.6121091"><ele>220.20000000000002</ele><time>2026-05-02T09:28:36.268Z</time></trkpt><trkpt lat="45.8202521" lon="13.6119835"><ele>219.40000000000003</ele><time>2026-05-02T09:28:38.268Z</time></trkpt><trkpt lat="45.8202877" lon="13.6118741"><ele>218.6</ele><time>2026-05-02T09:28:40.269Z</time></trkpt><trkpt lat="45.8203666" lon="13.6117353"><ele>217.8</ele><time>2026-05-02T09:28:42.268Z</time></trkpt><trkpt lat="45.820445" lon="13.611619"><ele>217.0</ele><time>2026-05-02T09:28:44.268Z</time></trkpt><trkpt lat="45.8205572" lon="13.6115494"><ele>216.99999999999997</ele><time>2026-05-02T09:28:46.268Z</time></trkpt><trkpt lat="45.8206277" lon="13.6115241"><ele>217.0</ele><time>2026-05-02T09:28:47.268Z</time></trkpt><trkpt lat="45.8206991" lon="13.6115053"><ele>217.0</ele><time>2026-05-02T09:28:48.268Z</time></trkpt><trkpt lat="45.8208245" lon="13.6114811"><ele>217.0</ele><time>2026-05-02T09:28:50.268Z</time></trkpt><trkpt lat="45.8208882" lon="13.6114656"><ele>216.99999999999997</ele><time>2026-05-02T09:28:51.269Z</time></trkpt><trkpt lat="45.8209542" lon="13.6114489"><ele>217.0</ele><time>2026-05-02T09:28:52.268Z</time></trkpt><trkpt lat="45.8210173" lon="13.6114261"><ele>217.39999999999998</ele><time>2026-05-02T09:28:53.268Z</time></trkpt><trkpt lat="45.8211233" lon="13.6113553"><ele>217.79999999999998</ele><time>2026-05-02T09:28:55.269Z</time></trkpt><trkpt lat="45.8211805" lon="13.6112996"><ele>218.2</ele><time>2026-05-02T09:28:56.268Z</time></trkpt><trkpt lat="45.8212452" lon="13.6112539"><ele>218.6</ele><time>2026-05-02T09:28:57.268Z</time></trkpt><trkpt lat="45.8213494" lon="13.6111985"><ele>219.0</ele><time>2026-05-02T09:28:59.269Z</time></trkpt><trkpt lat="45.8214388" lon="13.6110922"><ele>219.0</ele><time>2026-05-02T09:29:01.269Z</time></trkpt><trkpt lat="45.8214839" lon="13.6110189"><ele>218.99999999999997</ele><time>2026-05-02T09:29:02.269Z</time></trkpt><trkpt lat="45.8215313" lon="13.6109495"><ele>218.99999999999997</ele><time>2026-05-02T09:29:03.268Z</time></trkpt><trkpt lat="45.8216096" lon="13.6108439"><ele>219.0</ele><time>2026-05-02T09:29:05.268Z</time></trkpt><trkpt lat="45.8217057" lon="13.6107877"><ele>219.0</ele><time>2026-05-02T09:29:07.268Z</time></trkpt><trkpt lat="45.821807" lon="13.6108415"><ele>219.0</ele><time>2026-05-02T09:29:09.268Z</time></trkpt><trkpt lat="45.8218873" lon="13.6109226"><ele>218.99999999999997</ele><time>2026-05-02T09:29:11.268Z</time></trkpt><trkpt lat="45.8219465" lon="13.610875"><ele>218.99999999999997</ele><time>2026-05-02T09:29:16.268Z</time></trkpt><trkpt lat="45.8219808" lon="13.6106501"><ele>219.0</ele><time>2026-05-02T09:29:20.268Z</time></trkpt><trkpt lat="45.8220078" lon="13.6105087"><ele>219.0</ele><time>2026-05-02T09:29:21.268Z</time></trkpt><trkpt lat="45.8220463" lon="13.6103879"><ele>219.0</ele><time>2026-05-02T09:29:22.268Z</time></trkpt><trkpt lat="45.8220917" lon="13.6102826"><ele>218.99999999999997</ele><time>2026-05-02T09:29:23.268Z</time></trkpt><trkpt lat="45.8221371" lon="13.610181"><ele>218.99999999999997</ele><time>2026-05-02T09:29:24.268Z</time></trkpt><trkpt lat="45.8221816" lon="13.6100675"><ele>219.0</ele><time>2026-05-02T09:29:25.268Z</time></trkpt><trkpt lat="45.8222194" lon="13.6099398"><ele>219.0</ele><time>2026-05-02T09:29:26.268Z</time></trkpt><trkpt lat="45.822251" lon="13.609797"><ele>219.0</ele><time>2026-05-02T09:29:27.268Z</time></trkpt><trkpt lat="45.8222884" lon="13.6096465"><ele>219.0</ele><time>2026-05-02T09:29:28.268Z</time></trkpt><trkpt lat="45.8223346" lon="13.6094961"><ele>219.0</ele><time>2026-05-02T09:29:29.268Z</time></trkpt><trkpt lat="45.8223862" lon="13.6093392"><ele>219.0</ele><time>2026-05-02T09:29:30.268Z</time></trkpt><trkpt lat="45.8224381" lon="13.6091896"><ele>219.0</ele><time>2026-05-02T09:29:31.269Z</time></trkpt><trkpt lat="45.8224832" lon="13.6090581"><ele>218.99999999999997</ele><time>2026-05-02T09:29:32.268Z</time></trkpt><trkpt lat="45.8225258" lon="13.6089351"><ele>218.99999999999997</ele><time>2026-05-02T09:29:33.268Z</time></trkpt><trkpt lat="45.8225676" lon="13.6088174"><ele>219.0</ele><time>2026-05-02T09:29:34.268Z</time></trkpt><trkpt lat="45.8226167" lon="13.6087023"><ele>219.0</ele><time>2026-05-02T09:29:35.268Z</time></trkpt><trkpt lat="45.8226721" lon="13.6085973"><ele>218.79999999999998</ele><time>2026-05-02T09:29:36.268Z</time></trkpt><trkpt lat="45.8227305" lon="13.6084996"><ele>218.59999999999997</ele><time>2026-05-02T09:29:37.268Z</time></trkpt><trkpt lat="45.822784" lon="13.6084044"><ele>218.4</ele><time>2026-05-02T09:29:38.268Z</time></trkpt><trkpt lat="45.8228286" lon="13.6082971"><ele>218.2</ele><time>2026-05-02T09:29:39.268Z</time></trkpt><trkpt lat="45.8228742" lon="13.6081714"><ele>218.0</ele><time>2026-05-02T09:29:40.268Z</time></trkpt><trkpt lat="45.8229258" lon="13.6080502"><ele>218.0</ele><time>2026-05-02T09:29:41.269Z</time></trkpt><trkpt lat="45.8229777" lon="13.6079368"><ele>218.0</ele><time>2026-05-02T09:29:42.268Z</time></trkpt><trkpt lat="45.8230242" lon="13.607812"><ele>218.0</ele><time>2026-05-02T09:29:43.268Z</time></trkpt><trkpt lat="45.8230768" lon="13.6076798"><ele>218.0</ele><time>2026-05-02T09:29:44.268Z</time></trkpt><trkpt lat="45.8231432" lon="13.6075509"><ele>218.0</ele><time>2026-05-02T09:29:45.268Z</time></trkpt><trkpt lat="45.8232119" lon="13.6074249"><ele>218.4</ele><time>2026-05-02T09:29:46.268Z</time></trkpt><trkpt lat="45.8232787" lon="13.6073004"><ele>218.8</ele><time>2026-05-02T09:29:47.268Z</time></trkpt><trkpt lat="45.8233463" lon="13.6071814"><ele>219.2</ele><time>2026-05-02T09:29:48.268Z</time></trkpt><trkpt lat="45.8234138" lon="13.6070664"><ele>219.6</ele><time>2026-05-02T09:29:49.268Z</time></trkpt><trkpt lat="45.8234761" lon="13.6069522"><ele>220.0</ele><time>2026-05-02T09:29:50.268Z</time></trkpt><trkpt lat="45.8235343" lon="13.6068363"><ele>220.0</ele><time>2026-05-02T09:29:51.268Z</time></trkpt><trkpt lat="45.8235912" lon="13.6067139"><ele>220.0</ele><time>2026-05-02T09:29:52.269Z</time></trkpt><trkpt lat="45.8236435" lon="13.6065749"><ele>220.0</ele><time>2026-05-02T09:29:53.268Z</time></trkpt><trkpt lat="45.8236981" lon="13.6064327"><ele>220.0</ele><time>2026-05-02T09:29:54.269Z</time></trkpt><trkpt lat="45.8237531" lon="13.6063036"><ele>220.0</ele><time>2026-05-02T09:29:55.268Z</time></trkpt><trkpt lat="45.823808" lon="13.6061921"><ele>219.99999999999997</ele><time>2026-05-02T09:29:56.268Z</time></trkpt><trkpt lat="45.8238564" lon="13.6060927"><ele>220.0</ele><time>2026-05-02T09:29:57.268Z</time></trkpt><trkpt lat="45.82389" lon="13.6059979"><ele>220.0</ele><time>2026-05-02T09:29:58.268Z</time></trkpt><trkpt lat="45.8239118" lon="13.6058995"><ele>220.0</ele><time>2026-05-02T09:29:59.268Z</time></trkpt><trkpt lat="45.8239248" lon="13.6057902"><ele>219.99999999999997</ele><time>2026-05-02T09:30:00.269Z</time></trkpt><trkpt lat="45.823933" lon="13.6056697"><ele>220.0</ele><time>2026-05-02T09:30:01.268Z</time></trkpt><trkpt lat="45.8239475" lon="13.6055488"><ele>219.99999999999997</ele><time>2026-05-02T09:30:02.269Z</time></trkpt><trkpt lat="45.82398" lon="13.6054247"><ele>220.0</ele><time>2026-05-02T09:30:03.268Z</time></trkpt><trkpt lat="45.8240226" lon="13.6052995"><ele>220.0</ele><time>2026-05-02T09:30:04.268Z</time></trkpt><trkpt lat="45.8240632" lon="13.605192"><ele>220.0</ele><time>2026-05-02T09:30:05.268Z</time></trkpt><trkpt lat="45.8240949" lon="13.6050803"><ele>219.99999999999997</ele><time>2026-05-02T09:30:06.268Z</time></trkpt><trkpt lat="45.8241191" lon="13.6049553"><ele>220.0</ele><time>2026-05-02T09:30:07.268Z</time></trkpt><trkpt lat="45.8241468" lon="13.6048317"><ele>219.99999999999997</ele><time>2026-05-02T09:30:08.269Z</time></trkpt><trkpt lat="45.8241739" lon="13.6047142"><ele>220.0</ele><time>2026-05-02T09:30:09.268Z</time></trkpt><trkpt lat="45.8241896" lon="13.6045859"><ele>220.0</ele><time>2026-05-02T09:30:10.268Z</time></trkpt><trkpt lat="45.8241973" lon="13.6044516"><ele>220.0</ele><time>2026-05-02T09:30:11.268Z</time></trkpt><trkpt lat="45.8242022" lon="13.6043311"><ele>219.99999999999997</ele><time>2026-05-02T09:30:12.268Z</time></trkpt><trkpt lat="45.8242015" lon="13.6042133"><ele>220.0</ele><time>2026-05-02T09:30:13.268Z</time></trkpt><trkpt lat="45.8242077" lon="13.6041006"><ele>219.99999999999997</ele><time>2026-05-02T09:30:14.269Z</time></trkpt><trkpt lat="45.8242362" lon="13.6039875"><ele>220.0</ele><time>2026-05-02T09:30:15.268Z</time></trkpt><trkpt lat="45.8242841" lon="13.603877"><ele>220.0</ele><time>2026-05-02T09:30:16.268Z</time></trkpt><trkpt lat="45.8243268" lon="13.6037718"><ele>220.0</ele><time>2026-05-02T09:30:17.268Z</time></trkpt><trkpt lat="45.8243597" lon="13.6036598"><ele>219.99999999999997</ele><time>2026-05-02T09:30:18.268Z</time></trkpt><trkpt lat="45.8243992" lon="13.6035545"><ele>220.0</ele><time>2026-05-02T09:30:19.268Z</time></trkpt><trkpt lat="45.8244481" lon="13.603464"><ele>220.66666666666666</ele><time>2026-05-02T09:30:20.269Z</time></trkpt><trkpt lat="45.8245107" lon="13.6033831"><ele>221.33333333333331</ele><time>2026-05-02T09:30:21.268Z</time></trkpt><trkpt lat="45.8245811" lon="13.6033201"><ele>222.0</ele><time>2026-05-02T09:30:22.268Z</time></trkpt><trkpt lat="45.8246444" lon="13.6032747"><ele>222.66666666666669</ele><time>2026-05-02T09:30:23.268Z</time></trkpt><trkpt lat="45.8247234" lon="13.6031428"><ele>223.33333333333334</ele><time>2026-05-02T09:30:25.268Z</time></trkpt><trkpt lat="45.8247457" lon="13.6030452"><ele>224.0</ele><time>2026-05-02T09:30:26.268Z</time></trkpt><trkpt lat="45.8247589" lon="13.6029321"><ele>223.83333333333334</ele><time>2026-05-02T09:30:27.268Z</time></trkpt><trkpt lat="45.8247679" lon="13.6028174"><ele>223.66666666666669</ele><time>2026-05-02T09:30:28.268Z</time></trkpt><trkpt lat="45.8247711" lon="13.6027119"><ele>223.5</ele><time>2026-05-02T09:30:29.269Z</time></trkpt><trkpt lat="45.8247674" lon="13.6026065"><ele>223.33333333333331</ele><time>2026-05-02T09:30:30.268Z</time></trkpt><trkpt lat="45.8247556" lon="13.6024996"><ele>223.16666666666666</ele><time>2026-05-02T09:30:31.268Z</time></trkpt><trkpt lat="45.8247495" lon="13.6023949"><ele>223.0</ele><time>2026-05-02T09:30:32.268Z</time></trkpt><trkpt lat="45.8247582" lon="13.6022831"><ele>222.99999999999997</ele><time>2026-05-02T09:30:33.268Z</time></trkpt><trkpt lat="45.8247743" lon="13.6021632"><ele>223.0</ele><time>2026-05-02T09:30:34.268Z</time></trkpt><trkpt lat="45.8247923" lon="13.6020392"><ele>223.0</ele><time>2026-05-02T09:30:35.268Z</time></trkpt><trkpt lat="45.824808" lon="13.6019191"><ele>223.0</ele><time>2026-05-02T09:30:36.268Z</time></trkpt><trkpt lat="45.8248148" lon="13.6017955"><ele>222.99999999999997</ele><time>2026-05-02T09:30:37.268Z</time></trkpt><trkpt lat="45.8248143" lon="13.6016832"><ele>223.0</ele><time>2026-05-02T09:30:38.268Z</time></trkpt><trkpt lat="45.8248168" lon="13.6015748"><ele>223.33333333333331</ele><time>2026-05-02T09:30:39.269Z</time></trkpt><trkpt lat="45.8248388" lon="13.6014717"><ele>223.66666666666666</ele><time>2026-05-02T09:30:40.268Z</time></trkpt><trkpt lat="45.8248787" lon="13.6013741"><ele>224.0</ele><time>2026-05-02T09:30:41.269Z</time></trkpt><trkpt lat="45.8249279" lon="13.6012693"><ele>224.33333333333331</ele><time>2026-05-02T09:30:42.268Z</time></trkpt><trkpt lat="45.8249798" lon="13.601155"><ele>224.66666666666666</ele><time>2026-05-02T09:30:43.268Z</time></trkpt><trkpt lat="45.8250289" lon="13.6010384"><ele>225.0</ele><time>2026-05-02T09:30:44.268Z</time></trkpt><trkpt lat="45.8250813" lon="13.6009244"><ele>225.0</ele><time>2026-05-02T09:30:45.268Z</time></trkpt><trkpt lat="45.8251345" lon="13.6008108"><ele>225.0</ele><time>2026-05-02T09:30:46.268Z</time></trkpt><trkpt lat="45.8251874" lon="13.600701"><ele>225.0</ele><time>2026-05-02T09:30:47.269Z</time></trkpt><trkpt lat="45.8252385" lon="13.6005948"><ele>225.0</ele><time>2026-05-02T09:30:48.268Z</time></trkpt><trkpt lat="45.8252849" lon="13.6004914"><ele>225.0</ele><time>2026-05-02T09:30:49.268Z</time></trkpt><trkpt lat="45.8253271" lon="13.6003945"><ele>225.0</ele><time>2026-05-02T09:30:50.269Z</time></trkpt><trkpt lat="45.8253743" lon="13.6002984"><ele>225.66666666666666</ele><time>2026-05-02T09:30:51.268Z</time></trkpt><trkpt lat="45.8254329" lon="13.6002146"><ele>226.33333333333331</ele><time>2026-05-02T09:30:52.268Z</time></trkpt><trkpt lat="45.8255014" lon="13.6001502"><ele>227.0</ele><time>2026-05-02T09:30:53.268Z</time></trkpt><trkpt lat="45.8255604" lon="13.6000824"><ele>227.66666666666666</ele><time>2026-05-02T09:30:54.268Z</time></trkpt><trkpt lat="45.8256111" lon="13.5999883"><ele>228.33333333333331</ele><time>2026-05-02T09:30:55.269Z</time></trkpt><trkpt lat="45.8256566" lon="13.5998728"><ele>229.0</ele><time>2026-05-02T09:30:56.268Z</time></trkpt><trkpt lat="45.8256996" lon="13.5997372"><ele>229.0</ele><time>2026-05-02T09:30:57.269Z</time></trkpt><trkpt lat="45.8257451" lon="13.5996017"><ele>228.99999999999997</ele><time>2026-05-02T09:30:58.268Z</time></trkpt><trkpt lat="45.8257907" lon="13.5994812"><ele>228.99999999999997</ele><time>2026-05-02T09:30:59.268Z</time></trkpt><trkpt lat="45.8258373" lon="13.5993728"><ele>229.0</ele><time>2026-05-02T09:31:00.268Z</time></trkpt><trkpt lat="45.825881" lon="13.5992637"><ele>229.0</ele><time>2026-05-02T09:31:01.268Z</time></trkpt><trkpt lat="45.8259214" lon="13.5991505"><ele>229.66666666666666</ele><time>2026-05-02T09:31:02.268Z</time></trkpt><trkpt lat="45.8259576" lon="13.5990421"><ele>230.33333333333331</ele><time>2026-05-02T09:31:03.268Z</time></trkpt><trkpt lat="45.8259825" lon="13.5989403"><ele>231.0</ele><time>2026-05-02T09:31:04.269Z</time></trkpt><trkpt lat="45.8259957" lon="13.5988364"><ele>231.66666666666669</ele><time>2026-05-02T09:31:05.268Z</time></trkpt><trkpt lat="45.8260018" lon="13.5987237"><ele>232.33333333333334</ele><time>2026-05-02T09:31:06.268Z</time></trkpt><trkpt lat="45.8260073" lon="13.5986046"><ele>233.0</ele><time>2026-05-02T09:31:07.268Z</time></trkpt><trkpt lat="45.8260171" lon="13.5984918"><ele>231.0</ele><time>2026-05-02T09:31:08.268Z</time></trkpt><trkpt lat="45.8260342" lon="13.5983987"><ele>229.0</ele><time>2026-05-02T09:31:09.268Z</time></trkpt><trkpt lat="45.8260798" lon="13.5982371"><ele>227.0</ele><time>2026-05-02T09:31:11.268Z</time></trkpt><trkpt lat="45.8261436" lon="13.5980981"><ele>225.0</ele><time>2026-05-02T09:31:13.268Z</time></trkpt><trkpt lat="45.8262033" lon="13.5979667"><ele>223.0</ele><time>2026-05-02T09:31:15.268Z</time></trkpt><trkpt lat="45.8262621" lon="13.597849"><ele>222.8</ele><time>2026-05-02T09:31:17.268Z</time></trkpt><trkpt lat="45.8263324" lon="13.5977016"><ele>222.60000000000002</ele><time>2026-05-02T09:31:19.268Z</time></trkpt><trkpt lat="45.826367" lon="13.5976214"><ele>222.39999999999998</ele><time>2026-05-02T09:31:20.268Z</time></trkpt><trkpt lat="45.8264014" lon="13.5975445"><ele>222.2</ele><time>2026-05-02T09:31:21.268Z</time></trkpt><trkpt lat="45.8264557" lon="13.5973848"><ele>222.0</ele><time>2026-05-02T09:31:23.268Z</time></trkpt><trkpt lat="45.8264972" lon="13.5972261"><ele>222.0</ele><time>2026-05-02T09:31:25.268Z</time></trkpt><trkpt lat="45.8265417" lon="13.5970436"><ele>222.0</ele><time>2026-05-02T09:31:27.269Z</time></trkpt><trkpt lat="45.8265744" lon="13.5969401"><ele>222.0</ele><time>2026-05-02T09:31:28.268Z</time></trkpt><trkpt lat="45.8266185" lon="13.5968352"><ele>222.0</ele><time>2026-05-02T09:31:29.268Z</time></trkpt><trkpt lat="45.8266807" lon="13.5967405"><ele>222.0</ele><time>2026-05-02T09:31:30.269Z</time></trkpt><trkpt lat="45.826749" lon="13.5966454"><ele>221.8</ele><time>2026-05-02T09:31:31.268Z</time></trkpt><trkpt lat="45.8268063" lon="13.596537"><ele>221.6</ele><time>2026-05-02T09:31:32.268Z</time></trkpt><trkpt lat="45.8268524" lon="13.5964189"><ele>221.40000000000003</ele><time>2026-05-02T09:31:33.268Z</time></trkpt><trkpt lat="45.8268876" lon="13.5962875"><ele>221.20000000000002</ele><time>2026-05-02T09:31:34.269Z</time></trkpt><trkpt lat="45.8269234" lon="13.596161"><ele>221.0</ele><time>2026-05-02T09:31:35.268Z</time></trkpt><trkpt lat="45.8269673" lon="13.5960473"><ele>220.4</ele><time>2026-05-02T09:31:36.268Z</time></trkpt><trkpt lat="45.8270172" lon="13.5959353"><ele>219.8</ele><time>2026-05-02T09:31:37.268Z</time></trkpt><trkpt lat="45.8270677" lon="13.595817"><ele>219.20000000000002</ele><time>2026-05-02T09:31:38.268Z</time></trkpt><trkpt lat="45.827119" lon="13.5956957"><ele>218.60000000000002</ele><time>2026-05-02T09:31:39.268Z</time></trkpt><trkpt lat="45.827169" lon="13.5955779"><ele>218.0</ele><time>2026-05-02T09:31:40.268Z</time></trkpt><trkpt lat="45.8272148" lon="13.5954678"><ele>218.0</ele><time>2026-05-02T09:31:41.268Z</time></trkpt><trkpt lat="45.8272529" lon="13.5953502"><ele>218.0</ele><time>2026-05-02T09:31:42.268Z</time></trkpt><trkpt lat="45.8272859" lon="13.5952208"><ele>218.0</ele><time>2026-05-02T09:31:43.269Z</time></trkpt><trkpt lat="45.8273181" lon="13.5950875"><ele>218.0</ele><time>2026-05-02T09:31:44.268Z</time></trkpt><trkpt lat="45.8273539" lon="13.59496"><ele>218.0</ele><time>2026-05-02T09:31:45.268Z</time></trkpt><trkpt lat="45.8273956" lon="13.5948397"><ele>217.83333333333334</ele><time>2026-05-02T09:31:46.268Z</time></trkpt><trkpt lat="45.827443" lon="13.5947281"><ele>217.66666666666669</ele><time>2026-05-02T09:31:47.268Z</time></trkpt><trkpt lat="45.8274844" lon="13.5946186"><ele>217.5</ele><time>2026-05-02T09:31:48.268Z</time></trkpt><trkpt lat="45.8275148" lon="13.5945067"><ele>217.33333333333331</ele><time>2026-05-02T09:31:49.268Z</time></trkpt><trkpt lat="45.8275389" lon="13.5943992"><ele>217.16666666666666</ele><time>2026-05-02T09:31:50.268Z</time></trkpt><trkpt lat="45.8275597" lon="13.5942975"><ele>217.0</ele><time>2026-05-02T09:31:51.268Z</time></trkpt><trkpt lat="45.8275755" lon="13.5941671"><ele>216.99999999999997</ele><time>2026-05-02T09:31:53.268Z</time></trkpt><trkpt lat="45.827545" lon="13.5943375"><ele>217.0</ele><time>2026-05-02T09:32:24.268Z</time></trkpt><trkpt lat="45.8275491" lon="13.5944585"><ele>217.0</ele><time>2026-05-02T09:32:26.268Z</time></trkpt><trkpt lat="45.8276002" lon="13.594522"><ele>217.0</ele><time>2026-05-02T09:32:28.268Z</time></trkpt><trkpt lat="45.8276834" lon="13.5945348"><ele>216.99999999999997</ele><time>2026-05-02T09:32:30.268Z</time></trkpt><trkpt lat="45.8277542" lon="13.5945111"><ele>217.0</ele><time>2026-05-02T09:32:32.268Z</time></trkpt><trkpt lat="45.8278711" lon="13.5944778"><ele>216.49999999999997</ele><time>2026-05-02T09:32:34.268Z</time></trkpt><trkpt lat="45.8279871" lon="13.5944272"><ele>216.0</ele><time>2026-05-02T09:32:36.268Z</time></trkpt><trkpt lat="45.8280468" lon="13.5943973"><ele>215.5</ele><time>2026-05-02T09:32:37.268Z</time></trkpt><trkpt lat="45.8281098" lon="13.5943655"><ele>215.0</ele><time>2026-05-02T09:32:38.269Z</time></trkpt><trkpt lat="45.8281835" lon="13.5943389"><ele>214.49999999999997</ele><time>2026-05-02T09:32:39.268Z</time></trkpt><trkpt lat="45.8282669" lon="13.5943113"><ele>214.0</ele><time>2026-05-02T09:32:40.268Z</time></trkpt><trkpt lat="45.8283477" lon="13.5942862"><ele>213.99999999999997</ele><time>2026-05-02T09:32:41.268Z</time></trkpt><trkpt lat="45.8284264" lon="13.5942586"><ele>214.0</ele><time>2026-05-02T09:32:42.269Z</time></trkpt><trkpt lat="45.8285071" lon="13.5942204"><ele>214.0</ele><time>2026-05-02T09:32:43.269Z</time></trkpt><trkpt lat="45.8285861" lon="13.5941738"><ele>214.0</ele><time>2026-05-02T09:32:44.268Z</time></trkpt><trkpt lat="45.828666" lon="13.5941173"><ele>213.99999999999997</ele><time>2026-05-02T09:32:45.268Z</time></trkpt><trkpt lat="45.8287442" lon="13.5940586"><ele>214.0</ele><time>2026-05-02T09:32:46.268Z</time></trkpt><trkpt lat="45.828824" lon="13.5940013"><ele>213.6</ele><time>2026-05-02T09:32:47.268Z</time></trkpt><trkpt lat="45.8289038" lon="13.5939436"><ele>213.2</ele><time>2026-05-02T09:32:48.268Z</time></trkpt><trkpt lat="45.8289821" lon="13.593883"><ele>212.79999999999998</ele><time>2026-05-02T09:32:49.268Z</time></trkpt><trkpt lat="45.8290612" lon="13.5938207"><ele>212.39999999999998</ele><time>2026-05-02T09:32:50.268Z</time></trkpt><trkpt lat="45.829144" lon="13.5937629"><ele>212.0</ele><time>2026-05-02T09:32:51.268Z</time></trkpt><trkpt lat="45.8292281" lon="13.5937164"><ele>211.8</ele><time>2026-05-02T09:32:52.268Z</time></trkpt><trkpt lat="45.8293118" lon="13.5936776"><ele>211.6</ele><time>2026-05-02T09:32:53.268Z</time></trkpt><trkpt lat="45.8293981" lon="13.5936341"><ele>211.4</ele><time>2026-05-02T09:32:54.268Z</time></trkpt><trkpt lat="45.8294834" lon="13.5935878"><ele>211.20000000000002</ele><time>2026-05-02T09:32:55.269Z</time></trkpt><trkpt lat="45.8295693" lon="13.5935417"><ele>211.0</ele><time>2026-05-02T09:32:56.268Z</time></trkpt><trkpt lat="45.829653" lon="13.5934891"><ele>210.60000000000002</ele><time>2026-05-02T09:32:57.268Z</time></trkpt><trkpt lat="45.8297378" lon="13.5934335"><ele>210.2</ele><time>2026-05-02T09:32:58.268Z</time></trkpt><trkpt lat="45.8298237" lon="13.5933772"><ele>209.8</ele><time>2026-05-02T09:32:59.268Z</time></trkpt><trkpt lat="45.8299088" lon="13.5933242"><ele>209.39999999999998</ele><time>2026-05-02T09:33:00.268Z</time></trkpt><trkpt lat="45.8299939" lon="13.5932762"><ele>209.0</ele><time>2026-05-02T09:33:01.268Z</time></trkpt><trkpt lat="45.8300865" lon="13.5932261"><ele>209.0</ele><time>2026-05-02T09:33:02.268Z</time></trkpt><trkpt lat="45.8301822" lon="13.5931685"><ele>209.0</ele><time>2026-05-02T09:33:03.268Z</time></trkpt><trkpt lat="45.8302816" lon="13.5930978"><ele>209.0</ele><time>2026-05-02T09:33:04.268Z</time></trkpt><trkpt lat="45.8303862" lon="13.5930222"><ele>209.0</ele><time>2026-05-02T09:33:05.268Z</time></trkpt><trkpt lat="45.8304888" lon="13.5929532"><ele>209.0</ele><time>2026-05-02T09:33:06.268Z</time></trkpt><trkpt lat="45.8305896" lon="13.5928856"><ele>208.6</ele><time>2026-05-02T09:33:07.268Z</time></trkpt><trkpt lat="45.8306846" lon="13.5928185"><ele>208.2</ele><time>2026-05-02T09:33:08.268Z</time></trkpt><trkpt lat="45.8307682" lon="13.5927473"><ele>207.79999999999998</ele><time>2026-05-02T09:33:09.269Z</time></trkpt><trkpt lat="45.8308466" lon="13.5926661"><ele>207.39999999999998</ele><time>2026-05-02T09:33:10.268Z</time></trkpt><trkpt lat="45.8309237" lon="13.5925701"><ele>207.0</ele><time>2026-05-02T09:33:11.268Z</time></trkpt><trkpt lat="45.8309972" lon="13.5924614"><ele>207.0</ele><time>2026-05-02T09:33:12.268Z</time></trkpt><trkpt lat="45.831064" lon="13.5923603"><ele>207.0</ele><time>2026-05-02T09:33:13.268Z</time></trkpt><trkpt lat="45.8311383" lon="13.592273"><ele>207.0</ele><time>2026-05-02T09:33:14.268Z</time></trkpt><trkpt lat="45.8312249" lon="13.5921941"><ele>207.0</ele><time>2026-05-02T09:33:15.268Z</time></trkpt><trkpt lat="45.8313181" lon="13.5921268"><ele>207.0</ele><time>2026-05-02T09:33:16.268Z</time></trkpt><trkpt lat="45.8314146" lon="13.5920706"><ele>207.0</ele><time>2026-05-02T09:33:17.268Z</time></trkpt><trkpt lat="45.8315094" lon="13.5920151"><ele>207.0</ele><time>2026-05-02T09:33:18.268Z</time></trkpt><trkpt lat="45.8316042" lon="13.5919614"><ele>207.0</ele><time>2026-05-02T09:33:19.268Z</time></trkpt><trkpt lat="45.8316966" lon="13.5919061"><ele>207.0</ele><time>2026-05-02T09:33:20.268Z</time></trkpt><trkpt lat="45.8317868" lon="13.5918465"><ele>207.0</ele><time>2026-05-02T09:33:21.268Z</time></trkpt><trkpt lat="45.8318743" lon="13.5917852"><ele>207.2</ele><time>2026-05-02T09:33:22.268Z</time></trkpt><trkpt lat="45.8319609" lon="13.5917399"><ele>207.39999999999998</ele><time>2026-05-02T09:33:23.268Z</time></trkpt><trkpt lat="45.8320563" lon="13.5917088"><ele>207.60000000000002</ele><time>2026-05-02T09:33:24.268Z</time></trkpt><trkpt lat="45.8321501" lon="13.5916837"><ele>207.8</ele><time>2026-05-02T09:33:25.269Z</time></trkpt><trkpt lat="45.832243" lon="13.5916545"><ele>208.0</ele><time>2026-05-02T09:33:26.268Z</time></trkpt><trkpt lat="45.8323336" lon="13.59163"><ele>207.99999999999997</ele><time>2026-05-02T09:33:27.268Z</time></trkpt><trkpt lat="45.8324198" lon="13.5916241"><ele>208.0</ele><time>2026-05-02T09:33:28.268Z</time></trkpt><trkpt lat="45.8325015" lon="13.5916298"><ele>208.0</ele><time>2026-05-02T09:33:29.268Z</time></trkpt><trkpt lat="45.8325766" lon="13.591625"><ele>208.0</ele><time>2026-05-02T09:33:30.268Z</time></trkpt><trkpt lat="45.8326497" lon="13.5915966"><ele>207.99999999999997</ele><time>2026-05-02T09:33:31.268Z</time></trkpt><trkpt lat="45.8327248" lon="13.5915564"><ele>208.0</ele><time>2026-05-02T09:33:32.268Z</time></trkpt><trkpt lat="45.8327997" lon="13.5915096"><ele>207.49999999999997</ele><time>2026-05-02T09:33:33.269Z</time></trkpt><trkpt lat="45.8328711" lon="13.5914591"><ele>207.0</ele><time>2026-05-02T09:33:34.268Z</time></trkpt><trkpt lat="45.8329403" lon="13.5914022"><ele>206.5</ele><time>2026-05-02T09:33:35.268Z</time></trkpt><trkpt lat="45.8330067" lon="13.5913315"><ele>206.0</ele><time>2026-05-02T09:33:36.268Z</time></trkpt><trkpt lat="45.8330647" lon="13.5912449"><ele>205.49999999999997</ele><time>2026-05-02T09:33:37.268Z</time></trkpt><trkpt lat="45.8331179" lon="13.5911532"><ele>205.0</ele><time>2026-05-02T09:33:38.268Z</time></trkpt><trkpt lat="45.8331714" lon="13.5910718"><ele>205.0</ele><time>2026-05-02T09:33:39.268Z</time></trkpt><trkpt lat="45.8332179" lon="13.590997"><ele>205.0</ele><time>2026-05-02T09:33:40.269Z</time></trkpt><trkpt lat="45.8332578" lon="13.5909192"><ele>205.0</ele><time>2026-05-02T09:33:41.268Z</time></trkpt><trkpt lat="45.8332977" lon="13.5908424"><ele>205.0</ele><time>2026-05-02T09:33:42.268Z</time></trkpt><trkpt lat="45.8333494" lon="13.5907774"><ele>205.0</ele><time>2026-05-02T09:33:43.268Z</time></trkpt><trkpt lat="45.8334184" lon="13.5907199"><ele>205.0</ele><time>2026-05-02T09:33:44.268Z</time></trkpt><trkpt lat="45.8334942" lon="13.5906784"><ele>205.0</ele><time>2026-05-02T09:33:45.268Z</time></trkpt><trkpt lat="45.8335749" lon="13.5906524"><ele>204.16666666666666</ele><time>2026-05-02T09:33:46.268Z</time></trkpt><trkpt lat="45.8336569" lon="13.5906359"><ele>203.33333333333331</ele><time>2026-05-02T09:33:47.269Z</time></trkpt><trkpt lat="45.8337388" lon="13.5906226"><ele>202.5</ele><time>2026-05-02T09:33:48.268Z</time></trkpt><trkpt lat="45.8338203" lon="13.5906044"><ele>201.66666666666669</ele><time>2026-05-02T09:33:49.268Z</time></trkpt><trkpt lat="45.8338978" lon="13.590594"><ele>200.83333333333334</ele><time>2026-05-02T09:33:50.268Z</time></trkpt><trkpt lat="45.8339721" lon="13.5905935"><ele>200.0</ele><time>2026-05-02T09:33:51.268Z</time></trkpt><trkpt lat="45.8340478" lon="13.5905842"><ele>200.00000000000003</ele><time>2026-05-02T09:33:52.268Z</time></trkpt><trkpt lat="45.8341286" lon="13.5905594"><ele>200.0</ele><time>2026-05-02T09:33:53.268Z</time></trkpt><trkpt lat="45.8342165" lon="13.5905281"><ele>200.0</ele><time>2026-05-02T09:33:54.268Z</time></trkpt><trkpt lat="45.8343036" lon="13.59051"><ele>200.0</ele><time>2026-05-02T09:33:55.268Z</time></trkpt><trkpt lat="45.8343823" lon="13.5905038"><ele>200.00000000000003</ele><time>2026-05-02T09:33:56.268Z</time></trkpt><trkpt lat="45.8344538" lon="13.590489"><ele>200.0</ele><time>2026-05-02T09:33:57.268Z</time></trkpt><trkpt lat="45.8345203" lon="13.5904504"><ele>199.33333333333334</ele><time>2026-05-02T09:33:58.268Z</time></trkpt><trkpt lat="45.8345866" lon="13.5903881"><ele>198.66666666666669</ele><time>2026-05-02T09:33:59.268Z</time></trkpt><trkpt lat="45.8346506" lon="13.590309"><ele>198.0</ele><time>2026-05-02T09:34:00.268Z</time></trkpt><trkpt lat="45.834714" lon="13.5902341"><ele>197.33333333333331</ele><time>2026-05-02T09:34:01.268Z</time></trkpt><trkpt lat="45.834779" lon="13.5901666"><ele>196.66666666666666</ele><time>2026-05-02T09:34:02.268Z</time></trkpt><trkpt lat="45.834846" lon="13.5901013"><ele>196.0</ele><time>2026-05-02T09:34:03.268Z</time></trkpt><trkpt lat="45.8349163" lon="13.5900453"><ele>195.99999999999997</ele><time>2026-05-02T09:34:04.268Z</time></trkpt><trkpt lat="45.834999" lon="13.5900035"><ele>196.0</ele><time>2026-05-02T09:34:05.269Z</time></trkpt><trkpt lat="45.8350851" lon="13.5899715"><ele>196.0</ele><time>2026-05-02T09:34:06.268Z</time></trkpt><trkpt lat="45.8351682" lon="13.5899429"><ele>196.0</ele><time>2026-05-02T09:34:07.268Z</time></trkpt><trkpt lat="45.8352475" lon="13.5899104"><ele>195.99999999999997</ele><time>2026-05-02T09:34:08.268Z</time></trkpt><trkpt lat="45.8353261" lon="13.5898794"><ele>196.0</ele><time>2026-05-02T09:34:09.268Z</time></trkpt><trkpt lat="45.8353993" lon="13.5898516"><ele>195.99999999999997</ele><time>2026-05-02T09:34:10.268Z</time></trkpt><trkpt lat="45.835465" lon="13.5898201"><ele>196.0</ele><time>2026-05-02T09:34:11.269Z</time></trkpt><trkpt lat="45.8355261" lon="13.5897894"><ele>196.0</ele><time>2026-05-02T09:34:12.268Z</time></trkpt><trkpt lat="45.8356486" lon="13.5897257"><ele>196.0</ele><time>2026-05-02T09:34:14.268Z</time></trkpt><trkpt lat="45.8357177" lon="13.5896999"><ele>195.99999999999997</ele><time>2026-05-02T09:34:15.268Z</time></trkpt><trkpt lat="45.8357895" lon="13.5896781"><ele>196.0</ele><time>2026-05-02T09:34:16.268Z</time></trkpt><trkpt lat="45.8358688" lon="13.5896484"><ele>195.99999999999997</ele><time>2026-05-02T09:34:17.268Z</time></trkpt><trkpt lat="45.8359492" lon="13.5896037"><ele>196.0</ele><time>2026-05-02T09:34:18.268Z</time></trkpt><trkpt lat="45.836029" lon="13.5895482"><ele>196.0</ele><time>2026-05-02T09:34:19.268Z</time></trkpt><trkpt lat="45.8361063" lon="13.5894943"><ele>196.0</ele><time>2026-05-02T09:34:20.268Z</time></trkpt><trkpt lat="45.836182" lon="13.5894521"><ele>195.99999999999997</ele><time>2026-05-02T09:34:21.268Z</time></trkpt><trkpt lat="45.8362506" lon="13.589421"><ele>196.0</ele><time>2026-05-02T09:34:22.269Z</time></trkpt><trkpt lat="45.8363706" lon="13.589422"><ele>196.83333333333331</ele><time>2026-05-02T09:34:24.268Z</time></trkpt><trkpt lat="45.8364424" lon="13.5894605"><ele>197.66666666666666</ele><time>2026-05-02T09:34:25.268Z</time></trkpt><trkpt lat="45.8365156" lon="13.589503"><ele>198.5</ele><time>2026-05-02T09:34:26.268Z</time></trkpt><trkpt lat="45.8365879" lon="13.5895232"><ele>199.33333333333331</ele><time>2026-05-02T09:34:27.268Z</time></trkpt><trkpt lat="45.8366622" lon="13.5895114"><ele>200.16666666666666</ele><time>2026-05-02T09:34:28.268Z</time></trkpt><trkpt lat="45.8367376" lon="13.589473"><ele>201.0</ele><time>2026-05-02T09:34:29.268Z</time></trkpt><trkpt lat="45.8368008" lon="13.5894141"><ele>201.66666666666666</ele><time>2026-05-02T09:34:30.268Z</time></trkpt><trkpt lat="45.8368545" lon="13.5893428"><ele>202.33333333333331</ele><time>2026-05-02T09:34:31.268Z</time></trkpt><trkpt lat="45.8369107" lon="13.5892566"><ele>203.0</ele><time>2026-05-02T09:34:32.269Z</time></trkpt><trkpt lat="45.8369721" lon="13.5891674"><ele>203.66666666666666</ele><time>2026-05-02T09:34:33.268Z</time></trkpt><trkpt lat="45.8370398" lon="13.5890863"><ele>204.33333333333331</ele><time>2026-05-02T09:34:34.268Z</time></trkpt><trkpt lat="45.8371175" lon="13.5890272"><ele>205.0</ele><time>2026-05-02T09:34:35.268Z</time></trkpt><trkpt lat="45.8372006" lon="13.5889866"><ele>205.0</ele><time>2026-05-02T09:34:36.268Z</time></trkpt><trkpt lat="45.8372903" lon="13.5889791"><ele>205.0</ele><time>2026-05-02T09:34:37.268Z</time></trkpt><trkpt lat="45.8373841" lon="13.5889929"><ele>205.0</ele><time>2026-05-02T09:34:38.268Z</time></trkpt><trkpt lat="45.8374795" lon="13.5890221"><ele>205.0</ele><time>2026-05-02T09:34:39.268Z</time></trkpt><trkpt lat="45.8375707" lon="13.5890677"><ele>205.0</ele><time>2026-05-02T09:34:40.268Z</time></trkpt><trkpt lat="45.8376622" lon="13.5891129"><ele>204.83333333333331</ele><time>2026-05-02T09:34:41.268Z</time></trkpt><trkpt lat="45.837751" lon="13.5891524"><ele>204.66666666666666</ele><time>2026-05-02T09:34:42.268Z</time></trkpt><trkpt lat="45.8378386" lon="13.5891868"><ele>204.5</ele><time>2026-05-02T09:34:43.269Z</time></trkpt><trkpt lat="45.8379284" lon="13.5892085"><ele>204.33333333333331</ele><time>2026-05-02T09:34:44.268Z</time></trkpt><trkpt lat="45.838013" lon="13.5892207"><ele>204.16666666666666</ele><time>2026-05-02T09:34:45.268Z</time></trkpt><trkpt lat="45.8380907" lon="13.5892352"><ele>204.0</ele><time>2026-05-02T09:34:46.268Z</time></trkpt><trkpt lat="45.8381672" lon="13.5892623"><ele>204.0</ele><time>2026-05-02T09:34:47.268Z</time></trkpt><trkpt lat="45.8382458" lon="13.589285"><ele>204.0</ele><time>2026-05-02T09:34:48.268Z</time></trkpt><trkpt lat="45.8383299" lon="13.5892821"><ele>204.0</ele><time>2026-05-02T09:34:49.268Z</time></trkpt><trkpt lat="45.8384225" lon="13.5892576"><ele>204.0</ele><time>2026-05-02T09:34:50.269Z</time></trkpt><trkpt lat="45.8385179" lon="13.5892328"><ele>204.0</ele><time>2026-05-02T09:34:51.268Z</time></trkpt><trkpt lat="45.8386173" lon="13.5892159"><ele>204.39999999999998</ele><time>2026-05-02T09:34:52.268Z</time></trkpt><trkpt lat="45.8387228" lon="13.5892042"><ele>204.8</ele><time>2026-05-02T09:34:53.268Z</time></trkpt><trkpt lat="45.8388286" lon="13.5891886"><ele>205.2</ele><time>2026-05-02T09:34:54.268Z</time></trkpt><trkpt lat="45.8389303" lon="13.5891716"><ele>205.60000000000002</ele><time>2026-05-02T09:34:55.268Z</time></trkpt><trkpt lat="45.8390306" lon="13.5891632"><ele>206.0</ele><time>2026-05-02T09:34:56.268Z</time></trkpt><trkpt lat="45.83913" lon="13.5891618"><ele>206.00000000000003</ele><time>2026-05-02T09:34:57.268Z</time></trkpt><trkpt lat="45.8392255" lon="13.5891569"><ele>206.0</ele><time>2026-05-02T09:34:58.268Z</time></trkpt><trkpt lat="45.839315" lon="13.5891442"><ele>206.0</ele><time>2026-05-02T09:34:59.268Z</time></trkpt><trkpt lat="45.8393943" lon="13.5891268"><ele>206.0</ele><time>2026-05-02T09:35:00.268Z</time></trkpt><trkpt lat="45.8394705" lon="13.5890983"><ele>206.00000000000003</ele><time>2026-05-02T09:35:01.268Z</time></trkpt><trkpt lat="45.8395437" lon="13.5890455"><ele>206.0</ele><time>2026-05-02T09:35:02.268Z</time></trkpt><trkpt lat="45.8396138" lon="13.5889686"><ele>206.0</ele><time>2026-05-02T09:35:03.268Z</time></trkpt><trkpt lat="45.839683" lon="13.5888692"><ele>206.0</ele><time>2026-05-02T09:35:04.268Z</time></trkpt><trkpt lat="45.8397535" lon="13.5887627"><ele>206.0</ele><time>2026-05-02T09:35:05.269Z</time></trkpt><trkpt lat="45.8398183" lon="13.5886637"><ele>206.0</ele><time>2026-05-02T09:35:06.268Z</time></trkpt><trkpt lat="45.8398758" lon="13.588563"><ele>206.0</ele><time>2026-05-02T09:35:07.268Z</time></trkpt><trkpt lat="45.8399323" lon="13.5884533"><ele>205.66666666666669</ele><time>2026-05-02T09:35:08.268Z</time></trkpt><trkpt lat="45.8399854" lon="13.5883468"><ele>205.33333333333334</ele><time>2026-05-02T09:35:09.268Z</time></trkpt><trkpt lat="45.840036" lon="13.5882558"><ele>205.0</ele><time>2026-05-02T09:35:10.269Z</time></trkpt><trkpt lat="45.8400806" lon="13.588174"><ele>204.66666666666669</ele><time>2026-05-02T09:35:11.268Z</time></trkpt><trkpt lat="45.8401283" lon="13.5880976"><ele>204.33333333333334</ele><time>2026-05-02T09:35:12.269Z</time></trkpt><trkpt lat="45.840185" lon="13.5880302"><ele>204.0</ele><time>2026-05-02T09:35:13.268Z</time></trkpt><trkpt lat="45.8402523" lon="13.5879772"><ele>204.0</ele><time>2026-05-02T09:35:14.268Z</time></trkpt><trkpt lat="45.8403202" lon="13.587945"><ele>204.0</ele><time>2026-05-02T09:35:15.268Z</time></trkpt><trkpt lat="45.8403804" lon="13.5879156"><ele>204.0</ele><time>2026-05-02T09:35:16.268Z</time></trkpt><trkpt lat="45.8404396" lon="13.5878691"><ele>204.0</ele><time>2026-05-02T09:35:17.268Z</time></trkpt><trkpt lat="45.8404982" lon="13.5878033"><ele>204.0</ele><time>2026-05-02T09:35:18.268Z</time></trkpt><trkpt lat="45.840546" lon="13.5877231"><ele>204.0</ele><time>2026-05-02T09:35:19.268Z</time></trkpt><trkpt lat="45.8405869" lon="13.5876291"><ele>204.0</ele><time>2026-05-02T09:35:20.269Z</time></trkpt><trkpt lat="45.8406241" lon="13.5875378"><ele>203.85714285714286</ele><time>2026-05-02T09:35:21.269Z</time></trkpt><trkpt lat="45.8406557" lon="13.5874488"><ele>203.71428571428572</ele><time>2026-05-02T09:35:22.268Z</time></trkpt><trkpt lat="45.8406855" lon="13.5873567"><ele>203.57142857142856</ele><time>2026-05-02T09:35:23.268Z</time></trkpt><trkpt lat="45.8407175" lon="13.587254"><ele>203.42857142857144</ele><time>2026-05-02T09:35:24.268Z</time></trkpt><trkpt lat="45.8407447" lon="13.5871512"><ele>203.28571428571428</ele><time>2026-05-02T09:35:25.268Z</time></trkpt><trkpt lat="45.8407645" lon="13.5870458"><ele>203.14285714285714</ele><time>2026-05-02T09:35:26.268Z</time></trkpt><trkpt lat="45.8407761" lon="13.5869439"><ele>203.0</ele><time>2026-05-02T09:35:27.268Z</time></trkpt><trkpt lat="45.8407862" lon="13.5868431"><ele>203.50000000000003</ele><time>2026-05-02T09:35:28.268Z</time></trkpt><trkpt lat="45.8407994" lon="13.5867441"><ele>204.0</ele><time>2026-05-02T09:35:29.268Z</time></trkpt><trkpt lat="45.8408111" lon="13.5866418"><ele>204.5</ele><time>2026-05-02T09:35:30.268Z</time></trkpt><trkpt lat="45.8408228" lon="13.5865359"><ele>205.0</ele><time>2026-05-02T09:35:31.269Z</time></trkpt><trkpt lat="45.8408344" lon="13.5864272"><ele>205.50000000000003</ele><time>2026-05-02T09:35:32.268Z</time></trkpt><trkpt lat="45.8408516" lon="13.5863132"><ele>206.0</ele><time>2026-05-02T09:35:33.269Z</time></trkpt><trkpt lat="45.8408648" lon="13.5861958"><ele>205.66666666666669</ele><time>2026-05-02T09:35:34.268Z</time></trkpt><trkpt lat="45.8408787" lon="13.5860799"><ele>205.33333333333334</ele><time>2026-05-02T09:35:35.268Z</time></trkpt><trkpt lat="45.8408948" lon="13.5859669"><ele>205.0</ele><time>2026-05-02T09:35:36.268Z</time></trkpt><trkpt lat="45.8409072" lon="13.5858587"><ele>204.66666666666669</ele><time>2026-05-02T09:35:37.268Z</time></trkpt><trkpt lat="45.8409181" lon="13.585753"><ele>204.33333333333334</ele><time>2026-05-02T09:35:38.268Z</time></trkpt><trkpt lat="45.8409267" lon="13.5856433"><ele>204.0</ele><time>2026-05-02T09:35:39.268Z</time></trkpt><trkpt lat="45.8409371" lon="13.5855297"><ele>204.0</ele><time>2026-05-02T09:35:40.268Z</time></trkpt><trkpt lat="45.8409482" lon="13.585418"><ele>204.0</ele><time>2026-05-02T09:35:41.268Z</time></trkpt><trkpt lat="45.8409613" lon="13.5853091"><ele>204.0</ele><time>2026-05-02T09:35:42.268Z</time></trkpt><trkpt lat="45.8409807" lon="13.5852012"><ele>204.0</ele><time>2026-05-02T09:35:43.268Z</time></trkpt><trkpt lat="45.8410068" lon="13.5850955"><ele>204.0</ele><time>2026-05-02T09:35:44.268Z</time></trkpt><trkpt lat="45.8410418" lon="13.5849923"><ele>204.0</ele><time>2026-05-02T09:35:45.268Z</time></trkpt><trkpt lat="45.8410919" lon="13.5848893"><ele>203.39999999999998</ele><time>2026-05-02T09:35:46.268Z</time></trkpt><trkpt lat="45.8411522" lon="13.5847974"><ele>202.8</ele><time>2026-05-02T09:35:47.268Z</time></trkpt><trkpt lat="45.841221" lon="13.5847175"><ele>202.2</ele><time>2026-05-02T09:35:48.268Z</time></trkpt><trkpt lat="45.8412972" lon="13.5846426"><ele>201.60000000000002</ele><time>2026-05-02T09:35:49.268Z</time></trkpt><trkpt lat="45.8413682" lon="13.5845623"><ele>201.0</ele><time>2026-05-02T09:35:50.269Z</time></trkpt><trkpt lat="45.8414346" lon="13.5844737"><ele>200.8</ele><time>2026-05-02T09:35:51.269Z</time></trkpt><trkpt lat="45.8414967" lon="13.5843792"><ele>200.60000000000002</ele><time>2026-05-02T09:35:52.268Z</time></trkpt><trkpt lat="45.8415591" lon="13.5842828"><ele>200.4</ele><time>2026-05-02T09:35:53.268Z</time></trkpt><trkpt lat="45.8416208" lon="13.584184"><ele>200.2</ele><time>2026-05-02T09:35:54.268Z</time></trkpt><trkpt lat="45.8416767" lon="13.584083"><ele>200.0</ele><time>2026-05-02T09:35:55.268Z</time></trkpt><trkpt lat="45.8417283" lon="13.5839799"><ele>200.00000000000003</ele><time>2026-05-02T09:35:56.268Z</time></trkpt><trkpt lat="45.841775" lon="13.5838775"><ele>200.0</ele><time>2026-05-02T09:35:57.268Z</time></trkpt><trkpt lat="45.8418214" lon="13.5837791"><ele>200.0</ele><time>2026-05-02T09:35:58.268Z</time></trkpt><trkpt lat="45.8418649" lon="13.5836912"><ele>200.0</ele><time>2026-05-02T09:35:59.268Z</time></trkpt><trkpt lat="45.8419076" lon="13.5836147"><ele>200.00000000000003</ele><time>2026-05-02T09:36:00.268Z</time></trkpt><trkpt lat="45.8420051" lon="13.5835158"><ele>200.0</ele><time>2026-05-02T09:36:02.268Z</time></trkpt><trkpt lat="45.8420672" lon="13.5834982"><ele>200.50000000000003</ele><time>2026-05-02T09:36:03.268Z</time></trkpt><trkpt lat="45.8421491" lon="13.5835063"><ele>201.0</ele><time>2026-05-02T09:36:04.268Z</time></trkpt><trkpt lat="45.8422397" lon="13.5835356"><ele>201.5</ele><time>2026-05-02T09:36:05.268Z</time></trkpt><trkpt lat="45.8423249" lon="13.5835687"><ele>202.0</ele><time>2026-05-02T09:36:06.268Z</time></trkpt><trkpt lat="45.8424049" lon="13.5836019"><ele>202.50000000000003</ele><time>2026-05-02T09:36:07.268Z</time></trkpt><trkpt lat="45.8424827" lon="13.5836326"><ele>203.0</ele><time>2026-05-02T09:36:08.268Z</time></trkpt><trkpt lat="45.8425682" lon="13.5836306"><ele>203.16666666666669</ele><time>2026-05-02T09:36:09.268Z</time></trkpt><trkpt lat="45.842659" lon="13.5836005"><ele>203.33333333333334</ele><time>2026-05-02T09:36:10.268Z</time></trkpt><trkpt lat="45.8427417" lon="13.5835611"><ele>203.5</ele><time>2026-05-02T09:36:11.268Z</time></trkpt><trkpt lat="45.8428411" lon="13.5835079"><ele>203.66666666666669</ele><time>2026-05-02T09:36:13.268Z</time></trkpt><trkpt lat="45.8428482" lon="13.583405"><ele>203.83333333333334</ele><time>2026-05-02T09:36:19.268Z</time></trkpt><trkpt lat="45.8428422" lon="13.5832996"><ele>204.0</ele><time>2026-05-02T09:36:20.268Z</time></trkpt><trkpt lat="45.8428372" lon="13.5831515"><ele>204.0</ele><time>2026-05-02T09:36:22.269Z</time></trkpt><trkpt lat="45.8428637" lon="13.5830169"><ele>204.0</ele><time>2026-05-02T09:36:24.268Z</time></trkpt><trkpt lat="45.8428953" lon="13.5828791"><ele>204.0</ele><time>2026-05-02T09:36:26.269Z</time></trkpt><trkpt lat="45.8429057" lon="13.5827046"><ele>204.0</ele><time>2026-05-02T09:36:28.268Z</time></trkpt><trkpt lat="45.8429192" lon="13.5826142"><ele>204.0</ele><time>2026-05-02T09:36:29.268Z</time></trkpt><trkpt lat="45.842942" lon="13.5825288"><ele>204.0</ele><time>2026-05-02T09:36:30.268Z</time></trkpt><trkpt lat="45.8429731" lon="13.5824498"><ele>203.71428571428572</ele><time>2026-05-02T09:36:31.268Z</time></trkpt><trkpt lat="45.843018" lon="13.582379"><ele>203.42857142857144</ele><time>2026-05-02T09:36:32.269Z</time></trkpt><trkpt lat="45.8430704" lon="13.5823214"><ele>203.14285714285714</ele><time>2026-05-02T09:36:33.268Z</time></trkpt><trkpt lat="45.8431268" lon="13.5822651"><ele>202.85714285714286</ele><time>2026-05-02T09:36:34.268Z</time></trkpt><trkpt lat="45.8431903" lon="13.5822122"><ele>202.57142857142856</ele><time>2026-05-02T09:36:35.268Z</time></trkpt><trkpt lat="45.8432539" lon="13.5821689"><ele>202.28571428571428</ele><time>2026-05-02T09:36:36.268Z</time></trkpt><trkpt lat="45.8433134" lon="13.5821287"><ele>202.0</ele><time>2026-05-02T09:36:37.268Z</time></trkpt><trkpt lat="45.8433657" lon="13.5820625"><ele>201.49999999999997</ele><time>2026-05-02T09:36:38.268Z</time></trkpt><trkpt lat="45.8434102" lon="13.5819848"><ele>201.0</ele><time>2026-05-02T09:36:39.268Z</time></trkpt><trkpt lat="45.8434606" lon="13.5818958"><ele>200.5</ele><time>2026-05-02T09:36:40.268Z</time></trkpt><trkpt lat="45.8435101" lon="13.5818074"><ele>200.0</ele><time>2026-05-02T09:36:41.268Z</time></trkpt><trkpt lat="45.8435553" lon="13.5817171"><ele>199.49999999999997</ele><time>2026-05-02T09:36:42.268Z</time></trkpt><trkpt lat="45.8435904" lon="13.5816325"><ele>199.0</ele><time>2026-05-02T09:36:43.268Z</time></trkpt><trkpt lat="45.8436299" lon="13.5814613"><ele>198.66666666666666</ele><time>2026-05-02T09:36:45.268Z</time></trkpt><trkpt lat="45.8436434" lon="13.5813695"><ele>198.33333333333331</ele><time>2026-05-02T09:36:46.268Z</time></trkpt><trkpt lat="45.8436518" lon="13.5812768"><ele>198.0</ele><time>2026-05-02T09:36:47.268Z</time></trkpt><trkpt lat="45.8436638" lon="13.5811809"><ele>197.66666666666669</ele><time>2026-05-02T09:36:48.268Z</time></trkpt><trkpt lat="45.8436859" lon="13.5810925"><ele>197.33333333333334</ele><time>2026-05-02T09:36:49.268Z</time></trkpt><trkpt lat="45.8437553" lon="13.5809562"><ele>197.0</ele><time>2026-05-02T09:36:51.269Z</time></trkpt><trkpt lat="45.8438267" lon="13.5808788"><ele>196.39999999999998</ele><time>2026-05-02T09:36:53.268Z</time></trkpt><trkpt lat="45.8438579" lon="13.5807787"><ele>195.79999999999998</ele><time>2026-05-02T09:36:59.185Z</time></trkpt><trkpt lat="45.8439268" lon="13.5806103"><ele>195.2</ele><time>2026-05-02T09:37:01.268Z</time></trkpt><trkpt lat="45.8440474" lon="13.5805628"><ele>194.6</ele><time>2026-05-02T09:37:03.268Z</time></trkpt><trkpt lat="45.8441209" lon="13.5805616"><ele>194.0</ele><time>2026-05-02T09:37:04.268Z</time></trkpt><trkpt lat="45.8441958" lon="13.5805534"><ele>194.00000000000003</ele><time>2026-05-02T09:37:05.269Z</time></trkpt><trkpt lat="45.8442699" lon="13.5805375"><ele>194.0</ele><time>2026-05-02T09:37:06.268Z</time></trkpt><trkpt lat="45.8443416" lon="13.580518"><ele>194.0</ele><time>2026-05-02T09:37:07.268Z</time></trkpt><trkpt lat="45.8444059" lon="13.5804976"><ele>194.0</ele><time>2026-05-02T09:37:08.268Z</time></trkpt><trkpt lat="45.8445105" lon="13.5804898"><ele>194.00000000000003</ele><time>2026-05-02T09:37:10.268Z</time></trkpt><trkpt lat="45.8446195" lon="13.5805137"><ele>194.0</ele><time>2026-05-02T09:37:12.268Z</time></trkpt><trkpt lat="45.8447401" lon="13.5805531"><ele>193.33333333333334</ele><time>2026-05-02T09:37:14.268Z</time></trkpt><trkpt lat="45.8448069" lon="13.5805839"><ele>192.66666666666669</ele><time>2026-05-02T09:37:15.269Z</time></trkpt><trkpt lat="45.8448715" lon="13.5806315"><ele>192.0</ele><time>2026-05-02T09:37:16.268Z</time></trkpt><trkpt lat="45.8449379" lon="13.5806808"><ele>191.33333333333334</ele><time>2026-05-02T09:37:17.268Z</time></trkpt><trkpt lat="45.8450064" lon="13.5807324"><ele>190.66666666666669</ele><time>2026-05-02T09:37:18.268Z</time></trkpt><trkpt lat="45.8450744" lon="13.5807961"><ele>190.0</ele><time>2026-05-02T09:37:19.268Z</time></trkpt><trkpt lat="45.8451396" lon="13.5808708"><ele>190.0</ele><time>2026-05-02T09:37:20.268Z</time></trkpt><trkpt lat="45.8452033" lon="13.5809476"><ele>190.0</ele><time>2026-05-02T09:37:21.269Z</time></trkpt><trkpt lat="45.8452667" lon="13.581016"><ele>190.0</ele><time>2026-05-02T09:37:22.268Z</time></trkpt><trkpt lat="45.8453296" lon="13.5810785"><ele>190.0</ele><time>2026-05-02T09:37:23.269Z</time></trkpt><trkpt lat="45.845397" lon="13.5811284"><ele>190.0</ele><time>2026-05-02T09:37:24.268Z</time></trkpt><trkpt lat="45.8454661" lon="13.5811648"><ele>190.0</ele><time>2026-05-02T09:37:25.268Z</time></trkpt><trkpt lat="45.8455352" lon="13.5811846"><ele>190.0</ele><time>2026-05-02T09:37:26.269Z</time></trkpt><trkpt lat="45.8456115" lon="13.5811777"><ele>190.0</ele><time>2026-05-02T09:37:27.268Z</time></trkpt><trkpt lat="45.8456986" lon="13.581155"><ele>190.0</ele><time>2026-05-02T09:37:28.268Z</time></trkpt><trkpt lat="45.8457958" lon="13.581123"><ele>190.0</ele><time>2026-05-02T09:37:29.268Z</time></trkpt><trkpt lat="45.8458939" lon="13.58109"><ele>190.0</ele><time>2026-05-02T09:37:30.268Z</time></trkpt><trkpt lat="45.8459885" lon="13.5810608"><ele>189.8</ele><time>2026-05-02T09:37:31.268Z</time></trkpt><trkpt lat="45.8460799" lon="13.5810315"><ele>189.6</ele><time>2026-05-02T09:37:32.268Z</time></trkpt><trkpt lat="45.8461696" lon="13.5809934"><ele>189.39999999999998</ele><time>2026-05-02T09:37:33.268Z</time></trkpt><trkpt lat="45.8462565" lon="13.5809475"><ele>189.2</ele><time>2026-05-02T09:37:34.268Z</time></trkpt><trkpt lat="45.8463386" lon="13.5809067"><ele>189.0</ele><time>2026-05-02T09:37:35.268Z</time></trkpt><trkpt lat="45.8464204" lon="13.5808731"><ele>189.0</ele><time>2026-05-02T09:37:36.269Z</time></trkpt><trkpt lat="45.8465047" lon="13.5808546"><ele>189.0</ele><time>2026-05-02T09:37:37.268Z</time></trkpt><trkpt lat="45.8465954" lon="13.5808549"><ele>189.0</ele><time>2026-05-02T09:37:38.269Z</time></trkpt><trkpt lat="45.8466847" lon="13.5808666"><ele>189.0</ele><time>2026-05-02T09:37:39.268Z</time></trkpt><trkpt lat="45.8467662" lon="13.5808777"><ele>189.0</ele><time>2026-05-02T09:37:40.268Z</time></trkpt><trkpt lat="45.8468429" lon="13.5808858"><ele>189.0</ele><time>2026-05-02T09:37:41.268Z</time></trkpt><trkpt lat="45.8469144" lon="13.5808889"><ele>188.33333333333334</ele><time>2026-05-02T09:37:42.268Z</time></trkpt><trkpt lat="45.8469845" lon="13.5808773"><ele>187.66666666666666</ele><time>2026-05-02T09:37:43.269Z</time></trkpt><trkpt lat="45.8470502" lon="13.5808484"><ele>187.0</ele><time>2026-05-02T09:37:44.268Z</time></trkpt><trkpt lat="45.8471111" lon="13.5808063"><ele>186.33333333333331</ele><time>2026-05-02T09:37:45.268Z</time></trkpt><trkpt lat="45.8471693" lon="13.5807606"><ele>185.66666666666666</ele><time>2026-05-02T09:37:46.268Z</time></trkpt><trkpt lat="45.8472218" lon="13.5807055"><ele>185.0</ele><time>2026-05-02T09:37:47.269Z</time></trkpt><trkpt lat="45.847319" lon="13.5806033"><ele>185.0</ele><time>2026-05-02T09:37:49.268Z</time></trkpt><trkpt lat="45.847429" lon="13.5805129"><ele>185.0</ele><time>2026-05-02T09:37:51.268Z</time></trkpt><trkpt lat="45.8474918" lon="13.580479"><ele>185.0</ele><time>2026-05-02T09:37:52.268Z</time></trkpt><trkpt lat="45.8475607" lon="13.5804565"><ele>185.0</ele><time>2026-05-02T09:37:53.268Z</time></trkpt><trkpt lat="45.8476329" lon="13.5804365"><ele>185.0</ele><time>2026-05-02T09:37:54.268Z</time></trkpt><trkpt lat="45.8477084" lon="13.5804251"><ele>185.0</ele><time>2026-05-02T09:37:55.268Z</time></trkpt><trkpt lat="45.8477845" lon="13.5804227"><ele>183.8</ele><time>2026-05-02T09:37:56.269Z</time></trkpt><trkpt lat="45.8478525" lon="13.5804225"><ele>182.6</ele><time>2026-05-02T09:37:57.268Z</time></trkpt><trkpt lat="45.8479728" lon="13.5804115"><ele>181.39999999999998</ele><time>2026-05-02T09:37:59.268Z</time></trkpt><trkpt lat="45.8480898" lon="13.5803478"><ele>180.2</ele><time>2026-05-02T09:38:01.268Z</time></trkpt><trkpt lat="45.8482007" lon="13.5802708"><ele>179.0</ele><time>2026-05-02T09:38:03.268Z</time></trkpt><trkpt lat="45.8483064" lon="13.580204"><ele>179.0</ele><time>2026-05-02T09:38:05.268Z</time></trkpt><trkpt lat="45.8484163" lon="13.5801715"><ele>179.0</ele><time>2026-05-02T09:38:07.268Z</time></trkpt><trkpt lat="45.8485316" lon="13.5801323"><ele>179.0</ele><time>2026-05-02T09:38:09.269Z</time></trkpt><trkpt lat="45.8486286" lon="13.580043"><ele>179.0</ele><time>2026-05-02T09:38:11.268Z</time></trkpt><trkpt lat="45.8487208" lon="13.5799341"><ele>178.2</ele><time>2026-05-02T09:38:13.268Z</time></trkpt><trkpt lat="45.8488251" lon="13.5798396"><ele>177.39999999999998</ele><time>2026-05-02T09:38:15.268Z</time></trkpt><trkpt lat="45.8488911" lon="13.5798195"><ele>176.6</ele><time>2026-05-02T09:38:16.268Z</time></trkpt><trkpt lat="45.8489572" lon="13.5798121"><ele>175.8</ele><time>2026-05-02T09:38:17.268Z</time></trkpt><trkpt lat="45.8490692" lon="13.5798022"><ele>175.0</ele><time>2026-05-02T09:38:19.268Z</time></trkpt><trkpt lat="45.849176" lon="13.5797912"><ele>175.0</ele><time>2026-05-02T09:38:21.268Z</time></trkpt><trkpt lat="45.8492665" lon="13.5797413"><ele>175.0</ele><time>2026-05-02T09:38:23.268Z</time></trkpt><trkpt lat="45.8493539" lon="13.579613"><ele>175.0</ele><time>2026-05-02T09:38:25.268Z</time></trkpt><trkpt lat="45.8494418" lon="13.5795004"><ele>175.0</ele><time>2026-05-02T09:38:27.268Z</time></trkpt><trkpt lat="45.8495674" lon="13.5794528"><ele>173.85714285714286</ele><time>2026-05-02T09:38:29.268Z</time></trkpt><trkpt lat="45.84964" lon="13.5794373"><ele>172.71428571428572</ele><time>2026-05-02T09:38:30.268Z</time></trkpt><trkpt lat="45.8497052" lon="13.5794251"><ele>171.57142857142856</ele><time>2026-05-02T09:38:31.268Z</time></trkpt><trkpt lat="45.8497685" lon="13.5793995"><ele>170.42857142857144</ele><time>2026-05-02T09:38:32.268Z</time></trkpt><trkpt lat="45.8498307" lon="13.579351"><ele>169.28571428571428</ele><time>2026-05-02T09:38:33.268Z</time></trkpt><trkpt lat="45.8498935" lon="13.5792979"><ele>168.14285714285714</ele><time>2026-05-02T09:38:34.268Z</time></trkpt><trkpt lat="45.8499521" lon="13.5792508"><ele>167.0</ele><time>2026-05-02T09:38:35.269Z</time></trkpt><trkpt lat="45.8500572" lon="13.5792031"><ele>165.5</ele><time>2026-05-02T09:38:37.268Z</time></trkpt><trkpt lat="45.8501684" lon="13.5791947"><ele>164.0</ele><time>2026-05-02T09:38:39.268Z</time></trkpt><trkpt lat="45.8502619" lon="13.5792152"><ele>162.5</ele><time>2026-05-02T09:38:41.268Z</time></trkpt><trkpt lat="45.8503167" lon="13.5792976"><ele>161.0</ele><time>2026-05-02T09:38:43.268Z</time></trkpt><trkpt lat="45.8503402" lon="13.5794285"><ele>159.5</ele><time>2026-05-02T09:38:45.268Z</time></trkpt><trkpt lat="45.8503423" lon="13.5795266"><ele>158.0</ele><time>2026-05-02T09:38:46.268Z</time></trkpt><trkpt lat="45.8503393" lon="13.5796346"><ele>158.00000000000003</ele><time>2026-05-02T09:38:47.268Z</time></trkpt><trkpt lat="45.8503308" lon="13.5797475"><ele>158.0</ele><time>2026-05-02T09:38:48.269Z</time></trkpt><trkpt lat="45.8503337" lon="13.5798517"><ele>158.0</ele><time>2026-05-02T09:38:49.269Z</time></trkpt><trkpt lat="45.8503415" lon="13.5799524"><ele>158.0</ele><time>2026-05-02T09:38:50.268Z</time></trkpt><trkpt lat="45.8503437" lon="13.5800507"><ele>158.0</ele><time>2026-05-02T09:38:51.269Z</time></trkpt><trkpt lat="45.8503674" lon="13.5801468"><ele>158.00000000000003</ele><time>2026-05-02T09:38:52.268Z</time></trkpt><trkpt lat="45.850407" lon="13.5802326"><ele>158.0</ele><time>2026-05-02T09:38:53.268Z</time></trkpt><trkpt lat="45.8504514" lon="13.5803179"><ele>158.2857142857143</ele><time>2026-05-02T09:38:54.268Z</time></trkpt><trkpt lat="45.8504978" lon="13.5804027"><ele>158.57142857142858</ele><time>2026-05-02T09:38:55.268Z</time></trkpt><trkpt lat="45.850551" lon="13.5804796"><ele>158.85714285714286</ele><time>2026-05-02T09:38:56.268Z</time></trkpt><trkpt lat="45.8506089" lon="13.5805505"><ele>159.14285714285717</ele><time>2026-05-02T09:38:57.268Z</time></trkpt><trkpt lat="45.8506647" lon="13.5806128"><ele>159.42857142857144</ele><time>2026-05-02T09:38:58.269Z</time></trkpt><trkpt lat="45.8507172" lon="13.580669"><ele>159.71428571428572</ele><time>2026-05-02T09:38:59.268Z</time></trkpt><trkpt lat="45.8507717" lon="13.5807354"><ele>160.0</ele><time>2026-05-02T09:39:00.268Z</time></trkpt><trkpt lat="45.8508301" lon="13.5808198"><ele>160.0</ele><time>2026-05-02T09:39:01.268Z</time></trkpt><trkpt lat="45.8508868" lon="13.5809175"><ele>160.0</ele><time>2026-05-02T09:39:02.268Z</time></trkpt><trkpt lat="45.8509476" lon="13.5810271"><ele>160.0</ele><time>2026-05-02T09:39:03.268Z</time></trkpt><trkpt lat="45.8510135" lon="13.5811439"><ele>160.0</ele><time>2026-05-02T09:39:04.268Z</time></trkpt><trkpt lat="45.8510801" lon="13.5812523"><ele>160.0</ele><time>2026-05-02T09:39:05.268Z</time></trkpt><trkpt lat="45.851152" lon="13.5813445"><ele>161.0</ele><time>2026-05-02T09:39:06.269Z</time></trkpt><trkpt lat="45.8512288" lon="13.581417"><ele>162.0</ele><time>2026-05-02T09:39:07.268Z</time></trkpt><trkpt lat="45.851304" lon="13.5814784"><ele>163.0</ele><time>2026-05-02T09:39:08.268Z</time></trkpt><trkpt lat="45.8513703" lon="13.5815345"><ele>164.0</ele><time>2026-05-02T09:39:09.268Z</time></trkpt><trkpt lat="45.8514437" lon="13.5816067"><ele>165.0</ele><time>2026-05-02T09:39:11.268Z</time></trkpt><trkpt lat="45.8515406" lon="13.5814796"><ele>165.0</ele><time>2026-05-02T09:39:17.268Z</time></trkpt><trkpt lat="45.8515829" lon="13.5813708"><ele>165.0</ele><time>2026-05-02T09:39:18.268Z</time></trkpt><trkpt lat="45.8516327" lon="13.5812757"><ele>165.0</ele><time>2026-05-02T09:39:19.268Z</time></trkpt><trkpt lat="45.8516827" lon="13.5811775"><ele>165.0</ele><time>2026-05-02T09:39:20.268Z</time></trkpt><trkpt lat="45.8517278" lon="13.5810793"><ele>165.0</ele><time>2026-05-02T09:39:21.268Z</time></trkpt><trkpt lat="45.8517713" lon="13.5809878"><ele>165.0</ele><time>2026-05-02T09:39:22.268Z</time></trkpt><trkpt lat="45.8518163" lon="13.5809097"><ele>164.71428571428572</ele><time>2026-05-02T09:39:23.268Z</time></trkpt><trkpt lat="45.8518603" lon="13.5808346"><ele>164.42857142857144</ele><time>2026-05-02T09:39:24.268Z</time></trkpt><trkpt lat="45.8519025" lon="13.5807514"><ele>164.14285714285717</ele><time>2026-05-02T09:39:25.268Z</time></trkpt><trkpt lat="45.8519432" lon="13.5806669"><ele>163.85714285714286</ele><time>2026-05-02T09:39:26.268Z</time></trkpt><trkpt lat="45.8519866" lon="13.5805776"><ele>163.57142857142856</ele><time>2026-05-02T09:39:27.268Z</time></trkpt><trkpt lat="45.8520328" lon="13.5804851"><ele>163.2857142857143</ele><time>2026-05-02T09:39:28.268Z</time></trkpt><trkpt lat="45.852077" lon="13.5803907"><ele>163.0</ele><time>2026-05-02T09:39:29.268Z</time></trkpt><trkpt lat="45.852124" lon="13.5802966"><ele>162.42857142857144</ele><time>2026-05-02T09:39:30.268Z</time></trkpt><trkpt lat="45.8521693" lon="13.5802121"><ele>161.85714285714283</ele><time>2026-05-02T09:39:31.268Z</time></trkpt><trkpt lat="45.8522169" lon="13.5801404"><ele>161.28571428571428</ele><time>2026-05-02T09:39:32.268Z</time></trkpt><trkpt lat="45.8522715" lon="13.5800819"><ele>160.71428571428572</ele><time>2026-05-02T09:39:33.268Z</time></trkpt><trkpt lat="45.8523307" lon="13.5800263"><ele>160.14285714285717</ele><time>2026-05-02T09:39:34.268Z</time></trkpt><trkpt lat="45.8523948" lon="13.5799703"><ele>159.57142857142856</ele><time>2026-05-02T09:39:35.268Z</time></trkpt><trkpt lat="45.8524647" lon="13.5799037"><ele>159.0</ele><time>2026-05-02T09:39:36.268Z</time></trkpt><trkpt lat="45.8525369" lon="13.5798392"><ele>159.0</ele><time>2026-05-02T09:39:37.268Z</time></trkpt><trkpt lat="45.8526119" lon="13.5797747"><ele>159.0</ele><time>2026-05-02T09:39:38.269Z</time></trkpt><trkpt lat="45.8526921" lon="13.5797077"><ele>159.0</ele><time>2026-05-02T09:39:39.268Z</time></trkpt><trkpt lat="45.8527685" lon="13.579636"><ele>159.0</ele><time>2026-05-02T09:39:40.268Z</time></trkpt><trkpt lat="45.8528399" lon="13.5795654"><ele>159.0</ele><time>2026-05-02T09:39:41.268Z</time></trkpt><trkpt lat="45.8529052" lon="13.5794992"><ele>159.0</ele><time>2026-05-02T09:39:42.268Z</time></trkpt><trkpt lat="45.8529665" lon="13.5794402"><ele>158.85714285714286</ele><time>2026-05-02T09:39:43.268Z</time></trkpt><trkpt lat="45.8530278" lon="13.5793855"><ele>158.71428571428572</ele><time>2026-05-02T09:39:44.269Z</time></trkpt><trkpt lat="45.8530836" lon="13.5793266"><ele>158.57142857142858</ele><time>2026-05-02T09:39:45.269Z</time></trkpt><trkpt lat="45.8531325" lon="13.5792613"><ele>158.42857142857144</ele><time>2026-05-02T09:39:46.268Z</time></trkpt><trkpt lat="45.8531758" lon="13.5791844"><ele>158.28571428571428</ele><time>2026-05-02T09:39:47.268Z</time></trkpt><trkpt lat="45.8532123" lon="13.5790894"><ele>158.14285714285717</ele><time>2026-05-02T09:39:48.268Z</time></trkpt><trkpt lat="45.8532391" lon="13.5789878"><ele>158.0</ele><time>2026-05-02T09:39:49.269Z</time></trkpt><trkpt lat="45.8532605" lon="13.578891"><ele>158.0</ele><time>2026-05-02T09:39:50.268Z</time></trkpt><trkpt lat="45.8532834" lon="13.5787916"><ele>158.0</ele><time>2026-05-02T09:39:51.268Z</time></trkpt><trkpt lat="45.8533149" lon="13.5786879"><ele>158.0</ele><time>2026-05-02T09:39:52.268Z</time></trkpt><trkpt lat="45.8533554" lon="13.5785822"><ele>158.0</ele><time>2026-05-02T09:39:53.268Z</time></trkpt><trkpt lat="45.8533974" lon="13.5784676"><ele>158.0</ele><time>2026-05-02T09:39:54.268Z</time></trkpt><trkpt lat="45.8534383" lon="13.5783531"><ele>158.0</ele><time>2026-05-02T09:39:55.268Z</time></trkpt><trkpt lat="45.8534781" lon="13.5782471"><ele>157.83333333333331</ele><time>2026-05-02T09:39:56.268Z</time></trkpt><trkpt lat="45.8535155" lon="13.5781528"><ele>157.66666666666666</ele><time>2026-05-02T09:39:57.268Z</time></trkpt><trkpt lat="45.8535606" lon="13.5780699"><ele>157.5</ele><time>2026-05-02T09:39:58.268Z</time></trkpt><trkpt lat="45.8536195" lon="13.5779911"><ele>157.33333333333334</ele><time>2026-05-02T09:39:59.268Z</time></trkpt><trkpt lat="45.8536853" lon="13.5779043"><ele>157.16666666666669</ele><time>2026-05-02T09:40:00.268Z</time></trkpt><trkpt lat="45.8537457" lon="13.5778232"><ele>157.0</ele><time>2026-05-02T09:40:01.268Z</time></trkpt><trkpt lat="45.8538057" lon="13.5777429"><ele>156.16666666666669</ele><time>2026-05-02T09:40:02.268Z</time></trkpt><trkpt lat="45.8538647" lon="13.5776562"><ele>155.33333333333334</ele><time>2026-05-02T09:40:03.268Z</time></trkpt><trkpt lat="45.853925" lon="13.5775663"><ele>154.5</ele><time>2026-05-02T09:40:04.268Z</time></trkpt><trkpt lat="45.8539844" lon="13.5774775"><ele>153.66666666666666</ele><time>2026-05-02T09:40:05.268Z</time></trkpt><trkpt lat="45.8540411" lon="13.5773898"><ele>152.83333333333331</ele><time>2026-05-02T09:40:06.268Z</time></trkpt><trkpt lat="45.8540972" lon="13.5772964"><ele>152.0</ele><time>2026-05-02T09:40:07.268Z</time></trkpt><trkpt lat="45.8541502" lon="13.5772139"><ele>152.0</ele><time>2026-05-02T09:40:08.268Z</time></trkpt><trkpt lat="45.8542042" lon="13.5771205"><ele>152.0</ele><time>2026-05-02T09:40:09.269Z</time></trkpt><trkpt lat="45.8542597" lon="13.5770261"><ele>152.0</ele><time>2026-05-02T09:40:10.268Z</time></trkpt><trkpt lat="45.854312" lon="13.5769389"><ele>152.0</ele><time>2026-05-02T09:40:11.268Z</time></trkpt><trkpt lat="45.8543636" lon="13.5768611"><ele>152.0</ele><time>2026-05-02T09:40:12.268Z</time></trkpt><trkpt lat="45.8544113" lon="13.5767768"><ele>152.0</ele><time>2026-05-02T09:40:13.268Z</time></trkpt><trkpt lat="45.8544546" lon="13.5766861"><ele>151.5</ele><time>2026-05-02T09:40:14.268Z</time></trkpt><trkpt lat="45.8544943" lon="13.5765988"><ele>151.0</ele><time>2026-05-02T09:40:15.268Z</time></trkpt><trkpt lat="45.8545276" lon="13.5765122"><ele>150.5</ele><time>2026-05-02T09:40:16.269Z</time></trkpt><trkpt lat="45.8545557" lon="13.5764207"><ele>150.0</ele><time>2026-05-02T09:40:17.268Z</time></trkpt><trkpt lat="45.8545827" lon="13.5763205"><ele>149.5</ele><time>2026-05-02T09:40:18.268Z</time></trkpt><trkpt lat="45.8546149" lon="13.5762139"><ele>149.0</ele><time>2026-05-02T09:40:19.268Z</time></trkpt><trkpt lat="45.854657" lon="13.5760965"><ele>148.5</ele><time>2026-05-02T09:40:20.268Z</time></trkpt><trkpt lat="45.8546986" lon="13.5759738"><ele>148.0</ele><time>2026-05-02T09:40:21.268Z</time></trkpt><trkpt lat="45.854738" lon="13.5758506"><ele>147.5</ele><time>2026-05-02T09:40:22.268Z</time></trkpt><trkpt lat="45.85478" lon="13.5757331"><ele>147.0</ele><time>2026-05-02T09:40:23.268Z</time></trkpt><trkpt lat="45.8548217" lon="13.5756244"><ele>146.5</ele><time>2026-05-02T09:40:24.268Z</time></trkpt><trkpt lat="45.8548579" lon="13.5755244"><ele>146.0</ele><time>2026-05-02T09:40:25.268Z</time></trkpt><trkpt lat="45.8548872" lon="13.5754387"><ele>145.5</ele><time>2026-05-02T09:40:26.268Z</time></trkpt><trkpt lat="45.8549216" lon="13.5752851"><ele>145.0</ele><time>2026-05-02T09:40:28.268Z</time></trkpt><trkpt lat="45.8549451" lon="13.5751204"><ele>144.5</ele><time>2026-05-02T09:40:30.268Z</time></trkpt><trkpt lat="45.855003" lon="13.5749759"><ele>144.0</ele><time>2026-05-02T09:40:32.268Z</time></trkpt><trkpt lat="45.855097" lon="13.5748837"><ele>143.2</ele><time>2026-05-02T09:40:34.268Z</time></trkpt><trkpt lat="45.8551893" lon="13.5748213"><ele>142.4</ele><time>2026-05-02T09:40:36.268Z</time></trkpt><trkpt lat="45.8552877" lon="13.5747562"><ele>141.6</ele><time>2026-05-02T09:40:38.268Z</time></trkpt><trkpt lat="45.8553794" lon="13.5747004"><ele>140.8</ele><time>2026-05-02T09:40:40.269Z</time></trkpt><trkpt lat="45.8554878" lon="13.5746362"><ele>140.0</ele><time>2026-05-02T09:40:42.268Z</time></trkpt><trkpt lat="45.8555958" lon="13.5745693"><ele>140.0</ele><time>2026-05-02T09:40:44.269Z</time></trkpt><trkpt lat="45.8556556" lon="13.574541"><ele>140.0</ele><time>2026-05-02T09:40:45.268Z</time></trkpt><trkpt lat="45.8557244" lon="13.5745178"><ele>140.0</ele><time>2026-05-02T09:40:46.268Z</time></trkpt><trkpt lat="45.855797" lon="13.5744959"><ele>140.0</ele><time>2026-05-02T09:40:47.268Z</time></trkpt><trkpt lat="45.8558633" lon="13.5744672"><ele>140.0</ele><time>2026-05-02T09:40:48.269Z</time></trkpt><trkpt lat="45.8559271" lon="13.57444"><ele>140.0</ele><time>2026-05-02T09:40:49.268Z</time></trkpt><trkpt lat="45.8559873" lon="13.5744128"><ele>140.0</ele><time>2026-05-02T09:40:50.269Z</time></trkpt><trkpt lat="45.8560972" lon="13.57435"><ele>139.14285714285714</ele><time>2026-05-02T09:40:52.268Z</time></trkpt><trkpt lat="45.8561681" lon="13.5743266"><ele>138.28571428571428</ele><time>2026-05-02T09:40:53.268Z</time></trkpt><trkpt lat="45.8562368" lon="13.5743073"><ele>137.42857142857144</ele><time>2026-05-02T09:40:54.268Z</time></trkpt><trkpt lat="45.8563062" lon="13.574283"><ele>136.57142857142856</ele><time>2026-05-02T09:40:55.268Z</time></trkpt><trkpt lat="45.8563794" lon="13.5742551"><ele>135.71428571428572</ele><time>2026-05-02T09:40:56.268Z</time></trkpt><trkpt lat="45.8564496" lon="13.5742355"><ele>134.85714285714286</ele><time>2026-05-02T09:40:57.269Z</time></trkpt><trkpt lat="45.8565169" lon="13.5742265"><ele>134.0</ele><time>2026-05-02T09:40:58.268Z</time></trkpt><trkpt lat="45.8565836" lon="13.5742178"><ele>134.0</ele><time>2026-05-02T09:40:59.268Z</time></trkpt><trkpt lat="45.8566523" lon="13.5742015"><ele>134.0</ele><time>2026-05-02T09:41:00.268Z</time></trkpt><trkpt lat="45.8567209" lon="13.5741759"><ele>134.0</ele><time>2026-05-02T09:41:01.268Z</time></trkpt><trkpt lat="45.8567937" lon="13.5741449"><ele>134.0</ele><time>2026-05-02T09:41:02.269Z</time></trkpt><trkpt lat="45.8568668" lon="13.574109"><ele>134.0</ele><time>2026-05-02T09:41:03.268Z</time></trkpt><trkpt lat="45.8569392" lon="13.5740889"><ele>134.0</ele><time>2026-05-02T09:41:04.268Z</time></trkpt><trkpt lat="45.8570165" lon="13.5740781"><ele>134.0</ele><time>2026-05-02T09:41:05.268Z</time></trkpt><trkpt lat="45.857094" lon="13.5740734"><ele>133.16666666666666</ele><time>2026-05-02T09:41:06.268Z</time></trkpt><trkpt lat="45.8571709" lon="13.5740699"><ele>132.33333333333331</ele><time>2026-05-02T09:41:07.268Z</time></trkpt><trkpt lat="45.8572448" lon="13.5740662"><ele>131.5</ele><time>2026-05-02T09:41:08.268Z</time></trkpt><trkpt lat="45.8573143" lon="13.5740553"><ele>130.66666666666666</ele><time>2026-05-02T09:41:09.268Z</time></trkpt><trkpt lat="45.8573789" lon="13.5740428"><ele>129.83333333333334</ele><time>2026-05-02T09:41:10.268Z</time></trkpt><trkpt lat="45.8575012" lon="13.57405"><ele>129.0</ele><time>2026-05-02T09:41:12.268Z</time></trkpt><trkpt lat="45.8576151" lon="13.5740076"><ele>127.7142857142857</ele><time>2026-05-02T09:41:14.268Z</time></trkpt><trkpt lat="45.857682" lon="13.5739676"><ele>126.42857142857142</ele><time>2026-05-02T09:41:15.268Z</time></trkpt><trkpt lat="45.8577482" lon="13.573935"><ele>125.14285714285714</ele><time>2026-05-02T09:41:16.269Z</time></trkpt><trkpt lat="45.8578168" lon="13.5739062"><ele>123.85714285714285</ele><time>2026-05-02T09:41:17.268Z</time></trkpt><trkpt lat="45.857889" lon="13.573878"><ele>122.57142857142856</ele><time>2026-05-02T09:41:18.268Z</time></trkpt><trkpt lat="45.8579559" lon="13.573853"><ele>121.28571428571429</ele><time>2026-05-02T09:41:19.269Z</time></trkpt><trkpt lat="45.8580207" lon="13.5738333"><ele>120.0</ele><time>2026-05-02T09:41:20.268Z</time></trkpt><trkpt lat="45.8581223" lon="13.5738258"><ele>120.0</ele><time>2026-05-02T09:41:22.268Z</time></trkpt><trkpt lat="45.8582493" lon="13.573838"><ele>120.0</ele><time>2026-05-02T09:41:24.268Z</time></trkpt><trkpt lat="45.8583198" lon="13.5738434"><ele>120.0</ele><time>2026-05-02T09:41:25.268Z</time></trkpt><trkpt lat="45.8583884" lon="13.573844"><ele>120.0</ele><time>2026-05-02T09:41:26.268Z</time></trkpt><trkpt lat="45.8584595" lon="13.5738395"><ele>120.0</ele><time>2026-05-02T09:41:27.268Z</time></trkpt><trkpt lat="45.8585327" lon="13.573836"><ele>120.0</ele><time>2026-05-02T09:41:28.268Z</time></trkpt><trkpt lat="45.858604" lon="13.5738383"><ele>119.85714285714286</ele><time>2026-05-02T09:41:29.268Z</time></trkpt><trkpt lat="45.8586708" lon="13.5738383"><ele>119.71428571428571</ele><time>2026-05-02T09:41:30.268Z</time></trkpt><trkpt lat="45.8587362" lon="13.5738321"><ele>119.57142857142857</ele><time>2026-05-02T09:41:31.268Z</time></trkpt><trkpt lat="45.8587992" lon="13.5738167"><ele>119.42857142857143</ele><time>2026-05-02T09:41:32.268Z</time></trkpt><trkpt lat="45.8588697" lon="13.5737864"><ele>119.28571428571428</ele><time>2026-05-02T09:41:33.268Z</time></trkpt><trkpt lat="45.8589419" lon="13.5737464"><ele>119.14285714285714</ele><time>2026-05-02T09:41:34.268Z</time></trkpt><trkpt lat="45.859012" lon="13.5737073"><ele>119.0</ele><time>2026-05-02T09:41:35.268Z</time></trkpt><trkpt lat="45.8590814" lon="13.5736607"><ele>118.14285714285714</ele><time>2026-05-02T09:41:36.268Z</time></trkpt><trkpt lat="45.859149" lon="13.5736108"><ele>117.28571428571428</ele><time>2026-05-02T09:41:37.268Z</time></trkpt><trkpt lat="45.8592132" lon="13.573568"><ele>116.42857142857143</ele><time>2026-05-02T09:41:38.268Z</time></trkpt><trkpt lat="45.8592768" lon="13.5735251"><ele>115.57142857142857</ele><time>2026-05-02T09:41:39.268Z</time></trkpt><trkpt lat="45.8593407" lon="13.5734797"><ele>114.71428571428571</ele><time>2026-05-02T09:41:40.268Z</time></trkpt><trkpt lat="45.8594086" lon="13.5734486"><ele>113.85714285714286</ele><time>2026-05-02T09:41:41.268Z</time></trkpt><trkpt lat="45.8594853" lon="13.5734229"><ele>113.0</ele><time>2026-05-02T09:41:42.268Z</time></trkpt><trkpt lat="45.8595642" lon="13.5733919"><ele>112.99999999999999</ele><time>2026-05-02T09:41:43.268Z</time></trkpt><trkpt lat="45.8596392" lon="13.5733607"><ele>113.0</ele><time>2026-05-02T09:41:44.268Z</time></trkpt><trkpt lat="45.8597002" lon="13.5733357"><ele>113.0</ele><time>2026-05-02T09:41:45.268Z</time></trkpt><trkpt lat="45.8597716" lon="13.5733137"><ele>113.0</ele><time>2026-05-02T09:41:46.268Z</time></trkpt><trkpt lat="45.8598509" lon="13.5732925"><ele>112.99999999999999</ele><time>2026-05-02T09:41:47.268Z</time></trkpt><trkpt lat="45.8599296" lon="13.5732675"><ele>113.0</ele><time>2026-05-02T09:41:48.268Z</time></trkpt><trkpt lat="45.8600084" lon="13.57324"><ele>112.99999999999999</ele><time>2026-05-02T09:41:49.268Z</time></trkpt><trkpt lat="45.8600816" lon="13.5732142"><ele>113.0</ele><time>2026-05-02T09:41:50.268Z</time></trkpt><trkpt lat="45.8601548" lon="13.5731738"><ele>113.0</ele><time>2026-05-02T09:41:51.268Z</time></trkpt><trkpt lat="45.860235" lon="13.5731205"><ele>113.0</ele><time>2026-05-02T09:41:52.269Z</time></trkpt><trkpt lat="45.86032" lon="13.5730607"><ele>112.99999999999999</ele><time>2026-05-02T09:41:53.269Z</time></trkpt><trkpt lat="45.860403" lon="13.5729984"><ele>113.0</ele><time>2026-05-02T09:41:54.268Z</time></trkpt><trkpt lat="45.8604827" lon="13.5729328"><ele>113.16666666666666</ele><time>2026-05-02T09:41:55.268Z</time></trkpt><trkpt lat="45.8605615" lon="13.5728613"><ele>113.33333333333333</ele><time>2026-05-02T09:41:56.268Z</time></trkpt><trkpt lat="45.8606356" lon="13.5727946"><ele>113.5</ele><time>2026-05-02T09:41:57.268Z</time></trkpt><trkpt lat="45.8607014" lon="13.5727334"><ele>113.66666666666666</ele><time>2026-05-02T09:41:58.268Z</time></trkpt><trkpt lat="45.8607591" lon="13.5726875"><ele>113.83333333333333</ele><time>2026-05-02T09:41:59.269Z</time></trkpt><trkpt lat="45.8608546" lon="13.5725952"><ele>114.0</ele><time>2026-05-02T09:42:01.269Z</time></trkpt><trkpt lat="45.8609397" lon="13.5725068"><ele>112.83333333333333</ele><time>2026-05-02T09:42:03.268Z</time></trkpt><trkpt lat="45.861004" lon="13.5724308"><ele>111.66666666666666</ele><time>2026-05-02T09:42:06.268Z</time></trkpt><trkpt lat="45.8610811" lon="13.5723649"><ele>110.5</ele><time>2026-05-02T09:42:09.268Z</time></trkpt><trkpt lat="45.8611596" lon="13.5723165"><ele>109.33333333333333</ele><time>2026-05-02T09:42:11.268Z</time></trkpt><trkpt lat="45.8612535" lon="13.5722352"><ele>108.16666666666666</ele><time>2026-05-02T09:42:13.268Z</time></trkpt><trkpt lat="45.861309" lon="13.5721911"><ele>107.0</ele><time>2026-05-02T09:42:14.269Z</time></trkpt><trkpt lat="45.8614174" lon="13.5721104"><ele>106.99999999999999</ele><time>2026-05-02T09:42:16.268Z</time></trkpt><trkpt lat="45.8615247" lon="13.5720257"><ele>107.0</ele><time>2026-05-02T09:42:18.268Z</time></trkpt><trkpt lat="45.8615805" lon="13.5719792"><ele>107.0</ele><time>2026-05-02T09:42:19.268Z</time></trkpt><trkpt lat="45.8616423" lon="13.5719359"><ele>107.0</ele><time>2026-05-02T09:42:20.268Z</time></trkpt><trkpt lat="45.8616994" lon="13.5718917"><ele>106.99999999999999</ele><time>2026-05-02T09:42:21.268Z</time></trkpt><trkpt lat="45.8617755" lon="13.5718447"><ele>107.0</ele><time>2026-05-02T09:42:23.268Z</time></trkpt><trkpt lat="45.8618606" lon="13.5718159"><ele>107.66666666666666</ele><time>2026-05-02T09:42:26.268Z</time></trkpt><trkpt lat="45.8619359" lon="13.5717827"><ele>108.33333333333333</ele><time>2026-05-02T09:42:29.268Z</time></trkpt><trkpt lat="45.8620355" lon="13.5717538"><ele>109.0</ele><time>2026-05-02T09:42:31.268Z</time></trkpt><trkpt lat="45.8621237" lon="13.5717324"><ele>109.66666666666666</ele><time>2026-05-02T09:42:33.268Z</time></trkpt><trkpt lat="45.8622221" lon="13.5717181"><ele>110.33333333333333</ele><time>2026-05-02T09:42:35.268Z</time></trkpt><trkpt lat="45.8622997" lon="13.5717051"><ele>111.0</ele><time>2026-05-02T09:42:37.269Z</time></trkpt><trkpt lat="45.8624032" lon="13.5716885"><ele>111.0</ele><time>2026-05-02T09:42:40.269Z</time></trkpt><trkpt lat="45.8624951" lon="13.5716282"><ele>111.0</ele><time>2026-05-02T09:42:42.268Z</time></trkpt><trkpt lat="45.8625873" lon="13.5715713"><ele>111.0</ele><time>2026-05-02T09:42:44.268Z</time></trkpt><trkpt lat="45.8626962" lon="13.5715497"><ele>111.0</ele><time>2026-05-02T09:42:46.268Z</time></trkpt><trkpt lat="45.8628109" lon="13.5715012"><ele>111.0</ele><time>2026-05-02T09:42:48.268Z</time></trkpt><trkpt lat="45.8628783" lon="13.571472"><ele>111.83333333333333</ele><time>2026-05-02T09:42:49.268Z</time></trkpt><trkpt lat="45.8629551" lon="13.571435"><ele>112.66666666666666</ele><time>2026-05-02T09:42:50.268Z</time></trkpt><trkpt lat="45.8630274" lon="13.5714036"><ele>113.5</ele><time>2026-05-02T09:42:51.269Z</time></trkpt><trkpt lat="45.8630912" lon="13.5713784"><ele>114.33333333333333</ele><time>2026-05-02T09:42:52.268Z</time></trkpt><trkpt lat="45.8632054" lon="13.5713074"><ele>115.16666666666666</ele><time>2026-05-02T09:42:54.269Z</time></trkpt><trkpt lat="45.8632671" lon="13.5712579"><ele>116.0</ele><time>2026-05-02T09:42:55.268Z</time></trkpt><trkpt lat="45.863328" lon="13.571211"><ele>115.71428571428572</ele><time>2026-05-02T09:42:56.268Z</time></trkpt><trkpt lat="45.8633827" lon="13.5711599"><ele>115.42857142857143</ele><time>2026-05-02T09:42:57.268Z</time></trkpt><trkpt lat="45.8634361" lon="13.5710993"><ele>115.14285714285714</ele><time>2026-05-02T09:42:58.268Z</time></trkpt><trkpt lat="45.8634886" lon="13.5710287"><ele>114.85714285714286</ele><time>2026-05-02T09:42:59.268Z</time></trkpt><trkpt lat="45.8635402" lon="13.5709603"><ele>114.57142857142856</ele><time>2026-05-02T09:43:00.268Z</time></trkpt><trkpt lat="45.8635882" lon="13.5708846"><ele>114.28571428571428</ele><time>2026-05-02T09:43:01.268Z</time></trkpt><trkpt lat="45.8636322" lon="13.5708054"><ele>114.0</ele><time>2026-05-02T09:43:02.268Z</time></trkpt><trkpt lat="45.8636765" lon="13.5707256"><ele>114.0</ele><time>2026-05-02T09:43:03.268Z</time></trkpt><trkpt lat="45.8637222" lon="13.5706434"><ele>114.0</ele><time>2026-05-02T09:43:04.268Z</time></trkpt><trkpt lat="45.8637701" lon="13.5705613"><ele>114.0</ele><time>2026-05-02T09:43:05.268Z</time></trkpt><trkpt lat="45.863811" lon="13.5704874"><ele>114.0</ele><time>2026-05-02T09:43:06.268Z</time></trkpt><trkpt lat="45.8638824" lon="13.5703723"><ele>114.0</ele><time>2026-05-02T09:43:08.268Z</time></trkpt><trkpt lat="45.8639388" lon="13.57027"><ele>114.0</ele><time>2026-05-02T09:43:10.269Z</time></trkpt><trkpt lat="45.8640031" lon="13.5701472"><ele>113.4</ele><time>2026-05-02T09:43:12.268Z</time></trkpt><trkpt lat="45.8640578" lon="13.5700248"><ele>112.80000000000001</ele><time>2026-05-02T09:43:14.268Z</time></trkpt><trkpt lat="45.8641277" lon="13.569899"><ele>112.19999999999999</ele><time>2026-05-02T09:43:16.269Z</time></trkpt><trkpt lat="45.8641909" lon="13.5697668"><ele>111.6</ele><time>2026-05-02T09:43:18.268Z</time></trkpt><trkpt lat="45.8642378" lon="13.5697039"><ele>111.0</ele><time>2026-05-02T09:43:19.268Z</time></trkpt><trkpt lat="45.8642761" lon="13.5696288"><ele>111.4</ele><time>2026-05-02T09:43:20.268Z</time></trkpt><trkpt lat="45.8643483" lon="13.5694938"><ele>111.8</ele><time>2026-05-02T09:43:22.269Z</time></trkpt><trkpt lat="45.8644338" lon="13.5693608"><ele>112.20000000000002</ele><time>2026-05-02T09:43:24.268Z</time></trkpt><trkpt lat="45.8644731" lon="13.5692898"><ele>112.60000000000001</ele><time>2026-05-02T09:43:25.268Z</time></trkpt><trkpt lat="45.8645405" lon="13.5691406"><ele>113.0</ele><time>2026-05-02T09:43:27.268Z</time></trkpt><trkpt lat="45.8645774" lon="13.5690514"><ele>112.99999999999999</ele><time>2026-05-02T09:43:28.268Z</time></trkpt><trkpt lat="45.8646157" lon="13.5689616"><ele>113.0</ele><time>2026-05-02T09:43:29.268Z</time></trkpt><trkpt lat="45.8646549" lon="13.5688739"><ele>113.0</ele><time>2026-05-02T09:43:30.268Z</time></trkpt><trkpt lat="45.864691" lon="13.5687905"><ele>113.0</ele><time>2026-05-02T09:43:31.268Z</time></trkpt><trkpt lat="45.8647567" lon="13.5686402"><ele>112.99999999999999</ele><time>2026-05-02T09:43:33.268Z</time></trkpt><trkpt lat="45.8648008" lon="13.56856"><ele>113.0</ele><time>2026-05-02T09:43:34.268Z</time></trkpt><trkpt lat="45.8648458" lon="13.5684711"><ele>111.80000000000001</ele><time>2026-05-02T09:43:35.268Z</time></trkpt><trkpt lat="45.8648874" lon="13.5683882"><ele>110.60000000000001</ele><time>2026-05-02T09:43:36.268Z</time></trkpt><trkpt lat="45.8649709" lon="13.568248"><ele>109.39999999999999</ele><time>2026-05-02T09:43:38.268Z</time></trkpt><trkpt lat="45.8650206" lon="13.5681827"><ele>108.19999999999999</ele><time>2026-05-02T09:43:39.268Z</time></trkpt><trkpt lat="45.8651065" lon="13.568068"><ele>107.0</ele><time>2026-05-02T09:43:41.268Z</time></trkpt><trkpt lat="45.8652001" lon="13.5679883"><ele>104.8</ele><time>2026-05-02T09:43:43.268Z</time></trkpt><trkpt lat="45.8653016" lon="13.5679626"><ele>102.6</ele><time>2026-05-02T09:43:45.268Z</time></trkpt><trkpt lat="45.865403" lon="13.568011"><ele>100.39999999999999</ele><time>2026-05-02T09:43:47.268Z</time></trkpt><trkpt lat="45.8654843" lon="13.5681263"><ele>98.19999999999999</ele><time>2026-05-02T09:43:49.268Z</time></trkpt><trkpt lat="45.8655604" lon="13.5682523"><ele>96.0</ele><time>2026-05-02T09:43:51.268Z</time></trkpt><trkpt lat="45.8656331" lon="13.5683696"><ele>96.0</ele><time>2026-05-02T09:43:53.268Z</time></trkpt><trkpt lat="45.8657047" lon="13.5684862"><ele>96.0</ele><time>2026-05-02T09:43:55.268Z</time></trkpt><trkpt lat="45.8657739" lon="13.5685913"><ele>96.0</ele><time>2026-05-02T09:43:57.268Z</time></trkpt><trkpt lat="45.8658369" lon="13.568706"><ele>96.0</ele><time>2026-05-02T09:43:59.268Z</time></trkpt><trkpt lat="45.8659012" lon="13.5688242"><ele>96.0</ele><time>2026-05-02T09:44:01.268Z</time></trkpt><trkpt lat="45.8659633" lon="13.5689383"><ele>94.4</ele><time>2026-05-02T09:44:03.269Z</time></trkpt><trkpt lat="45.866034" lon="13.5690604"><ele>92.8</ele><time>2026-05-02T09:44:05.268Z</time></trkpt><trkpt lat="45.8661025" lon="13.5691817"><ele>91.2</ele><time>2026-05-02T09:44:07.268Z</time></trkpt><trkpt lat="45.8661671" lon="13.5693075"><ele>89.60000000000001</ele><time>2026-05-02T09:44:09.268Z</time></trkpt><trkpt lat="45.866232" lon="13.5694239"><ele>88.0</ele><time>2026-05-02T09:44:11.269Z</time></trkpt><trkpt lat="45.866289" lon="13.5695487"><ele>88.0</ele><time>2026-05-02T09:44:13.268Z</time></trkpt><trkpt lat="45.8663475" lon="13.569676"><ele>88.0</ele><time>2026-05-02T09:44:15.268Z</time></trkpt><trkpt lat="45.8664108" lon="13.5697922"><ele>88.0</ele><time>2026-05-02T09:44:17.268Z</time></trkpt><trkpt lat="45.8664799" lon="13.5699074"><ele>88.0</ele><time>2026-05-02T09:44:19.268Z</time></trkpt><trkpt lat="45.8665609" lon="13.5700115"><ele>88.0</ele><time>2026-05-02T09:44:21.268Z</time></trkpt><trkpt lat="45.8666622" lon="13.5700981"><ele>88.0</ele><time>2026-05-02T09:44:23.268Z</time></trkpt><trkpt lat="45.866765" lon="13.5701653"><ele>88.0</ele><time>2026-05-02T09:44:25.268Z</time></trkpt><trkpt lat="45.8668638" lon="13.5702312"><ele>88.0</ele><time>2026-05-02T09:44:27.268Z</time></trkpt><trkpt lat="45.8669322" lon="13.5702738"><ele>88.0</ele><time>2026-05-02T09:44:29.268Z</time></trkpt><trkpt lat="45.8669093" lon="13.57033"><ele>88.0</ele><time>2026-05-02T09:51:31.272Z</time></trkpt><trkpt lat="45.8668302" lon="13.5703083"><ele>88.0</ele><time>2026-05-02T09:51:51.173Z</time></trkpt><trkpt lat="45.8667613" lon="13.5702759"><ele>88.0</ele><time>2026-05-02T09:51:53.263Z</time></trkpt><trkpt lat="45.8666542" lon="13.570215"><ele>88.0</ele><time>2026-05-02T09:51:55.263Z</time></trkpt><trkpt lat="45.8665876" lon="13.5701709"><ele>88.0</ele><time>2026-05-02T09:51:56.263Z</time></trkpt><trkpt lat="45.866483" lon="13.5700973"><ele>88.0</ele><time>2026-05-02T09:51:58.263Z</time></trkpt><trkpt lat="45.8663908" lon="13.5700186"><ele>88.0</ele><time>2026-05-02T09:52:00.263Z</time></trkpt><trkpt lat="45.8663058" lon="13.5699411"><ele>88.0</ele><time>2026-05-02T09:52:02.263Z</time></trkpt><trkpt lat="45.8662208" lon="13.5698577"><ele>88.0</ele><time>2026-05-02T09:52:04.263Z</time></trkpt><trkpt lat="45.8661582" lon="13.5697842"><ele>88.0</ele><time>2026-05-02T09:52:06.263Z</time></trkpt><trkpt lat="45.8660963" lon="13.5697043"><ele>88.0</ele><time>2026-05-02T09:52:08.263Z</time></trkpt><trkpt lat="45.8660365" lon="13.5696368"><ele>88.0</ele><time>2026-05-02T09:52:10.263Z</time></trkpt><trkpt lat="45.8659387" lon="13.5696631"><ele>88.0</ele><time>2026-05-02T09:52:13.263Z</time></trkpt><trkpt lat="45.8658914" lon="13.5697809"><ele>92.0</ele><time>2026-05-02T09:52:15.263Z</time></trkpt><trkpt lat="45.8658875" lon="13.5699216"><ele>96.0</ele><time>2026-05-02T09:52:17.263Z</time></trkpt><trkpt lat="45.865901" lon="13.5700852"><ele>100.00000000000001</ele><time>2026-05-02T09:52:19.263Z</time></trkpt><trkpt lat="45.8659103" lon="13.5702041"><ele>104.0</ele><time>2026-05-02T09:52:21.263Z</time></trkpt><trkpt lat="45.8659277" lon="13.5703536"><ele>108.0</ele><time>2026-05-02T09:52:23.263Z</time></trkpt><trkpt lat="45.8659345" lon="13.5704527"><ele>108.33333333333333</ele><time>2026-05-02T09:52:24.263Z</time></trkpt><trkpt lat="45.8659434" lon="13.5705635"><ele>108.66666666666666</ele><time>2026-05-02T09:52:25.263Z</time></trkpt><trkpt lat="45.8659569" lon="13.5706839"><ele>109.0</ele><time>2026-05-02T09:52:26.263Z</time></trkpt><trkpt lat="45.8659663" lon="13.5708022"><ele>109.33333333333333</ele><time>2026-05-02T09:52:27.263Z</time></trkpt><trkpt lat="45.865983" lon="13.570912"><ele>109.66666666666666</ele><time>2026-05-02T09:52:28.263Z</time></trkpt><trkpt lat="45.8660014" lon="13.5710108"><ele>110.0</ele><time>2026-05-02T09:52:29.263Z</time></trkpt><trkpt lat="45.8660262" lon="13.5711095"><ele>110.28571428571428</ele><time>2026-05-02T09:52:30.263Z</time></trkpt><trkpt lat="45.8660531" lon="13.5712066"><ele>110.57142857142857</ele><time>2026-05-02T09:52:31.263Z</time></trkpt><trkpt lat="45.8660766" lon="13.5713048"><ele>110.85714285714286</ele><time>2026-05-02T09:52:32.264Z</time></trkpt><trkpt lat="45.8660858" lon="13.5714018"><ele>111.14285714285714</ele><time>2026-05-02T09:52:33.263Z</time></trkpt><trkpt lat="45.8660852" lon="13.571502"><ele>111.42857142857143</ele><time>2026-05-02T09:52:34.263Z</time></trkpt><trkpt lat="45.8660761" lon="13.5716035"><ele>111.71428571428571</ele><time>2026-05-02T09:52:35.263Z</time></trkpt><trkpt lat="45.8660573" lon="13.5716924"><ele>112.0</ele><time>2026-05-02T09:52:36.263Z</time></trkpt><trkpt lat="45.8659942" lon="13.5718486"><ele>112.00000000000001</ele><time>2026-05-02T09:52:38.263Z</time></trkpt><trkpt lat="45.8659487" lon="13.5719312"><ele>112.0</ele><time>2026-05-02T09:52:39.263Z</time></trkpt><trkpt lat="45.8658951" lon="13.5720202"><ele>112.0</ele><time>2026-05-02T09:52:40.263Z</time></trkpt><trkpt lat="45.865831" lon="13.5721149"><ele>112.0</ele><time>2026-05-02T09:52:41.263Z</time></trkpt><trkpt lat="45.8657662" lon="13.5722075"><ele>112.00000000000001</ele><time>2026-05-02T09:52:42.263Z</time></trkpt><trkpt lat="45.8657019" lon="13.5722951"><ele>112.0</ele><time>2026-05-02T09:52:43.263Z</time></trkpt><trkpt lat="45.8656421" lon="13.5723792"><ele>112.50000000000001</ele><time>2026-05-02T09:52:44.263Z</time></trkpt><trkpt lat="45.8655873" lon="13.5724636"><ele>113.0</ele><time>2026-05-02T09:52:45.263Z</time></trkpt><trkpt lat="45.8655334" lon="13.5725506"><ele>113.5</ele><time>2026-05-02T09:52:46.263Z</time></trkpt><trkpt lat="45.8654781" lon="13.572629"><ele>114.0</ele><time>2026-05-02T09:52:47.263Z</time></trkpt><trkpt lat="45.8654202" lon="13.5726935"><ele>114.50000000000001</ele><time>2026-05-02T09:52:48.263Z</time></trkpt><trkpt lat="45.865367" lon="13.5727642"><ele>115.0</ele><time>2026-05-02T09:52:49.263Z</time></trkpt><trkpt lat="45.865312" lon="13.5728442"><ele>114.50000000000001</ele><time>2026-05-02T09:52:50.263Z</time></trkpt><trkpt lat="45.8652508" lon="13.5729259"><ele>114.0</ele><time>2026-05-02T09:52:51.263Z</time></trkpt><trkpt lat="45.865193" lon="13.5730096"><ele>113.5</ele><time>2026-05-02T09:52:52.263Z</time></trkpt><trkpt lat="45.8651236" lon="13.5731093"><ele>113.0</ele><time>2026-05-02T09:52:53.263Z</time></trkpt><trkpt lat="45.8650595" lon="13.5732032"><ele>112.50000000000001</ele><time>2026-05-02T09:52:54.263Z</time></trkpt><trkpt lat="45.8649989" lon="13.5732987"><ele>112.0</ele><time>2026-05-02T09:52:55.263Z</time></trkpt><trkpt lat="45.8649469" lon="13.5733874"><ele>113.71428571428572</ele><time>2026-05-02T09:52:56.263Z</time></trkpt><trkpt lat="45.8649052" lon="13.5734643"><ele>115.42857142857143</ele><time>2026-05-02T09:52:57.263Z</time></trkpt><trkpt lat="45.8648713" lon="13.5735427"><ele>117.14285714285714</ele><time>2026-05-02T09:52:58.263Z</time></trkpt><trkpt lat="45.8648473" lon="13.5736329"><ele>118.85714285714286</ele><time>2026-05-02T09:52:59.263Z</time></trkpt><trkpt lat="45.8648382" lon="13.5737325"><ele>120.57142857142858</ele><time>2026-05-02T09:53:00.263Z</time></trkpt><trkpt lat="45.8648459" lon="13.5738234"><ele>122.28571428571429</ele><time>2026-05-02T09:53:01.263Z</time></trkpt><trkpt lat="45.8648699" lon="13.5739117"><ele>124.0</ele><time>2026-05-02T09:53:02.263Z</time></trkpt><trkpt lat="45.8649036" lon="13.5739932"><ele>124.00000000000001</ele><time>2026-05-02T09:53:03.263Z</time></trkpt><trkpt lat="45.8649431" lon="13.574065"><ele>124.0</ele><time>2026-05-02T09:53:04.264Z</time></trkpt><trkpt lat="45.8649921" lon="13.5741713"><ele>124.0</ele><time>2026-05-02T09:53:06.263Z</time></trkpt><trkpt lat="45.8649243" lon="13.5742086"><ele>124.0</ele><time>2026-05-02T09:53:17.272Z</time></trkpt><trkpt lat="45.8648353" lon="13.5741853"><ele>124.00000000000001</ele><time>2026-05-02T09:53:18.263Z</time></trkpt><trkpt lat="45.8647723" lon="13.5741784"><ele>124.0</ele><time>2026-05-02T09:53:19.263Z</time></trkpt><trkpt lat="45.8646977" lon="13.574231"><ele>124.0</ele><time>2026-05-02T09:53:21.263Z</time></trkpt><trkpt lat="45.8646488" lon="13.5743392"><ele>124.0</ele><time>2026-05-02T09:53:23.263Z</time></trkpt><trkpt lat="45.8645913" lon="13.5744787"><ele>124.0</ele><time>2026-05-02T09:53:25.263Z</time></trkpt><trkpt lat="45.8645443" lon="13.5745964"><ele>124.0</ele><time>2026-05-02T09:53:27.263Z</time></trkpt><trkpt lat="45.8645016" lon="13.5747399"><ele>124.0</ele><time>2026-05-02T09:53:29.263Z</time></trkpt><trkpt lat="45.8644704" lon="13.5748222"><ele>124.0</ele><time>2026-05-02T09:53:30.263Z</time></trkpt><trkpt lat="45.8644372" lon="13.5749055"><ele>124.00000000000001</ele><time>2026-05-02T09:53:31.263Z</time></trkpt><trkpt lat="45.864404" lon="13.5750003"><ele>124.0</ele><time>2026-05-02T09:53:32.263Z</time></trkpt><trkpt lat="45.864369" lon="13.5750944"><ele>124.0</ele><time>2026-05-02T09:53:33.263Z</time></trkpt><trkpt lat="45.8643438" lon="13.575182"><ele>124.00000000000001</ele><time>2026-05-02T09:53:34.263Z</time></trkpt><trkpt lat="45.8643155" lon="13.575273"><ele>124.0</ele><time>2026-05-02T09:53:35.263Z</time></trkpt><trkpt lat="45.8642861" lon="13.5753625"><ele>124.0</ele><time>2026-05-02T09:53:36.263Z</time></trkpt><trkpt lat="45.8642543" lon="13.5754507"><ele>124.83333333333334</ele><time>2026-05-02T09:53:37.263Z</time></trkpt><trkpt lat="45.8642225" lon="13.5755324"><ele>125.66666666666667</ele><time>2026-05-02T09:53:38.263Z</time></trkpt><trkpt lat="45.8641688" lon="13.5756385"><ele>126.5</ele><time>2026-05-02T09:53:40.263Z</time></trkpt><trkpt lat="45.8641032" lon="13.5756582"><ele>127.33333333333334</ele><time>2026-05-02T09:53:42.264Z</time></trkpt><trkpt lat="45.8640164" lon="13.5756195"><ele>128.16666666666666</ele><time>2026-05-02T09:53:44.263Z</time></trkpt><trkpt lat="45.8639154" lon="13.5756488"><ele>129.0</ele><time>2026-05-02T09:53:46.263Z</time></trkpt><trkpt lat="45.8638523" lon="13.5757018"><ele>129.0</ele><time>2026-05-02T09:53:48.263Z</time></trkpt><trkpt lat="45.8637929" lon="13.5757744"><ele>129.0</ele><time>2026-05-02T09:53:50.263Z</time></trkpt><trkpt lat="45.8637765" lon="13.5758923"><ele>129.0</ele><time>2026-05-02T09:53:52.263Z</time></trkpt><trkpt lat="45.8638063" lon="13.5759839"><ele>129.0</ele><time>2026-05-02T09:53:54.297Z</time></trkpt><trkpt lat="45.863868" lon="13.5760712"><ele>129.0</ele><time>2026-05-02T09:53:56.263Z</time></trkpt><trkpt lat="45.8639341" lon="13.5761701"><ele>129.0</ele><time>2026-05-02T09:53:58.263Z</time></trkpt><trkpt lat="45.8639673" lon="13.5763205"><ele>129.4</ele><time>2026-05-02T09:54:00.264Z</time></trkpt><trkpt lat="45.8639602" lon="13.5764878"><ele>129.8</ele><time>2026-05-02T09:54:02.263Z</time></trkpt><trkpt lat="45.8639618" lon="13.576646"><ele>130.2</ele><time>2026-05-02T09:54:04.263Z</time></trkpt><trkpt lat="45.8640112" lon="13.5767835"><ele>130.6</ele><time>2026-05-02T09:54:06.263Z</time></trkpt><trkpt lat="45.8640671" lon="13.5769033"><ele>131.0</ele><time>2026-05-02T09:54:08.263Z</time></trkpt><trkpt lat="45.8641275" lon="13.5769997"><ele>131.33333333333331</ele><time>2026-05-02T09:54:10.263Z</time></trkpt><trkpt lat="45.8642019" lon="13.5770782"><ele>131.66666666666666</ele><time>2026-05-02T09:54:12.263Z</time></trkpt><trkpt lat="45.8643188" lon="13.5771588"><ele>132.0</ele><time>2026-05-02T09:54:14.263Z</time></trkpt><trkpt lat="45.8643899" lon="13.5771963"><ele>132.33333333333334</ele><time>2026-05-02T09:54:15.263Z</time></trkpt><trkpt lat="45.8644597" lon="13.577232"><ele>132.66666666666669</ele><time>2026-05-02T09:54:16.263Z</time></trkpt><trkpt lat="45.8645284" lon="13.5772624"><ele>133.0</ele><time>2026-05-02T09:54:17.263Z</time></trkpt><trkpt lat="45.8646008" lon="13.5773081"><ele>133.0</ele><time>2026-05-02T09:54:19.263Z</time></trkpt><trkpt lat="45.8646276" lon="13.5774317"><ele>133.0</ele><time>2026-05-02T09:54:23.263Z</time></trkpt><trkpt lat="45.8646507" lon="13.5775196"><ele>133.0</ele><time>2026-05-02T09:54:25.24Z</time></trkpt><trkpt lat="45.8646351" lon="13.5776093"><ele>133.0</ele><time>2026-05-02T09:54:26.263Z</time></trkpt><trkpt lat="45.8646027" lon="13.5777746"><ele>133.0</ele><time>2026-05-02T09:54:28.263Z</time></trkpt><trkpt lat="45.8645662" lon="13.577899"><ele>133.0</ele><time>2026-05-02T09:54:30.263Z</time></trkpt><trkpt lat="45.8645128" lon="13.5779939"><ele>134.20000000000002</ele><time>2026-05-02T09:54:32.263Z</time></trkpt><trkpt lat="45.8644293" lon="13.5780755"><ele>135.4</ele><time>2026-05-02T09:54:34.263Z</time></trkpt><trkpt lat="45.864341" lon="13.5781475"><ele>136.60000000000002</ele><time>2026-05-02T09:54:36.263Z</time></trkpt><trkpt lat="45.864275" lon="13.5782413"><ele>137.8</ele><time>2026-05-02T09:54:39.296Z</time></trkpt><trkpt lat="45.8642431" lon="13.5783239"><ele>139.0</ele><time>2026-05-02T09:54:40.263Z</time></trkpt><trkpt lat="45.8642043" lon="13.5784494"><ele>139.5</ele><time>2026-05-02T09:54:42.263Z</time></trkpt><trkpt lat="45.8641748" lon="13.5785568"><ele>140.0</ele><time>2026-05-02T09:54:44.263Z</time></trkpt><trkpt lat="45.8641219" lon="13.5786484"><ele>140.5</ele><time>2026-05-02T09:54:46.263Z</time></trkpt><trkpt lat="45.8640974" lon="13.5787522"><ele>141.0</ele><time>2026-05-02T09:54:48.274Z</time></trkpt><trkpt lat="45.8641001" lon="13.5788546"><ele>141.5</ele><time>2026-05-02T09:54:50.263Z</time></trkpt><trkpt lat="45.8640695" lon="13.5789796"><ele>142.0</ele><time>2026-05-02T09:54:53.264Z</time></trkpt><trkpt lat="45.8640325" lon="13.5790705"><ele>142.66666666666669</ele><time>2026-05-02T09:54:55.22Z</time></trkpt><trkpt lat="45.8640367" lon="13.5791692"><ele>143.33333333333334</ele><time>2026-05-02T09:54:57.263Z</time></trkpt><trkpt lat="45.8640332" lon="13.5792724"><ele>144.0</ele><time>2026-05-02T09:54:59.219Z</time></trkpt><trkpt lat="45.8640072" lon="13.5793901"><ele>144.66666666666666</ele><time>2026-05-02T09:55:01.263Z</time></trkpt><trkpt lat="45.8639696" lon="13.5795225"><ele>145.33333333333331</ele><time>2026-05-02T09:55:03.263Z</time></trkpt><trkpt lat="45.8639325" lon="13.5796516"><ele>146.0</ele><time>2026-05-02T09:55:05.263Z</time></trkpt><trkpt lat="45.86389" lon="13.5797412"><ele>147.0</ele><time>2026-05-02T09:55:07.263Z</time></trkpt><trkpt lat="45.86384" lon="13.5798574"><ele>148.0</ele><time>2026-05-02T09:55:09.263Z</time></trkpt><trkpt lat="45.8637908" lon="13.5799765"><ele>149.0</ele><time>2026-05-02T09:55:11.263Z</time></trkpt><trkpt lat="45.8637255" lon="13.5800724"><ele>150.0</ele><time>2026-05-02T09:55:13.263Z</time></trkpt><trkpt lat="45.863638" lon="13.5801842"><ele>151.0</ele><time>2026-05-02T09:55:15.263Z</time></trkpt><trkpt lat="45.8635549" lon="13.5803152"><ele>151.6</ele><time>2026-05-02T09:55:17.263Z</time></trkpt><trkpt lat="45.8634759" lon="13.5804476"><ele>152.2</ele><time>2026-05-02T09:55:19.263Z</time></trkpt><trkpt lat="45.8634339" lon="13.5805216"><ele>152.8</ele><time>2026-05-02T09:55:20.263Z</time></trkpt><trkpt lat="45.863392" lon="13.5805964"><ele>153.4</ele><time>2026-05-02T09:55:21.263Z</time></trkpt><trkpt lat="45.8633264" lon="13.5807278"><ele>154.0</ele><time>2026-05-02T09:55:23.263Z</time></trkpt><trkpt lat="45.8632828" lon="13.58088"><ele>154.0</ele><time>2026-05-02T09:55:25.263Z</time></trkpt><trkpt lat="45.8632408" lon="13.5810305"><ele>154.0</ele><time>2026-05-02T09:55:27.263Z</time></trkpt><trkpt lat="45.8631897" lon="13.5811902"><ele>154.0</ele><time>2026-05-02T09:55:29.264Z</time></trkpt><trkpt lat="45.8631667" lon="13.5813204"><ele>154.0</ele><time>2026-05-02T09:55:31.264Z</time></trkpt><trkpt lat="45.8631264" lon="13.581435"><ele>154.0</ele><time>2026-05-02T09:55:33.263Z</time></trkpt><trkpt lat="45.8630634" lon="13.5815554"><ele>154.6</ele><time>2026-05-02T09:55:35.263Z</time></trkpt><trkpt lat="45.8629813" lon="13.5816634"><ele>155.2</ele><time>2026-05-02T09:55:37.264Z</time></trkpt><trkpt lat="45.8629161" lon="13.5817527"><ele>155.79999999999998</ele><time>2026-05-02T09:55:39.263Z</time></trkpt><trkpt lat="45.8628666" lon="13.5818613"><ele>156.4</ele><time>2026-05-02T09:55:41.263Z</time></trkpt><trkpt lat="45.8628294" lon="13.5820216"><ele>157.0</ele><time>2026-05-02T09:55:43.264Z</time></trkpt><trkpt lat="45.8627978" lon="13.5821641"><ele>157.66666666666669</ele><time>2026-05-02T09:55:45.263Z</time></trkpt><trkpt lat="45.8627985" lon="13.5822563"><ele>158.33333333333334</ele><time>2026-05-02T09:55:46.263Z</time></trkpt><trkpt lat="45.8628049" lon="13.5823507"><ele>159.0</ele><time>2026-05-02T09:55:47.263Z</time></trkpt><trkpt lat="45.8628171" lon="13.5824423"><ele>159.66666666666666</ele><time>2026-05-02T09:55:48.263Z</time></trkpt><trkpt lat="45.8628165" lon="13.5826036"><ele>160.33333333333331</ele><time>2026-05-02T09:55:50.263Z</time></trkpt><trkpt lat="45.8627998" lon="13.582772"><ele>161.0</ele><time>2026-05-02T09:55:52.263Z</time></trkpt><trkpt lat="45.8627497" lon="13.5829026"><ele>161.83333333333331</ele><time>2026-05-02T09:55:54.263Z</time></trkpt><trkpt lat="45.8626715" lon="13.5830048"><ele>162.66666666666666</ele><time>2026-05-02T09:55:56.263Z</time></trkpt><trkpt lat="45.8626383" lon="13.5830817"><ele>163.5</ele><time>2026-05-02T09:55:57.263Z</time></trkpt><trkpt lat="45.8625588" lon="13.5832191"><ele>164.33333333333334</ele><time>2026-05-02T09:55:59.263Z</time></trkpt><trkpt lat="45.8625041" lon="13.5832854"><ele>165.16666666666669</ele><time>2026-05-02T09:56:00.264Z</time></trkpt><trkpt lat="45.862451" lon="13.58335"><ele>166.0</ele><time>2026-05-02T09:56:01.263Z</time></trkpt><trkpt lat="45.8623446" lon="13.5834289"><ele>166.16666666666669</ele><time>2026-05-02T09:56:03.263Z</time></trkpt><trkpt lat="45.8622349" lon="13.5834908"><ele>166.33333333333334</ele><time>2026-05-02T09:56:05.263Z</time></trkpt><trkpt lat="45.8621754" lon="13.5835484"><ele>166.5</ele><time>2026-05-02T09:56:06.263Z</time></trkpt><trkpt lat="45.8621207" lon="13.5836117"><ele>166.66666666666666</ele><time>2026-05-02T09:56:07.263Z</time></trkpt><trkpt lat="45.8620676" lon="13.5836809"><ele>166.83333333333331</ele><time>2026-05-02T09:56:08.263Z</time></trkpt><trkpt lat="45.8620094" lon="13.5837571"><ele>167.0</ele><time>2026-05-02T09:56:09.263Z</time></trkpt><trkpt lat="45.8619451" lon="13.5838307"><ele>167.0</ele><time>2026-05-02T09:56:10.264Z</time></trkpt><trkpt lat="45.8618793" lon="13.5839001"><ele>167.0</ele><time>2026-05-02T09:56:11.263Z</time></trkpt><trkpt lat="45.8618142" lon="13.5839658"><ele>167.0</ele><time>2026-05-02T09:56:12.264Z</time></trkpt><trkpt lat="45.8617515" lon="13.5840241"><ele>167.0</ele><time>2026-05-02T09:56:13.264Z</time></trkpt><trkpt lat="45.8616891" lon="13.5840745"><ele>167.0</ele><time>2026-05-02T09:56:14.264Z</time></trkpt><trkpt lat="45.8616225" lon="13.5841213"><ele>167.0</ele><time>2026-05-02T09:56:15.264Z</time></trkpt><trkpt lat="45.861557" lon="13.5841594"><ele>167.57142857142856</ele><time>2026-05-02T09:56:16.264Z</time></trkpt><trkpt lat="45.8614955" lon="13.5841968"><ele>168.14285714285714</ele><time>2026-05-02T09:56:17.263Z</time></trkpt><trkpt lat="45.8614331" lon="13.5842397"><ele>168.71428571428572</ele><time>2026-05-02T09:56:18.263Z</time></trkpt><trkpt lat="45.8613731" lon="13.5842912"><ele>169.28571428571428</ele><time>2026-05-02T09:56:19.263Z</time></trkpt><trkpt lat="45.8613168" lon="13.584352"><ele>169.85714285714286</ele><time>2026-05-02T09:56:20.263Z</time></trkpt><trkpt lat="45.8612696" lon="13.5844208"><ele>170.42857142857142</ele><time>2026-05-02T09:56:21.263Z</time></trkpt><trkpt lat="45.861235" lon="13.5845044"><ele>171.0</ele><time>2026-05-02T09:56:22.263Z</time></trkpt><trkpt lat="45.8612173" lon="13.5845962"><ele>171.33333333333334</ele><time>2026-05-02T09:56:23.263Z</time></trkpt><trkpt lat="45.8612167" lon="13.584694"><ele>171.66666666666666</ele><time>2026-05-02T09:56:24.263Z</time></trkpt><trkpt lat="45.8612252" lon="13.5847945"><ele>172.0</ele><time>2026-05-02T09:56:25.263Z</time></trkpt><trkpt lat="45.8612333" lon="13.5848976"><ele>172.33333333333331</ele><time>2026-05-02T09:56:26.263Z</time></trkpt><trkpt lat="45.861238" lon="13.5850094"><ele>172.66666666666666</ele><time>2026-05-02T09:56:27.263Z</time></trkpt><trkpt lat="45.8612394" lon="13.5851262"><ele>173.0</ele><time>2026-05-02T09:56:28.263Z</time></trkpt><trkpt lat="45.8612341" lon="13.5852554"><ele>173.33333333333331</ele><time>2026-05-02T09:56:29.263Z</time></trkpt><trkpt lat="45.86123" lon="13.5853886"><ele>173.66666666666666</ele><time>2026-05-02T09:56:30.263Z</time></trkpt><trkpt lat="45.861228" lon="13.5855105"><ele>174.0</ele><time>2026-05-02T09:56:31.263Z</time></trkpt><trkpt lat="45.8612227" lon="13.5856263"><ele>174.33333333333334</ele><time>2026-05-02T09:56:32.263Z</time></trkpt><trkpt lat="45.8612114" lon="13.5857413"><ele>174.66666666666669</ele><time>2026-05-02T09:56:33.263Z</time></trkpt><trkpt lat="45.8611946" lon="13.5858439"><ele>175.0</ele><time>2026-05-02T09:56:34.263Z</time></trkpt><trkpt lat="45.8611649" lon="13.5859972"><ele>175.0</ele><time>2026-05-02T09:56:36.263Z</time></trkpt><trkpt lat="45.861133" lon="13.5860774"><ele>175.0</ele><time>2026-05-02T09:56:39.263Z</time></trkpt><trkpt lat="45.8611093" lon="13.5862552"><ele>175.0</ele><time>2026-05-02T09:57:27.263Z</time></trkpt><trkpt lat="45.86109" lon="13.586373"><ele>175.0</ele><time>2026-05-02T09:57:28.263Z</time></trkpt><trkpt lat="45.861062" lon="13.5865322"><ele>175.0</ele><time>2026-05-02T09:57:30.263Z</time></trkpt><trkpt lat="45.86106" lon="13.5866921"><ele>175.6</ele><time>2026-05-02T09:57:32.263Z</time></trkpt><trkpt lat="45.8610607" lon="13.5868612"><ele>176.2</ele><time>2026-05-02T09:57:34.263Z</time></trkpt><trkpt lat="45.8610481" lon="13.5870355"><ele>176.8</ele><time>2026-05-02T09:57:36.263Z</time></trkpt><trkpt lat="45.8610151" lon="13.5871797"><ele>177.4</ele><time>2026-05-02T09:57:38.263Z</time></trkpt><trkpt lat="45.8609913" lon="13.5873203"><ele>178.0</ele><time>2026-05-02T09:57:40.263Z</time></trkpt><trkpt lat="45.860992" lon="13.5874912"><ele>178.60000000000002</ele><time>2026-05-02T09:57:42.264Z</time></trkpt><trkpt lat="45.8609997" lon="13.5876563"><ele>179.20000000000002</ele><time>2026-05-02T09:57:44.263Z</time></trkpt><trkpt lat="45.8609943" lon="13.5878125"><ele>179.8</ele><time>2026-05-02T09:57:46.264Z</time></trkpt><trkpt lat="45.8609576" lon="13.5879591"><ele>180.4</ele><time>2026-05-02T09:57:48.264Z</time></trkpt><trkpt lat="45.8609016" lon="13.5880969"><ele>181.0</ele><time>2026-05-02T09:57:50.263Z</time></trkpt><trkpt lat="45.8608362" lon="13.588233"><ele>181.33333333333334</ele><time>2026-05-02T09:57:52.263Z</time></trkpt><trkpt lat="45.8607742" lon="13.5883849"><ele>181.66666666666669</ele><time>2026-05-02T09:57:54.263Z</time></trkpt><trkpt lat="45.8607483" lon="13.5884726"><ele>182.0</ele><time>2026-05-02T09:57:55.263Z</time></trkpt><trkpt lat="45.8607253" lon="13.5885666"><ele>182.33333333333334</ele><time>2026-05-02T09:57:56.263Z</time></trkpt><trkpt lat="45.8607076" lon="13.5886627"><ele>182.66666666666666</ele><time>2026-05-02T09:57:57.264Z</time></trkpt><trkpt lat="45.8606927" lon="13.5887555"><ele>183.0</ele><time>2026-05-02T09:57:58.263Z</time></trkpt><trkpt lat="45.860683" lon="13.5888454"><ele>183.4</ele><time>2026-05-02T09:57:59.263Z</time></trkpt><trkpt lat="45.8606627" lon="13.5890071"><ele>183.8</ele><time>2026-05-02T09:58:01.263Z</time></trkpt><trkpt lat="45.8606111" lon="13.5891509"><ele>184.2</ele><time>2026-05-02T09:58:03.263Z</time></trkpt><trkpt lat="45.8605429" lon="13.5892521"><ele>184.6</ele><time>2026-05-02T09:58:05.263Z</time></trkpt><trkpt lat="45.8604677" lon="13.5893454"><ele>185.0</ele><time>2026-05-02T09:58:07.263Z</time></trkpt><trkpt lat="45.8604161" lon="13.5894631"><ele>185.4</ele><time>2026-05-02T09:58:09.263Z</time></trkpt><trkpt lat="45.8603798" lon="13.589606"><ele>185.8</ele><time>2026-05-02T09:58:11.263Z</time></trkpt><trkpt lat="45.8603291" lon="13.5897595"><ele>186.2</ele><time>2026-05-02T09:58:13.264Z</time></trkpt><trkpt lat="45.8603004" lon="13.5898429"><ele>186.6</ele><time>2026-05-02T09:58:14.263Z</time></trkpt><trkpt lat="45.8602626" lon="13.5899397"><ele>187.0</ele><time>2026-05-02T09:58:15.263Z</time></trkpt><trkpt lat="45.8602173" lon="13.5900444"><ele>187.0</ele><time>2026-05-02T09:58:16.263Z</time></trkpt><trkpt lat="45.8601713" lon="13.5901441"><ele>187.0</ele><time>2026-05-02T09:58:17.263Z</time></trkpt><trkpt lat="45.8601275" lon="13.5902341"><ele>187.0</ele><time>2026-05-02T09:58:18.263Z</time></trkpt><trkpt lat="45.8600851" lon="13.5903196"><ele>187.0</ele><time>2026-05-02T09:58:19.263Z</time></trkpt><trkpt lat="45.8600503" lon="13.5904034"><ele>187.0</ele><time>2026-05-02T09:58:20.263Z</time></trkpt><trkpt lat="45.8600272" lon="13.590497"><ele>187.0</ele><time>2026-05-02T09:58:21.263Z</time></trkpt><trkpt lat="45.8600209" lon="13.5906677"><ele>187.16666666666669</ele><time>2026-05-02T09:58:23.263Z</time></trkpt><trkpt lat="45.8600415" lon="13.5908447"><ele>187.33333333333334</ele><time>2026-05-02T09:58:25.264Z</time></trkpt><trkpt lat="45.8600352" lon="13.5909363"><ele>187.5</ele><time>2026-05-02T09:58:26.263Z</time></trkpt><trkpt lat="45.8600116" lon="13.5910294"><ele>187.66666666666666</ele><time>2026-05-02T09:58:27.263Z</time></trkpt><trkpt lat="45.8599756" lon="13.5911228"><ele>187.83333333333331</ele><time>2026-05-02T09:58:28.263Z</time></trkpt><trkpt lat="45.8599286" lon="13.591207"><ele>188.0</ele><time>2026-05-02T09:58:29.263Z</time></trkpt><trkpt lat="45.859866" lon="13.591272"><ele>188.0</ele><time>2026-05-02T09:58:30.263Z</time></trkpt><trkpt lat="45.8598058" lon="13.5913269"><ele>188.0</ele><time>2026-05-02T09:58:31.263Z</time></trkpt><trkpt lat="45.8597236" lon="13.5914069"><ele>188.0</ele><time>2026-05-02T09:58:33.263Z</time></trkpt><trkpt lat="45.8596801" lon="13.5914778"><ele>188.0</ele><time>2026-05-02T09:58:34.263Z</time></trkpt><trkpt lat="45.8596377" lon="13.5915674"><ele>188.0</ele><time>2026-05-02T09:58:35.263Z</time></trkpt><trkpt lat="45.8595971" lon="13.5916848"><ele>188.0</ele><time>2026-05-02T09:58:36.263Z</time></trkpt><trkpt lat="45.8595553" lon="13.5918047"><ele>188.0</ele><time>2026-05-02T09:58:37.263Z</time></trkpt><trkpt lat="45.8595161" lon="13.5919149"><ele>188.0</ele><time>2026-05-02T09:58:38.263Z</time></trkpt><trkpt lat="45.85948" lon="13.5920206"><ele>188.0</ele><time>2026-05-02T09:58:39.263Z</time></trkpt><trkpt lat="45.8594474" lon="13.5921263"><ele>188.0</ele><time>2026-05-02T09:58:40.264Z</time></trkpt><trkpt lat="45.8594164" lon="13.5922363"><ele>188.0</ele><time>2026-05-02T09:58:41.263Z</time></trkpt><trkpt lat="45.8593797" lon="13.5923506"><ele>188.0</ele><time>2026-05-02T09:58:42.263Z</time></trkpt><trkpt lat="45.859341" lon="13.5924585"><ele>187.83333333333331</ele><time>2026-05-02T09:58:43.263Z</time></trkpt><trkpt lat="45.859294" lon="13.5925627"><ele>187.66666666666666</ele><time>2026-05-02T09:58:44.263Z</time></trkpt><trkpt lat="45.8592457" lon="13.5926516"><ele>187.5</ele><time>2026-05-02T09:58:45.263Z</time></trkpt><trkpt lat="45.8591921" lon="13.5927363"><ele>187.33333333333334</ele><time>2026-05-02T09:58:46.263Z</time></trkpt><trkpt lat="45.8591431" lon="13.5928227"><ele>187.16666666666669</ele><time>2026-05-02T09:58:47.263Z</time></trkpt><trkpt lat="45.8591036" lon="13.592918"><ele>187.0</ele><time>2026-05-02T09:58:48.263Z</time></trkpt><trkpt lat="45.8590701" lon="13.5930262"><ele>187.66666666666669</ele><time>2026-05-02T09:58:49.263Z</time></trkpt><trkpt lat="45.859039" lon="13.5931467"><ele>188.33333333333334</ele><time>2026-05-02T09:58:50.263Z</time></trkpt><trkpt lat="45.859001" lon="13.5932637"><ele>189.0</ele><time>2026-05-02T09:58:51.263Z</time></trkpt><trkpt lat="45.8589635" lon="13.5933779"><ele>189.66666666666666</ele><time>2026-05-02T09:58:52.263Z</time></trkpt><trkpt lat="45.8589291" lon="13.5935023"><ele>190.33333333333331</ele><time>2026-05-02T09:58:53.263Z</time></trkpt><trkpt lat="45.8588968" lon="13.5936208"><ele>191.0</ele><time>2026-05-02T09:58:54.263Z</time></trkpt><trkpt lat="45.8588698" lon="13.5937385"><ele>191.0</ele><time>2026-05-02T09:58:55.263Z</time></trkpt><trkpt lat="45.8588423" lon="13.5938507"><ele>191.0</ele><time>2026-05-02T09:58:56.263Z</time></trkpt><trkpt lat="45.8588109" lon="13.5939549"><ele>191.0</ele><time>2026-05-02T09:58:57.264Z</time></trkpt><trkpt lat="45.8587705" lon="13.5940556"><ele>191.0</ele><time>2026-05-02T09:58:58.263Z</time></trkpt><trkpt lat="45.8587244" lon="13.5941546"><ele>191.0</ele><time>2026-05-02T09:58:59.263Z</time></trkpt><trkpt lat="45.8586759" lon="13.594244"><ele>191.0</ele><time>2026-05-02T09:59:00.263Z</time></trkpt><trkpt lat="45.8586314" lon="13.5943305"><ele>191.0</ele><time>2026-05-02T09:59:01.263Z</time></trkpt><trkpt lat="45.8585934" lon="13.5944185"><ele>191.0</ele><time>2026-05-02T09:59:02.263Z</time></trkpt><trkpt lat="45.8585586" lon="13.5945183"><ele>191.0</ele><time>2026-05-02T09:59:03.263Z</time></trkpt><trkpt lat="45.8585251" lon="13.5946344"><ele>191.0</ele><time>2026-05-02T09:59:04.263Z</time></trkpt><trkpt lat="45.8584903" lon="13.5947473"><ele>191.0</ele><time>2026-05-02T09:59:05.263Z</time></trkpt><trkpt lat="45.8584494" lon="13.5948496"><ele>191.0</ele><time>2026-05-02T09:59:06.263Z</time></trkpt><trkpt lat="45.8584077" lon="13.5949481"><ele>192.0</ele><time>2026-05-02T09:59:07.263Z</time></trkpt><trkpt lat="45.8583755" lon="13.595055"><ele>193.0</ele><time>2026-05-02T09:59:08.263Z</time></trkpt><trkpt lat="45.8583443" lon="13.5951656"><ele>194.0</ele><time>2026-05-02T09:59:09.263Z</time></trkpt><trkpt lat="45.8583131" lon="13.5952617"><ele>195.0</ele><time>2026-05-02T09:59:10.263Z</time></trkpt><trkpt lat="45.8582831" lon="13.595351"><ele>196.00000000000003</ele><time>2026-05-02T09:59:11.263Z</time></trkpt><trkpt lat="45.8582596" lon="13.5954434"><ele>197.0</ele><time>2026-05-02T09:59:12.263Z</time></trkpt><trkpt lat="45.8582426" lon="13.5955495"><ele>197.16666666666669</ele><time>2026-05-02T09:59:13.263Z</time></trkpt><trkpt lat="45.8582232" lon="13.5956545"><ele>197.33333333333334</ele><time>2026-05-02T09:59:14.263Z</time></trkpt><trkpt lat="45.8581984" lon="13.5957653"><ele>197.5</ele><time>2026-05-02T09:59:15.263Z</time></trkpt><trkpt lat="45.8581663" lon="13.5958802"><ele>197.66666666666669</ele><time>2026-05-02T09:59:16.263Z</time></trkpt><trkpt lat="45.8581305" lon="13.5959942"><ele>197.83333333333334</ele><time>2026-05-02T09:59:17.263Z</time></trkpt><trkpt lat="45.858099" lon="13.5961045"><ele>198.0</ele><time>2026-05-02T09:59:18.263Z</time></trkpt><trkpt lat="45.8580719" lon="13.5962135"><ele>198.0</ele><time>2026-05-02T09:59:19.264Z</time></trkpt><trkpt lat="45.858044" lon="13.5963168"><ele>198.0</ele><time>2026-05-02T09:59:20.263Z</time></trkpt><trkpt lat="45.8580204" lon="13.5964186"><ele>198.0</ele><time>2026-05-02T09:59:21.263Z</time></trkpt><trkpt lat="45.8580006" lon="13.5965166"><ele>198.0</ele><time>2026-05-02T09:59:22.263Z</time></trkpt><trkpt lat="45.8579931" lon="13.596616"><ele>198.0</ele><time>2026-05-02T09:59:23.263Z</time></trkpt><trkpt lat="45.8579988" lon="13.5967302"><ele>198.0</ele><time>2026-05-02T09:59:24.263Z</time></trkpt><trkpt lat="45.8580049" lon="13.5968431"><ele>198.0</ele><time>2026-05-02T09:59:25.263Z</time></trkpt><trkpt lat="45.8580044" lon="13.5969463"><ele>198.0</ele><time>2026-05-02T09:59:26.263Z</time></trkpt><trkpt lat="45.8579921" lon="13.5970499"><ele>198.0</ele><time>2026-05-02T09:59:27.263Z</time></trkpt><trkpt lat="45.8579725" lon="13.5971596"><ele>198.0</ele><time>2026-05-02T09:59:28.263Z</time></trkpt><trkpt lat="45.8579523" lon="13.5972655"><ele>198.0</ele><time>2026-05-02T09:59:29.264Z</time></trkpt><trkpt lat="45.8579323" lon="13.5973651"><ele>198.0</ele><time>2026-05-02T09:59:30.263Z</time></trkpt><trkpt lat="45.8579106" lon="13.5974653"><ele>198.0</ele><time>2026-05-02T09:59:31.263Z</time></trkpt><trkpt lat="45.8578884" lon="13.597572"><ele>198.57142857142858</ele><time>2026-05-02T09:59:32.263Z</time></trkpt><trkpt lat="45.857864" lon="13.5976787"><ele>199.14285714285714</ele><time>2026-05-02T09:59:33.263Z</time></trkpt><trkpt lat="45.8578306" lon="13.5977786"><ele>199.71428571428572</ele><time>2026-05-02T09:59:34.263Z</time></trkpt><trkpt lat="45.8577973" lon="13.5978798"><ele>200.28571428571428</ele><time>2026-05-02T09:59:35.263Z</time></trkpt><trkpt lat="45.8577745" lon="13.5979665"><ele>200.85714285714283</ele><time>2026-05-02T09:59:36.263Z</time></trkpt><trkpt lat="45.8577537" lon="13.5980527"><ele>201.42857142857142</ele><time>2026-05-02T09:59:37.263Z</time></trkpt><trkpt lat="45.8577365" lon="13.5981444"><ele>202.0</ele><time>2026-05-02T09:59:38.263Z</time></trkpt><trkpt lat="45.8577016" lon="13.5982579"><ele>202.16666666666666</ele><time>2026-05-02T09:59:39.264Z</time></trkpt><trkpt lat="45.8576688" lon="13.5983618"><ele>202.33333333333331</ele><time>2026-05-02T09:59:40.264Z</time></trkpt><trkpt lat="45.8576431" lon="13.598462"><ele>202.5</ele><time>2026-05-02T09:59:41.264Z</time></trkpt><trkpt lat="45.8576355" lon="13.5985665"><ele>202.66666666666669</ele><time>2026-05-02T09:59:42.263Z</time></trkpt><trkpt lat="45.8576327" lon="13.5986733"><ele>202.83333333333334</ele><time>2026-05-02T09:59:43.264Z</time></trkpt><trkpt lat="45.8576286" lon="13.5987841"><ele>203.0</ele><time>2026-05-02T09:59:44.263Z</time></trkpt><trkpt lat="45.8576152" lon="13.5988896"><ele>203.0</ele><time>2026-05-02T09:59:45.263Z</time></trkpt><trkpt lat="45.8575909" lon="13.5989985"><ele>203.0</ele><time>2026-05-02T09:59:46.263Z</time></trkpt><trkpt lat="45.8575583" lon="13.5991019"><ele>203.0</ele><time>2026-05-02T09:59:47.263Z</time></trkpt><trkpt lat="45.857538" lon="13.5991974"><ele>203.0</ele><time>2026-05-02T09:59:48.263Z</time></trkpt><trkpt lat="45.8575311" lon="13.5992878"><ele>203.0</ele><time>2026-05-02T09:59:49.263Z</time></trkpt><trkpt lat="45.8575349" lon="13.5993784"><ele>203.0</ele><time>2026-05-02T09:59:50.263Z</time></trkpt><trkpt lat="45.857558" lon="13.5994651"><ele>203.0</ele><time>2026-05-02T09:59:51.263Z</time></trkpt><trkpt lat="45.8576008" lon="13.5995669"><ele>203.16666666666669</ele><time>2026-05-02T09:59:52.264Z</time></trkpt><trkpt lat="45.8576457" lon="13.599671"><ele>203.33333333333334</ele><time>2026-05-02T09:59:53.263Z</time></trkpt><trkpt lat="45.8576901" lon="13.5997716"><ele>203.5</ele><time>2026-05-02T09:59:54.263Z</time></trkpt><trkpt lat="45.8577363" lon="13.5998639"><ele>203.66666666666669</ele><time>2026-05-02T09:59:55.263Z</time></trkpt><trkpt lat="45.8577882" lon="13.599949"><ele>203.83333333333334</ele><time>2026-05-02T09:59:56.263Z</time></trkpt><trkpt lat="45.8578463" lon="13.6000313"><ele>204.0</ele><time>2026-05-02T09:59:57.263Z</time></trkpt><trkpt lat="45.8579059" lon="13.6001118"><ele>204.0</ele><time>2026-05-02T09:59:58.263Z</time></trkpt><trkpt lat="45.8579771" lon="13.6001805"><ele>204.0</ele><time>2026-05-02T09:59:59.263Z</time></trkpt><trkpt lat="45.8580619" lon="13.6002432"><ele>204.0</ele><time>2026-05-02T10:00:00.263Z</time></trkpt><trkpt lat="45.8581452" lon="13.6003062"><ele>204.0</ele><time>2026-05-02T10:00:01.263Z</time></trkpt><trkpt lat="45.8582223" lon="13.6003818"><ele>204.0</ele><time>2026-05-02T10:00:02.264Z</time></trkpt><trkpt lat="45.8582939" lon="13.6004618"><ele>204.0</ele><time>2026-05-02T10:00:03.264Z</time></trkpt><trkpt lat="45.8583577" lon="13.6005427"><ele>204.0</ele><time>2026-05-02T10:00:04.263Z</time></trkpt><trkpt lat="45.858414" lon="13.6006386"><ele>204.0</ele><time>2026-05-02T10:00:05.263Z</time></trkpt><trkpt lat="45.8584625" lon="13.6007447"><ele>204.0</ele><time>2026-05-02T10:00:06.264Z</time></trkpt><trkpt lat="45.8585023" lon="13.6008594"><ele>204.0</ele><time>2026-05-02T10:00:07.263Z</time></trkpt><trkpt lat="45.8585356" lon="13.6009747"><ele>204.0</ele><time>2026-05-02T10:00:08.263Z</time></trkpt><trkpt lat="45.8585636" lon="13.6010887"><ele>203.66666666666666</ele><time>2026-05-02T10:00:09.263Z</time></trkpt><trkpt lat="45.8585829" lon="13.6012047"><ele>203.33333333333331</ele><time>2026-05-02T10:00:10.263Z</time></trkpt><trkpt lat="45.8585955" lon="13.6013155"><ele>203.0</ele><time>2026-05-02T10:00:11.263Z</time></trkpt><trkpt lat="45.8586047" lon="13.6014289"><ele>202.66666666666666</ele><time>2026-05-02T10:00:12.263Z</time></trkpt><trkpt lat="45.8586064" lon="13.6015436"><ele>202.33333333333331</ele><time>2026-05-02T10:00:13.263Z</time></trkpt><trkpt lat="45.8585991" lon="13.6016582"><ele>202.0</ele><time>2026-05-02T10:00:14.263Z</time></trkpt><trkpt lat="45.8585854" lon="13.601773"><ele>202.0</ele><time>2026-05-02T10:00:15.263Z</time></trkpt><trkpt lat="45.8585672" lon="13.6018865"><ele>202.0</ele><time>2026-05-02T10:00:16.263Z</time></trkpt><trkpt lat="45.858553" lon="13.6019956"><ele>202.0</ele><time>2026-05-02T10:00:17.263Z</time></trkpt><trkpt lat="45.8585474" lon="13.6021008"><ele>202.0</ele><time>2026-05-02T10:00:18.263Z</time></trkpt><trkpt lat="45.8585491" lon="13.602199"><ele>202.0</ele><time>2026-05-02T10:00:19.264Z</time></trkpt><trkpt lat="45.8585563" lon="13.6022924"><ele>202.0</ele><time>2026-05-02T10:00:20.263Z</time></trkpt><trkpt lat="45.8585763" lon="13.6023845"><ele>202.0</ele><time>2026-05-02T10:00:21.263Z</time></trkpt><trkpt lat="45.8586105" lon="13.6024673"><ele>202.0</ele><time>2026-05-02T10:00:22.263Z</time></trkpt><trkpt lat="45.8586522" lon="13.602543"><ele>202.0</ele><time>2026-05-02T10:00:23.263Z</time></trkpt><trkpt lat="45.858688" lon="13.6026209"><ele>202.0</ele><time>2026-05-02T10:00:24.263Z</time></trkpt><trkpt lat="45.8587161" lon="13.6027909"><ele>202.0</ele><time>2026-05-02T10:00:26.263Z</time></trkpt><trkpt lat="45.8587398" lon="13.6029414"><ele>202.0</ele><time>2026-05-02T10:00:28.263Z</time></trkpt><trkpt lat="45.85881" lon="13.6030263"><ele>201.6</ele><time>2026-05-02T10:00:30.263Z</time></trkpt><trkpt lat="45.8589055" lon="13.6030533"><ele>201.2</ele><time>2026-05-02T10:00:32.263Z</time></trkpt><trkpt lat="45.8589675" lon="13.6030847"><ele>200.8</ele><time>2026-05-02T10:00:33.263Z</time></trkpt><trkpt lat="45.8590457" lon="13.6031487"><ele>200.4</ele><time>2026-05-02T10:00:34.263Z</time></trkpt><trkpt lat="45.8591221" lon="13.6032278"><ele>200.0</ele><time>2026-05-02T10:00:35.263Z</time></trkpt><trkpt lat="45.8592018" lon="13.603323"><ele>201.5</ele><time>2026-05-02T10:00:36.264Z</time></trkpt><trkpt lat="45.8592947" lon="13.6034242"><ele>203.0</ele><time>2026-05-02T10:00:37.263Z</time></trkpt><trkpt lat="45.8593987" lon="13.603511"><ele>204.5</ele><time>2026-05-02T10:00:38.263Z</time></trkpt><trkpt lat="45.8595032" lon="13.6035814"><ele>206.0</ele><time>2026-05-02T10:00:39.263Z</time></trkpt><trkpt lat="45.8596043" lon="13.6036487"><ele>205.8</ele><time>2026-05-02T10:00:40.263Z</time></trkpt><trkpt lat="45.8597034" lon="13.6037111"><ele>205.60000000000002</ele><time>2026-05-02T10:00:41.263Z</time></trkpt><trkpt lat="45.8598035" lon="13.6037636"><ele>205.4</ele><time>2026-05-02T10:00:42.263Z</time></trkpt><trkpt lat="45.8599039" lon="13.6037998"><ele>205.2</ele><time>2026-05-02T10:00:43.264Z</time></trkpt><trkpt lat="45.8599985" lon="13.603827"><ele>205.0</ele><time>2026-05-02T10:00:44.263Z</time></trkpt><trkpt lat="45.8600887" lon="13.603857"><ele>206.71428571428572</ele><time>2026-05-02T10:00:45.263Z</time></trkpt><trkpt lat="45.860176" lon="13.6038808"><ele>208.42857142857142</ele><time>2026-05-02T10:00:46.263Z</time></trkpt><trkpt lat="45.8602537" lon="13.6038927"><ele>210.14285714285714</ele><time>2026-05-02T10:00:47.263Z</time></trkpt><trkpt lat="45.8603201" lon="13.603895"><ele>211.85714285714286</ele><time>2026-05-02T10:00:48.264Z</time></trkpt><trkpt lat="45.8603866" lon="13.6039134"><ele>213.57142857142856</ele><time>2026-05-02T10:00:49.263Z</time></trkpt><trkpt lat="45.8604498" lon="13.6039735"><ele>215.28571428571428</ele><time>2026-05-02T10:00:50.263Z</time></trkpt><trkpt lat="45.8605026" lon="13.6040445"><ele>217.0</ele><time>2026-05-02T10:00:51.263Z</time></trkpt><trkpt lat="45.8605576" lon="13.6041026"><ele>217.0</ele><time>2026-05-02T10:00:52.263Z</time></trkpt><trkpt lat="45.860623" lon="13.6041334"><ele>217.0</ele><time>2026-05-02T10:00:53.263Z</time></trkpt><trkpt lat="45.860701" lon="13.604102"><ele>217.0</ele><time>2026-05-02T10:00:54.264Z</time></trkpt><trkpt lat="45.8607762" lon="13.604051"><ele>217.0</ele><time>2026-05-02T10:00:55.263Z</time></trkpt><trkpt lat="45.8608425" lon="13.6040135"><ele>217.0</ele><time>2026-05-02T10:00:56.263Z</time></trkpt><trkpt lat="45.8609109" lon="13.6040201"><ele>217.0</ele><time>2026-05-02T10:00:57.263Z</time></trkpt><trkpt lat="45.8609761" lon="13.6040614"><ele>217.0</ele><time>2026-05-02T10:00:58.263Z</time></trkpt><trkpt lat="45.8610563" lon="13.604142"><ele>217.83333333333331</ele><time>2026-05-02T10:01:00.263Z</time></trkpt><trkpt lat="45.8611399" lon="13.604241"><ele>218.66666666666666</ele><time>2026-05-02T10:01:02.263Z</time></trkpt><trkpt lat="45.8612041" lon="13.6042872"><ele>219.5</ele><time>2026-05-02T10:01:03.263Z</time></trkpt><trkpt lat="45.8612836" lon="13.6043234"><ele>220.33333333333331</ele><time>2026-05-02T10:01:04.263Z</time></trkpt><trkpt lat="45.861368" lon="13.6043595"><ele>221.16666666666666</ele><time>2026-05-02T10:01:05.263Z</time></trkpt><trkpt lat="45.8614449" lon="13.6043974"><ele>222.0</ele><time>2026-05-02T10:01:06.263Z</time></trkpt><trkpt lat="45.8615164" lon="13.6044313"><ele>222.0</ele><time>2026-05-02T10:01:07.263Z</time></trkpt><trkpt lat="45.8615832" lon="13.6044685"><ele>222.0</ele><time>2026-05-02T10:01:08.263Z</time></trkpt><trkpt lat="45.8616442" lon="13.6045254"><ele>222.0</ele><time>2026-05-02T10:01:09.263Z</time></trkpt><trkpt lat="45.8617261" lon="13.6046277"><ele>222.0</ele><time>2026-05-02T10:01:11.263Z</time></trkpt><trkpt lat="45.8617392" lon="13.6047462"><ele>222.0</ele><time>2026-05-02T10:01:13.263Z</time></trkpt><trkpt lat="45.8617236" lon="13.6048527"><ele>222.0</ele><time>2026-05-02T10:01:14.264Z</time></trkpt><trkpt lat="45.8616976" lon="13.6049657"><ele>222.33333333333334</ele><time>2026-05-02T10:01:15.263Z</time></trkpt><trkpt lat="45.8616734" lon="13.605081"><ele>222.66666666666669</ele><time>2026-05-02T10:01:16.263Z</time></trkpt><trkpt lat="45.8616518" lon="13.6052025"><ele>223.0</ele><time>2026-05-02T10:01:17.263Z</time></trkpt><trkpt lat="45.8616366" lon="13.6053212"><ele>223.33333333333334</ele><time>2026-05-02T10:01:18.263Z</time></trkpt><trkpt lat="45.8616239" lon="13.6054418"><ele>223.66666666666669</ele><time>2026-05-02T10:01:19.263Z</time></trkpt><trkpt lat="45.8616145" lon="13.6055601"><ele>224.0</ele><time>2026-05-02T10:01:20.264Z</time></trkpt><trkpt lat="45.861602" lon="13.6056807"><ele>224.66666666666669</ele><time>2026-05-02T10:01:21.263Z</time></trkpt><trkpt lat="45.8615897" lon="13.6058012"><ele>225.33333333333334</ele><time>2026-05-02T10:01:22.263Z</time></trkpt><trkpt lat="45.8615812" lon="13.6059211"><ele>226.0</ele><time>2026-05-02T10:01:23.263Z</time></trkpt><trkpt lat="45.8615766" lon="13.6060322"><ele>226.66666666666669</ele><time>2026-05-02T10:01:24.263Z</time></trkpt><trkpt lat="45.8615691" lon="13.6061317"><ele>227.33333333333334</ele><time>2026-05-02T10:01:25.263Z</time></trkpt><trkpt lat="45.8615595" lon="13.6062749"><ele>228.0</ele><time>2026-05-02T10:01:27.264Z</time></trkpt><trkpt lat="45.8615666" lon="13.6063923"><ele>228.33333333333334</ele><time>2026-05-02T10:01:30.263Z</time></trkpt><trkpt lat="45.8616122" lon="13.60647"><ele>228.66666666666669</ele><time>2026-05-02T10:01:33.263Z</time></trkpt><trkpt lat="45.8616774" lon="13.6065215"><ele>229.0</ele><time>2026-05-02T10:01:36.3Z</time></trkpt><trkpt lat="45.8617575" lon="13.6064836"><ele>229.33333333333334</ele><time>2026-05-02T10:01:38.297Z</time></trkpt><trkpt lat="45.8618574" lon="13.6064624"><ele>229.66666666666669</ele><time>2026-05-02T10:01:39.263Z</time></trkpt><trkpt lat="45.8619444" lon="13.6064366"><ele>230.0</ele><time>2026-05-02T10:01:40.263Z</time></trkpt><trkpt lat="45.8620246" lon="13.6064083"><ele>231.66666666666669</ele><time>2026-05-02T10:01:41.263Z</time></trkpt><trkpt lat="45.8621008" lon="13.6063946"><ele>233.33333333333334</ele><time>2026-05-02T10:01:42.263Z</time></trkpt><trkpt lat="45.8621709" lon="13.6064009"><ele>235.0</ele><time>2026-05-02T10:01:43.263Z</time></trkpt><trkpt lat="45.8622654" lon="13.6064296"><ele>236.66666666666669</ele><time>2026-05-02T10:01:45.263Z</time></trkpt><trkpt lat="45.8623356" lon="13.606499"><ele>238.33333333333334</ele><time>2026-05-02T10:01:47.263Z</time></trkpt><trkpt lat="45.8623845" lon="13.6065577"><ele>240.0</ele><time>2026-05-02T10:01:49.263Z</time></trkpt><trkpt lat="45.8624956" lon="13.606657"><ele>240.0</ele><time>2026-05-02T10:02:03.263Z</time></trkpt><trkpt lat="45.8625467" lon="13.606755"><ele>240.0</ele><time>2026-05-02T10:02:04.263Z</time></trkpt><trkpt lat="45.8626292" lon="13.6068906"><ele>240.0</ele><time>2026-05-02T10:02:06.263Z</time></trkpt><trkpt lat="45.8627026" lon="13.6070292"><ele>240.0</ele><time>2026-05-02T10:02:08.263Z</time></trkpt><trkpt lat="45.8627437" lon="13.6071015"><ele>240.0</ele><time>2026-05-02T10:02:09.263Z</time></trkpt><trkpt lat="45.8628249" lon="13.6072298"><ele>241.83333333333334</ele><time>2026-05-02T10:02:11.264Z</time></trkpt><trkpt lat="45.8629052" lon="13.6073624"><ele>243.66666666666669</ele><time>2026-05-02T10:02:13.263Z</time></trkpt><trkpt lat="45.8629454" lon="13.607437"><ele>245.5</ele><time>2026-05-02T10:02:14.263Z</time></trkpt><trkpt lat="45.8629845" lon="13.6075112"><ele>247.33333333333334</ele><time>2026-05-02T10:02:15.263Z</time></trkpt><trkpt lat="45.8630277" lon="13.6075819"><ele>249.16666666666669</ele><time>2026-05-02T10:02:16.263Z</time></trkpt><trkpt lat="45.8630748" lon="13.6076561"><ele>251.0</ele><time>2026-05-02T10:02:17.263Z</time></trkpt><trkpt lat="45.8631209" lon="13.6077341"><ele>251.0</ele><time>2026-05-02T10:02:18.263Z</time></trkpt><trkpt lat="45.8631669" lon="13.6078166"><ele>251.00000000000003</ele><time>2026-05-02T10:02:19.263Z</time></trkpt><trkpt lat="45.8632123" lon="13.6078917"><ele>251.00000000000003</ele><time>2026-05-02T10:02:20.263Z</time></trkpt><trkpt lat="45.8633004" lon="13.6080218"><ele>251.0</ele><time>2026-05-02T10:02:22.263Z</time></trkpt><trkpt lat="45.8633378" lon="13.6080988"><ele>251.0</ele><time>2026-05-02T10:02:23.264Z</time></trkpt><trkpt lat="45.8634114" lon="13.608226"><ele>253.20000000000002</ele><time>2026-05-02T10:02:25.263Z</time></trkpt><trkpt lat="45.8635052" lon="13.6082885"><ele>255.40000000000003</ele><time>2026-05-02T10:02:27.264Z</time></trkpt><trkpt lat="45.8636271" lon="13.6083041"><ele>257.6</ele><time>2026-05-02T10:02:29.263Z</time></trkpt><trkpt lat="45.8636958" lon="13.6082905"><ele>259.8</ele><time>2026-05-02T10:02:30.263Z</time></trkpt><trkpt lat="45.8637733" lon="13.608265"><ele>262.0</ele><time>2026-05-02T10:02:31.263Z</time></trkpt><trkpt lat="45.8638565" lon="13.6082445"><ele>262.0</ele><time>2026-05-02T10:02:32.263Z</time></trkpt><trkpt lat="45.863939" lon="13.6082357"><ele>262.0</ele><time>2026-05-02T10:02:33.264Z</time></trkpt><trkpt lat="45.8640206" lon="13.6082275"><ele>262.0</ele><time>2026-05-02T10:02:34.263Z</time></trkpt><trkpt lat="45.8641013" lon="13.6082149"><ele>262.0</ele><time>2026-05-02T10:02:35.263Z</time></trkpt><trkpt lat="45.8641799" lon="13.6082075"><ele>262.0</ele><time>2026-05-02T10:02:36.263Z</time></trkpt><trkpt lat="45.8642599" lon="13.6082092"><ele>262.0</ele><time>2026-05-02T10:02:37.263Z</time></trkpt><trkpt lat="45.864341" lon="13.6082151"><ele>262.8333333333333</ele><time>2026-05-02T10:02:38.263Z</time></trkpt><trkpt lat="45.8644184" lon="13.6082289"><ele>263.66666666666663</ele><time>2026-05-02T10:02:39.263Z</time></trkpt><trkpt lat="45.8644944" lon="13.6082497"><ele>264.5</ele><time>2026-05-02T10:02:40.264Z</time></trkpt><trkpt lat="45.8645604" lon="13.6082761"><ele>265.3333333333333</ele><time>2026-05-02T10:02:41.263Z</time></trkpt><trkpt lat="45.864663" lon="13.6083271"><ele>266.1666666666667</ele><time>2026-05-02T10:02:43.263Z</time></trkpt><trkpt lat="45.8647262" lon="13.6083438"><ele>267.0</ele><time>2026-05-02T10:02:45.264Z</time></trkpt><trkpt lat="45.8648093" lon="13.6082905"><ele>267.0</ele><time>2026-05-02T10:02:49.263Z</time></trkpt><trkpt lat="45.8648799" lon="13.6082572"><ele>267.0</ele><time>2026-05-02T10:02:52.19Z</time></trkpt><trkpt lat="45.8649778" lon="13.6083014"><ele>267.0</ele><time>2026-05-02T10:02:53.263Z</time></trkpt><trkpt lat="45.8650494" lon="13.608316"><ele>267.0</ele><time>2026-05-02T10:02:54.263Z</time></trkpt><trkpt lat="45.8651557" lon="13.6083251"><ele>267.0</ele><time>2026-05-02T10:02:56.263Z</time></trkpt><trkpt lat="45.8652412" lon="13.608304"><ele>267.0</ele><time>2026-05-02T10:02:58.263Z</time></trkpt><trkpt lat="45.8653085" lon="13.6083182"><ele>266.8</ele><time>2026-05-02T10:03:01.263Z</time></trkpt><trkpt lat="45.8653434" lon="13.6084482"><ele>266.6</ele><time>2026-05-02T10:03:03.263Z</time></trkpt><trkpt lat="45.8653661" lon="13.6085619"><ele>266.40000000000003</ele><time>2026-05-02T10:03:04.264Z</time></trkpt><trkpt lat="45.865395" lon="13.608698"><ele>266.2</ele><time>2026-05-02T10:03:05.263Z</time></trkpt><trkpt lat="45.8654321" lon="13.6088509"><ele>266.0</ele><time>2026-05-02T10:03:06.263Z</time></trkpt><trkpt lat="45.8654724" lon="13.6090064"><ele>267.0</ele><time>2026-05-02T10:03:07.263Z</time></trkpt><trkpt lat="45.8655167" lon="13.6091617"><ele>268.0</ele><time>2026-05-02T10:03:08.263Z</time></trkpt><trkpt lat="45.8655689" lon="13.6093074"><ele>269.0</ele><time>2026-05-02T10:03:09.263Z</time></trkpt><trkpt lat="45.8656183" lon="13.6094325"><ele>270.0</ele><time>2026-05-02T10:03:10.263Z</time></trkpt><trkpt lat="45.8656603" lon="13.6095468"><ele>271.0</ele><time>2026-05-02T10:03:11.264Z</time></trkpt><trkpt lat="45.8657084" lon="13.6096673"><ele>271.40000000000003</ele><time>2026-05-02T10:03:12.264Z</time></trkpt><trkpt lat="45.8657702" lon="13.6097854"><ele>271.8</ele><time>2026-05-02T10:03:13.263Z</time></trkpt><trkpt lat="45.8658429" lon="13.609898"><ele>272.20000000000005</ele><time>2026-05-02T10:03:14.264Z</time></trkpt><trkpt lat="45.8659183" lon="13.6100192"><ele>272.6</ele><time>2026-05-02T10:03:15.263Z</time></trkpt><trkpt lat="45.8659897" lon="13.6101365"><ele>273.0</ele><time>2026-05-02T10:03:16.263Z</time></trkpt><trkpt lat="45.8660599" lon="13.6102428"><ele>273.2</ele><time>2026-05-02T10:03:17.263Z</time></trkpt><trkpt lat="45.8661369" lon="13.6103333"><ele>273.4</ele><time>2026-05-02T10:03:18.263Z</time></trkpt><trkpt lat="45.8662148" lon="13.6104175"><ele>273.59999999999997</ele><time>2026-05-02T10:03:19.263Z</time></trkpt><trkpt lat="45.8662914" lon="13.6105105"><ele>273.8</ele><time>2026-05-02T10:03:20.263Z</time></trkpt><trkpt lat="45.8663697" lon="13.6106134"><ele>274.0</ele><time>2026-05-02T10:03:21.263Z</time></trkpt><trkpt lat="45.8664546" lon="13.610715"><ele>274.0</ele><time>2026-05-02T10:03:22.264Z</time></trkpt><trkpt lat="45.8665395" lon="13.6108184"><ele>274.0</ele><time>2026-05-02T10:03:23.263Z</time></trkpt><trkpt lat="45.8666272" lon="13.6109227"><ele>274.0</ele><time>2026-05-02T10:03:24.264Z</time></trkpt><trkpt lat="45.8667221" lon="13.6110301"><ele>274.0</ele><time>2026-05-02T10:03:25.263Z</time></trkpt><trkpt lat="45.8668131" lon="13.6111465"><ele>273.75</ele><time>2026-05-02T10:03:26.263Z</time></trkpt><trkpt lat="45.8668941" lon="13.6112669"><ele>273.5</ele><time>2026-05-02T10:03:27.263Z</time></trkpt><trkpt lat="45.8669743" lon="13.6113815"><ele>273.25</ele><time>2026-05-02T10:03:28.263Z</time></trkpt><trkpt lat="45.8670544" lon="13.611491"><ele>273.0</ele><time>2026-05-02T10:03:29.263Z</time></trkpt><trkpt lat="45.8671376" lon="13.6116063"><ele>273.0</ele><time>2026-05-02T10:03:30.263Z</time></trkpt><trkpt lat="45.8672204" lon="13.6117394"><ele>273.0</ele><time>2026-05-02T10:03:31.263Z</time></trkpt><trkpt lat="45.8672966" lon="13.6118706"><ele>273.0</ele><time>2026-05-02T10:03:32.263Z</time></trkpt><trkpt lat="45.8673726" lon="13.6120003"><ele>273.0</ele><time>2026-05-02T10:03:33.264Z</time></trkpt><trkpt lat="45.8674512" lon="13.6121421"><ele>275.5</ele><time>2026-05-02T10:03:34.263Z</time></trkpt><trkpt lat="45.8675256" lon="13.6122885"><ele>278.0</ele><time>2026-05-02T10:03:35.263Z</time></trkpt><trkpt lat="45.8675922" lon="13.6124407"><ele>280.5</ele><time>2026-05-02T10:03:36.263Z</time></trkpt><trkpt lat="45.8676552" lon="13.6125926"><ele>283.0</ele><time>2026-05-02T10:03:37.263Z</time></trkpt><trkpt lat="45.8677211" lon="13.6127358"><ele>285.0</ele><time>2026-05-02T10:03:38.263Z</time></trkpt><trkpt lat="45.8677882" lon="13.6128707"><ele>287.0</ele><time>2026-05-02T10:03:39.263Z</time></trkpt><trkpt lat="45.8678558" lon="13.6130003"><ele>289.0</ele><time>2026-05-02T10:03:40.263Z</time></trkpt><trkpt lat="45.8679241" lon="13.6131323"><ele>291.0</ele><time>2026-05-02T10:03:41.263Z</time></trkpt><trkpt lat="45.8679895" lon="13.6132673"><ele>291.0</ele><time>2026-05-02T10:03:42.263Z</time></trkpt><trkpt lat="45.8680546" lon="13.6134018"><ele>291.0</ele><time>2026-05-02T10:03:43.263Z</time></trkpt><trkpt lat="45.8681189" lon="13.6135292"><ele>291.0</ele><time>2026-05-02T10:03:44.263Z</time></trkpt><trkpt lat="45.8681871" lon="13.6136479"><ele>291.0</ele><time>2026-05-02T10:03:45.263Z</time></trkpt><trkpt lat="45.8682588" lon="13.6137575"><ele>291.0</ele><time>2026-05-02T10:03:46.263Z</time></trkpt><trkpt lat="45.8683219" lon="13.6138607"><ele>291.8</ele><time>2026-05-02T10:03:47.263Z</time></trkpt><trkpt lat="45.8683631" lon="13.6139577"><ele>292.6</ele><time>2026-05-02T10:03:48.263Z</time></trkpt><trkpt lat="45.8683811" lon="13.6140968"><ele>293.4</ele><time>2026-05-02T10:03:50.264Z</time></trkpt><trkpt lat="45.8683395" lon="13.6141962"><ele>294.2</ele><time>2026-05-02T10:03:52.263Z</time></trkpt><trkpt lat="45.8682331" lon="13.6143237"><ele>295.0</ele><time>2026-05-02T10:03:54.264Z</time></trkpt><trkpt lat="45.8681687" lon="13.6143975"><ele>295.00000000000006</ele><time>2026-05-02T10:03:55.263Z</time></trkpt><trkpt lat="45.8681117" lon="13.6144703"><ele>295.0</ele><time>2026-05-02T10:03:56.263Z</time></trkpt><trkpt lat="45.8680559" lon="13.614535"><ele>295.0</ele><time>2026-05-02T10:03:57.263Z</time></trkpt><trkpt lat="45.8680042" lon="13.6145952"><ele>295.0</ele><time>2026-05-02T10:03:58.263Z</time></trkpt><trkpt lat="45.8679506" lon="13.6146482"><ele>295.0</ele><time>2026-05-02T10:03:59.263Z</time></trkpt><trkpt lat="45.8678867" lon="13.6146923"><ele>295.00000000000006</ele><time>2026-05-02T10:04:00.263Z</time></trkpt><trkpt lat="45.8678103" lon="13.6147336"><ele>295.0</ele><time>2026-05-02T10:04:01.263Z</time></trkpt><trkpt lat="45.867734" lon="13.6147792"><ele>295.16666666666663</ele><time>2026-05-02T10:04:02.263Z</time></trkpt><trkpt lat="45.86767" lon="13.6148247"><ele>295.3333333333333</ele><time>2026-05-02T10:04:03.264Z</time></trkpt><trkpt lat="45.8676153" lon="13.6148717"><ele>295.5</ele><time>2026-05-02T10:04:04.263Z</time></trkpt><trkpt lat="45.8675229" lon="13.6149844"><ele>295.6666666666667</ele><time>2026-05-02T10:04:06.263Z</time></trkpt><trkpt lat="45.8674817" lon="13.6150538"><ele>295.83333333333337</ele><time>2026-05-02T10:04:07.263Z</time></trkpt><trkpt lat="45.8674325" lon="13.6151217"><ele>296.0</ele><time>2026-05-02T10:04:08.264Z</time></trkpt><trkpt lat="45.8673763" lon="13.6151794"><ele>296.0</ele><time>2026-05-02T10:04:09.263Z</time></trkpt><trkpt lat="45.8673238" lon="13.6152336"><ele>296.0</ele><time>2026-05-02T10:04:10.263Z</time></trkpt><trkpt lat="45.8672339" lon="13.6153358"><ele>296.0</ele><time>2026-05-02T10:04:12.263Z</time></trkpt><trkpt lat="45.867183" lon="13.6153944"><ele>296.0</ele><time>2026-05-02T10:04:13.263Z</time></trkpt><trkpt lat="45.8671296" lon="13.6154526"><ele>296.0</ele><time>2026-05-02T10:04:14.263Z</time></trkpt><trkpt lat="45.8670752" lon="13.6155177"><ele>296.0</ele><time>2026-05-02T10:04:15.263Z</time></trkpt><trkpt lat="45.8670193" lon="13.6155852"><ele>296.0</ele><time>2026-05-02T10:04:16.263Z</time></trkpt><trkpt lat="45.8669618" lon="13.6156564"><ele>296.0</ele><time>2026-05-02T10:04:17.263Z</time></trkpt><trkpt lat="45.8669101" lon="13.6157282"><ele>296.0</ele><time>2026-05-02T10:04:18.263Z</time></trkpt><trkpt lat="45.8668671" lon="13.6157955"><ele>296.0</ele><time>2026-05-02T10:04:19.263Z</time></trkpt><trkpt lat="45.8667825" lon="13.6159289"><ele>296.0</ele><time>2026-05-02T10:04:21.263Z</time></trkpt><trkpt lat="45.8667287" lon="13.6160093"><ele>296.0</ele><time>2026-05-02T10:04:22.263Z</time></trkpt><trkpt lat="45.8666721" lon="13.6160944"><ele>296.83333333333337</ele><time>2026-05-02T10:04:23.263Z</time></trkpt><trkpt lat="45.8666165" lon="13.6161759"><ele>297.6666666666667</ele><time>2026-05-02T10:04:24.264Z</time></trkpt><trkpt lat="45.8665675" lon="13.6162563"><ele>298.5</ele><time>2026-05-02T10:04:25.264Z</time></trkpt><trkpt lat="45.866518" lon="13.6163319"><ele>299.3333333333333</ele><time>2026-05-02T10:04:26.264Z</time></trkpt><trkpt lat="45.8664643" lon="13.6164046"><ele>300.16666666666663</ele><time>2026-05-02T10:04:27.263Z</time></trkpt><trkpt lat="45.8664053" lon="13.6164846"><ele>301.0</ele><time>2026-05-02T10:04:28.263Z</time></trkpt><trkpt lat="45.8663417" lon="13.6165651"><ele>301.0</ele><time>2026-05-02T10:04:29.263Z</time></trkpt><trkpt lat="45.8662837" lon="13.6166465"><ele>301.0</ele><time>2026-05-02T10:04:30.263Z</time></trkpt><trkpt lat="45.8662302" lon="13.6167216"><ele>301.0</ele><time>2026-05-02T10:04:31.263Z</time></trkpt><trkpt lat="45.8661748" lon="13.6167884"><ele>301.0</ele><time>2026-05-02T10:04:32.263Z</time></trkpt><trkpt lat="45.8661211" lon="13.6168652"><ele>301.0</ele><time>2026-05-02T10:04:33.263Z</time></trkpt><trkpt lat="45.8660726" lon="13.6169463"><ele>301.0</ele><time>2026-05-02T10:04:34.263Z</time></trkpt><trkpt lat="45.8660228" lon="13.6170301"><ele>301.2</ele><time>2026-05-02T10:04:35.263Z</time></trkpt><trkpt lat="45.8659673" lon="13.6171208"><ele>301.40000000000003</ele><time>2026-05-02T10:04:36.263Z</time></trkpt><trkpt lat="45.8659056" lon="13.6172131"><ele>301.6</ele><time>2026-05-02T10:04:37.263Z</time></trkpt><trkpt lat="45.8658416" lon="13.6172939"><ele>301.8</ele><time>2026-05-02T10:04:38.263Z</time></trkpt><trkpt lat="45.8657777" lon="13.6173653"><ele>302.0</ele><time>2026-05-02T10:04:39.263Z</time></trkpt><trkpt lat="45.8595032" lon="13.6035814"><ele>282.8</ele><time>2026-05-02T10:00:39.263Z</time></trkpt><trkpt lat="45.8596043" lon="13.6036487"><ele>263.6</ele><time>2026-05-02T10:00:40.263Z</time></trkpt><trkpt lat="45.8597034" lon="13.6037111"><ele>244.4</ele><time>2026-05-02T10:00:41.263Z</time></trkpt><trkpt lat="45.8598035" lon="13.6037636"><ele>225.20000000000002</ele><time>2026-05-02T10:00:42.263Z</time></trkpt><trkpt lat="45.8599039" lon="13.6037998"><ele>206.0</ele><time>2026-05-02T10:00:43.264Z</time></trkpt><trkpt lat="45.8599985" lon="13.603827"><ele>205.83333333333334</ele><time>2026-05-02T10:00:44.263Z</time></trkpt><trkpt lat="45.8600887" lon="13.603857"><ele>205.66666666666669</ele><time>2026-05-02T10:00:45.263Z</time></trkpt><trkpt lat="45.860176" lon="13.6038808"><ele>205.5</ele><time>2026-05-02T10:00:46.263Z</time></trkpt><trkpt lat="45.8602537" lon="13.6038927"><ele>205.33333333333331</ele><time>2026-05-02T10:00:47.263Z</time></trkpt><trkpt lat="45.8603201" lon="13.603895"><ele>205.16666666666666</ele><time>2026-05-02T10:00:48.264Z</time></trkpt><trkpt lat="45.8603866" lon="13.6039134"><ele>205.0</ele><time>2026-05-02T10:00:49.263Z</time></trkpt><trkpt lat="45.8604498" lon="13.6039735"><ele>206.71428571428572</ele><time>2026-05-02T10:00:50.263Z</time></trkpt><trkpt lat="45.8605026" lon="13.6040445"><ele>208.42857142857142</ele><time>2026-05-02T10:00:51.263Z</time></trkpt><trkpt lat="45.8605576" lon="13.6041026"><ele>210.14285714285714</ele><time>2026-05-02T10:00:52.263Z</time></trkpt><trkpt lat="45.860623" lon="13.6041334"><ele>211.85714285714286</ele><time>2026-05-02T10:00:53.263Z</time></trkpt><trkpt lat="45.860701" lon="13.604102"><ele>213.57142857142856</ele><time>2026-05-02T10:00:54.264Z</time></trkpt><trkpt lat="45.8607762" lon="13.604051"><ele>215.28571428571428</ele><time>2026-05-02T10:00:55.263Z</time></trkpt><trkpt lat="45.8608425" lon="13.6040135"><ele>217.0</ele><time>2026-05-02T10:00:56.263Z</time></trkpt><trkpt lat="45.8609109" lon="13.6040201"><ele>217.83333333333331</ele><time>2026-05-02T10:00:57.263Z</time></trkpt><trkpt lat="45.8609761" lon="13.6040614"><ele>218.66666666666666</ele><time>2026-05-02T10:00:58.263Z</time></trkpt><trkpt lat="45.8610563" lon="13.604142"><ele>219.5</ele><time>2026-05-02T10:01:00.263Z</time></trkpt><trkpt lat="45.8611399" lon="13.604241"><ele>220.33333333333331</ele><time>2026-05-02T10:01:02.263Z</time></trkpt><trkpt lat="45.8612041" lon="13.6042872"><ele>221.16666666666666</ele><time>2026-05-02T10:01:03.263Z</time></trkpt><trkpt lat="45.8612836" lon="13.6043234"><ele>222.0</ele><time>2026-05-02T10:01:04.263Z</time></trkpt><trkpt lat="45.861368" lon="13.6043595"><ele>222.0</ele><time>2026-05-02T10:01:05.263Z</time></trkpt><trkpt lat="45.8614449" lon="13.6043974"><ele>222.0</ele><time>2026-05-02T10:01:06.263Z</time></trkpt><trkpt lat="45.8615164" lon="13.6044313"><ele>222.0</ele><time>2026-05-02T10:01:07.263Z</time></trkpt><trkpt lat="45.8615832" lon="13.6044685"><ele>222.0</ele><time>2026-05-02T10:01:08.263Z</time></trkpt><trkpt lat="45.8616442" lon="13.6045254"><ele>222.0</ele><time>2026-05-02T10:01:09.263Z</time></trkpt><trkpt lat="45.8617261" lon="13.6046277"><ele>222.0</ele><time>2026-05-02T10:01:11.263Z</time></trkpt><trkpt lat="45.8617392" lon="13.6047462"><ele>222.33333333333334</ele><time>2026-05-02T10:01:13.263Z</time></trkpt><trkpt lat="45.8617236" lon="13.6048527"><ele>222.66666666666669</ele><time>2026-05-02T10:01:14.264Z</time></trkpt><trkpt lat="45.8616976" lon="13.6049657"><ele>223.0</ele><time>2026-05-02T10:01:15.263Z</time></trkpt><trkpt lat="45.8616734" lon="13.605081"><ele>223.33333333333334</ele><time>2026-05-02T10:01:16.263Z</time></trkpt><trkpt lat="45.8616518" lon="13.6052025"><ele>223.66666666666669</ele><time>2026-05-02T10:01:17.263Z</time></trkpt><trkpt lat="45.8616366" lon="13.6053212"><ele>224.0</ele><time>2026-05-02T10:01:18.263Z</time></trkpt><trkpt lat="45.8616239" lon="13.6054418"><ele>224.66666666666669</ele><time>2026-05-02T10:01:19.263Z</time></trkpt><trkpt lat="45.8616145" lon="13.6055601"><ele>225.33333333333334</ele><time>2026-05-02T10:01:20.264Z</time></trkpt><trkpt lat="45.861602" lon="13.6056807"><ele>226.0</ele><time>2026-05-02T10:01:21.263Z</time></trkpt><trkpt lat="45.8615897" lon="13.6058012"><ele>226.66666666666669</ele><time>2026-05-02T10:01:22.263Z</time></trkpt><trkpt lat="45.8615812" lon="13.6059211"><ele>227.33333333333334</ele><time>2026-05-02T10:01:23.263Z</time></trkpt><trkpt lat="45.8615766" lon="13.6060322"><ele>228.0</ele><time>2026-05-02T10:01:24.263Z</time></trkpt><trkpt lat="45.8615691" lon="13.6061317"><ele>228.33333333333334</ele><time>2026-05-02T10:01:25.263Z</time></trkpt><trkpt lat="45.8615595" lon="13.6062749"><ele>228.66666666666669</ele><time>2026-05-02T10:01:27.264Z</time></trkpt><trkpt lat="45.8615666" lon="13.6063923"><ele>229.0</ele><time>2026-05-02T10:01:30.263Z</time></trkpt><trkpt lat="45.8616122" lon="13.60647"><ele>229.33333333333334</ele><time>2026-05-02T10:01:33.263Z</time></trkpt><trkpt lat="45.8616774" lon="13.6065215"><ele>229.66666666666669</ele><time>2026-05-02T10:01:36.3Z</time></trkpt><trkpt lat="45.8617575" lon="13.6064836"><ele>230.0</ele><time>2026-05-02T10:01:38.297Z</time></trkpt><trkpt lat="45.8618574" lon="13.6064624"><ele>231.66666666666669</ele><time>2026-05-02T10:01:39.263Z</time></trkpt><trkpt lat="45.8619444" lon="13.6064366"><ele>233.33333333333334</ele><time>2026-05-02T10:01:40.263Z</time></trkpt><trkpt lat="45.8620246" lon="13.6064083"><ele>235.0</ele><time>2026-05-02T10:01:41.263Z</time></trkpt><trkpt lat="45.8621008" lon="13.6063946"><ele>236.66666666666669</ele><time>2026-05-02T10:01:42.263Z</time></trkpt><trkpt lat="45.8621709" lon="13.6064009"><ele>238.33333333333334</ele><time>2026-05-02T10:01:43.263Z</time></trkpt><trkpt lat="45.8622654" lon="13.6064296"><ele>240.0</ele><time>2026-05-02T10:01:45.263Z</time></trkpt><trkpt lat="45.8623356" lon="13.606499"><ele>240.0</ele><time>2026-05-02T10:01:47.263Z</time></trkpt><trkpt lat="45.8623845" lon="13.6065577"><ele>240.0</ele><time>2026-05-02T10:01:49.263Z</time></trkpt><trkpt lat="45.8624956" lon="13.606657"><ele>240.0</ele><time>2026-05-02T10:02:03.263Z</time></trkpt><trkpt lat="45.8625467" lon="13.606755"><ele>240.0</ele><time>2026-05-02T10:02:04.263Z</time></trkpt><trkpt lat="45.8626292" lon="13.6068906"><ele>240.0</ele><time>2026-05-02T10:02:06.263Z</time></trkpt><trkpt lat="45.8627026" lon="13.6070292"><ele>241.83333333333334</ele><time>2026-05-02T10:02:08.263Z</time></trkpt><trkpt lat="45.8627437" lon="13.6071015"><ele>243.66666666666669</ele><time>2026-05-02T10:02:09.263Z</time></trkpt><trkpt lat="45.8628249" lon="13.6072298"><ele>245.5</ele><time>2026-05-02T10:02:11.264Z</time></trkpt><trkpt lat="45.8629052" lon="13.6073624"><ele>247.33333333333334</ele><time>2026-05-02T10:02:13.263Z</time></trkpt><trkpt lat="45.8629454" lon="13.607437"><ele>249.16666666666669</ele><time>2026-05-02T10:02:14.263Z</time></trkpt><trkpt lat="45.8629845" lon="13.6075112"><ele>251.0</ele><time>2026-05-02T10:02:15.263Z</time></trkpt><trkpt lat="45.8630277" lon="13.6075819"><ele>251.00000000000003</ele><time>2026-05-02T10:02:16.263Z</time></trkpt><trkpt lat="45.8630748" lon="13.6076561"><ele>251.0</ele><time>2026-05-02T10:02:17.263Z</time></trkpt><trkpt lat="45.8631209" lon="13.6077341"><ele>251.0</ele><time>2026-05-02T10:02:18.263Z</time></trkpt><trkpt lat="45.8631669" lon="13.6078166"><ele>251.0</ele><time>2026-05-02T10:02:19.263Z</time></trkpt><trkpt lat="45.8632123" lon="13.6078917"><ele>251.00000000000003</ele><time>2026-05-02T10:02:20.263Z</time></trkpt><trkpt lat="45.8633004" lon="13.6080218"><ele>251.0</ele><time>2026-05-02T10:02:22.263Z</time></trkpt><trkpt lat="45.8633378" lon="13.6080988"><ele>252.20000000000002</ele><time>2026-05-02T10:02:23.264Z</time></trkpt><trkpt lat="45.8634114" lon="13.608226"><ele>253.40000000000003</ele><time>2026-05-02T10:02:25.263Z</time></trkpt><trkpt lat="45.8635052" lon="13.6082885"><ele>254.6</ele><time>2026-05-02T10:02:27.264Z</time></trkpt><trkpt lat="45.8636271" lon="13.6083041"><ele>255.8</ele><time>2026-05-02T10:02:29.263Z</time></trkpt><trkpt lat="45.8636958" lon="13.6082905"><ele>257.0</ele><time>2026-05-02T10:02:30.263Z</time></trkpt><trkpt lat="45.8637733" lon="13.608265"><ele>257.83333333333337</ele><time>2026-05-02T10:02:31.263Z</time></trkpt><trkpt lat="45.8638565" lon="13.6082445"><ele>258.6666666666667</ele><time>2026-05-02T10:02:32.263Z</time></trkpt><trkpt lat="45.863939" lon="13.6082357"><ele>259.5</ele><time>2026-05-02T10:02:33.264Z</time></trkpt><trkpt lat="45.8640206" lon="13.6082275"><ele>260.3333333333333</ele><time>2026-05-02T10:02:34.263Z</time></trkpt><trkpt lat="45.8641013" lon="13.6082149"><ele>261.16666666666663</ele><time>2026-05-02T10:02:35.263Z</time></trkpt><trkpt lat="45.8641799" lon="13.6082075"><ele>262.0</ele><time>2026-05-02T10:02:36.263Z</time></trkpt><trkpt lat="45.8642599" lon="13.6082092"><ele>262.8333333333333</ele><time>2026-05-02T10:02:37.263Z</time></trkpt><trkpt lat="45.864341" lon="13.6082151"><ele>263.66666666666663</ele><time>2026-05-02T10:02:38.263Z</time></trkpt><trkpt lat="45.8644184" lon="13.6082289"><ele>264.5</ele><time>2026-05-02T10:02:39.263Z</time></trkpt><trkpt lat="45.8644944" lon="13.6082497"><ele>265.3333333333333</ele><time>2026-05-02T10:02:40.264Z</time></trkpt><trkpt lat="45.8645604" lon="13.6082761"><ele>266.1666666666667</ele><time>2026-05-02T10:02:41.263Z</time></trkpt><trkpt lat="45.864663" lon="13.6083271"><ele>267.0</ele><time>2026-05-02T10:02:43.263Z</time></trkpt><trkpt lat="45.8647262" lon="13.6083438"><ele>267.0</ele><time>2026-05-02T10:02:45.264Z</time></trkpt><trkpt lat="45.8648093" lon="13.6082905"><ele>267.0</ele><time>2026-05-02T10:02:49.263Z</time></trkpt><trkpt lat="45.8648799" lon="13.6082572"><ele>267.0</ele><time>2026-05-02T10:02:52.19Z</time></trkpt><trkpt lat="45.8649778" lon="13.6083014"><ele>267.0</ele><time>2026-05-02T10:02:53.263Z</time></trkpt><trkpt lat="45.8650494" lon="13.608316"><ele>267.0</ele><time>2026-05-02T10:02:54.263Z</time></trkpt><trkpt lat="45.8651557" lon="13.6083251"><ele>267.0</ele><time>2026-05-02T10:02:56.263Z</time></trkpt><trkpt lat="45.8652412" lon="13.608304"><ele>266.8</ele><time>2026-05-02T10:02:58.263Z</time></trkpt><trkpt lat="45.8653085" lon="13.6083182"><ele>266.6</ele><time>2026-05-02T10:03:01.263Z</time></trkpt><trkpt lat="45.8653434" lon="13.6084482"><ele>266.40000000000003</ele><time>2026-05-02T10:03:03.263Z</time></trkpt><trkpt lat="45.8653661" lon="13.6085619"><ele>266.2</ele><time>2026-05-02T10:03:04.264Z</time></trkpt><trkpt lat="45.865395" lon="13.608698"><ele>266.0</ele><time>2026-05-02T10:03:05.263Z</time></trkpt><trkpt lat="45.8654321" lon="13.6088509"><ele>267.0</ele><time>2026-05-02T10:03:06.263Z</time></trkpt><trkpt lat="45.8654724" lon="13.6090064"><ele>268.0</ele><time>2026-05-02T10:03:07.263Z</time></trkpt><trkpt lat="45.8655167" lon="13.6091617"><ele>269.0</ele><time>2026-05-02T10:03:08.263Z</time></trkpt><trkpt lat="45.8655689" lon="13.6093074"><ele>270.0</ele><time>2026-05-02T10:03:09.263Z</time></trkpt><trkpt lat="45.8656183" lon="13.6094325"><ele>271.0</ele><time>2026-05-02T10:03:10.263Z</time></trkpt><trkpt lat="45.8656603" lon="13.6095468"><ele>271.40000000000003</ele><time>2026-05-02T10:03:11.264Z</time></trkpt><trkpt lat="45.8657084" lon="13.6096673"><ele>271.8</ele><time>2026-05-02T10:03:12.264Z</time></trkpt><trkpt lat="45.8657702" lon="13.6097854"><ele>272.20000000000005</ele><time>2026-05-02T10:03:13.263Z</time></trkpt><trkpt lat="45.8658429" lon="13.609898"><ele>272.6</ele><time>2026-05-02T10:03:14.264Z</time></trkpt><trkpt lat="45.8659183" lon="13.6100192"><ele>273.0</ele><time>2026-05-02T10:03:15.263Z</time></trkpt><trkpt lat="45.8659897" lon="13.6101365"><ele>273.0</ele><time>2026-05-02T10:03:16.263Z</time></trkpt><trkpt lat="45.8660599" lon="13.6102428"><ele>273.0</ele><time>2026-05-02T10:03:17.263Z</time></trkpt><trkpt lat="45.8661369" lon="13.6103333"><ele>273.0</ele><time>2026-05-02T10:03:18.263Z</time></trkpt><trkpt lat="45.8662148" lon="13.6104175"><ele>273.0</ele><time>2026-05-02T10:03:19.263Z</time></trkpt><trkpt lat="45.8662914" lon="13.6105105"><ele>273.0</ele><time>2026-05-02T10:03:20.263Z</time></trkpt><trkpt lat="45.8663697" lon="13.6106134"><ele>273.25</ele><time>2026-05-02T10:03:21.263Z</time></trkpt><trkpt lat="45.8664546" lon="13.610715"><ele>273.5</ele><time>2026-05-02T10:03:22.264Z</time></trkpt><trkpt lat="45.8665395" lon="13.6108184"><ele>273.75</ele><time>2026-05-02T10:03:23.263Z</time></trkpt><trkpt lat="45.8666272" lon="13.6109227"><ele>274.0</ele><time>2026-05-02T10:03:24.264Z</time></trkpt><trkpt lat="45.8667221" lon="13.6110301"><ele>273.75</ele><time>2026-05-02T10:03:25.263Z</time></trkpt><trkpt lat="45.8668131" lon="13.6111465"><ele>273.5</ele><time>2026-05-02T10:03:26.263Z</time></trkpt><trkpt lat="45.8668941" lon="13.6112669"><ele>273.25</ele><time>2026-05-02T10:03:27.263Z</time></trkpt><trkpt lat="45.8669743" lon="13.6113815"><ele>273.0</ele><time>2026-05-02T10:03:28.263Z</time></trkpt><trkpt lat="45.8670544" lon="13.611491"><ele>273.0</ele><time>2026-05-02T10:03:29.263Z</time></trkpt><trkpt lat="45.8671376" lon="13.6116063"><ele>273.0</ele><time>2026-05-02T10:03:30.263Z</time></trkpt><trkpt lat="45.8672204" lon="13.6117394"><ele>273.0</ele><time>2026-05-02T10:03:31.263Z</time></trkpt><trkpt lat="45.8672966" lon="13.6118706"><ele>273.0</ele><time>2026-05-02T10:03:32.263Z</time></trkpt><trkpt lat="45.8673726" lon="13.6120003"><ele>275.5</ele><time>2026-05-02T10:03:33.264Z</time></trkpt><trkpt lat="45.8674512" lon="13.6121421"><ele>278.0</ele><time>2026-05-02T10:03:34.263Z</time></trkpt><trkpt lat="45.8675256" lon="13.6122885"><ele>280.5</ele><time>2026-05-02T10:03:35.263Z</time></trkpt><trkpt lat="45.8675922" lon="13.6124407"><ele>283.0</ele><time>2026-05-02T10:03:36.263Z</time></trkpt><trkpt lat="45.8676552" lon="13.6125926"><ele>283.75</ele><time>2026-05-02T10:03:37.263Z</time></trkpt><trkpt lat="45.8677211" lon="13.6127358"><ele>284.5</ele><time>2026-05-02T10:03:38.263Z</time></trkpt><trkpt lat="45.8677882" lon="13.6128707"><ele>285.25</ele><time>2026-05-02T10:03:39.263Z</time></trkpt><trkpt lat="45.8678558" lon="13.6130003"><ele>286.0</ele><time>2026-05-02T10:03:40.263Z</time></trkpt><trkpt lat="45.8679241" lon="13.6131323"><ele>287.0</ele><time>2026-05-02T10:03:41.263Z</time></trkpt><trkpt lat="45.8679895" lon="13.6132673"><ele>288.0</ele><time>2026-05-02T10:03:42.263Z</time></trkpt><trkpt lat="45.8680546" lon="13.6134018"><ele>289.0</ele><time>2026-05-02T10:03:43.263Z</time></trkpt><trkpt lat="45.8681189" lon="13.6135292"><ele>290.0</ele><time>2026-05-02T10:03:44.263Z</time></trkpt><trkpt lat="45.8681871" lon="13.6136479"><ele>291.0</ele><time>2026-05-02T10:03:45.263Z</time></trkpt><trkpt lat="45.8682588" lon="13.6137575"><ele>291.8</ele><time>2026-05-02T10:03:46.263Z</time></trkpt><trkpt lat="45.8683219" lon="13.6138607"><ele>292.6</ele><time>2026-05-02T10:03:47.263Z</time></trkpt><trkpt lat="45.8683631" lon="13.6139577"><ele>293.4</ele><time>2026-05-02T10:03:48.263Z</time></trkpt><trkpt lat="45.8683811" lon="13.6140968"><ele>294.2</ele><time>2026-05-02T10:03:50.264Z</time></trkpt><trkpt lat="45.8683395" lon="13.6141962"><ele>295.0</ele><time>2026-05-02T10:03:52.263Z</time></trkpt><trkpt lat="45.8682331" lon="13.6143237"><ele>295.00000000000006</ele><time>2026-05-02T10:03:54.264Z</time></trkpt><trkpt lat="45.8681687" lon="13.6143975"><ele>295.0</ele><time>2026-05-02T10:03:55.263Z</time></trkpt><trkpt lat="45.8681117" lon="13.6144703"><ele>295.0</ele><time>2026-05-02T10:03:56.263Z</time></trkpt><trkpt lat="45.8680559" lon="13.614535"><ele>295.0</ele><time>2026-05-02T10:03:57.263Z</time></trkpt><trkpt lat="45.8680042" lon="13.6145952"><ele>295.0</ele><time>2026-05-02T10:03:58.263Z</time></trkpt><trkpt lat="45.8679506" lon="13.6146482"><ele>295.00000000000006</ele><time>2026-05-02T10:03:59.263Z</time></trkpt><trkpt lat="45.8678867" lon="13.6146923"><ele>295.0</ele><time>2026-05-02T10:04:00.263Z</time></trkpt><trkpt lat="45.8678103" lon="13.6147336"><ele>295.16666666666663</ele><time>2026-05-02T10:04:01.263Z</time></trkpt><trkpt lat="45.867734" lon="13.6147792"><ele>295.3333333333333</ele><time>2026-05-02T10:04:02.263Z</time></trkpt><trkpt lat="45.86767" lon="13.6148247"><ele>295.5</ele><time>2026-05-02T10:04:03.264Z</time></trkpt><trkpt lat="45.8676153" lon="13.6148717"><ele>295.6666666666667</ele><time>2026-05-02T10:04:04.263Z</time></trkpt><trkpt lat="45.8675229" lon="13.6149844"><ele>295.83333333333337</ele><time>2026-05-02T10:04:06.263Z</time></trkpt><trkpt lat="45.8674817" lon="13.6150538"><ele>296.0</ele><time>2026-05-02T10:04:07.263Z</time></trkpt><trkpt lat="45.8674325" lon="13.6151217"><ele>296.0</ele><time>2026-05-02T10:04:08.264Z</time></trkpt><trkpt lat="45.8673763" lon="13.6151794"><ele>296.0</ele><time>2026-05-02T10:04:09.263Z</time></trkpt><trkpt lat="45.8673238" lon="13.6152336"><ele>296.0</ele><time>2026-05-02T10:04:10.263Z</time></trkpt><trkpt lat="45.8672339" lon="13.6153358"><ele>296.0</ele><time>2026-05-02T10:04:12.263Z</time></trkpt><trkpt lat="45.867183" lon="13.6153944"><ele>296.0</ele><time>2026-05-02T10:04:13.263Z</time></trkpt><trkpt lat="45.8671296" lon="13.6154526"><ele>296.0</ele><time>2026-05-02T10:04:14.263Z</time></trkpt><trkpt lat="45.8670752" lon="13.6155177"><ele>296.0</ele><time>2026-05-02T10:04:15.263Z</time></trkpt><trkpt lat="45.8670193" lon="13.6155852"><ele>296.0</ele><time>2026-05-02T10:04:16.263Z</time></trkpt><trkpt lat="45.8669618" lon="13.6156564"><ele>296.0</ele><time>2026-05-02T10:04:17.263Z</time></trkpt><trkpt lat="45.8669101" lon="13.6157282"><ele>296.0</ele><time>2026-05-02T10:04:18.263Z</time></trkpt><trkpt lat="45.8668671" lon="13.6157955"><ele>296.0</ele><time>2026-05-02T10:04:19.263Z</time></trkpt><trkpt lat="45.8667825" lon="13.6159289"><ele>296.0</ele><time>2026-05-02T10:04:21.263Z</time></trkpt><trkpt lat="45.8667287" lon="13.6160093"><ele>296.1666666666667</ele><time>2026-05-02T10:04:22.263Z</time></trkpt><trkpt lat="45.8666721" lon="13.6160944"><ele>296.33333333333337</ele><time>2026-05-02T10:04:23.263Z</time></trkpt><trkpt lat="45.8666165" lon="13.6161759"><ele>296.5</ele><time>2026-05-02T10:04:24.264Z</time></trkpt><trkpt lat="45.8665675" lon="13.6162563"><ele>296.6666666666667</ele><time>2026-05-02T10:04:25.264Z</time></trkpt><trkpt lat="45.866518" lon="13.6163319"><ele>296.8333333333333</ele><time>2026-05-02T10:04:26.264Z</time></trkpt><trkpt lat="45.8664643" lon="13.6164046"><ele>297.0</ele><time>2026-05-02T10:04:27.263Z</time></trkpt><trkpt lat="45.8664053" lon="13.6164846"><ele>297.6666666666667</ele><time>2026-05-02T10:04:28.263Z</time></trkpt><trkpt lat="45.8663417" lon="13.6165651"><ele>298.3333333333333</ele><time>2026-05-02T10:04:29.263Z</time></trkpt><trkpt lat="45.8662837" lon="13.6166465"><ele>299.0</ele><time>2026-05-02T10:04:30.263Z</time></trkpt><trkpt lat="45.8662302" lon="13.6167216"><ele>299.66666666666663</ele><time>2026-05-02T10:04:31.263Z</time></trkpt><trkpt lat="45.8661748" lon="13.6167884"><ele>300.3333333333333</ele><time>2026-05-02T10:04:32.263Z</time></trkpt><trkpt lat="45.8661211" lon="13.6168652"><ele>301.0</ele><time>2026-05-02T10:04:33.263Z</time></trkpt><trkpt lat="45.8660726" lon="13.6169463"><ele>301.16666666666663</ele><time>2026-05-02T10:04:34.263Z</time></trkpt><trkpt lat="45.8660228" lon="13.6170301"><ele>301.3333333333333</ele><time>2026-05-02T10:04:35.263Z</time></trkpt><trkpt lat="45.8659673" lon="13.6171208"><ele>301.5</ele><time>2026-05-02T10:04:36.263Z</time></trkpt><trkpt lat="45.8659056" lon="13.6172131"><ele>301.6666666666667</ele><time>2026-05-02T10:04:37.263Z</time></trkpt><trkpt lat="45.8658416" lon="13.6172939"><ele>301.83333333333337</ele><time>2026-05-02T10:04:38.263Z</time></trkpt><trkpt lat="45.8657777" lon="13.6173653"><ele>302.0</ele><time>2026-05-02T10:04:39.263Z</time></trkpt><trkpt lat="45.865717" lon="13.6174294"><ele>302.0</ele><time>2026-05-02T10:04:40.263Z</time></trkpt><trkpt lat="45.8656603" lon="13.6174822"><ele>302.0</ele><time>2026-05-02T10:04:41.263Z</time></trkpt><trkpt lat="45.8655575" lon="13.6175725"><ele>302.0</ele><time>2026-05-02T10:04:43.263Z</time></trkpt><trkpt lat="45.8654676" lon="13.617646"><ele>302.0</ele><time>2026-05-02T10:04:45.264Z</time></trkpt><trkpt lat="45.8653771" lon="13.6177137"><ele>302.0</ele><time>2026-05-02T10:04:47.263Z</time></trkpt><trkpt lat="45.8653028" lon="13.6177901"><ele>302.8</ele><time>2026-05-02T10:04:49.263Z</time></trkpt><trkpt lat="45.8652285" lon="13.6178597"><ele>303.6</ele><time>2026-05-02T10:04:51.263Z</time></trkpt><trkpt lat="45.8651438" lon="13.6179203"><ele>304.40000000000003</ele><time>2026-05-02T10:04:53.263Z</time></trkpt><trkpt lat="45.8650506" lon="13.6180217"><ele>305.2</ele><time>2026-05-02T10:04:55.263Z</time></trkpt><trkpt lat="45.8649622" lon="13.6181181"><ele>306.0</ele><time>2026-05-02T10:04:57.263Z</time></trkpt><trkpt lat="45.8648639" lon="13.6181905"><ele>304.6666666666667</ele><time>2026-05-02T10:04:59.263Z</time></trkpt><trkpt lat="45.8647661" lon="13.6182456"><ele>303.3333333333333</ele><time>2026-05-02T10:05:01.263Z</time></trkpt><trkpt lat="45.8647105" lon="13.6182941"><ele>302.0</ele><time>2026-05-02T10:05:03.263Z</time></trkpt><trkpt lat="45.8646446" lon="13.6183595"><ele>300.66666666666663</ele><time>2026-05-02T10:05:05.3Z</time></trkpt><trkpt lat="45.8645955" lon="13.6184557"><ele>299.3333333333333</ele><time>2026-05-02T10:05:07.263Z</time></trkpt><trkpt lat="45.8645445" lon="13.6185426"><ele>298.0</ele><time>2026-05-02T10:05:09.263Z</time></trkpt><trkpt lat="45.8644986" lon="13.6186398"><ele>298.5</ele><time>2026-05-02T10:05:11.263Z</time></trkpt><trkpt lat="45.8644616" lon="13.6187198"><ele>299.0</ele><time>2026-05-02T10:05:13.263Z</time></trkpt><trkpt lat="45.8644073" lon="13.6188196"><ele>299.5</ele><time>2026-05-02T10:05:15.263Z</time></trkpt><trkpt lat="45.8643581" lon="13.618921"><ele>300.0</ele><time>2026-05-02T10:05:17.264Z</time></trkpt><trkpt lat="45.864283" lon="13.6190113"><ele>300.5</ele><time>2026-05-02T10:05:19.263Z</time></trkpt><trkpt lat="45.8641879" lon="13.6190741"><ele>301.0</ele><time>2026-05-02T10:05:21.263Z</time></trkpt><trkpt lat="45.8641191" lon="13.6190953"><ele>299.8333333333333</ele><time>2026-05-02T10:05:22.263Z</time></trkpt><trkpt lat="45.8640448" lon="13.6191268"><ele>298.66666666666663</ele><time>2026-05-02T10:05:23.263Z</time></trkpt><trkpt lat="45.8639777" lon="13.6191669"><ele>297.5</ele><time>2026-05-02T10:05:24.263Z</time></trkpt><trkpt lat="45.8639197" lon="13.6192097"><ele>296.3333333333333</ele><time>2026-05-02T10:05:25.263Z</time></trkpt><trkpt lat="45.86382" lon="13.6193076"><ele>295.1666666666667</ele><time>2026-05-02T10:05:27.263Z</time></trkpt><trkpt lat="45.8637428" lon="13.6193593"><ele>294.0</ele><time>2026-05-02T10:05:29.263Z</time></trkpt><trkpt lat="45.8636593" lon="13.6193587"><ele>294.0</ele><time>2026-05-02T10:05:32.263Z</time></trkpt><trkpt lat="45.8635848" lon="13.6193673"><ele>294.0</ele><time>2026-05-02T10:05:35.263Z</time></trkpt><trkpt lat="45.8635394" lon="13.6194378"><ele>294.0</ele><time>2026-05-02T10:05:41.263Z</time></trkpt><trkpt lat="45.8634663" lon="13.619521"><ele>294.0</ele><time>2026-05-02T10:05:43.263Z</time></trkpt><trkpt lat="45.8633863" lon="13.6196139"><ele>294.0</ele><time>2026-05-02T10:05:44.263Z</time></trkpt><trkpt lat="45.8633277" lon="13.6196994"><ele>294.0</ele><time>2026-05-02T10:05:45.263Z</time></trkpt><trkpt lat="45.8632812" lon="13.6197734"><ele>293.0</ele><time>2026-05-02T10:05:46.264Z</time></trkpt><trkpt lat="45.8632381" lon="13.6198441"><ele>292.0</ele><time>2026-05-02T10:05:47.263Z</time></trkpt><trkpt lat="45.8631931" lon="13.6199109"><ele>291.0</ele><time>2026-05-02T10:05:48.263Z</time></trkpt><trkpt lat="45.8631482" lon="13.6199784"><ele>290.0</ele><time>2026-05-02T10:05:49.263Z</time></trkpt><trkpt lat="45.8630999" lon="13.6200552"><ele>289.0</ele><time>2026-05-02T10:05:50.263Z</time></trkpt><trkpt lat="45.8630466" lon="13.6201429"><ele>288.0</ele><time>2026-05-02T10:05:51.263Z</time></trkpt><trkpt lat="45.8629949" lon="13.6202268"><ele>287.0</ele><time>2026-05-02T10:05:52.264Z</time></trkpt><trkpt lat="45.8629504" lon="13.6203043"><ele>286.4</ele><time>2026-05-02T10:05:53.263Z</time></trkpt><trkpt lat="45.8628811" lon="13.6204455"><ele>285.79999999999995</ele><time>2026-05-02T10:05:55.263Z</time></trkpt><trkpt lat="45.8628277" lon="13.6205862"><ele>285.2</ele><time>2026-05-02T10:05:57.264Z</time></trkpt><trkpt lat="45.8627933" lon="13.6207231"><ele>284.59999999999997</ele><time>2026-05-02T10:05:59.263Z</time></trkpt><trkpt lat="45.8627739" lon="13.6208274"><ele>284.0</ele><time>2026-05-02T10:06:01.263Z</time></trkpt><trkpt lat="45.8627598" lon="13.6209316"><ele>284.0</ele><time>2026-05-02T10:06:03.263Z</time></trkpt><trkpt lat="45.8627375" lon="13.6210265"><ele>284.0</ele><time>2026-05-02T10:06:05.263Z</time></trkpt><trkpt lat="45.8627153" lon="13.62115"><ele>284.0</ele><time>2026-05-02T10:06:08.265Z</time></trkpt><trkpt lat="45.8626884" lon="13.6212607"><ele>284.0</ele><time>2026-05-02T10:06:10.263Z</time></trkpt><trkpt lat="45.8626716" lon="13.6213605"><ele>284.0</ele><time>2026-05-02T10:06:13.167Z</time></trkpt><trkpt lat="45.8627233" lon="13.6212249"><ele>284.0</ele><time>2026-05-02T10:06:24.263Z</time></trkpt><trkpt lat="45.8627399" lon="13.6211023"><ele>284.0</ele><time>2026-05-02T10:06:25.263Z</time></trkpt><trkpt lat="45.8627603" lon="13.6209699"><ele>284.0</ele><time>2026-05-02T10:06:26.263Z</time></trkpt><trkpt lat="45.8627805" lon="13.6208456"><ele>284.0</ele><time>2026-05-02T10:06:27.263Z</time></trkpt><trkpt lat="45.8627987" lon="13.6207387"><ele>284.0</ele><time>2026-05-02T10:06:28.263Z</time></trkpt><trkpt lat="45.8628212" lon="13.6206361"><ele>284.0</ele><time>2026-05-02T10:06:29.263Z</time></trkpt><trkpt lat="45.8628529" lon="13.6205293"><ele>284.0</ele><time>2026-05-02T10:06:30.263Z</time></trkpt><trkpt lat="45.8628961" lon="13.6204203"><ele>284.0</ele><time>2026-05-02T10:06:31.263Z</time></trkpt><trkpt lat="45.8629481" lon="13.6203187"><ele>284.0</ele><time>2026-05-02T10:06:32.263Z</time></trkpt><trkpt lat="45.8629994" lon="13.6202292"><ele>284.0</ele><time>2026-05-02T10:06:33.263Z</time></trkpt><trkpt lat="45.8630453" lon="13.6201505"><ele>284.0</ele><time>2026-05-02T10:06:34.263Z</time></trkpt><trkpt lat="45.8630871" lon="13.6200805"><ele>284.0</ele><time>2026-05-02T10:06:35.263Z</time></trkpt><trkpt lat="45.8631568" lon="13.6199635"><ele>284.0</ele><time>2026-05-02T10:06:37.264Z</time></trkpt><trkpt lat="45.8632361" lon="13.61984"><ele>284.5</ele><time>2026-05-02T10:06:39.264Z</time></trkpt><trkpt lat="45.8632909" lon="13.6197518"><ele>285.0</ele><time>2026-05-02T10:06:40.263Z</time></trkpt><trkpt lat="45.863348" lon="13.6196672"><ele>285.5</ele><time>2026-05-02T10:06:41.263Z</time></trkpt><trkpt lat="45.8634018" lon="13.6195975"><ele>286.0</ele><time>2026-05-02T10:06:42.263Z</time></trkpt><trkpt lat="45.8634526" lon="13.6195386"><ele>286.5</ele><time>2026-05-02T10:06:43.263Z</time></trkpt><trkpt lat="45.8635416" lon="13.6194892"><ele>287.0</ele><time>2026-05-02T10:06:45.263Z</time></trkpt><trkpt lat="45.8636158" lon="13.6195576"><ele>288.1666666666667</ele><time>2026-05-02T10:06:48.263Z</time></trkpt><trkpt lat="45.8636546" lon="13.619714"><ele>289.33333333333337</ele><time>2026-05-02T10:06:50.263Z</time></trkpt><trkpt lat="45.8636772" lon="13.6198226"><ele>290.5</ele><time>2026-05-02T10:06:51.263Z</time></trkpt><trkpt lat="45.8637046" lon="13.6199345"><ele>291.6666666666667</ele><time>2026-05-02T10:06:52.263Z</time></trkpt><trkpt lat="45.8637316" lon="13.6200458"><ele>292.8333333333333</ele><time>2026-05-02T10:06:53.263Z</time></trkpt><trkpt lat="45.8637557" lon="13.6201565"><ele>294.0</ele><time>2026-05-02T10:06:54.263Z</time></trkpt><trkpt lat="45.8637827" lon="13.6202645"><ele>294.0</ele><time>2026-05-02T10:06:55.263Z</time></trkpt><trkpt lat="45.8638125" lon="13.6203755"><ele>294.0</ele><time>2026-05-02T10:06:56.264Z</time></trkpt><trkpt lat="45.8638443" lon="13.6204907"><ele>294.0</ele><time>2026-05-02T10:06:57.263Z</time></trkpt><trkpt lat="45.8638782" lon="13.6206065"><ele>294.0</ele><time>2026-05-02T10:06:58.263Z</time></trkpt><trkpt lat="45.863913" lon="13.6207156"><ele>294.0</ele><time>2026-05-02T10:06:59.263Z</time></trkpt><trkpt lat="45.8639449" lon="13.6208225"><ele>294.0</ele><time>2026-05-02T10:07:00.263Z</time></trkpt><trkpt lat="45.8639726" lon="13.6209356"><ele>294.0</ele><time>2026-05-02T10:07:01.263Z</time></trkpt><trkpt lat="45.863996" lon="13.621057"><ele>294.0</ele><time>2026-05-02T10:07:02.263Z</time></trkpt><trkpt lat="45.8640149" lon="13.6211874"><ele>294.0</ele><time>2026-05-02T10:07:03.263Z</time></trkpt><trkpt lat="45.8640264" lon="13.6213176"><ele>294.0</ele><time>2026-05-02T10:07:04.263Z</time></trkpt><trkpt lat="45.8640348" lon="13.6214433"><ele>294.0</ele><time>2026-05-02T10:07:05.264Z</time></trkpt><trkpt lat="45.8640386" lon="13.6215686"><ele>294.0</ele><time>2026-05-02T10:07:06.263Z</time></trkpt><trkpt lat="45.8640393" lon="13.6216966"><ele>294.8</ele><time>2026-05-02T10:07:07.263Z</time></trkpt><trkpt lat="45.8640329" lon="13.6218273"><ele>295.59999999999997</ele><time>2026-05-02T10:07:08.264Z</time></trkpt><trkpt lat="45.8640199" lon="13.6219564"><ele>296.4</ele><time>2026-05-02T10:07:09.263Z</time></trkpt><trkpt lat="45.8640081" lon="13.6220854"><ele>297.2</ele><time>2026-05-02T10:07:10.263Z</time></trkpt><trkpt lat="45.8640023" lon="13.622215"><ele>298.0</ele><time>2026-05-02T10:07:11.263Z</time></trkpt><trkpt lat="45.8640053" lon="13.6223464"><ele>298.16666666666663</ele><time>2026-05-02T10:07:12.263Z</time></trkpt><trkpt lat="45.8640157" lon="13.6224709"><ele>298.3333333333333</ele><time>2026-05-02T10:07:13.263Z</time></trkpt><trkpt lat="45.8640318" lon="13.6225819"><ele>298.5</ele><time>2026-05-02T10:07:14.263Z</time></trkpt><trkpt lat="45.8640474" lon="13.6226804"><ele>298.6666666666667</ele><time>2026-05-02T10:07:15.264Z</time></trkpt><trkpt lat="45.8640506" lon="13.6227833"><ele>298.83333333333337</ele><time>2026-05-02T10:07:16.263Z</time></trkpt><trkpt lat="45.8640378" lon="13.6228953"><ele>299.0</ele><time>2026-05-02T10:07:17.263Z</time></trkpt><trkpt lat="45.8640125" lon="13.6230205"><ele>299.0</ele><time>2026-05-02T10:07:18.263Z</time></trkpt><trkpt lat="45.8639908" lon="13.6231548"><ele>299.0</ele><time>2026-05-02T10:07:19.264Z</time></trkpt><trkpt lat="45.8639711" lon="13.6232936"><ele>299.0</ele><time>2026-05-02T10:07:20.263Z</time></trkpt><trkpt lat="45.8639416" lon="13.6234321"><ele>299.0</ele><time>2026-05-02T10:07:21.263Z</time></trkpt><trkpt lat="45.8639075" lon="13.6235702"><ele>299.0</ele><time>2026-05-02T10:07:22.263Z</time></trkpt><trkpt lat="45.863875" lon="13.6237033"><ele>299.4</ele><time>2026-05-02T10:07:23.263Z</time></trkpt><trkpt lat="45.863848" lon="13.6238399"><ele>299.79999999999995</ele><time>2026-05-02T10:07:24.263Z</time></trkpt><trkpt lat="45.8638267" lon="13.6239838"><ele>300.20000000000005</ele><time>2026-05-02T10:07:25.263Z</time></trkpt><trkpt lat="45.863809" lon="13.6241236"><ele>300.6</ele><time>2026-05-02T10:07:26.263Z</time></trkpt><trkpt lat="45.8637915" lon="13.6242617"><ele>301.0</ele><time>2026-05-02T10:07:27.263Z</time></trkpt><trkpt lat="45.8637674" lon="13.6244002"><ele>301.8</ele><time>2026-05-02T10:07:28.263Z</time></trkpt><trkpt lat="45.8637399" lon="13.6245416"><ele>302.6</ele><time>2026-05-02T10:07:29.264Z</time></trkpt><trkpt lat="45.8637163" lon="13.624675"><ele>303.4</ele><time>2026-05-02T10:07:30.263Z</time></trkpt><trkpt lat="45.8636991" lon="13.6248065"><ele>304.2</ele><time>2026-05-02T10:07:31.263Z</time></trkpt><trkpt lat="45.8636855" lon="13.6249482"><ele>305.0</ele><time>2026-05-02T10:07:32.263Z</time></trkpt><trkpt lat="45.8636638" lon="13.6250867"><ele>305.0</ele><time>2026-05-02T10:07:33.263Z</time></trkpt><trkpt lat="45.8636354" lon="13.6252204"><ele>305.0</ele><time>2026-05-02T10:07:34.263Z</time></trkpt><trkpt lat="45.8636066" lon="13.6253389"><ele>305.0</ele><time>2026-05-02T10:07:35.263Z</time></trkpt><trkpt lat="45.8635875" lon="13.6254424"><ele>305.0</ele><time>2026-05-02T10:07:36.263Z</time></trkpt><trkpt lat="45.863578" lon="13.6255451"><ele>305.0</ele><time>2026-05-02T10:07:37.263Z</time></trkpt><trkpt lat="45.8635746" lon="13.625651"><ele>305.0</ele><time>2026-05-02T10:07:38.264Z</time></trkpt><trkpt lat="45.8635791" lon="13.6257423"><ele>305.1666666666667</ele><time>2026-05-02T10:07:39.263Z</time></trkpt><trkpt lat="45.8636113" lon="13.6258857"><ele>305.33333333333337</ele><time>2026-05-02T10:07:41.263Z</time></trkpt><trkpt lat="45.8636977" lon="13.6259772"><ele>305.5</ele><time>2026-05-02T10:07:43.263Z</time></trkpt><trkpt lat="45.8637632" lon="13.6260037"><ele>305.6666666666667</ele><time>2026-05-02T10:07:44.263Z</time></trkpt><trkpt lat="45.8638348" lon="13.6260236"><ele>305.8333333333333</ele><time>2026-05-02T10:07:45.263Z</time></trkpt><trkpt lat="45.8639045" lon="13.6260413"><ele>306.0</ele><time>2026-05-02T10:07:46.263Z</time></trkpt><trkpt lat="45.8640124" lon="13.6260588"><ele>306.0</ele><time>2026-05-02T10:07:48.263Z</time></trkpt><trkpt lat="45.8640814" lon="13.6260787"><ele>306.0</ele><time>2026-05-02T10:07:52.263Z</time></trkpt><trkpt lat="45.863972" lon="13.6260498"><ele>306.0</ele><time>2026-05-02T10:08:07.263Z</time></trkpt><trkpt lat="45.8639035" lon="13.6260256"><ele>306.0</ele><time>2026-05-02T10:08:08.263Z</time></trkpt><trkpt lat="45.8638003" lon="13.6259979"><ele>306.0</ele><time>2026-05-02T10:08:10.263Z</time></trkpt><trkpt lat="45.8637034" lon="13.6259562"><ele>306.0</ele><time>2026-05-02T10:08:12.264Z</time></trkpt><trkpt lat="45.8636284" lon="13.6258784"><ele>306.0</ele><time>2026-05-02T10:08:14.263Z</time></trkpt><trkpt lat="45.8635844" lon="13.62578"><ele>306.0</ele><time>2026-05-02T10:08:17.263Z</time></trkpt><trkpt lat="45.8636169" lon="13.6258754"><ele>306.0</ele><time>2026-05-02T10:08:44.263Z</time></trkpt><trkpt lat="45.8636912" lon="13.6258659"><ele>306.0</ele><time>2026-05-02T10:08:47.263Z</time></trkpt><trkpt lat="45.8637578" lon="13.6258073"><ele>306.0</ele><time>2026-05-02T10:08:49.23Z</time></trkpt><trkpt lat="45.8638753" lon="13.6260062"><ele>306.0</ele><time>2026-05-02T10:08:50.263Z</time></trkpt><trkpt lat="45.8639394" lon="13.6260433"><ele>306.0</ele><time>2026-05-02T10:08:51.264Z</time></trkpt><trkpt lat="45.8640432" lon="13.6260598"><ele>306.0</ele><time>2026-05-02T10:08:53.263Z</time></trkpt><trkpt lat="45.8641482" lon="13.6260958"><ele>306.0</ele><time>2026-05-02T10:08:55.263Z</time></trkpt><trkpt lat="45.8642565" lon="13.6261227"><ele>306.0</ele><time>2026-05-02T10:08:57.263Z</time></trkpt><trkpt lat="45.8643704" lon="13.6261659"><ele>305.8333333333333</ele><time>2026-05-02T10:08:59.263Z</time></trkpt><trkpt lat="45.8644355" lon="13.6261991"><ele>305.6666666666667</ele><time>2026-05-02T10:09:00.263Z</time></trkpt><trkpt lat="45.8645134" lon="13.6262428"><ele>305.5</ele><time>2026-05-02T10:09:01.263Z</time></trkpt><trkpt lat="45.8645867" lon="13.6262903"><ele>305.33333333333337</ele><time>2026-05-02T10:09:02.264Z</time></trkpt><trkpt lat="45.864653" lon="13.6263284"><ele>305.1666666666667</ele><time>2026-05-02T10:09:03.263Z</time></trkpt><trkpt lat="45.8647148" lon="13.6263591"><ele>305.0</ele><time>2026-05-02T10:09:04.263Z</time></trkpt><trkpt lat="45.8648086" lon="13.6264235"><ele>305.0</ele><time>2026-05-02T10:09:06.263Z</time></trkpt><trkpt lat="45.8648469" lon="13.6265379"><ele>305.0</ele><time>2026-05-02T10:09:08.263Z</time></trkpt><trkpt lat="45.8648455" lon="13.6266304"><ele>305.0</ele><time>2026-05-02T10:09:09.263Z</time></trkpt><trkpt lat="45.8648297" lon="13.6267412"><ele>305.0</ele><time>2026-05-02T10:09:10.263Z</time></trkpt><trkpt lat="45.8648141" lon="13.6268694"><ele>305.0</ele><time>2026-05-02T10:09:11.263Z</time></trkpt><trkpt lat="45.8648019" lon="13.6269987"><ele>305.0</ele><time>2026-05-02T10:09:12.263Z</time></trkpt><trkpt lat="45.8647889" lon="13.6271185"><ele>305.83333333333337</ele><time>2026-05-02T10:09:13.263Z</time></trkpt><trkpt lat="45.8647811" lon="13.6272344"><ele>306.6666666666667</ele><time>2026-05-02T10:09:14.263Z</time></trkpt><trkpt lat="45.8647745" lon="13.6273481"><ele>307.5</ele><time>2026-05-02T10:09:15.263Z</time></trkpt><trkpt lat="45.8647777" lon="13.6274552"><ele>308.3333333333333</ele><time>2026-05-02T10:09:16.264Z</time></trkpt><trkpt lat="45.8647917" lon="13.6275543"><ele>309.16666666666663</ele><time>2026-05-02T10:09:17.264Z</time></trkpt><trkpt lat="45.8648158" lon="13.62765"><ele>310.0</ele><time>2026-05-02T10:09:18.263Z</time></trkpt><trkpt lat="45.8648532" lon="13.627742"><ele>310.3333333333333</ele><time>2026-05-02T10:09:19.263Z</time></trkpt><trkpt lat="45.864903" lon="13.6278348"><ele>310.66666666666663</ele><time>2026-05-02T10:09:20.263Z</time></trkpt><trkpt lat="45.8649562" lon="13.6279254"><ele>311.0</ele><time>2026-05-02T10:09:21.263Z</time></trkpt><trkpt lat="45.8650108" lon="13.6280156"><ele>311.3333333333333</ele><time>2026-05-02T10:09:22.263Z</time></trkpt><trkpt lat="45.8650681" lon="13.6281108"><ele>311.6666666666667</ele><time>2026-05-02T10:09:23.264Z</time></trkpt><trkpt lat="45.8651231" lon="13.628207"><ele>312.0</ele><time>2026-05-02T10:09:24.263Z</time></trkpt><trkpt lat="45.8651647" lon="13.628298"><ele>312.2857142857143</ele><time>2026-05-02T10:09:25.263Z</time></trkpt><trkpt lat="45.8651945" lon="13.6283931"><ele>312.57142857142856</ele><time>2026-05-02T10:09:26.263Z</time></trkpt><trkpt lat="45.865205" lon="13.6284952"><ele>312.85714285714283</ele><time>2026-05-02T10:09:27.263Z</time></trkpt><trkpt lat="45.8651961" lon="13.6286056"><ele>313.1428571428571</ele><time>2026-05-02T10:09:28.263Z</time></trkpt><trkpt lat="45.8651775" lon="13.6287178"><ele>313.42857142857144</ele><time>2026-05-02T10:09:29.263Z</time></trkpt><trkpt lat="45.8651615" lon="13.6288216"><ele>313.71428571428567</ele><time>2026-05-02T10:09:30.263Z</time></trkpt><trkpt lat="45.8651509" lon="13.6289121"><ele>314.0</ele><time>2026-05-02T10:09:31.263Z</time></trkpt><trkpt lat="45.865157" lon="13.6290571"><ele>314.0</ele><time>2026-05-02T10:09:33.263Z</time></trkpt><trkpt lat="45.865205" lon="13.6291955"><ele>314.0</ele><time>2026-05-02T10:09:35.263Z</time></trkpt><trkpt lat="45.8652815" lon="13.6293049"><ele>314.0</ele><time>2026-05-02T10:09:37.264Z</time></trkpt><trkpt lat="45.8653435" lon="13.6293971"><ele>314.0</ele><time>2026-05-02T10:09:39.263Z</time></trkpt><trkpt lat="45.8654166" lon="13.6295144"><ele>314.0</ele><time>2026-05-02T10:09:41.263Z</time></trkpt><trkpt lat="45.8654666" lon="13.6295861"><ele>315.0</ele><time>2026-05-02T10:09:42.263Z</time></trkpt><trkpt lat="45.8655253" lon="13.629649"><ele>316.0</ele><time>2026-05-02T10:09:43.263Z</time></trkpt><trkpt lat="45.8655872" lon="13.6297128"><ele>317.0</ele><time>2026-05-02T10:09:44.263Z</time></trkpt><trkpt lat="45.8656536" lon="13.6297849"><ele>318.0</ele><time>2026-05-02T10:09:45.263Z</time></trkpt><trkpt lat="45.8657209" lon="13.6298462"><ele>319.0</ele><time>2026-05-02T10:09:46.263Z</time></trkpt><trkpt lat="45.8657906" lon="13.629901"><ele>320.0</ele><time>2026-05-02T10:09:47.264Z</time></trkpt><trkpt lat="45.8658554" lon="13.629965"><ele>320.0</ele><time>2026-05-02T10:09:48.263Z</time></trkpt><trkpt lat="45.8659094" lon="13.6300346"><ele>320.0</ele><time>2026-05-02T10:09:49.263Z</time></trkpt><trkpt lat="45.8659541" lon="13.6301086"><ele>320.0</ele><time>2026-05-02T10:09:50.263Z</time></trkpt><trkpt lat="45.8660005" lon="13.6301725"><ele>320.0</ele><time>2026-05-02T10:09:51.263Z</time></trkpt><trkpt lat="45.8660563" lon="13.6302208"><ele>320.0</ele><time>2026-05-02T10:09:52.263Z</time></trkpt><trkpt lat="45.8661156" lon="13.6302605"><ele>320.0</ele><time>2026-05-02T10:09:53.263Z</time></trkpt><trkpt lat="45.8661752" lon="13.6302954"><ele>320.0</ele><time>2026-05-02T10:09:54.263Z</time></trkpt><trkpt lat="45.8662373" lon="13.63032"><ele>320.6</ele><time>2026-05-02T10:09:55.264Z</time></trkpt><trkpt lat="45.8663565" lon="13.6303801"><ele>321.2</ele><time>2026-05-02T10:09:57.263Z</time></trkpt><trkpt lat="45.8664402" lon="13.6305036"><ele>321.79999999999995</ele><time>2026-05-02T10:09:59.263Z</time></trkpt><trkpt lat="45.8664714" lon="13.6305888"><ele>322.4</ele><time>2026-05-02T10:10:00.263Z</time></trkpt><trkpt lat="45.8664951" lon="13.6306759"><ele>323.0</ele><time>2026-05-02T10:10:01.263Z</time></trkpt><trkpt lat="45.8665134" lon="13.6308076"><ele>323.0</ele><time>2026-05-02T10:10:03.263Z</time></trkpt><trkpt lat="45.8665188" lon="13.630902"><ele>323.0</ele><time>2026-05-02T10:10:07.263Z</time></trkpt><trkpt lat="45.8665255" lon="13.6308069"><ele>323.0</ele><time>2026-05-02T10:12:31.263Z</time></trkpt><trkpt lat="45.8665236" lon="13.6307087"><ele>323.0</ele><time>2026-05-02T10:12:33.264Z</time></trkpt><trkpt lat="45.8664909" lon="13.6305991"><ele>323.0</ele><time>2026-05-02T10:12:34.263Z</time></trkpt><trkpt lat="45.8664285" lon="13.6304567"><ele>323.0</ele><time>2026-05-02T10:12:36.263Z</time></trkpt><trkpt lat="45.8663515" lon="13.6303583"><ele>323.0</ele><time>2026-05-02T10:12:38.263Z</time></trkpt><trkpt lat="45.8662598" lon="13.6303097"><ele>323.0</ele><time>2026-05-02T10:12:40.264Z</time></trkpt><trkpt lat="45.8661607" lon="13.6302724"><ele>323.0</ele><time>2026-05-02T10:12:42.263Z</time></trkpt><trkpt lat="45.8660583" lon="13.6302071"><ele>323.0</ele><time>2026-05-02T10:12:44.263Z</time></trkpt><trkpt lat="45.8659573" lon="13.6301053"><ele>323.0</ele><time>2026-05-02T10:12:46.263Z</time></trkpt><trkpt lat="45.8658753" lon="13.6299803"><ele>322.4</ele><time>2026-05-02T10:12:48.263Z</time></trkpt><trkpt lat="45.8657682" lon="13.6298746"><ele>321.79999999999995</ele><time>2026-05-02T10:12:50.264Z</time></trkpt><trkpt lat="45.8657093" lon="13.6298295"><ele>321.2</ele><time>2026-05-02T10:12:51.263Z</time></trkpt><trkpt lat="45.8656154" lon="13.6297347"><ele>320.6</ele><time>2026-05-02T10:12:53.263Z</time></trkpt><trkpt lat="45.8655389" lon="13.6296514"><ele>320.0</ele><time>2026-05-02T10:12:55.263Z</time></trkpt><trkpt lat="45.8654831" lon="13.6295829"><ele>320.0</ele><time>2026-05-02T10:12:57.263Z</time></trkpt><trkpt lat="45.8654262" lon="13.6295303"><ele>320.0</ele><time>2026-05-02T10:13:00.263Z</time></trkpt><trkpt lat="45.8654121" lon="13.6296215"><ele>320.0</ele><time>2026-05-02T10:14:14.263Z</time></trkpt><trkpt lat="45.8654035" lon="13.6297381"><ele>320.0</ele><time>2026-05-02T10:14:17.263Z</time></trkpt><trkpt lat="45.8653828" lon="13.6298414"><ele>320.0</ele><time>2026-05-02T10:14:18.263Z</time></trkpt><trkpt lat="45.8653517" lon="13.6299534"><ele>320.0</ele><time>2026-05-02T10:14:21.264Z</time></trkpt><trkpt lat="45.8653317" lon="13.6300592"><ele>320.0</ele><time>2026-05-02T10:14:23.263Z</time></trkpt><trkpt lat="45.865381" lon="13.6299207"><ele>320.0</ele><time>2026-05-02T10:15:36.263Z</time></trkpt><trkpt lat="45.8654026" lon="13.6298254"><ele>320.0</ele><time>2026-05-02T10:15:38.263Z</time></trkpt><trkpt lat="45.8654067" lon="13.6297241"><ele>320.0</ele><time>2026-05-02T10:15:40.263Z</time></trkpt><trkpt lat="45.8654073" lon="13.6296307"><ele>320.0</ele><time>2026-05-02T10:15:42.263Z</time></trkpt><trkpt lat="45.8654119" lon="13.6295342"><ele>320.0</ele><time>2026-05-02T10:15:45.263Z</time></trkpt><trkpt lat="45.8653697" lon="13.6294265"><ele>318.8</ele><time>2026-05-02T10:15:48.263Z</time></trkpt><trkpt lat="45.8653197" lon="13.6293517"><ele>317.6</ele><time>2026-05-02T10:15:50.264Z</time></trkpt><trkpt lat="45.8652592" lon="13.6292775"><ele>316.4</ele><time>2026-05-02T10:15:52.228Z</time></trkpt><trkpt lat="45.8651911" lon="13.6291591"><ele>315.2</ele><time>2026-05-02T10:15:54.263Z</time></trkpt><trkpt lat="45.8651604" lon="13.6290241"><ele>314.0</ele><time>2026-05-02T10:15:57.263Z</time></trkpt><trkpt lat="45.8651676" lon="13.6288711"><ele>313.99999999999994</ele><time>2026-05-02T10:15:59.263Z</time></trkpt><trkpt lat="45.8651834" lon="13.6287656"><ele>314.0</ele><time>2026-05-02T10:16:00.263Z</time></trkpt><trkpt lat="45.8652028" lon="13.6286531"><ele>314.0</ele><time>2026-05-02T10:16:01.263Z</time></trkpt><trkpt lat="45.8652175" lon="13.6285546"><ele>314.0</ele><time>2026-05-02T10:16:02.263Z</time></trkpt><trkpt lat="45.8652228" lon="13.6284634"><ele>314.0</ele><time>2026-05-02T10:16:03.263Z</time></trkpt><trkpt lat="45.8652099" lon="13.6283654"><ele>313.99999999999994</ele><time>2026-05-02T10:16:04.263Z</time></trkpt><trkpt lat="45.8651766" lon="13.6282659"><ele>314.0</ele><time>2026-05-02T10:16:05.263Z</time></trkpt><trkpt lat="45.8651259" lon="13.6281666"><ele>313.6666666666667</ele><time>2026-05-02T10:16:06.263Z</time></trkpt><trkpt lat="45.8650671" lon="13.628067"><ele>313.33333333333337</ele><time>2026-05-02T10:16:07.263Z</time></trkpt><trkpt lat="45.8650096" lon="13.627977"><ele>313.0</ele><time>2026-05-02T10:16:08.263Z</time></trkpt><trkpt lat="45.864954" lon="13.6278937"><ele>312.6666666666667</ele><time>2026-05-02T10:16:09.263Z</time></trkpt><trkpt lat="45.8649004" lon="13.6278153"><ele>312.3333333333333</ele><time>2026-05-02T10:16:10.263Z</time></trkpt><trkpt lat="45.8648566" lon="13.6277361"><ele>312.0</ele><time>2026-05-02T10:16:11.263Z</time></trkpt><trkpt lat="45.8648248" lon="13.6276454"><ele>311.6666666666667</ele><time>2026-05-02T10:16:12.263Z</time></trkpt><trkpt lat="45.8647991" lon="13.6275439"><ele>311.3333333333333</ele><time>2026-05-02T10:16:13.263Z</time></trkpt><trkpt lat="45.864785" lon="13.6274429"><ele>311.0</ele><time>2026-05-02T10:16:14.264Z</time></trkpt><trkpt lat="45.8647839" lon="13.6273307"><ele>310.66666666666663</ele><time>2026-05-02T10:16:15.263Z</time></trkpt><trkpt lat="45.8647908" lon="13.6272064"><ele>310.3333333333333</ele><time>2026-05-02T10:16:16.263Z</time></trkpt><trkpt lat="45.8648028" lon="13.6270785"><ele>310.0</ele><time>2026-05-02T10:16:17.263Z</time></trkpt><trkpt lat="45.8648159" lon="13.6269529"><ele>309.0</ele><time>2026-05-02T10:16:18.263Z</time></trkpt><trkpt lat="45.8648289" lon="13.6268351"><ele>308.0</ele><time>2026-05-02T10:16:19.263Z</time></trkpt><trkpt lat="45.8648413" lon="13.6267203"><ele>307.0</ele><time>2026-05-02T10:16:20.263Z</time></trkpt><trkpt lat="45.8648516" lon="13.6266168"><ele>306.0</ele><time>2026-05-02T10:16:21.263Z</time></trkpt><trkpt lat="45.8648358" lon="13.6264575"><ele>305.0</ele><time>2026-05-02T10:16:23.263Z</time></trkpt><trkpt lat="45.8647563" lon="13.6263685"><ele>305.0</ele><time>2026-05-02T10:16:25.263Z</time></trkpt><trkpt lat="45.8646936" lon="13.6263382"><ele>305.0</ele><time>2026-05-02T10:16:26.263Z</time></trkpt><trkpt lat="45.8646176" lon="13.6262981"><ele>305.0</ele><time>2026-05-02T10:16:27.263Z</time></trkpt><trkpt lat="45.8645369" lon="13.6262449"><ele>305.0</ele><time>2026-05-02T10:16:28.263Z</time></trkpt><trkpt lat="45.8644585" lon="13.6261957"><ele>305.0</ele><time>2026-05-02T10:16:29.263Z</time></trkpt><trkpt lat="45.8643792" lon="13.6261586"><ele>305.0</ele><time>2026-05-02T10:16:30.264Z</time></trkpt><trkpt lat="45.8642973" lon="13.6261257"><ele>305.2</ele><time>2026-05-02T10:16:31.263Z</time></trkpt><trkpt lat="45.8642135" lon="13.6260982"><ele>305.4</ele><time>2026-05-02T10:16:32.263Z</time></trkpt><trkpt lat="45.8641249" lon="13.6260761"><ele>305.6</ele><time>2026-05-02T10:16:33.263Z</time></trkpt><trkpt lat="45.8640305" lon="13.6260544"><ele>305.8</ele><time>2026-05-02T10:16:34.264Z</time></trkpt><trkpt lat="45.8639336" lon="13.6260304"><ele>306.0</ele><time>2026-05-02T10:16:35.263Z</time></trkpt><trkpt lat="45.8638459" lon="13.6260104"><ele>306.0</ele><time>2026-05-02T10:16:36.263Z</time></trkpt><trkpt lat="45.8637658" lon="13.6259875"><ele>306.0</ele><time>2026-05-02T10:16:37.263Z</time></trkpt><trkpt lat="45.8636981" lon="13.6259545"><ele>306.0</ele><time>2026-05-02T10:16:38.263Z</time></trkpt><trkpt lat="45.8636125" lon="13.6258378"><ele>306.0</ele><time>2026-05-02T10:16:40.263Z</time></trkpt><trkpt lat="45.8635909" lon="13.625743"><ele>306.0</ele><time>2026-05-02T10:16:41.263Z</time></trkpt><trkpt lat="45.863581" lon="13.6256288"><ele>306.0</ele><time>2026-05-02T10:16:42.263Z</time></trkpt><trkpt lat="45.8635895" lon="13.6255028"><ele>306.0</ele><time>2026-05-02T10:16:43.263Z</time></trkpt><trkpt lat="45.8636082" lon="13.625374"><ele>306.0</ele><time>2026-05-02T10:16:44.263Z</time></trkpt><trkpt lat="45.8636372" lon="13.6252453"><ele>306.0</ele><time>2026-05-02T10:16:45.263Z</time></trkpt><trkpt lat="45.8636668" lon="13.625118"><ele>306.0</ele><time>2026-05-02T10:16:46.263Z</time></trkpt><trkpt lat="45.863686" lon="13.6249958"><ele>306.0</ele><time>2026-05-02T10:16:47.264Z</time></trkpt><trkpt lat="45.8636991" lon="13.6248627"><ele>305.8</ele><time>2026-05-02T10:16:48.263Z</time></trkpt><trkpt lat="45.8637108" lon="13.6247277"><ele>305.6</ele><time>2026-05-02T10:16:49.263Z</time></trkpt><trkpt lat="45.8637313" lon="13.6246007"><ele>305.4</ele><time>2026-05-02T10:16:50.264Z</time></trkpt><trkpt lat="45.8637604" lon="13.624463"><ele>305.2</ele><time>2026-05-02T10:16:51.264Z</time></trkpt><trkpt lat="45.8637869" lon="13.6243187"><ele>305.0</ele><time>2026-05-02T10:16:52.263Z</time></trkpt><trkpt lat="45.8638078" lon="13.6241792"><ele>304.2</ele><time>2026-05-02T10:16:53.263Z</time></trkpt><trkpt lat="45.863824" lon="13.6240429"><ele>303.4</ele><time>2026-05-02T10:16:54.263Z</time></trkpt><trkpt lat="45.8638433" lon="13.6239024"><ele>302.6</ele><time>2026-05-02T10:16:55.264Z</time></trkpt><trkpt lat="45.8638713" lon="13.6237466"><ele>301.8</ele><time>2026-05-02T10:16:56.263Z</time></trkpt><trkpt lat="45.8639081" lon="13.6235842"><ele>301.0</ele><time>2026-05-02T10:16:57.263Z</time></trkpt><trkpt lat="45.8639437" lon="13.6234421"><ele>300.8333333333333</ele><time>2026-05-02T10:16:58.263Z</time></trkpt><trkpt lat="45.8639727" lon="13.6233149"><ele>300.66666666666663</ele><time>2026-05-02T10:16:59.263Z</time></trkpt><trkpt lat="45.8639942" lon="13.6231817"><ele>300.5</ele><time>2026-05-02T10:17:00.263Z</time></trkpt><trkpt lat="45.8640151" lon="13.6230424"><ele>300.3333333333333</ele><time>2026-05-02T10:17:01.264Z</time></trkpt><trkpt lat="45.8640356" lon="13.6229189"><ele>300.1666666666667</ele><time>2026-05-02T10:17:02.263Z</time></trkpt><trkpt lat="45.8640514" lon="13.6228199"><ele>300.0</ele><time>2026-05-02T10:17:03.263Z</time></trkpt><trkpt lat="45.8640576" lon="13.6227238"><ele>300.0</ele><time>2026-05-02T10:17:04.263Z</time></trkpt><trkpt lat="45.8640522" lon="13.6226159"><ele>300.0</ele><time>2026-05-02T10:17:05.263Z</time></trkpt><trkpt lat="45.8640361" lon="13.6225028"><ele>300.0</ele><time>2026-05-02T10:17:06.263Z</time></trkpt><trkpt lat="45.8640189" lon="13.6223857"><ele>300.0</ele><time>2026-05-02T10:17:07.263Z</time></trkpt><trkpt lat="45.8640115" lon="13.6222603"><ele>300.0</ele><time>2026-05-02T10:17:08.263Z</time></trkpt><trkpt lat="45.8640117" lon="13.6221158"><ele>300.0</ele><time>2026-05-02T10:17:09.263Z</time></trkpt><trkpt lat="45.864023" lon="13.6219594"><ele>299.6</ele><time>2026-05-02T10:17:10.263Z</time></trkpt><trkpt lat="45.864035" lon="13.6218135"><ele>299.2</ele><time>2026-05-02T10:17:11.263Z</time></trkpt><trkpt lat="45.8640418" lon="13.6216835"><ele>298.8</ele><time>2026-05-02T10:17:12.264Z</time></trkpt><trkpt lat="45.8640445" lon="13.6215573"><ele>298.4</ele><time>2026-05-02T10:17:13.263Z</time></trkpt><trkpt lat="45.8640404" lon="13.6214263"><ele>298.0</ele><time>2026-05-02T10:17:14.263Z</time></trkpt><trkpt lat="45.8640332" lon="13.6213035"><ele>298.0</ele><time>2026-05-02T10:17:15.264Z</time></trkpt><trkpt lat="45.8640207" lon="13.6211918"><ele>298.0</ele><time>2026-05-02T10:17:16.263Z</time></trkpt><trkpt lat="45.8640032" lon="13.6210791"><ele>298.0</ele><time>2026-05-02T10:17:17.263Z</time></trkpt><trkpt lat="45.8639872" lon="13.6209726"><ele>298.0</ele><time>2026-05-02T10:17:18.263Z</time></trkpt><trkpt lat="45.863971" lon="13.6208746"><ele>298.0</ele><time>2026-05-02T10:17:19.263Z</time></trkpt><trkpt lat="45.8639483" lon="13.6207803"><ele>298.0</ele><time>2026-05-02T10:17:20.263Z</time></trkpt><trkpt lat="45.8639143" lon="13.6206762"><ele>297.2</ele><time>2026-05-02T10:17:21.263Z</time></trkpt><trkpt lat="45.8638771" lon="13.6205577"><ele>296.4</ele><time>2026-05-02T10:17:22.263Z</time></trkpt><trkpt lat="45.863841" lon="13.6204374"><ele>295.59999999999997</ele><time>2026-05-02T10:17:23.263Z</time></trkpt><trkpt lat="45.8638076" lon="13.6203092"><ele>294.8</ele><time>2026-05-02T10:17:24.263Z</time></trkpt><trkpt lat="45.863775" lon="13.6201712"><ele>294.0</ele><time>2026-05-02T10:17:25.263Z</time></trkpt><trkpt lat="45.8637468" lon="13.6200458"><ele>294.0</ele><time>2026-05-02T10:17:26.263Z</time></trkpt><trkpt lat="45.8637185" lon="13.619935"><ele>294.0</ele><time>2026-05-02T10:17:27.263Z</time></trkpt><trkpt lat="45.8636898" lon="13.6198265"><ele>294.0</ele><time>2026-05-02T10:17:28.263Z</time></trkpt><trkpt lat="45.8636651" lon="13.6197244"><ele>294.0</ele><time>2026-05-02T10:17:29.263Z</time></trkpt><trkpt lat="45.8636436" lon="13.6196279"><ele>294.0</ele><time>2026-05-02T10:17:30.263Z</time></trkpt><trkpt lat="45.8636037" lon="13.619486"><ele>294.0</ele><time>2026-05-02T10:17:32.263Z</time></trkpt><trkpt lat="45.863547" lon="13.6194238"><ele>292.59999999999997</ele><time>2026-05-02T10:17:35.263Z</time></trkpt><trkpt lat="45.8634404" lon="13.6195553"><ele>291.2</ele><time>2026-05-02T10:18:22.263Z</time></trkpt><trkpt lat="45.8633653" lon="13.6196468"><ele>289.79999999999995</ele><time>2026-05-02T10:18:23.263Z</time></trkpt><trkpt lat="45.8633029" lon="13.6197365"><ele>288.4</ele><time>2026-05-02T10:18:24.264Z</time></trkpt><trkpt lat="45.8632554" lon="13.6198118"><ele>287.0</ele><time>2026-05-02T10:18:25.264Z</time></trkpt><trkpt lat="45.8632075" lon="13.6198812"><ele>287.0</ele><time>2026-05-02T10:18:26.264Z</time></trkpt><trkpt lat="45.863138" lon="13.6199748"><ele>287.0</ele><time>2026-05-02T10:18:28.263Z</time></trkpt><trkpt lat="45.863085" lon="13.6200645"><ele>287.0</ele><time>2026-05-02T10:18:30.264Z</time></trkpt><trkpt lat="45.8630193" lon="13.620173"><ele>287.0</ele><time>2026-05-02T10:18:32.263Z</time></trkpt><trkpt lat="45.8629521" lon="13.6202866"><ele>287.0</ele><time>2026-05-02T10:18:34.263Z</time></trkpt><trkpt lat="45.8628751" lon="13.6204336"><ele>286.5</ele><time>2026-05-02T10:18:36.263Z</time></trkpt><trkpt lat="45.8628364" lon="13.6205303"><ele>286.0</ele><time>2026-05-02T10:18:37.263Z</time></trkpt><trkpt lat="45.8628069" lon="13.6206443"><ele>285.5</ele><time>2026-05-02T10:18:38.263Z</time></trkpt><trkpt lat="45.862783" lon="13.6207659"><ele>285.0</ele><time>2026-05-02T10:18:39.263Z</time></trkpt><trkpt lat="45.8627614" lon="13.6208925"><ele>284.5</ele><time>2026-05-02T10:18:40.263Z</time></trkpt><trkpt lat="45.8627452" lon="13.6210179"><ele>284.0</ele><time>2026-05-02T10:18:41.263Z</time></trkpt><trkpt lat="45.8627267" lon="13.6211421"><ele>283.5</ele><time>2026-05-02T10:18:42.263Z</time></trkpt><trkpt lat="45.8627094" lon="13.6212614"><ele>283.0</ele><time>2026-05-02T10:18:43.264Z</time></trkpt><trkpt lat="45.8626892" lon="13.6213732"><ele>282.5</ele><time>2026-05-02T10:18:44.263Z</time></trkpt><trkpt lat="45.8626644" lon="13.6214742"><ele>282.0</ele><time>2026-05-02T10:18:45.263Z</time></trkpt><trkpt lat="45.8626347" lon="13.6215769"><ele>281.5</ele><time>2026-05-02T10:18:46.264Z</time></trkpt><trkpt lat="45.8625954" lon="13.6216866"><ele>281.0</ele><time>2026-05-02T10:18:47.263Z</time></trkpt><trkpt lat="45.8625509" lon="13.6218036"><ele>281.0</ele><time>2026-05-02T10:18:48.263Z</time></trkpt><trkpt lat="45.8624979" lon="13.6219221"><ele>281.0</ele><time>2026-05-02T10:18:49.263Z</time></trkpt><trkpt lat="45.8624429" lon="13.622039"><ele>281.0</ele><time>2026-05-02T10:18:50.263Z</time></trkpt><trkpt lat="45.8623874" lon="13.6221495"><ele>281.0</ele><time>2026-05-02T10:18:51.263Z</time></trkpt><trkpt lat="45.8623284" lon="13.6222558"><ele>281.0</ele><time>2026-05-02T10:18:52.263Z</time></trkpt><trkpt lat="45.8622659" lon="13.6223628"><ele>281.2</ele><time>2026-05-02T10:18:53.263Z</time></trkpt><trkpt lat="45.8622021" lon="13.6224648"><ele>281.40000000000003</ele><time>2026-05-02T10:18:54.263Z</time></trkpt><trkpt lat="45.8621387" lon="13.622556"><ele>281.6</ele><time>2026-05-02T10:18:55.263Z</time></trkpt><trkpt lat="45.8620696" lon="13.6226353"><ele>281.8</ele><time>2026-05-02T10:18:56.263Z</time></trkpt><trkpt lat="45.8619984" lon="13.6227067"><ele>282.0</ele><time>2026-05-02T10:18:57.263Z</time></trkpt><trkpt lat="45.8619207" lon="13.6227755"><ele>282.4</ele><time>2026-05-02T10:18:58.263Z</time></trkpt><trkpt lat="45.861837" lon="13.6228437"><ele>282.79999999999995</ele><time>2026-05-02T10:18:59.264Z</time></trkpt><trkpt lat="45.8617523" lon="13.6229048"><ele>283.2</ele><time>2026-05-02T10:19:00.263Z</time></trkpt><trkpt lat="45.8616718" lon="13.6229508"><ele>283.59999999999997</ele><time>2026-05-02T10:19:01.263Z</time></trkpt><trkpt lat="45.8615896" lon="13.6229989"><ele>284.0</ele><time>2026-05-02T10:19:02.263Z</time></trkpt><trkpt lat="45.861506" lon="13.6230453"><ele>282.4</ele><time>2026-05-02T10:19:03.264Z</time></trkpt><trkpt lat="45.8614169" lon="13.623099"><ele>280.79999999999995</ele><time>2026-05-02T10:19:04.263Z</time></trkpt><trkpt lat="45.8613199" lon="13.6231509"><ele>279.20000000000005</ele><time>2026-05-02T10:19:05.263Z</time></trkpt><trkpt lat="45.8612214" lon="13.6232001"><ele>277.6</ele><time>2026-05-02T10:19:06.264Z</time></trkpt><trkpt lat="45.8611255" lon="13.6232461"><ele>276.0</ele><time>2026-05-02T10:19:07.263Z</time></trkpt><trkpt lat="45.8610335" lon="13.6232914"><ele>274.6</ele><time>2026-05-02T10:19:08.263Z</time></trkpt><trkpt lat="45.860948" lon="13.6233361"><ele>273.20000000000005</ele><time>2026-05-02T10:19:09.263Z</time></trkpt><trkpt lat="45.8608666" lon="13.623383"><ele>271.79999999999995</ele><time>2026-05-02T10:19:10.263Z</time></trkpt><trkpt lat="45.8607795" lon="13.6234279"><ele>270.4</ele><time>2026-05-02T10:19:11.263Z</time></trkpt><trkpt lat="45.8606885" lon="13.6234801"><ele>269.0</ele><time>2026-05-02T10:19:12.263Z</time></trkpt><trkpt lat="45.860594" lon="13.6235355"><ele>269.0</ele><time>2026-05-02T10:19:13.263Z</time></trkpt><trkpt lat="45.8604946" lon="13.6235913"><ele>269.0</ele><time>2026-05-02T10:19:14.263Z</time></trkpt><trkpt lat="45.8603976" lon="13.6236413"><ele>269.0</ele><time>2026-05-02T10:19:15.263Z</time></trkpt><trkpt lat="45.8603015" lon="13.6236958"><ele>269.0</ele><time>2026-05-02T10:19:16.263Z</time></trkpt><trkpt lat="45.8602066" lon="13.6237499"><ele>269.0</ele><time>2026-05-02T10:19:17.263Z</time></trkpt><trkpt lat="45.8601142" lon="13.623803"><ele>267.59999999999997</ele><time>2026-05-02T10:19:18.263Z</time></trkpt><trkpt lat="45.8600225" lon="13.6238551"><ele>266.2</ele><time>2026-05-02T10:19:19.263Z</time></trkpt><trkpt lat="45.8599307" lon="13.6239045"><ele>264.79999999999995</ele><time>2026-05-02T10:19:20.263Z</time></trkpt><trkpt lat="45.8598388" lon="13.6239585"><ele>263.4</ele><time>2026-05-02T10:19:21.263Z</time></trkpt><trkpt lat="45.8597481" lon="13.6240138"><ele>262.0</ele><time>2026-05-02T10:19:22.263Z</time></trkpt><trkpt lat="45.8596629" lon="13.624062"><ele>262.0</ele><time>2026-05-02T10:19:23.263Z</time></trkpt><trkpt lat="45.8595811" lon="13.6241049"><ele>262.0</ele><time>2026-05-02T10:19:24.263Z</time></trkpt><trkpt lat="45.8595024" lon="13.6241357"><ele>262.0</ele><time>2026-05-02T10:19:25.263Z</time></trkpt><trkpt lat="45.8594258" lon="13.6241642"><ele>262.0</ele><time>2026-05-02T10:19:26.263Z</time></trkpt><trkpt lat="45.859354" lon="13.6242005"><ele>262.0</ele><time>2026-05-02T10:19:27.263Z</time></trkpt><trkpt lat="45.8592854" lon="13.6242466"><ele>262.0</ele><time>2026-05-02T10:19:28.263Z</time></trkpt><trkpt lat="45.8592172" lon="13.6242957"><ele>261.0</ele><time>2026-05-02T10:19:29.263Z</time></trkpt><trkpt lat="45.8591512" lon="13.6243399"><ele>260.0</ele><time>2026-05-02T10:19:30.263Z</time></trkpt><trkpt lat="45.8590882" lon="13.624376"><ele>259.0</ele><time>2026-05-02T10:19:31.263Z</time></trkpt><trkpt lat="45.8589939" lon="13.6244381"><ele>258.0</ele><time>2026-05-02T10:19:33.263Z</time></trkpt><trkpt lat="45.8589322" lon="13.6245359"><ele>257.0</ele><time>2026-05-02T10:19:35.264Z</time></trkpt><trkpt lat="45.858909" lon="13.6246204"><ele>256.0</ele><time>2026-05-02T10:19:36.263Z</time></trkpt><trkpt lat="45.8588863" lon="13.6247196"><ele>255.49999999999997</ele><time>2026-05-02T10:19:37.263Z</time></trkpt><trkpt lat="45.8588629" lon="13.6248131"><ele>255.0</ele><time>2026-05-02T10:19:38.263Z</time></trkpt><trkpt lat="45.8588366" lon="13.6249096"><ele>254.5</ele><time>2026-05-02T10:19:39.263Z</time></trkpt><trkpt lat="45.8588124" lon="13.6250128"><ele>254.0</ele><time>2026-05-02T10:19:40.263Z</time></trkpt><trkpt lat="45.8587868" lon="13.6251229"><ele>253.49999999999997</ele><time>2026-05-02T10:19:41.263Z</time></trkpt><trkpt lat="45.8587578" lon="13.625229"><ele>253.0</ele><time>2026-05-02T10:19:42.263Z</time></trkpt><trkpt lat="45.8587337" lon="13.6253346"><ele>252.5714285714286</ele><time>2026-05-02T10:19:43.263Z</time></trkpt><trkpt lat="45.8587122" lon="13.6254368"><ele>252.14285714285717</ele><time>2026-05-02T10:19:44.263Z</time></trkpt><trkpt lat="45.8586909" lon="13.6255398"><ele>251.71428571428572</ele><time>2026-05-02T10:19:45.263Z</time></trkpt><trkpt lat="45.8586701" lon="13.6256385"><ele>251.2857142857143</ele><time>2026-05-02T10:19:46.264Z</time></trkpt><trkpt lat="45.8586449" lon="13.6257329"><ele>250.8571428571429</ele><time>2026-05-02T10:19:47.263Z</time></trkpt><trkpt lat="45.8586071" lon="13.6258166"><ele>250.42857142857142</ele><time>2026-05-02T10:19:48.264Z</time></trkpt><trkpt lat="45.8585569" lon="13.6258865"><ele>250.0</ele><time>2026-05-02T10:19:49.264Z</time></trkpt><trkpt lat="45.8584947" lon="13.6259415"><ele>248.16666666666666</ele><time>2026-05-02T10:19:50.263Z</time></trkpt><trkpt lat="45.858422" lon="13.6259811"><ele>246.33333333333331</ele><time>2026-05-02T10:19:51.263Z</time></trkpt><trkpt lat="45.8583445" lon="13.6260217"><ele>244.5</ele><time>2026-05-02T10:19:52.263Z</time></trkpt><trkpt lat="45.8582633" lon="13.626069"><ele>242.66666666666669</ele><time>2026-05-02T10:19:53.263Z</time></trkpt><trkpt lat="45.8581741" lon="13.6261221"><ele>240.83333333333334</ele><time>2026-05-02T10:19:54.263Z</time></trkpt><trkpt lat="45.8580821" lon="13.6261715"><ele>239.0</ele><time>2026-05-02T10:19:55.263Z</time></trkpt><trkpt lat="45.8579949" lon="13.6262236"><ele>238.2</ele><time>2026-05-02T10:19:56.263Z</time></trkpt><trkpt lat="45.8579044" lon="13.626287"><ele>237.39999999999998</ele><time>2026-05-02T10:19:57.263Z</time></trkpt><trkpt lat="45.857814" lon="13.6263664"><ele>236.6</ele><time>2026-05-02T10:19:58.264Z</time></trkpt><trkpt lat="45.8577291" lon="13.6264482"><ele>235.8</ele><time>2026-05-02T10:19:59.264Z</time></trkpt><trkpt lat="45.8576474" lon="13.6265334"><ele>235.0</ele><time>2026-05-02T10:20:00.263Z</time></trkpt><trkpt lat="45.8575706" lon="13.6266225"><ele>234.8</ele><time>2026-05-02T10:20:01.264Z</time></trkpt><trkpt lat="45.8574985" lon="13.6267199"><ele>234.6</ele><time>2026-05-02T10:20:02.263Z</time></trkpt><trkpt lat="45.8574299" lon="13.6268218"><ele>234.39999999999998</ele><time>2026-05-02T10:20:03.264Z</time></trkpt><trkpt lat="45.8573654" lon="13.6269313"><ele>234.2</ele><time>2026-05-02T10:20:04.263Z</time></trkpt><trkpt lat="45.8573073" lon="13.6270415"><ele>234.0</ele><time>2026-05-02T10:20:05.263Z</time></trkpt><trkpt lat="45.8572492" lon="13.6271472"><ele>234.0</ele><time>2026-05-02T10:20:06.263Z</time></trkpt><trkpt lat="45.8571935" lon="13.6272578"><ele>233.99999999999997</ele><time>2026-05-02T10:20:07.263Z</time></trkpt><trkpt lat="45.8571387" lon="13.627373"><ele>233.99999999999997</ele><time>2026-05-02T10:20:08.264Z</time></trkpt><trkpt lat="45.8570807" lon="13.627492"><ele>234.0</ele><time>2026-05-02T10:20:09.263Z</time></trkpt><trkpt lat="45.8570151" lon="13.6276046"><ele>234.0</ele><time>2026-05-02T10:20:10.263Z</time></trkpt><trkpt lat="45.8569455" lon="13.6277068"><ele>235.0</ele><time>2026-05-02T10:20:11.263Z</time></trkpt><trkpt lat="45.8568762" lon="13.6278113"><ele>235.99999999999997</ele><time>2026-05-02T10:20:12.263Z</time></trkpt><trkpt lat="45.8568082" lon="13.6279189"><ele>236.99999999999997</ele><time>2026-05-02T10:20:13.264Z</time></trkpt><trkpt lat="45.85675" lon="13.6280277"><ele>238.0</ele><time>2026-05-02T10:20:14.264Z</time></trkpt><trkpt lat="45.856699" lon="13.6281335"><ele>239.0</ele><time>2026-05-02T10:20:15.263Z</time></trkpt><trkpt lat="45.8566447" lon="13.6282341"><ele>239.66666666666669</ele><time>2026-05-02T10:20:16.263Z</time></trkpt><trkpt lat="45.8565899" lon="13.6283286"><ele>240.33333333333334</ele><time>2026-05-02T10:20:17.263Z</time></trkpt><trkpt lat="45.8565253" lon="13.6283974"><ele>241.0</ele><time>2026-05-02T10:20:18.263Z</time></trkpt><trkpt lat="45.8564535" lon="13.6284376"><ele>241.66666666666669</ele><time>2026-05-02T10:20:19.263Z</time></trkpt><trkpt lat="45.8563756" lon="13.6284652"><ele>242.33333333333334</ele><time>2026-05-02T10:20:20.264Z</time></trkpt><trkpt lat="45.8562887" lon="13.6284935"><ele>243.0</ele><time>2026-05-02T10:20:21.263Z</time></trkpt><trkpt lat="45.8561965" lon="13.6285235"><ele>243.0</ele><time>2026-05-02T10:20:22.263Z</time></trkpt><trkpt lat="45.856095" lon="13.6285556"><ele>243.0</ele><time>2026-05-02T10:20:23.264Z</time></trkpt><trkpt lat="45.8559821" lon="13.6285863"><ele>243.0</ele><time>2026-05-02T10:20:24.263Z</time></trkpt><trkpt lat="45.8558767" lon="13.6286086"><ele>243.0</ele><time>2026-05-02T10:20:25.263Z</time></trkpt><trkpt lat="45.8557843" lon="13.6286246"><ele>243.0</ele><time>2026-05-02T10:20:26.263Z</time></trkpt><trkpt lat="45.8556949" lon="13.6286452"><ele>244.60000000000002</ele><time>2026-05-02T10:20:27.263Z</time></trkpt><trkpt lat="45.8556079" lon="13.6286747"><ele>246.20000000000002</ele><time>2026-05-02T10:20:28.263Z</time></trkpt><trkpt lat="45.8555193" lon="13.6287119"><ele>247.8</ele><time>2026-05-02T10:20:29.263Z</time></trkpt><trkpt lat="45.8554246" lon="13.6287633"><ele>249.4</ele><time>2026-05-02T10:20:30.263Z</time></trkpt><trkpt lat="45.855325" lon="13.6288245"><ele>251.0</ele><time>2026-05-02T10:20:31.263Z</time></trkpt><trkpt lat="45.8552218" lon="13.6288745"><ele>250.4</ele><time>2026-05-02T10:20:32.263Z</time></trkpt><trkpt lat="45.8551134" lon="13.6289132"><ele>249.8</ele><time>2026-05-02T10:20:33.263Z</time></trkpt><trkpt lat="45.8550057" lon="13.6289437"><ele>249.20000000000002</ele><time>2026-05-02T10:20:34.263Z</time></trkpt><trkpt lat="45.854894" lon="13.6289752"><ele>248.60000000000002</ele><time>2026-05-02T10:20:35.263Z</time></trkpt><trkpt lat="45.8547885" lon="13.6290049"><ele>248.0</ele><time>2026-05-02T10:20:36.263Z</time></trkpt><trkpt lat="45.854694" lon="13.6290313"><ele>248.00000000000003</ele><time>2026-05-02T10:20:37.263Z</time></trkpt><trkpt lat="45.8546039" lon="13.6290615"><ele>248.0</ele><time>2026-05-02T10:20:38.263Z</time></trkpt><trkpt lat="45.8545249" lon="13.6290916"><ele>248.0</ele><time>2026-05-02T10:20:39.263Z</time></trkpt><trkpt lat="45.8544539" lon="13.6291256"><ele>248.0</ele><time>2026-05-02T10:20:40.264Z</time></trkpt><trkpt lat="45.8543898" lon="13.6291763"><ele>248.00000000000003</ele><time>2026-05-02T10:20:41.263Z</time></trkpt><trkpt lat="45.8543247" lon="13.6292416"><ele>248.0</ele><time>2026-05-02T10:20:42.263Z</time></trkpt><trkpt lat="45.8542612" lon="13.6293229"><ele>248.2</ele><time>2026-05-02T10:20:43.263Z</time></trkpt><trkpt lat="45.8542014" lon="13.6294187"><ele>248.4</ele><time>2026-05-02T10:20:44.263Z</time></trkpt><trkpt lat="45.8541517" lon="13.6295279"><ele>248.59999999999997</ele><time>2026-05-02T10:20:45.263Z</time></trkpt><trkpt lat="45.8541111" lon="13.6296506"><ele>248.79999999999998</ele><time>2026-05-02T10:20:46.263Z</time></trkpt><trkpt lat="45.8540716" lon="13.6297837"><ele>249.0</ele><time>2026-05-02T10:20:47.263Z</time></trkpt><trkpt lat="45.8540304" lon="13.6299194"><ele>250.2</ele><time>2026-05-02T10:20:48.263Z</time></trkpt><trkpt lat="45.8539838" lon="13.6300507"><ele>251.39999999999998</ele><time>2026-05-02T10:20:49.263Z</time></trkpt><trkpt lat="45.8539291" lon="13.63018"><ele>252.6</ele><time>2026-05-02T10:20:50.263Z</time></trkpt><trkpt lat="45.8538754" lon="13.6303098"><ele>253.8</ele><time>2026-05-02T10:20:51.263Z</time></trkpt><trkpt lat="45.8538219" lon="13.6304333"><ele>255.0</ele><time>2026-05-02T10:20:52.263Z</time></trkpt><trkpt lat="45.8537692" lon="13.6305513"><ele>255.5</ele><time>2026-05-02T10:20:53.263Z</time></trkpt><trkpt lat="45.8537184" lon="13.6306565"><ele>256.0</ele><time>2026-05-02T10:20:54.263Z</time></trkpt><trkpt lat="45.8536702" lon="13.6307512"><ele>256.5</ele><time>2026-05-02T10:20:55.263Z</time></trkpt><trkpt lat="45.8536052" lon="13.6308198"><ele>257.0</ele><time>2026-05-02T10:20:56.263Z</time></trkpt><trkpt lat="45.8535322" lon="13.6308671"><ele>257.5</ele><time>2026-05-02T10:20:57.263Z</time></trkpt><trkpt lat="45.8534448" lon="13.6309118"><ele>258.0</ele><time>2026-05-02T10:20:58.264Z</time></trkpt><trkpt lat="45.8533555" lon="13.6309427"><ele>258.0</ele><time>2026-05-02T10:20:59.263Z</time></trkpt><trkpt lat="45.853271" lon="13.6309563"><ele>258.0</ele><time>2026-05-02T10:21:00.263Z</time></trkpt><trkpt lat="45.8531943" lon="13.6309746"><ele>258.0</ele><time>2026-05-02T10:21:01.264Z</time></trkpt><trkpt lat="45.8531256" lon="13.6310131"><ele>258.0</ele><time>2026-05-02T10:21:02.263Z</time></trkpt><trkpt lat="45.8530633" lon="13.6310782"><ele>258.0</ele><time>2026-05-02T10:21:03.263Z</time></trkpt><trkpt lat="45.8530051" lon="13.63117"><ele>258.0</ele><time>2026-05-02T10:21:04.264Z</time></trkpt><trkpt lat="45.8529491" lon="13.6312815"><ele>258.2</ele><time>2026-05-02T10:21:05.263Z</time></trkpt><trkpt lat="45.8528909" lon="13.6313949"><ele>258.4</ele><time>2026-05-02T10:21:06.264Z</time></trkpt><trkpt lat="45.8528241" lon="13.6314962"><ele>258.59999999999997</ele><time>2026-05-02T10:21:07.263Z</time></trkpt><trkpt lat="45.8527497" lon="13.6315921"><ele>258.8</ele><time>2026-05-02T10:21:08.263Z</time></trkpt><trkpt lat="45.852678" lon="13.6316872"><ele>259.0</ele><time>2026-05-02T10:21:09.263Z</time></trkpt><trkpt lat="45.8526129" lon="13.6317813"><ele>257.8</ele><time>2026-05-02T10:21:10.264Z</time></trkpt><trkpt lat="45.8525512" lon="13.6318732"><ele>256.59999999999997</ele><time>2026-05-02T10:21:11.263Z</time></trkpt><trkpt lat="45.8524865" lon="13.6319646"><ele>255.4</ele><time>2026-05-02T10:21:12.263Z</time></trkpt><trkpt lat="45.8524119" lon="13.6320525"><ele>254.2</ele><time>2026-05-02T10:21:13.264Z</time></trkpt><trkpt lat="45.8523296" lon="13.6321319"><ele>253.0</ele><time>2026-05-02T10:21:14.263Z</time></trkpt><trkpt lat="45.8522454" lon="13.6321893"><ele>252.83333333333331</ele><time>2026-05-02T10:21:15.263Z</time></trkpt><trkpt lat="45.8521684" lon="13.6322366"><ele>252.66666666666666</ele><time>2026-05-02T10:21:16.263Z</time></trkpt><trkpt lat="45.8521023" lon="13.6323013"><ele>252.5</ele><time>2026-05-02T10:21:17.263Z</time></trkpt><trkpt lat="45.8520421" lon="13.632393"><ele>252.33333333333331</ele><time>2026-05-02T10:21:18.263Z</time></trkpt><trkpt lat="45.8519844" lon="13.632502"><ele>252.16666666666666</ele><time>2026-05-02T10:21:19.264Z</time></trkpt><trkpt lat="45.8519306" lon="13.6326171"><ele>252.0</ele><time>2026-05-02T10:21:20.263Z</time></trkpt><trkpt lat="45.8518738" lon="13.6327177"><ele>252.0</ele><time>2026-05-02T10:21:21.263Z</time></trkpt><trkpt lat="45.8518056" lon="13.6327985"><ele>252.0</ele><time>2026-05-02T10:21:22.263Z</time></trkpt><trkpt lat="45.8517234" lon="13.6328635"><ele>252.0</ele><time>2026-05-02T10:21:23.263Z</time></trkpt><trkpt lat="45.851623" lon="13.6329182"><ele>252.0</ele><time>2026-05-02T10:21:24.263Z</time></trkpt><trkpt lat="45.8515105" lon="13.6329723"><ele>252.0</ele><time>2026-05-02T10:21:25.263Z</time></trkpt><trkpt lat="45.851405" lon="13.6330243"><ele>252.8</ele><time>2026-05-02T10:21:26.264Z</time></trkpt><trkpt lat="45.8513027" lon="13.6330725"><ele>253.6</ele><time>2026-05-02T10:21:27.263Z</time></trkpt><trkpt lat="45.8511981" lon="13.6331189"><ele>254.40000000000003</ele><time>2026-05-02T10:21:28.263Z</time></trkpt><trkpt lat="45.8510951" lon="13.6331673"><ele>255.20000000000002</ele><time>2026-05-02T10:21:29.263Z</time></trkpt><trkpt lat="45.8509899" lon="13.6332198"><ele>256.0</ele><time>2026-05-02T10:21:30.263Z</time></trkpt><trkpt lat="45.8508868" lon="13.6332649"><ele>256.0</ele><time>2026-05-02T10:21:31.263Z</time></trkpt><trkpt lat="45.8507879" lon="13.6333006"><ele>256.0</ele><time>2026-05-02T10:21:32.263Z</time></trkpt><trkpt lat="45.8506882" lon="13.6333443"><ele>256.0</ele><time>2026-05-02T10:21:33.264Z</time></trkpt><trkpt lat="45.8505832" lon="13.633407"><ele>256.0</ele><time>2026-05-02T10:21:34.263Z</time></trkpt><trkpt lat="45.8504846" lon="13.6334782"><ele>256.0</ele><time>2026-05-02T10:21:35.263Z</time></trkpt><trkpt lat="45.850386" lon="13.6335586"><ele>255.60000000000002</ele><time>2026-05-02T10:21:36.264Z</time></trkpt><trkpt lat="45.8502895" lon="13.6336424"><ele>255.20000000000002</ele><time>2026-05-02T10:21:37.263Z</time></trkpt><trkpt lat="45.8501985" lon="13.6337135"><ele>254.79999999999998</ele><time>2026-05-02T10:21:38.263Z</time></trkpt><trkpt lat="45.8501069" lon="13.633779"><ele>254.39999999999998</ele><time>2026-05-02T10:21:39.263Z</time></trkpt><trkpt lat="45.8500177" lon="13.6338484"><ele>254.0</ele><time>2026-05-02T10:21:40.263Z</time></trkpt><trkpt lat="45.8499331" lon="13.6339151"><ele>254.0</ele><time>2026-05-02T10:21:41.263Z</time></trkpt><trkpt lat="45.8498531" lon="13.6339741"><ele>254.0</ele><time>2026-05-02T10:21:42.264Z</time></trkpt><trkpt lat="45.8497808" lon="13.6340218"><ele>254.0</ele><time>2026-05-02T10:21:43.263Z</time></trkpt><trkpt lat="45.8497155" lon="13.6340676"><ele>254.0</ele><time>2026-05-02T10:21:44.263Z</time></trkpt><trkpt lat="45.8496577" lon="13.6341221"><ele>254.0</ele><time>2026-05-02T10:21:45.263Z</time></trkpt><trkpt lat="45.8496111" lon="13.6341844"><ele>254.0</ele><time>2026-05-02T10:21:46.263Z</time></trkpt><trkpt lat="45.8495671" lon="13.6342542"><ele>254.0</ele><time>2026-05-02T10:21:47.263Z</time></trkpt><trkpt lat="45.8495047" lon="13.6344046"><ele>252.6</ele><time>2026-05-02T10:21:49.263Z</time></trkpt><trkpt lat="45.8494352" lon="13.634532"><ele>251.2</ele><time>2026-05-02T10:21:51.263Z</time></trkpt><trkpt lat="45.8493604" lon="13.6346176"><ele>249.79999999999998</ele><time>2026-05-02T10:21:53.263Z</time></trkpt><trkpt lat="45.84928" lon="13.6346914"><ele>248.39999999999998</ele><time>2026-05-02T10:21:55.263Z</time></trkpt><trkpt lat="45.8492139" lon="13.6347659"><ele>247.0</ele><time>2026-05-02T10:21:57.263Z</time></trkpt><trkpt lat="45.8491641" lon="13.6348991"><ele>246.99999999999997</ele><time>2026-05-02T10:22:09.263Z</time></trkpt><trkpt lat="45.8491357" lon="13.6349954"><ele>247.0</ele><time>2026-05-02T10:22:10.264Z</time></trkpt><trkpt lat="45.8491133" lon="13.6350831"><ele>247.0</ele><time>2026-05-02T10:22:13.263Z</time></trkpt><trkpt lat="45.8490894" lon="13.6352122"><ele>247.0</ele><time>2026-05-02T10:22:17.263Z</time></trkpt><trkpt lat="45.8490586" lon="13.6353383"><ele>246.99999999999997</ele><time>2026-05-02T10:22:23.263Z</time></trkpt><trkpt lat="45.8490324" lon="13.6354484"><ele>247.0</ele><time>2026-05-02T10:22:25.263Z</time></trkpt><trkpt lat="45.8490061" lon="13.6355674"><ele>248.16666666666666</ele><time>2026-05-02T10:22:29.263Z</time></trkpt><trkpt lat="45.8489862" lon="13.6356673"><ele>249.33333333333331</ele><time>2026-05-02T10:22:34.281Z</time></trkpt><trkpt lat="45.8489466" lon="13.6358383"><ele>250.5</ele><time>2026-05-02T10:22:35.263Z</time></trkpt><trkpt lat="45.8489228" lon="13.6359813"><ele>251.66666666666669</ele><time>2026-05-02T10:22:36.264Z</time></trkpt><trkpt lat="45.8489076" lon="13.6360839"><ele>252.83333333333334</ele><time>2026-05-02T10:22:37.263Z</time></trkpt><trkpt lat="45.8488881" lon="13.6361701"><ele>254.0</ele><time>2026-05-02T10:22:38.263Z</time></trkpt><trkpt lat="45.8488537" lon="13.6362991"><ele>254.66666666666669</ele><time>2026-05-02T10:22:40.263Z</time></trkpt><trkpt lat="45.848846" lon="13.6363938"><ele>255.33333333333334</ele><time>2026-05-02T10:22:47.219Z</time></trkpt><trkpt lat="45.8487914" lon="13.6365672"><ele>256.0</ele><time>2026-05-02T10:22:51.263Z</time></trkpt><trkpt lat="45.848762" lon="13.6366601"><ele>256.6666666666667</ele><time>2026-05-02T10:22:52.263Z</time></trkpt><trkpt lat="45.8487325" lon="13.6367566"><ele>257.3333333333333</ele><time>2026-05-02T10:22:53.263Z</time></trkpt><trkpt lat="45.8486995" lon="13.6368646"><ele>258.0</ele><time>2026-05-02T10:22:54.263Z</time></trkpt><trkpt lat="45.8486676" lon="13.6369656"><ele>258.5</ele><time>2026-05-02T10:22:55.263Z</time></trkpt><trkpt lat="45.8486419" lon="13.6370521"><ele>259.0</ele><time>2026-05-02T10:22:56.263Z</time></trkpt><trkpt lat="45.8486154" lon="13.6371366"><ele>259.5</ele><time>2026-05-02T10:22:57.264Z</time></trkpt><trkpt lat="45.848585" lon="13.6372248"><ele>260.0</ele><time>2026-05-02T10:22:58.263Z</time></trkpt><trkpt lat="45.8485429" lon="13.6373224"><ele>260.5</ele><time>2026-05-02T10:22:59.263Z</time></trkpt><trkpt lat="45.8485003" lon="13.6374091"><ele>261.0</ele><time>2026-05-02T10:23:00.263Z</time></trkpt><trkpt lat="45.8484128" lon="13.6375265"><ele>260.3333333333333</ele><time>2026-05-02T10:23:02.263Z</time></trkpt><trkpt lat="45.8483531" lon="13.6375741"><ele>259.6666666666667</ele><time>2026-05-02T10:23:03.263Z</time></trkpt><trkpt lat="45.8482772" lon="13.637616"><ele>259.0</ele><time>2026-05-02T10:23:04.263Z</time></trkpt><trkpt lat="45.8482032" lon="13.6376506"><ele>258.33333333333337</ele><time>2026-05-02T10:23:05.263Z</time></trkpt><trkpt lat="45.8481328" lon="13.6376832"><ele>257.6666666666667</ele><time>2026-05-02T10:23:06.264Z</time></trkpt><trkpt lat="45.8480439" lon="13.6377995"><ele>257.0</ele><time>2026-05-02T10:23:08.263Z</time></trkpt><trkpt lat="45.8480136" lon="13.6378864"><ele>257.0</ele><time>2026-05-02T10:23:09.263Z</time></trkpt><trkpt lat="45.8479862" lon="13.6379846"><ele>257.0</ele><time>2026-05-02T10:23:10.263Z</time></trkpt><trkpt lat="45.8479586" lon="13.6380895"><ele>257.0</ele><time>2026-05-02T10:23:11.263Z</time></trkpt><trkpt lat="45.8479343" lon="13.6381888"><ele>257.0</ele><time>2026-05-02T10:23:12.263Z</time></trkpt><trkpt lat="45.8479076" lon="13.6382746"><ele>257.0</ele><time>2026-05-02T10:23:13.263Z</time></trkpt><trkpt lat="45.8478708" lon="13.6383493"><ele>257.0</ele><time>2026-05-02T10:23:14.263Z</time></trkpt><trkpt lat="45.8478247" lon="13.6384192"><ele>257.0</ele><time>2026-05-02T10:23:15.264Z</time></trkpt><trkpt lat="45.8477736" lon="13.6384746"><ele>257.0</ele><time>2026-05-02T10:23:16.264Z</time></trkpt><trkpt lat="45.847695" lon="13.6385707"><ele>257.0</ele><time>2026-05-02T10:23:18.264Z</time></trkpt><trkpt lat="45.84761" lon="13.638651"><ele>257.0</ele><time>2026-05-02T10:23:20.263Z</time></trkpt><trkpt lat="45.8475012" lon="13.6387388"><ele>257.0</ele><time>2026-05-02T10:23:22.263Z</time></trkpt><trkpt lat="45.8474396" lon="13.6387831"><ele>257.0</ele><time>2026-05-02T10:23:23.263Z</time></trkpt><trkpt lat="45.8473734" lon="13.6388237"><ele>257.33333333333337</ele><time>2026-05-02T10:23:24.263Z</time></trkpt><trkpt lat="45.8473008" lon="13.6388706"><ele>257.6666666666667</ele><time>2026-05-02T10:23:25.263Z</time></trkpt><trkpt lat="45.8472322" lon="13.6389198"><ele>258.0</ele><time>2026-05-02T10:23:26.264Z</time></trkpt><trkpt lat="45.8471724" lon="13.6389558"><ele>258.3333333333333</ele><time>2026-05-02T10:23:27.263Z</time></trkpt><trkpt lat="45.8471142" lon="13.6389938"><ele>258.66666666666663</ele><time>2026-05-02T10:23:28.263Z</time></trkpt><trkpt lat="45.8469914" lon="13.6390543"><ele>259.0</ele><time>2026-05-02T10:23:30.264Z</time></trkpt><trkpt lat="45.8469261" lon="13.6390704"><ele>259.0</ele><time>2026-05-02T10:23:31.263Z</time></trkpt><trkpt lat="45.8468573" lon="13.6390693"><ele>259.0</ele><time>2026-05-02T10:23:32.263Z</time></trkpt><trkpt lat="45.8467858" lon="13.6390576"><ele>259.0</ele><time>2026-05-02T10:23:33.263Z</time></trkpt><trkpt lat="45.8467103" lon="13.6390459"><ele>259.0</ele><time>2026-05-02T10:23:34.264Z</time></trkpt><trkpt lat="45.8466359" lon="13.6390363"><ele>259.0</ele><time>2026-05-02T10:23:35.263Z</time></trkpt><trkpt lat="45.8465612" lon="13.6390249"><ele>259.0</ele><time>2026-05-02T10:23:36.263Z</time></trkpt><trkpt lat="45.8464856" lon="13.6390124"><ele>259.0</ele><time>2026-05-02T10:23:37.263Z</time></trkpt><trkpt lat="45.8464053" lon="13.6390048"><ele>259.8333333333333</ele><time>2026-05-02T10:23:38.263Z</time></trkpt><trkpt lat="45.8463069" lon="13.6390004"><ele>260.66666666666663</ele><time>2026-05-02T10:23:39.263Z</time></trkpt><trkpt lat="45.8462116" lon="13.6390023"><ele>261.5</ele><time>2026-05-02T10:23:40.263Z</time></trkpt><trkpt lat="45.8461291" lon="13.639001"><ele>262.3333333333333</ele><time>2026-05-02T10:23:41.263Z</time></trkpt><trkpt lat="45.8460523" lon="13.6389938"><ele>263.1666666666667</ele><time>2026-05-02T10:23:42.264Z</time></trkpt><trkpt lat="45.8459775" lon="13.6389878"><ele>264.0</ele><time>2026-05-02T10:23:43.263Z</time></trkpt><trkpt lat="45.8459094" lon="13.6389877"><ele>264.5</ele><time>2026-05-02T10:23:44.263Z</time></trkpt><trkpt lat="45.8458256" lon="13.6389976"><ele>265.0</ele><time>2026-05-02T10:23:46.263Z</time></trkpt><trkpt lat="45.8457741" lon="13.6391351"><ele>265.5</ele><time>2026-05-02T10:24:00.263Z</time></trkpt><trkpt lat="45.845721" lon="13.6392267"><ele>266.0</ele><time>2026-05-02T10:24:01.263Z</time></trkpt><trkpt lat="45.845656" lon="13.6392907"><ele>266.5</ele><time>2026-05-02T10:24:02.264Z</time></trkpt><trkpt lat="45.8455857" lon="13.6393384"><ele>267.0</ele><time>2026-05-02T10:24:03.263Z</time></trkpt><trkpt lat="45.8455104" lon="13.6393888"><ele>267.0</ele><time>2026-05-02T10:24:04.264Z</time></trkpt><trkpt lat="45.8454356" lon="13.6394471"><ele>267.0</ele><time>2026-05-02T10:24:05.264Z</time></trkpt><trkpt lat="45.8453596" lon="13.6395001"><ele>267.0</ele><time>2026-05-02T10:24:06.263Z</time></trkpt><trkpt lat="45.8452876" lon="13.6395454"><ele>267.0</ele><time>2026-05-02T10:24:07.263Z</time></trkpt><trkpt lat="45.8452188" lon="13.6395926"><ele>267.0</ele><time>2026-05-02T10:24:08.264Z</time></trkpt><trkpt lat="45.8451509" lon="13.6396405"><ele>267.0</ele><time>2026-05-02T10:24:09.263Z</time></trkpt><trkpt lat="45.8450866" lon="13.6396827"><ele>267.8333333333333</ele><time>2026-05-02T10:24:10.263Z</time></trkpt><trkpt lat="45.8450218" lon="13.6397425"><ele>268.6666666666667</ele><time>2026-05-02T10:24:11.263Z</time></trkpt><trkpt lat="45.8449507" lon="13.6398217"><ele>269.5</ele><time>2026-05-02T10:24:12.263Z</time></trkpt><trkpt lat="45.8448744" lon="13.6398951"><ele>270.33333333333337</ele><time>2026-05-02T10:24:13.263Z</time></trkpt><trkpt lat="45.8448031" lon="13.6399686"><ele>271.1666666666667</ele><time>2026-05-02T10:24:14.263Z</time></trkpt><trkpt lat="45.844741" lon="13.6400585"><ele>272.0</ele><time>2026-05-02T10:24:15.263Z</time></trkpt><trkpt lat="45.8447106" lon="13.6401894"><ele>273.4</ele><time>2026-05-02T10:24:16.263Z</time></trkpt><trkpt lat="45.8446899" lon="13.6403186"><ele>274.79999999999995</ele><time>2026-05-02T10:24:17.263Z</time></trkpt><trkpt lat="45.8446659" lon="13.6404553"><ele>276.2</ele><time>2026-05-02T10:24:18.263Z</time></trkpt><trkpt lat="45.8446189" lon="13.6405926"><ele>277.59999999999997</ele><time>2026-05-02T10:24:19.263Z</time></trkpt><trkpt lat="45.8445632" lon="13.6407184"><ele>279.0</ele><time>2026-05-02T10:24:20.263Z</time></trkpt><trkpt lat="45.8445144" lon="13.6408371"><ele>279.0</ele><time>2026-05-02T10:24:21.263Z</time></trkpt><trkpt lat="45.8444623" lon="13.6409428"><ele>279.0</ele><time>2026-05-02T10:24:22.263Z</time></trkpt><trkpt lat="45.8444044" lon="13.6410364"><ele>279.0</ele><time>2026-05-02T10:24:23.263Z</time></trkpt><trkpt lat="45.8443482" lon="13.6411181"><ele>279.0</ele><time>2026-05-02T10:24:24.264Z</time></trkpt><trkpt lat="45.8443031" lon="13.6412035"><ele>279.0</ele><time>2026-05-02T10:24:25.263Z</time></trkpt><trkpt lat="45.8442643" lon="13.6412917"><ele>279.0</ele><time>2026-05-02T10:24:26.263Z</time></trkpt><trkpt lat="45.8442326" lon="13.6413749"><ele>279.0</ele><time>2026-05-02T10:24:27.263Z</time></trkpt><trkpt lat="45.8441951" lon="13.6414934"><ele>279.0</ele><time>2026-05-02T10:24:29.263Z</time></trkpt><trkpt lat="45.8442412" lon="13.6415985"><ele>279.0</ele><time>2026-05-02T10:24:33.263Z</time></trkpt><trkpt lat="45.8444025" lon="13.6416338"><ele>279.0</ele><time>2026-05-02T10:24:35.263Z</time></trkpt><trkpt lat="45.844476" lon="13.6416395"><ele>279.0</ele><time>2026-05-02T10:24:36.263Z</time></trkpt><trkpt lat="45.8445538" lon="13.641622"><ele>280.4</ele><time>2026-05-02T10:24:37.263Z</time></trkpt><trkpt lat="45.8446362" lon="13.6415939"><ele>281.79999999999995</ele><time>2026-05-02T10:24:38.263Z</time></trkpt><trkpt lat="45.8447156" lon="13.641566"><ele>283.20000000000005</ele><time>2026-05-02T10:24:39.263Z</time></trkpt><trkpt lat="45.8447885" lon="13.6415411"><ele>284.6</ele><time>2026-05-02T10:24:40.263Z</time></trkpt><trkpt lat="45.8449011" lon="13.6415628"><ele>286.0</ele><time>2026-05-02T10:24:42.263Z</time></trkpt><trkpt lat="45.8449483" lon="13.6416972"><ele>286.0</ele><time>2026-05-02T10:24:44.264Z</time></trkpt><trkpt lat="45.8449366" lon="13.64179"><ele>286.0</ele><time>2026-05-02T10:24:45.263Z</time></trkpt><trkpt lat="45.8449125" lon="13.6418912"><ele>286.0</ele><time>2026-05-02T10:24:46.263Z</time></trkpt><trkpt lat="45.8448933" lon="13.6419962"><ele>286.0</ele><time>2026-05-02T10:24:47.263Z</time></trkpt><trkpt lat="45.8448815" lon="13.6421108"><ele>286.0</ele><time>2026-05-02T10:24:48.263Z</time></trkpt><trkpt lat="45.8448726" lon="13.6422393"><ele>286.0</ele><time>2026-05-02T10:24:49.264Z</time></trkpt><trkpt lat="45.8448613" lon="13.6423745"><ele>287.2</ele><time>2026-05-02T10:24:50.263Z</time></trkpt><trkpt lat="45.8448487" lon="13.6425201"><ele>288.40000000000003</ele><time>2026-05-02T10:24:51.263Z</time></trkpt><trkpt lat="45.8448436" lon="13.6426739"><ele>289.6</ele><time>2026-05-02T10:24:52.263Z</time></trkpt><trkpt lat="45.8448455" lon="13.6428343"><ele>290.8</ele><time>2026-05-02T10:24:53.263Z</time></trkpt><trkpt lat="45.8448558" lon="13.6429922"><ele>292.0</ele><time>2026-05-02T10:24:54.263Z</time></trkpt><trkpt lat="45.844871" lon="13.6431426"><ele>292.66666666666663</ele><time>2026-05-02T10:24:55.263Z</time></trkpt><trkpt lat="45.8448818" lon="13.6432816"><ele>293.3333333333333</ele><time>2026-05-02T10:24:56.263Z</time></trkpt><trkpt lat="45.8448916" lon="13.6434008"><ele>294.0</ele><time>2026-05-02T10:24:57.263Z</time></trkpt><trkpt lat="45.8449029" lon="13.6435052"><ele>294.6666666666667</ele><time>2026-05-02T10:24:58.264Z</time></trkpt><trkpt lat="45.8449131" lon="13.6435946"><ele>295.33333333333337</ele><time>2026-05-02T10:24:59.263Z</time></trkpt><trkpt lat="45.8448779" lon="13.643691"><ele>296.0</ele><time>2026-05-02T10:25:03.263Z</time></trkpt><trkpt lat="45.8447792" lon="13.6437524"><ele>296.0</ele><time>2026-05-02T10:25:04.264Z</time></trkpt><trkpt lat="45.8446951" lon="13.6437919"><ele>296.0</ele><time>2026-05-02T10:25:05.263Z</time></trkpt><trkpt lat="45.8446254" lon="13.643826"><ele>296.0</ele><time>2026-05-02T10:25:06.263Z</time></trkpt><trkpt lat="45.8445622" lon="13.6438644"><ele>296.0</ele><time>2026-05-02T10:25:07.263Z</time></trkpt><trkpt lat="45.8444617" lon="13.6439343"><ele>296.0</ele><time>2026-05-02T10:25:09.264Z</time></trkpt><trkpt lat="45.8443734" lon="13.6440112"><ele>296.0</ele><time>2026-05-02T10:25:11.263Z</time></trkpt><trkpt lat="45.8442976" lon="13.6441035"><ele>296.0</ele><time>2026-05-02T10:25:13.263Z</time></trkpt><trkpt lat="45.8442441" lon="13.6441968"><ele>296.0</ele><time>2026-05-02T10:25:15.263Z</time></trkpt><trkpt lat="45.8441964" lon="13.6443206"><ele>296.0</ele><time>2026-05-02T10:25:21.263Z</time></trkpt><trkpt lat="45.8442742" lon="13.6443366"><ele>296.0</ele><time>2026-05-02T10:25:25.263Z</time></trkpt><trkpt lat="45.8443188" lon="13.6441505"><ele>296.0</ele><time>2026-05-02T10:25:27.263Z</time></trkpt><trkpt lat="45.8443492" lon="13.6440651"><ele>296.0</ele><time>2026-05-02T10:25:28.263Z</time></trkpt><trkpt lat="45.8444468" lon="13.6439555"><ele>296.0</ele><time>2026-05-02T10:25:30.263Z</time></trkpt><trkpt lat="45.8445106" lon="13.6439095"><ele>296.0</ele><time>2026-05-02T10:25:31.263Z</time></trkpt><trkpt lat="45.8445721" lon="13.6438625"><ele>296.0</ele><time>2026-05-02T10:25:32.263Z</time></trkpt><trkpt lat="45.844632" lon="13.6438232"><ele>296.0</ele><time>2026-05-02T10:25:33.263Z</time></trkpt><trkpt lat="45.844745" lon="13.6437777"><ele>296.0</ele><time>2026-05-02T10:25:35.264Z</time></trkpt><trkpt lat="45.844859" lon="13.6437416"><ele>296.0</ele><time>2026-05-02T10:25:37.263Z</time></trkpt><trkpt lat="45.8449676" lon="13.6437868"><ele>296.0</ele><time>2026-05-02T10:25:39.263Z</time></trkpt><trkpt lat="45.8450284" lon="13.6438427"><ele>296.0</ele><time>2026-05-02T10:25:40.263Z</time></trkpt><trkpt lat="45.8450742" lon="13.643919"><ele>296.0</ele><time>2026-05-02T10:25:41.263Z</time></trkpt><trkpt lat="45.8450939" lon="13.6440084"><ele>296.0</ele><time>2026-05-02T10:25:42.263Z</time></trkpt><trkpt lat="45.8450569" lon="13.6441713"><ele>296.0</ele><time>2026-05-02T10:25:44.263Z</time></trkpt><trkpt lat="45.8450159" lon="13.6442976"><ele>296.0</ele><time>2026-05-02T10:25:46.264Z</time></trkpt><trkpt lat="45.844955" lon="13.6443866"><ele>296.0</ele><time>2026-05-02T10:25:48.163Z</time></trkpt><trkpt lat="45.8448812" lon="13.6443893"><ele>296.0</ele><time>2026-05-02T10:25:49.263Z</time></trkpt><trkpt lat="45.8447777" lon="13.6444501"><ele>296.0</ele><time>2026-05-02T10:25:51.263Z</time></trkpt><trkpt lat="45.8446898" lon="13.6445715"><ele>296.0</ele><time>2026-05-02T10:25:53.263Z</time></trkpt><trkpt lat="45.8446429" lon="13.6446485"><ele>296.57142857142856</ele><time>2026-05-02T10:25:54.263Z</time></trkpt><trkpt lat="45.844596" lon="13.6447313"><ele>297.1428571428571</ele><time>2026-05-02T10:25:55.263Z</time></trkpt><trkpt lat="45.8445491" lon="13.6448147"><ele>297.71428571428567</ele><time>2026-05-02T10:25:56.264Z</time></trkpt><trkpt lat="45.8445021" lon="13.6448918"><ele>298.2857142857143</ele><time>2026-05-02T10:25:57.263Z</time></trkpt><trkpt lat="45.8444552" lon="13.6449742"><ele>298.85714285714283</ele><time>2026-05-02T10:25:58.263Z</time></trkpt><trkpt lat="45.8444081" lon="13.6450521"><ele>299.4285714285714</ele><time>2026-05-02T10:25:59.263Z</time></trkpt><trkpt lat="45.8443585" lon="13.6451292"><ele>300.0</ele><time>2026-05-02T10:26:00.263Z</time></trkpt><trkpt lat="45.8443068" lon="13.6452067"><ele>299.6666666666667</ele><time>2026-05-02T10:26:01.263Z</time></trkpt><trkpt lat="45.844256" lon="13.6452772"><ele>299.3333333333333</ele><time>2026-05-02T10:26:02.263Z</time></trkpt><trkpt lat="45.8442055" lon="13.6453459"><ele>299.0</ele><time>2026-05-02T10:26:03.263Z</time></trkpt><trkpt lat="45.8441582" lon="13.6454119"><ele>298.66666666666663</ele><time>2026-05-02T10:26:04.264Z</time></trkpt><trkpt lat="45.8440831" lon="13.6455392"><ele>298.3333333333333</ele><time>2026-05-02T10:26:06.263Z</time></trkpt><trkpt lat="45.844021" lon="13.6456668"><ele>298.0</ele><time>2026-05-02T10:26:08.264Z</time></trkpt><trkpt lat="45.8439542" lon="13.645799"><ele>298.0</ele><time>2026-05-02T10:26:10.264Z</time></trkpt><trkpt lat="45.843879" lon="13.6459121"><ele>298.0</ele><time>2026-05-02T10:26:12.263Z</time></trkpt><trkpt lat="45.8438157" lon="13.6459914"><ele>298.0</ele><time>2026-05-02T10:26:14.264Z</time></trkpt><trkpt lat="45.8437814" lon="13.6460739"><ele>298.0</ele><time>2026-05-02T10:26:17.263Z</time></trkpt><trkpt lat="45.8437422" lon="13.6461703"><ele>298.0</ele><time>2026-05-02T10:26:19.263Z</time></trkpt><trkpt lat="45.8436982" lon="13.6462829"><ele>298.0</ele><time>2026-05-02T10:26:21.263Z</time></trkpt><trkpt lat="45.8436648" lon="13.6463672"><ele>297.4</ele><time>2026-05-02T10:26:23.263Z</time></trkpt><trkpt lat="45.8436048" lon="13.6464982"><ele>296.8</ele><time>2026-05-02T10:26:25.263Z</time></trkpt><trkpt lat="45.8435305" lon="13.6466327"><ele>296.2</ele><time>2026-05-02T10:26:27.263Z</time></trkpt><trkpt lat="45.8434669" lon="13.6467736"><ele>295.6</ele><time>2026-05-02T10:26:29.263Z</time></trkpt><trkpt lat="45.8434183" lon="13.6468968"><ele>295.0</ele><time>2026-05-02T10:26:31.263Z</time></trkpt><trkpt lat="45.8433775" lon="13.6469998"><ele>295.0</ele><time>2026-05-02T10:26:33.263Z</time></trkpt><trkpt lat="45.8433378" lon="13.6471332"><ele>295.0</ele><time>2026-05-02T10:26:35.263Z</time></trkpt><trkpt lat="45.843294" lon="13.6472816"><ele>295.0</ele><time>2026-05-02T10:26:37.264Z</time></trkpt><trkpt lat="45.8432491" lon="13.6474434"><ele>295.0</ele><time>2026-05-02T10:26:39.263Z</time></trkpt><trkpt lat="45.8432136" lon="13.64754"><ele>295.0</ele><time>2026-05-02T10:26:41.264Z</time></trkpt><trkpt lat="45.8431778" lon="13.6476322"><ele>295.0</ele><time>2026-05-02T10:26:45.266Z</time></trkpt><trkpt lat="45.8432381" lon="13.647472"><ele>295.0</ele><time>2026-05-02T10:26:59.263Z</time></trkpt><trkpt lat="45.8432845" lon="13.6473456"><ele>295.0</ele><time>2026-05-02T10:27:00.263Z</time></trkpt><trkpt lat="45.8433218" lon="13.6472222"><ele>295.0</ele><time>2026-05-02T10:27:01.263Z</time></trkpt><trkpt lat="45.8433446" lon="13.6471182"><ele>295.0</ele><time>2026-05-02T10:27:02.263Z</time></trkpt><trkpt lat="45.8433768" lon="13.6469579"><ele>294.2</ele><time>2026-05-02T10:27:04.263Z</time></trkpt><trkpt lat="45.8434076" lon="13.6468017"><ele>293.4</ele><time>2026-05-02T10:27:06.263Z</time></trkpt><trkpt lat="45.8434414" lon="13.6466403"><ele>292.6</ele><time>2026-05-02T10:27:08.263Z</time></trkpt><trkpt lat="45.8434648" lon="13.646482"><ele>291.8</ele><time>2026-05-02T10:27:10.263Z</time></trkpt><trkpt lat="45.8434832" lon="13.646351"><ele>291.0</ele><time>2026-05-02T10:27:12.263Z</time></trkpt><trkpt lat="45.8434806" lon="13.6462565"><ele>291.0</ele><time>2026-05-02T10:27:14.263Z</time></trkpt><trkpt lat="45.8434221" lon="13.6462185"><ele>291.0</ele><time>2026-05-02T10:27:21.263Z</time></trkpt><trkpt lat="45.8433641" lon="13.6462631"><ele>291.0</ele><time>2026-05-02T10:27:24.263Z</time></trkpt><trkpt lat="45.8432886" lon="13.646327"><ele>291.0</ele><time>2026-05-02T10:27:26.263Z</time></trkpt><trkpt lat="45.8431658" lon="13.6463751"><ele>291.0</ele><time>2026-05-02T10:27:29.264Z</time></trkpt><trkpt lat="45.8431012" lon="13.646365"><ele>291.0</ele><time>2026-05-02T10:27:30.263Z</time></trkpt><trkpt lat="45.8429846" lon="13.6463075"><ele>291.0</ele><time>2026-05-02T10:27:32.264Z</time></trkpt><trkpt lat="45.8429285" lon="13.6462638"><ele>291.0</ele><time>2026-05-02T10:27:33.263Z</time></trkpt><trkpt lat="45.842863" lon="13.646195"><ele>291.0</ele><time>2026-05-02T10:27:35.263Z</time></trkpt><trkpt lat="45.8428068" lon="13.6461461"><ele>291.0</ele><time>2026-05-02T10:27:49.263Z</time></trkpt><trkpt lat="45.8427435" lon="13.6461264"><ele>291.0</ele><time>2026-05-02T10:27:58.263Z</time></trkpt><trkpt lat="45.8426885" lon="13.6460677"><ele>291.0</ele><time>2026-05-02T10:28:00.263Z</time></trkpt><trkpt lat="45.8426254" lon="13.6459881"><ele>291.0</ele><time>2026-05-02T10:28:01.263Z</time></trkpt><trkpt lat="45.8425605" lon="13.6459151"><ele>288.40000000000003</ele><time>2026-05-02T10:28:02.264Z</time></trkpt><trkpt lat="45.8425014" lon="13.6458618"><ele>285.8</ele><time>2026-05-02T10:28:03.263Z</time></trkpt><trkpt lat="45.8424117" lon="13.6457539"><ele>283.20000000000005</ele><time>2026-05-02T10:28:05.263Z</time></trkpt><trkpt lat="45.842344" lon="13.6456501"><ele>280.6</ele><time>2026-05-02T10:28:07.263Z</time></trkpt><trkpt lat="45.8422431" lon="13.6456073"><ele>278.0</ele><time>2026-05-02T10:28:09.263Z</time></trkpt><trkpt lat="45.8421716" lon="13.6456225"><ele>278.0</ele><time>2026-05-02T10:28:10.263Z</time></trkpt><trkpt lat="45.8420915" lon="13.645643"><ele>278.0</ele><time>2026-05-02T10:28:11.263Z</time></trkpt><trkpt lat="45.8420101" lon="13.6456512"><ele>278.0</ele><time>2026-05-02T10:28:12.263Z</time></trkpt><trkpt lat="45.8419308" lon="13.6456502"><ele>278.0</ele><time>2026-05-02T10:28:13.263Z</time></trkpt><trkpt lat="45.8418519" lon="13.645651"><ele>278.0</ele><time>2026-05-02T10:28:14.263Z</time></trkpt><trkpt lat="45.8417765" lon="13.6456532"><ele>278.0</ele><time>2026-05-02T10:28:15.263Z</time></trkpt><trkpt lat="45.8417057" lon="13.6456513"><ele>276.83333333333337</ele><time>2026-05-02T10:28:16.263Z</time></trkpt><trkpt lat="45.8416382" lon="13.6456329"><ele>275.6666666666667</ele><time>2026-05-02T10:28:17.263Z</time></trkpt><trkpt lat="45.8415698" lon="13.645594"><ele>274.5</ele><time>2026-05-02T10:28:18.263Z</time></trkpt><trkpt lat="45.8414994" lon="13.6455416"><ele>273.3333333333333</ele><time>2026-05-02T10:28:19.263Z</time></trkpt><trkpt lat="45.8414185" lon="13.6455093"><ele>272.16666666666663</ele><time>2026-05-02T10:28:20.263Z</time></trkpt><trkpt lat="45.8413284" lon="13.6454918"><ele>271.0</ele><time>2026-05-02T10:28:21.263Z</time></trkpt><trkpt lat="45.8412388" lon="13.6454782"><ele>271.0</ele><time>2026-05-02T10:28:22.264Z</time></trkpt><trkpt lat="45.8411594" lon="13.6454597"><ele>271.0</ele><time>2026-05-02T10:28:23.263Z</time></trkpt><trkpt lat="45.8410896" lon="13.6454408"><ele>271.0</ele><time>2026-05-02T10:28:24.263Z</time></trkpt><trkpt lat="45.8410264" lon="13.6454199"><ele>271.0</ele><time>2026-05-02T10:28:25.264Z</time></trkpt><trkpt lat="45.8409627" lon="13.6454229"><ele>271.0</ele><time>2026-05-02T10:28:26.263Z</time></trkpt><trkpt lat="45.8408935" lon="13.6454569"><ele>271.0</ele><time>2026-05-02T10:28:27.263Z</time></trkpt><trkpt lat="45.8408215" lon="13.6454902"><ele>271.0</ele><time>2026-05-02T10:28:28.263Z</time></trkpt><trkpt lat="45.8407532" lon="13.6455131"><ele>270.3333333333333</ele><time>2026-05-02T10:28:29.263Z</time></trkpt><trkpt lat="45.8406912" lon="13.6455343"><ele>269.66666666666663</ele><time>2026-05-02T10:28:30.263Z</time></trkpt><trkpt lat="45.8405842" lon="13.6455827"><ele>269.0</ele><time>2026-05-02T10:28:32.263Z</time></trkpt><trkpt lat="45.8405115" lon="13.6456497"><ele>268.3333333333333</ele><time>2026-05-02T10:28:34.263Z</time></trkpt><trkpt lat="45.8404929" lon="13.6458093"><ele>267.6666666666667</ele><time>2026-05-02T10:28:36.263Z</time></trkpt><trkpt lat="45.8404846" lon="13.6459046"><ele>267.0</ele><time>2026-05-02T10:28:37.263Z</time></trkpt><trkpt lat="45.8404754" lon="13.6460169"><ele>267.6666666666667</ele><time>2026-05-02T10:28:38.263Z</time></trkpt><trkpt lat="45.8404726" lon="13.6461311"><ele>268.3333333333333</ele><time>2026-05-02T10:28:39.263Z</time></trkpt><trkpt lat="45.8404712" lon="13.6462454"><ele>269.0</ele><time>2026-05-02T10:28:40.263Z</time></trkpt><trkpt lat="45.8404672" lon="13.6463706"><ele>269.66666666666663</ele><time>2026-05-02T10:28:41.263Z</time></trkpt><trkpt lat="45.8404613" lon="13.6464946"><ele>270.3333333333333</ele><time>2026-05-02T10:28:42.263Z</time></trkpt><trkpt lat="45.8404613" lon="13.6466148"><ele>271.0</ele><time>2026-05-02T10:28:43.263Z</time></trkpt><trkpt lat="45.8404676" lon="13.6467422"><ele>271.0</ele><time>2026-05-02T10:28:44.263Z</time></trkpt><trkpt lat="45.8404854" lon="13.6468801"><ele>271.0</ele><time>2026-05-02T10:28:45.263Z</time></trkpt><trkpt lat="45.8405146" lon="13.6470181"><ele>271.0</ele><time>2026-05-02T10:28:46.263Z</time></trkpt><trkpt lat="45.8405497" lon="13.647154"><ele>271.0</ele><time>2026-05-02T10:28:47.263Z</time></trkpt><trkpt lat="45.8405843" lon="13.6472752"><ele>271.0</ele><time>2026-05-02T10:28:48.263Z</time></trkpt><trkpt lat="45.8406181" lon="13.6473729"><ele>271.0</ele><time>2026-05-02T10:28:49.263Z</time></trkpt><trkpt lat="45.8406752" lon="13.6475052"><ele>271.0</ele><time>2026-05-02T10:28:51.263Z</time></trkpt><trkpt lat="45.8407003" lon="13.6476395"><ele>271.0</ele><time>2026-05-02T10:28:53.263Z</time></trkpt><trkpt lat="45.8407105" lon="13.647817"><ele>271.0</ele><time>2026-05-02T10:28:55.263Z</time></trkpt><trkpt lat="45.8407098" lon="13.6479159"><ele>271.0</ele><time>2026-05-02T10:28:56.263Z</time></trkpt><trkpt lat="45.8407116" lon="13.6480201"><ele>271.0</ele><time>2026-05-02T10:28:57.264Z</time></trkpt><trkpt lat="45.8407201" lon="13.6481328"><ele>271.0</ele><time>2026-05-02T10:28:58.263Z</time></trkpt><trkpt lat="45.8407371" lon="13.6482362"><ele>271.0</ele><time>2026-05-02T10:28:59.263Z</time></trkpt><trkpt lat="45.8407544" lon="13.6483378"><ele>271.0</ele><time>2026-05-02T10:29:00.263Z</time></trkpt><trkpt lat="45.8407669" lon="13.6484347"><ele>271.0</ele><time>2026-05-02T10:29:01.263Z</time></trkpt><trkpt lat="45.8407722" lon="13.6485252"><ele>271.0</ele><time>2026-05-02T10:29:02.264Z</time></trkpt><trkpt lat="45.8407455" lon="13.6487019"><ele>272.3333333333333</ele><time>2026-05-02T10:29:04.263Z</time></trkpt><trkpt lat="45.8407236" lon="13.6488006"><ele>273.66666666666663</ele><time>2026-05-02T10:29:05.263Z</time></trkpt><trkpt lat="45.8407082" lon="13.6489045"><ele>275.0</ele><time>2026-05-02T10:29:06.263Z</time></trkpt><trkpt lat="45.8406971" lon="13.6490076"><ele>276.3333333333333</ele><time>2026-05-02T10:29:07.263Z</time></trkpt><trkpt lat="45.8406866" lon="13.6491124"><ele>277.6666666666667</ele><time>2026-05-02T10:29:08.263Z</time></trkpt><trkpt lat="45.8406778" lon="13.6492055"><ele>279.0</ele><time>2026-05-02T10:29:09.263Z</time></trkpt><trkpt lat="45.8406718" lon="13.649346"><ele>279.0</ele><time>2026-05-02T10:29:11.263Z</time></trkpt><trkpt lat="45.840714" lon="13.6494241"><ele>279.0</ele><time>2026-05-02T10:29:24.263Z</time></trkpt><trkpt lat="45.8409039" lon="13.6494816"><ele>279.0</ele><time>2026-05-02T10:30:02.263Z</time></trkpt><trkpt lat="45.8409788" lon="13.6494817"><ele>279.0</ele><time>2026-05-02T10:30:03.263Z</time></trkpt><trkpt lat="45.84104" lon="13.6494484"><ele>279.0</ele><time>2026-05-02T10:30:05.263Z</time></trkpt><trkpt lat="45.841109" lon="13.6493769"><ele>280.5</ele><time>2026-05-02T10:30:12.263Z</time></trkpt><trkpt lat="45.8412032" lon="13.6492566"><ele>282.0</ele><time>2026-05-02T10:30:14.263Z</time></trkpt><trkpt lat="45.8412607" lon="13.6491359"><ele>283.5</ele><time>2026-05-02T10:30:16.263Z</time></trkpt><trkpt lat="45.8413164" lon="13.6490535"><ele>285.0</ele><time>2026-05-02T10:30:18.263Z</time></trkpt><trkpt lat="45.841356" lon="13.6489754"><ele>286.5</ele><time>2026-05-02T10:30:23.263Z</time></trkpt><trkpt lat="45.8414173" lon="13.6489536"><ele>288.0</ele><time>2026-05-02T10:30:28.263Z</time></trkpt><trkpt lat="45.8413521" lon="13.6490096"><ele>288.0</ele><time>2026-05-02T10:30:41.263Z</time></trkpt><trkpt lat="45.8412637" lon="13.6491353"><ele>288.0</ele><time>2026-05-02T10:30:43.263Z</time></trkpt><trkpt lat="45.8411952" lon="13.6492783"><ele>288.0</ele><time>2026-05-02T10:30:45.263Z</time></trkpt><trkpt lat="45.8411229" lon="13.6493809"><ele>288.0</ele><time>2026-05-02T10:30:47.263Z</time></trkpt><trkpt lat="45.8410528" lon="13.6494313"><ele>288.0</ele><time>2026-05-02T10:30:49.264Z</time></trkpt><trkpt lat="45.8410085" lon="13.6494956"><ele>286.75</ele><time>2026-05-02T10:30:53.263Z</time></trkpt><trkpt lat="45.8409525" lon="13.6497042"><ele>285.5</ele><time>2026-05-02T10:31:06.263Z</time></trkpt><trkpt lat="45.8409147" lon="13.6498247"><ele>284.25</ele><time>2026-05-02T10:31:08.205Z</time></trkpt><trkpt lat="45.8408455" lon="13.6500077"><ele>283.0</ele><time>2026-05-02T10:31:12.263Z</time></trkpt><trkpt lat="45.8408194" lon="13.6501251"><ele>283.0</ele><time>2026-05-02T10:31:13.263Z</time></trkpt><trkpt lat="45.8408295" lon="13.6502193"><ele>283.0</ele><time>2026-05-02T10:31:16.263Z</time></trkpt><trkpt lat="45.8408036" lon="13.6503893"><ele>283.0</ele><time>2026-05-02T10:31:26.263Z</time></trkpt><trkpt lat="45.8407762" lon="13.650494"><ele>283.0</ele><time>2026-05-02T10:31:27.263Z</time></trkpt><trkpt lat="45.8407217" lon="13.6506309"><ele>283.0</ele><time>2026-05-02T10:31:29.263Z</time></trkpt><trkpt lat="45.8406544" lon="13.6507699"><ele>284.0</ele><time>2026-05-02T10:31:31.263Z</time></trkpt><trkpt lat="45.8405932" lon="13.6509079"><ele>285.0</ele><time>2026-05-02T10:31:33.263Z</time></trkpt><trkpt lat="45.8405349" lon="13.6510184"><ele>286.0</ele><time>2026-05-02T10:31:35.263Z</time></trkpt><trkpt lat="45.8404819" lon="13.6511334"><ele>287.0</ele><time>2026-05-02T10:31:37.263Z</time></trkpt><trkpt lat="45.8404321" lon="13.6512477"><ele>288.0</ele><time>2026-05-02T10:31:39.263Z</time></trkpt><trkpt lat="45.8403858" lon="13.6513937"><ele>288.8333333333333</ele><time>2026-05-02T10:31:41.263Z</time></trkpt><trkpt lat="45.8403608" lon="13.6515404"><ele>289.6666666666667</ele><time>2026-05-02T10:31:43.263Z</time></trkpt><trkpt lat="45.8403847" lon="13.6516706"><ele>290.5</ele><time>2026-05-02T10:31:45.263Z</time></trkpt><trkpt lat="45.8404465" lon="13.6517786"><ele>291.33333333333337</ele><time>2026-05-02T10:31:47.263Z</time></trkpt><trkpt lat="45.840475" lon="13.651881"><ele>292.1666666666667</ele><time>2026-05-02T10:31:50.183Z</time></trkpt><trkpt lat="45.8404675" lon="13.6519789"><ele>293.0</ele><time>2026-05-02T10:31:51.267Z</time></trkpt><trkpt lat="45.840456" lon="13.652069"><ele>293.8</ele><time>2026-05-02T10:31:52.263Z</time></trkpt><trkpt lat="45.8404492" lon="13.6522346"><ele>294.6</ele><time>2026-05-02T10:31:54.263Z</time></trkpt><trkpt lat="45.84046" lon="13.6523842"><ele>295.4</ele><time>2026-05-02T10:31:56.263Z</time></trkpt><trkpt lat="45.8404738" lon="13.6525232"><ele>296.2</ele><time>2026-05-02T10:31:58.263Z</time></trkpt><trkpt lat="45.8404836" lon="13.6526638"><ele>297.0</ele><time>2026-05-02T10:32:00.263Z</time></trkpt><trkpt lat="45.8404994" lon="13.6527985"><ele>297.6</ele><time>2026-05-02T10:32:02.263Z</time></trkpt><trkpt lat="45.8405041" lon="13.6529328"><ele>298.2</ele><time>2026-05-02T10:32:04.263Z</time></trkpt><trkpt lat="45.8404958" lon="13.6530752"><ele>298.8</ele><time>2026-05-02T10:32:06.263Z</time></trkpt><trkpt lat="45.8404699" lon="13.6532093"><ele>299.4</ele><time>2026-05-02T10:32:08.263Z</time></trkpt><trkpt lat="45.8404423" lon="13.6533405"><ele>300.0</ele><time>2026-05-02T10:32:10.263Z</time></trkpt><trkpt lat="45.8404153" lon="13.6534708"><ele>300.3333333333333</ele><time>2026-05-02T10:32:12.264Z</time></trkpt><trkpt lat="45.840414" lon="13.653628"><ele>300.6666666666667</ele><time>2026-05-02T10:32:14.263Z</time></trkpt><trkpt lat="45.8404062" lon="13.6537584"><ele>301.0</ele><time>2026-05-02T10:32:16.263Z</time></trkpt><trkpt lat="45.8403855" lon="13.6538642"><ele>301.33333333333337</ele><time>2026-05-02T10:32:18.264Z</time></trkpt><trkpt lat="45.8403447" lon="13.6539622"><ele>301.6666666666667</ele><time>2026-05-02T10:32:20.263Z</time></trkpt><trkpt lat="45.8403005" lon="13.654055"><ele>302.0</ele><time>2026-05-02T10:32:22.263Z</time></trkpt><trkpt lat="45.8402539" lon="13.6541311"><ele>302.0</ele><time>2026-05-02T10:32:24.264Z</time></trkpt><trkpt lat="45.8402099" lon="13.6542093"><ele>302.0</ele><time>2026-05-02T10:32:26.161Z</time></trkpt><trkpt lat="45.8401494" lon="13.6543195"><ele>302.0</ele><time>2026-05-02T10:32:28.263Z</time></trkpt><trkpt lat="45.8400867" lon="13.6544143"><ele>302.0</ele><time>2026-05-02T10:32:30.263Z</time></trkpt><trkpt lat="45.8400386" lon="13.6544854"><ele>302.0</ele><time>2026-05-02T10:32:32.263Z</time></trkpt><trkpt lat="45.8399811" lon="13.6545707"><ele>302.0</ele><time>2026-05-02T10:32:34.263Z</time></trkpt><trkpt lat="45.8399362" lon="13.6546674"><ele>301.5</ele><time>2026-05-02T10:32:36.263Z</time></trkpt><trkpt lat="45.8398938" lon="13.6548089"><ele>301.0</ele><time>2026-05-02T10:32:38.263Z</time></trkpt><trkpt lat="45.8398696" lon="13.6549123"><ele>300.5</ele><time>2026-05-02T10:32:40.263Z</time></trkpt><trkpt lat="45.8398434" lon="13.6549949"><ele>300.0</ele><time>2026-05-02T10:32:42.263Z</time></trkpt><trkpt lat="45.8398227" lon="13.6551183"><ele>299.5</ele><time>2026-05-02T10:32:44.263Z</time></trkpt><trkpt lat="45.8398008" lon="13.6552125"><ele>299.0</ele><time>2026-05-02T10:32:46.263Z</time></trkpt><trkpt lat="45.839782" lon="13.655372"><ele>299.0</ele><time>2026-05-02T10:32:48.263Z</time></trkpt><trkpt lat="45.8397724" lon="13.6554965"><ele>299.0</ele><time>2026-05-02T10:32:50.263Z</time></trkpt><trkpt lat="45.8397652" lon="13.6556342"><ele>299.0</ele><time>2026-05-02T10:32:52.264Z</time></trkpt><trkpt lat="45.8397545" lon="13.6557696"><ele>299.0</ele><time>2026-05-02T10:32:54.263Z</time></trkpt><trkpt lat="45.8397379" lon="13.655865"><ele>299.0</ele><time>2026-05-02T10:32:56.263Z</time></trkpt><trkpt lat="45.8397379" lon="13.6559766"><ele>299.0</ele><time>2026-05-02T10:32:58.263Z</time></trkpt><trkpt lat="45.8397344" lon="13.6560957"><ele>299.1666666666667</ele><time>2026-05-02T10:33:00.263Z</time></trkpt><trkpt lat="45.8397085" lon="13.6561929"><ele>299.33333333333337</ele><time>2026-05-02T10:33:02.263Z</time></trkpt><trkpt lat="45.8396805" lon="13.6563091"><ele>299.5</ele><time>2026-05-02T10:33:04.266Z</time></trkpt><trkpt lat="45.8396511" lon="13.6564242"><ele>299.6666666666667</ele><time>2026-05-02T10:33:06.263Z</time></trkpt><trkpt lat="45.839619" lon="13.6565559"><ele>299.8333333333333</ele><time>2026-05-02T10:33:08.263Z</time></trkpt><trkpt lat="45.8395872" lon="13.6566743"><ele>300.0</ele><time>2026-05-02T10:33:10.263Z</time></trkpt><trkpt lat="45.8395673" lon="13.656791"><ele>300.0</ele><time>2026-05-02T10:33:12.203Z</time></trkpt><trkpt lat="45.8395388" lon="13.6569185"><ele>300.0</ele><time>2026-05-02T10:33:14.263Z</time></trkpt><trkpt lat="45.8394934" lon="13.6570236"><ele>300.0</ele><time>2026-05-02T10:33:16.263Z</time></trkpt><trkpt lat="45.8394542" lon="13.6571293"><ele>300.0</ele><time>2026-05-02T10:33:18.263Z</time></trkpt><trkpt lat="45.8393981" lon="13.6571848"><ele>300.0</ele><time>2026-05-02T10:33:20.263Z</time></trkpt><trkpt lat="45.8393356" lon="13.6572245"><ele>300.0</ele><time>2026-05-02T10:33:22.263Z</time></trkpt><trkpt lat="45.8392981" lon="13.6573688"><ele>300.6</ele><time>2026-05-02T10:33:24.263Z</time></trkpt><trkpt lat="45.8392614" lon="13.6575049"><ele>301.2</ele><time>2026-05-02T10:33:26.263Z</time></trkpt><trkpt lat="45.839229" lon="13.6576624"><ele>301.8</ele><time>2026-05-02T10:33:28.263Z</time></trkpt><trkpt lat="45.8392113" lon="13.6578182"><ele>302.4</ele><time>2026-05-02T10:33:30.263Z</time></trkpt><trkpt lat="45.8391779" lon="13.6579727"><ele>303.0</ele><time>2026-05-02T10:33:32.263Z</time></trkpt><trkpt lat="45.8391471" lon="13.6581077"><ele>303.5</ele><time>2026-05-02T10:33:34.263Z</time></trkpt><trkpt lat="45.8390768" lon="13.6582402"><ele>304.0</ele><time>2026-05-02T10:33:36.263Z</time></trkpt><trkpt lat="45.8390313" lon="13.6583155"><ele>304.5</ele><time>2026-05-02T10:33:37.263Z</time></trkpt><trkpt lat="45.8389866" lon="13.658392"><ele>305.0</ele><time>2026-05-02T10:33:38.263Z</time></trkpt><trkpt lat="45.8389362" lon="13.6584524"><ele>305.5</ele><time>2026-05-02T10:33:39.263Z</time></trkpt><trkpt lat="45.8388325" lon="13.658542"><ele>306.0</ele><time>2026-05-02T10:33:41.263Z</time></trkpt><trkpt lat="45.8387215" lon="13.6586206"><ele>306.40000000000003</ele><time>2026-05-02T10:33:43.264Z</time></trkpt><trkpt lat="45.8386639" lon="13.6586594"><ele>306.8</ele><time>2026-05-02T10:33:44.263Z</time></trkpt><trkpt lat="45.8385589" lon="13.6587325"><ele>307.20000000000005</ele><time>2026-05-02T10:33:46.263Z</time></trkpt><trkpt lat="45.8384535" lon="13.658786"><ele>307.6</ele><time>2026-05-02T10:33:48.263Z</time></trkpt><trkpt lat="45.8383382" lon="13.6588321"><ele>308.0</ele><time>2026-05-02T10:33:50.263Z</time></trkpt><trkpt lat="45.8382235" lon="13.6588686"><ele>307.2</ele><time>2026-05-02T10:33:52.263Z</time></trkpt><trkpt lat="45.8381134" lon="13.658924"><ele>306.4</ele><time>2026-05-02T10:33:54.263Z</time></trkpt><trkpt lat="45.8380161" lon="13.658992"><ele>305.59999999999997</ele><time>2026-05-02T10:33:56.263Z</time></trkpt><trkpt lat="45.8379061" lon="13.6590777"><ele>304.8</ele><time>2026-05-02T10:33:58.264Z</time></trkpt><trkpt lat="45.8378481" lon="13.6591304"><ele>304.0</ele><time>2026-05-02T10:33:59.263Z</time></trkpt><trkpt lat="45.8377894" lon="13.6591726"><ele>304.0</ele><time>2026-05-02T10:34:00.264Z</time></trkpt><trkpt lat="45.8376743" lon="13.6592249"><ele>304.0</ele><time>2026-05-02T10:34:02.263Z</time></trkpt><trkpt lat="45.8375601" lon="13.6592582"><ele>304.0</ele><time>2026-05-02T10:34:04.263Z</time></trkpt><trkpt lat="45.8374971" lon="13.6592938"><ele>304.0</ele><time>2026-05-02T10:34:05.263Z</time></trkpt><trkpt lat="45.8374366" lon="13.659333"><ele>304.0</ele><time>2026-05-02T10:34:06.263Z</time></trkpt><trkpt lat="45.8373285" lon="13.659403"><ele>304.0</ele><time>2026-05-02T10:34:08.263Z</time></trkpt><trkpt lat="45.8372688" lon="13.6594474"><ele>304.0</ele><time>2026-05-02T10:34:09.263Z</time></trkpt><trkpt lat="45.837207" lon="13.6594915"><ele>304.0</ele><time>2026-05-02T10:34:10.263Z</time></trkpt><trkpt lat="45.8371452" lon="13.6595237"><ele>304.0</ele><time>2026-05-02T10:34:11.263Z</time></trkpt><trkpt lat="45.8370839" lon="13.6595536"><ele>304.0</ele><time>2026-05-02T10:34:12.263Z</time></trkpt><trkpt lat="45.8370207" lon="13.6595933"><ele>304.0</ele><time>2026-05-02T10:34:13.263Z</time></trkpt><trkpt lat="45.8369545" lon="13.6596251"><ele>304.0</ele><time>2026-05-02T10:34:14.263Z</time></trkpt><trkpt lat="45.8368903" lon="13.6596543"><ele>305.75</ele><time>2026-05-02T10:34:15.263Z</time></trkpt><trkpt lat="45.8367811" lon="13.659701"><ele>307.5</ele><time>2026-05-02T10:34:17.263Z</time></trkpt><trkpt lat="45.83667" lon="13.6597194"><ele>309.25</ele><time>2026-05-02T10:34:19.263Z</time></trkpt><trkpt lat="45.8365524" lon="13.6597362"><ele>311.0</ele><time>2026-05-02T10:34:21.263Z</time></trkpt><trkpt lat="45.8364351" lon="13.6597584"><ele>311.0</ele><time>2026-05-02T10:34:23.263Z</time></trkpt><trkpt lat="45.8363203" lon="13.6597482"><ele>311.0</ele><time>2026-05-02T10:34:25.263Z</time></trkpt><trkpt lat="45.836212" lon="13.6597335"><ele>311.0</ele><time>2026-05-02T10:34:27.264Z</time></trkpt><trkpt lat="45.8360992" lon="13.6597196"><ele>311.0</ele><time>2026-05-02T10:34:29.263Z</time></trkpt><trkpt lat="45.8359906" lon="13.6596902"><ele>311.0</ele><time>2026-05-02T10:34:31.263Z</time></trkpt><trkpt lat="45.8358724" lon="13.659661"><ele>311.33333333333337</ele><time>2026-05-02T10:34:33.263Z</time></trkpt><trkpt lat="45.8357548" lon="13.6596585"><ele>311.6666666666667</ele><time>2026-05-02T10:34:35.264Z</time></trkpt><trkpt lat="45.8356261" lon="13.6596515"><ele>312.0</ele><time>2026-05-02T10:34:37.263Z</time></trkpt><trkpt lat="45.8355613" lon="13.6596625"><ele>312.3333333333333</ele><time>2026-05-02T10:34:38.263Z</time></trkpt><trkpt lat="45.8354947" lon="13.6596669"><ele>312.66666666666663</ele><time>2026-05-02T10:34:39.263Z</time></trkpt><trkpt lat="45.8354292" lon="13.6596666"><ele>313.0</ele><time>2026-05-02T10:34:40.263Z</time></trkpt><trkpt lat="45.8353644" lon="13.659667"><ele>313.0</ele><time>2026-05-02T10:34:41.263Z</time></trkpt><trkpt lat="45.8352994" lon="13.6596715"><ele>313.0</ele><time>2026-05-02T10:34:42.263Z</time></trkpt><trkpt lat="45.8351825" lon="13.6596633"><ele>313.0</ele><time>2026-05-02T10:34:44.263Z</time></trkpt><trkpt lat="45.8350593" lon="13.6596609"><ele>313.0</ele><time>2026-05-02T10:34:46.263Z</time></trkpt><trkpt lat="45.8349518" lon="13.6596594"><ele>313.0</ele><time>2026-05-02T10:34:48.263Z</time></trkpt><trkpt lat="45.8348407" lon="13.6596546"><ele>313.0</ele><time>2026-05-02T10:34:50.264Z</time></trkpt><trkpt lat="45.8347775" lon="13.6596693"><ele>313.0</ele><time>2026-05-02T10:34:51.263Z</time></trkpt><trkpt lat="45.8346642" lon="13.6597015"><ele>313.0</ele><time>2026-05-02T10:34:53.264Z</time></trkpt><trkpt lat="45.8345487" lon="13.6597287"><ele>313.0</ele><time>2026-05-02T10:34:55.263Z</time></trkpt><trkpt lat="45.8344279" lon="13.6597805"><ele>313.0</ele><time>2026-05-02T10:34:57.263Z</time></trkpt><trkpt lat="45.8343656" lon="13.6598117"><ele>313.0</ele><time>2026-05-02T10:34:58.263Z</time></trkpt><trkpt lat="45.8343096" lon="13.6598598"><ele>313.0</ele><time>2026-05-02T10:34:59.263Z</time></trkpt><trkpt lat="45.8342591" lon="13.659915"><ele>313.0</ele><time>2026-05-02T10:35:00.263Z</time></trkpt><trkpt lat="45.834206" lon="13.6599641"><ele>313.0</ele><time>2026-05-02T10:35:01.263Z</time></trkpt><trkpt lat="45.8341432" lon="13.6599975"><ele>313.0</ele><time>2026-05-02T10:35:02.263Z</time></trkpt><trkpt lat="45.8340783" lon="13.6600393"><ele>313.0</ele><time>2026-05-02T10:35:03.263Z</time></trkpt><trkpt lat="45.83402" lon="13.6600878"><ele>313.0</ele><time>2026-05-02T10:35:04.263Z</time></trkpt><trkpt lat="45.8339616" lon="13.6601388"><ele>313.1428571428571</ele><time>2026-05-02T10:35:05.263Z</time></trkpt><trkpt lat="45.8339072" lon="13.6601907"><ele>313.2857142857143</ele><time>2026-05-02T10:35:06.263Z</time></trkpt><trkpt lat="45.8338541" lon="13.6602437"><ele>313.42857142857144</ele><time>2026-05-02T10:35:07.263Z</time></trkpt><trkpt lat="45.8338" lon="13.660292"><ele>313.57142857142856</ele><time>2026-05-02T10:35:08.264Z</time></trkpt><trkpt lat="45.8337422" lon="13.6603395"><ele>313.7142857142857</ele><time>2026-05-02T10:35:09.263Z</time></trkpt><trkpt lat="45.833684" lon="13.6603914"><ele>313.85714285714283</ele><time>2026-05-02T10:35:10.263Z</time></trkpt><trkpt lat="45.8336313" lon="13.6604411"><ele>314.0</ele><time>2026-05-02T10:35:11.263Z</time></trkpt><trkpt lat="45.8335296" lon="13.6605318"><ele>314.1428571428571</ele><time>2026-05-02T10:35:13.263Z</time></trkpt><trkpt lat="45.8334848" lon="13.6606022"><ele>314.2857142857143</ele><time>2026-05-02T10:35:14.263Z</time></trkpt><trkpt lat="45.8334413" lon="13.6606782"><ele>314.42857142857144</ele><time>2026-05-02T10:35:15.264Z</time></trkpt><trkpt lat="45.8334008" lon="13.6607493"><ele>314.57142857142856</ele><time>2026-05-02T10:35:16.263Z</time></trkpt><trkpt lat="45.8333578" lon="13.6608195"><ele>314.7142857142857</ele><time>2026-05-02T10:35:17.263Z</time></trkpt><trkpt lat="45.8333127" lon="13.6608919"><ele>314.85714285714283</ele><time>2026-05-02T10:35:18.263Z</time></trkpt><trkpt lat="45.8332718" lon="13.6609683"><ele>315.0</ele><time>2026-05-02T10:35:19.263Z</time></trkpt><trkpt lat="45.8331896" lon="13.6611058"><ele>314.1666666666667</ele><time>2026-05-02T10:35:21.263Z</time></trkpt><trkpt lat="45.8331425" lon="13.6611782"><ele>313.3333333333333</ele><time>2026-05-02T10:35:22.263Z</time></trkpt><trkpt lat="45.8330953" lon="13.6612518"><ele>312.5</ele><time>2026-05-02T10:35:23.264Z</time></trkpt><trkpt lat="45.8330498" lon="13.661317"><ele>311.66666666666663</ele><time>2026-05-02T10:35:24.263Z</time></trkpt><trkpt lat="45.8329615" lon="13.6614385"><ele>310.8333333333333</ele><time>2026-05-02T10:35:26.263Z</time></trkpt><trkpt lat="45.8329146" lon="13.6615028"><ele>310.0</ele><time>2026-05-02T10:35:27.263Z</time></trkpt><trkpt lat="45.8328673" lon="13.661568"><ele>310.0</ele><time>2026-05-02T10:35:28.263Z</time></trkpt><trkpt lat="45.832823" lon="13.6616381"><ele>310.0</ele><time>2026-05-02T10:35:29.263Z</time></trkpt><trkpt lat="45.8327832" lon="13.6617101"><ele>310.0</ele><time>2026-05-02T10:35:30.263Z</time></trkpt><trkpt lat="45.832701" lon="13.6618457"><ele>310.0</ele><time>2026-05-02T10:35:32.263Z</time></trkpt><trkpt lat="45.8326222" lon="13.6619475"><ele>310.0</ele><time>2026-05-02T10:35:34.264Z</time></trkpt><trkpt lat="45.8325474" lon="13.6620397"><ele>308.8</ele><time>2026-05-02T10:35:36.263Z</time></trkpt><trkpt lat="45.8324682" lon="13.6621223"><ele>307.6</ele><time>2026-05-02T10:35:38.263Z</time></trkpt><trkpt lat="45.8323851" lon="13.6621941"><ele>306.4</ele><time>2026-05-02T10:35:40.263Z</time></trkpt><trkpt lat="45.8322974" lon="13.6622778"><ele>305.2</ele><time>2026-05-02T10:35:42.263Z</time></trkpt><trkpt lat="45.8321904" lon="13.6623498"><ele>304.0</ele><time>2026-05-02T10:35:44.263Z</time></trkpt><trkpt lat="45.8321287" lon="13.6623902"><ele>304.0</ele><time>2026-05-02T10:35:45.263Z</time></trkpt><trkpt lat="45.8320232" lon="13.6624768"><ele>304.0</ele><time>2026-05-02T10:35:47.263Z</time></trkpt><trkpt lat="45.8319257" lon="13.6625667"><ele>304.0</ele><time>2026-05-02T10:35:49.263Z</time></trkpt><trkpt lat="45.8318396" lon="13.6626597"><ele>304.0</ele><time>2026-05-02T10:35:51.263Z</time></trkpt><trkpt lat="45.8317596" lon="13.6627677"><ele>303.8</ele><time>2026-05-02T10:35:53.263Z</time></trkpt><trkpt lat="45.8316778" lon="13.6628754"><ele>303.59999999999997</ele><time>2026-05-02T10:35:55.263Z</time></trkpt><trkpt lat="45.8315891" lon="13.6629905"><ele>303.4</ele><time>2026-05-02T10:35:57.263Z</time></trkpt><trkpt lat="45.8315498" lon="13.6630653"><ele>303.2</ele><time>2026-05-02T10:35:58.263Z</time></trkpt><trkpt lat="45.8314799" lon="13.6631821"><ele>303.0</ele><time>2026-05-02T10:36:00.263Z</time></trkpt><trkpt lat="45.8314132" lon="13.6632755"><ele>303.0</ele><time>2026-05-02T10:36:02.263Z</time></trkpt><trkpt lat="45.8313494" lon="13.6633129"><ele>303.0</ele><time>2026-05-02T10:36:05.263Z</time></trkpt><trkpt lat="45.831277" lon="13.6634535"><ele>303.0</ele><time>2026-05-02T10:36:19.263Z</time></trkpt><trkpt lat="45.8312222" lon="13.6635756"><ele>303.0</ele><time>2026-05-02T10:36:20.263Z</time></trkpt><trkpt lat="45.8311635" lon="13.6636897"><ele>303.0</ele><time>2026-05-02T10:36:21.263Z</time></trkpt><trkpt lat="45.8310971" lon="13.6638028"><ele>302.8</ele><time>2026-05-02T10:36:22.263Z</time></trkpt><trkpt lat="45.8310254" lon="13.6639271"><ele>302.6</ele><time>2026-05-02T10:36:23.264Z</time></trkpt><trkpt lat="45.8309589" lon="13.6640554"><ele>302.4</ele><time>2026-05-02T10:36:24.264Z</time></trkpt><trkpt lat="45.8308969" lon="13.6641874"><ele>302.2</ele><time>2026-05-02T10:36:25.263Z</time></trkpt><trkpt lat="45.8308317" lon="13.6643153"><ele>302.0</ele><time>2026-05-02T10:36:26.263Z</time></trkpt><trkpt lat="45.8307655" lon="13.664444"><ele>301.2</ele><time>2026-05-02T10:36:27.263Z</time></trkpt><trkpt lat="45.8306994" lon="13.6645726"><ele>300.4</ele><time>2026-05-02T10:36:28.263Z</time></trkpt><trkpt lat="45.8306342" lon="13.6646987"><ele>299.6</ele><time>2026-05-02T10:36:29.263Z</time></trkpt><trkpt lat="45.8305712" lon="13.6648219"><ele>298.8</ele><time>2026-05-02T10:36:30.263Z</time></trkpt><trkpt lat="45.8305076" lon="13.6649367"><ele>298.0</ele><time>2026-05-02T10:36:31.263Z</time></trkpt><trkpt lat="45.8304462" lon="13.6650491"><ele>298.0</ele><time>2026-05-02T10:36:32.263Z</time></trkpt><trkpt lat="45.8303891" lon="13.6651618"><ele>298.0</ele><time>2026-05-02T10:36:33.264Z</time></trkpt><trkpt lat="45.8303338" lon="13.6652727"><ele>298.0</ele><time>2026-05-02T10:36:34.263Z</time></trkpt><trkpt lat="45.8302803" lon="13.6653791"><ele>298.0</ele><time>2026-05-02T10:36:35.263Z</time></trkpt><trkpt lat="45.830231" lon="13.6654777"><ele>298.0</ele><time>2026-05-02T10:36:36.264Z</time></trkpt><trkpt lat="45.8301858" lon="13.6655583"><ele>298.0</ele><time>2026-05-02T10:36:37.263Z</time></trkpt><trkpt lat="45.8301433" lon="13.6656262"><ele>296.6</ele><time>2026-05-02T10:36:38.264Z</time></trkpt><trkpt lat="45.8300615" lon="13.6657463"><ele>295.20000000000005</ele><time>2026-05-02T10:36:40.263Z</time></trkpt><trkpt lat="45.8299762" lon="13.6658268"><ele>293.8</ele><time>2026-05-02T10:36:42.263Z</time></trkpt><trkpt lat="45.8299165" lon="13.6658767"><ele>292.40000000000003</ele><time>2026-05-02T10:36:44.263Z</time></trkpt><trkpt lat="45.8300333" lon="13.6657944"><ele>291.0</ele><time>2026-05-02T10:37:04.263Z</time></trkpt><trkpt lat="45.8301073" lon="13.6657174"><ele>291.0</ele><time>2026-05-02T10:37:05.263Z</time></trkpt><trkpt lat="45.8301624" lon="13.6656299"><ele>291.0</ele><time>2026-05-02T10:37:06.263Z</time></trkpt><trkpt lat="45.8302026" lon="13.6655464"><ele>291.0</ele><time>2026-05-02T10:37:07.264Z</time></trkpt><trkpt lat="45.8302244" lon="13.6654326"><ele>291.0</ele><time>2026-05-02T10:37:09.263Z</time></trkpt><trkpt lat="45.8301644" lon="13.6655981"><ele>291.0</ele><time>2026-05-02T10:37:54.263Z</time></trkpt><trkpt lat="45.8301066" lon="13.6656872"><ele>291.0</ele><time>2026-05-02T10:37:55.263Z</time></trkpt><trkpt lat="45.8300369" lon="13.6657699"><ele>291.0</ele><time>2026-05-02T10:37:56.263Z</time></trkpt><trkpt lat="45.829957" lon="13.6658548"><ele>291.0</ele><time>2026-05-02T10:37:57.263Z</time></trkpt><trkpt lat="45.8298635" lon="13.6659331"><ele>291.0</ele><time>2026-05-02T10:37:58.263Z</time></trkpt><trkpt lat="45.8297636" lon="13.6659995"><ele>291.0</ele><time>2026-05-02T10:37:59.263Z</time></trkpt><trkpt lat="45.8296625" lon="13.6660673"><ele>291.40000000000003</ele><time>2026-05-02T10:38:00.264Z</time></trkpt><trkpt lat="45.8295618" lon="13.6661357"><ele>291.8</ele><time>2026-05-02T10:38:01.263Z</time></trkpt><trkpt lat="45.8294616" lon="13.6661926"><ele>292.20000000000005</ele><time>2026-05-02T10:38:02.263Z</time></trkpt><trkpt lat="45.8293637" lon="13.6662432"><ele>292.6</ele><time>2026-05-02T10:38:03.263Z</time></trkpt><trkpt lat="45.8292704" lon="13.6662919"><ele>293.0</ele><time>2026-05-02T10:38:04.263Z</time></trkpt><trkpt lat="45.8291836" lon="13.6663361"><ele>293.0</ele><time>2026-05-02T10:38:05.263Z</time></trkpt><trkpt lat="45.8291123" lon="13.6663952"><ele>293.0</ele><time>2026-05-02T10:38:06.264Z</time></trkpt><trkpt lat="45.8290435" lon="13.6664776"><ele>293.0</ele><time>2026-05-02T10:38:07.263Z</time></trkpt><trkpt lat="45.8289713" lon="13.6665709"><ele>293.0</ele><time>2026-05-02T10:38:08.263Z</time></trkpt><trkpt lat="45.8288969" lon="13.6666741"><ele>293.0</ele><time>2026-05-02T10:38:09.263Z</time></trkpt><trkpt lat="45.8288193" lon="13.6667821"><ele>293.0</ele><time>2026-05-02T10:38:10.263Z</time></trkpt><trkpt lat="45.8287414" lon="13.6668984"><ele>293.0</ele><time>2026-05-02T10:38:11.263Z</time></trkpt><trkpt lat="45.8286676" lon="13.6670334"><ele>293.0</ele><time>2026-05-02T10:38:12.263Z</time></trkpt><trkpt lat="45.8286051" lon="13.6671979"><ele>293.0</ele><time>2026-05-02T10:38:13.263Z</time></trkpt><trkpt lat="45.8285524" lon="13.667377"><ele>292.75</ele><time>2026-05-02T10:38:14.263Z</time></trkpt><trkpt lat="45.8285025" lon="13.6675546"><ele>292.5</ele><time>2026-05-02T10:38:15.263Z</time></trkpt><trkpt lat="45.828458" lon="13.6677248"><ele>292.25</ele><time>2026-05-02T10:38:16.263Z</time></trkpt><trkpt lat="45.8284192" lon="13.6678816"><ele>292.0</ele><time>2026-05-02T10:38:17.263Z</time></trkpt><trkpt lat="45.8283832" lon="13.6680076"><ele>291.8333333333333</ele><time>2026-05-02T10:38:18.263Z</time></trkpt><trkpt lat="45.8283491" lon="13.6680992"><ele>291.66666666666663</ele><time>2026-05-02T10:38:19.263Z</time></trkpt><trkpt lat="45.8282707" lon="13.6681989"><ele>291.5</ele><time>2026-05-02T10:38:21.263Z</time></trkpt><trkpt lat="45.8281623" lon="13.6681606"><ele>291.3333333333333</ele><time>2026-05-02T10:38:23.263Z</time></trkpt><trkpt lat="45.8281064" lon="13.6680945"><ele>291.1666666666667</ele><time>2026-05-02T10:38:24.263Z</time></trkpt><trkpt lat="45.828045" lon="13.668019"><ele>291.0</ele><time>2026-05-02T10:38:25.263Z</time></trkpt><trkpt lat="45.8279838" lon="13.6679357"><ele>291.0</ele><time>2026-05-02T10:38:26.263Z</time></trkpt><trkpt lat="45.8279206" lon="13.6678508"><ele>291.0</ele><time>2026-05-02T10:38:27.263Z</time></trkpt><trkpt lat="45.8278491" lon="13.667772"><ele>291.0</ele><time>2026-05-02T10:38:28.263Z</time></trkpt><trkpt lat="45.8277726" lon="13.6676911"><ele>291.0</ele><time>2026-05-02T10:38:29.263Z</time></trkpt><trkpt lat="45.8276942" lon="13.6676128"><ele>291.0</ele><time>2026-05-02T10:38:30.263Z</time></trkpt><trkpt lat="45.8276146" lon="13.6675394"><ele>290.8333333333333</ele><time>2026-05-02T10:38:31.263Z</time></trkpt><trkpt lat="45.8275382" lon="13.6674683"><ele>290.6666666666667</ele><time>2026-05-02T10:38:32.263Z</time></trkpt><trkpt lat="45.8274598" lon="13.6673974"><ele>290.5</ele><time>2026-05-02T10:38:33.263Z</time></trkpt><trkpt lat="45.827387" lon="13.6673308"><ele>290.33333333333337</ele><time>2026-05-02T10:38:34.263Z</time></trkpt><trkpt lat="45.8273219" lon="13.6672679"><ele>290.1666666666667</ele><time>2026-05-02T10:38:35.263Z</time></trkpt><trkpt lat="45.8272575" lon="13.6672107"><ele>290.0</ele><time>2026-05-02T10:38:36.263Z</time></trkpt><trkpt lat="45.8271929" lon="13.6671611"><ele>290.0</ele><time>2026-05-02T10:38:37.264Z</time></trkpt><trkpt lat="45.8271278" lon="13.6671102"><ele>290.0</ele><time>2026-05-02T10:38:38.263Z</time></trkpt><trkpt lat="45.8270573" lon="13.6670501"><ele>290.0</ele><time>2026-05-02T10:38:39.264Z</time></trkpt><trkpt lat="45.8269773" lon="13.6669818"><ele>290.0</ele><time>2026-05-02T10:38:40.263Z</time></trkpt><trkpt lat="45.826893" lon="13.6669119"><ele>290.0</ele><time>2026-05-02T10:38:41.263Z</time></trkpt><trkpt lat="45.8268061" lon="13.6668381"><ele>290.0</ele><time>2026-05-02T10:38:42.263Z</time></trkpt><trkpt lat="45.826714" lon="13.6667626"><ele>290.2</ele><time>2026-05-02T10:38:43.263Z</time></trkpt><trkpt lat="45.8266199" lon="13.6666885"><ele>290.4</ele><time>2026-05-02T10:38:44.263Z</time></trkpt><trkpt lat="45.8265239" lon="13.6666172"><ele>290.6</ele><time>2026-05-02T10:38:45.263Z</time></trkpt><trkpt lat="45.8264264" lon="13.6665485"><ele>290.8</ele><time>2026-05-02T10:38:46.263Z</time></trkpt><trkpt lat="45.8263317" lon="13.6664834"><ele>291.0</ele><time>2026-05-02T10:38:47.263Z</time></trkpt><trkpt lat="45.8262411" lon="13.6664205"><ele>291.0</ele><time>2026-05-02T10:38:48.263Z</time></trkpt><trkpt lat="45.8261555" lon="13.6663525"><ele>291.0</ele><time>2026-05-02T10:38:49.263Z</time></trkpt><trkpt lat="45.8260754" lon="13.6662701"><ele>291.0</ele><time>2026-05-02T10:38:50.263Z</time></trkpt><trkpt lat="45.8260011" lon="13.6661787"><ele>291.0</ele><time>2026-05-02T10:38:51.263Z</time></trkpt><trkpt lat="45.8259325" lon="13.6660723"><ele>291.0</ele><time>2026-05-02T10:38:52.264Z</time></trkpt><trkpt lat="45.8258732" lon="13.6659556"><ele>291.6</ele><time>2026-05-02T10:38:53.264Z</time></trkpt><trkpt lat="45.8258234" lon="13.6658307"><ele>292.20000000000005</ele><time>2026-05-02T10:38:54.264Z</time></trkpt><trkpt lat="45.8257789" lon="13.6657059"><ele>292.79999999999995</ele><time>2026-05-02T10:38:55.263Z</time></trkpt><trkpt lat="45.8257328" lon="13.6655866"><ele>293.4</ele><time>2026-05-02T10:38:56.263Z</time></trkpt><trkpt lat="45.8256869" lon="13.6654779"><ele>294.0</ele><time>2026-05-02T10:38:57.263Z</time></trkpt><trkpt lat="45.825638" lon="13.6653778"><ele>294.0</ele><time>2026-05-02T10:38:58.263Z</time></trkpt><trkpt lat="45.8255932" lon="13.6652799"><ele>294.0</ele><time>2026-05-02T10:38:59.263Z</time></trkpt><trkpt lat="45.8255512" lon="13.6651917"><ele>294.0</ele><time>2026-05-02T10:39:00.263Z</time></trkpt><trkpt lat="45.8254887" lon="13.6650565"><ele>294.0</ele><time>2026-05-02T10:39:02.263Z</time></trkpt><trkpt lat="45.825409" lon="13.6649459"><ele>294.0</ele><time>2026-05-02T10:39:04.263Z</time></trkpt><trkpt lat="45.8252922" lon="13.66489"><ele>294.6666666666667</ele><time>2026-05-02T10:39:06.263Z</time></trkpt><trkpt lat="45.8252267" lon="13.6648608"><ele>295.3333333333333</ele><time>2026-05-02T10:39:07.263Z</time></trkpt><trkpt lat="45.8251533" lon="13.664834"><ele>296.0</ele><time>2026-05-02T10:39:08.263Z</time></trkpt><trkpt lat="45.8250785" lon="13.6648067"><ele>296.66666666666663</ele><time>2026-05-02T10:39:09.263Z</time></trkpt><trkpt lat="45.8250035" lon="13.6647751"><ele>297.3333333333333</ele><time>2026-05-02T10:39:10.263Z</time></trkpt><trkpt lat="45.8249287" lon="13.664738"><ele>298.0</ele><time>2026-05-02T10:39:11.263Z</time></trkpt><trkpt lat="45.8248577" lon="13.6646951"><ele>298.8</ele><time>2026-05-02T10:39:12.263Z</time></trkpt><trkpt lat="45.8247941" lon="13.6646514"><ele>299.6</ele><time>2026-05-02T10:39:13.263Z</time></trkpt><trkpt lat="45.8246928" lon="13.6645698"><ele>300.4</ele><time>2026-05-02T10:39:15.263Z</time></trkpt><trkpt lat="45.8245816" lon="13.6645753"><ele>301.2</ele><time>2026-05-02T10:39:17.263Z</time></trkpt><trkpt lat="45.8244653" lon="13.6645951"><ele>302.0</ele><time>2026-05-02T10:39:19.263Z</time></trkpt><trkpt lat="45.8243517" lon="13.6646118"><ele>302.8</ele><time>2026-05-02T10:39:21.263Z</time></trkpt><trkpt lat="45.8242633" lon="13.6646779"><ele>303.6</ele><time>2026-05-02T10:39:23.263Z</time></trkpt><trkpt lat="45.8241861" lon="13.6648276"><ele>304.40000000000003</ele><time>2026-05-02T10:39:25.263Z</time></trkpt><trkpt lat="45.8241375" lon="13.6649192"><ele>305.2</ele><time>2026-05-02T10:39:26.263Z</time></trkpt><trkpt lat="45.8240875" lon="13.6650063"><ele>306.0</ele><time>2026-05-02T10:39:27.263Z</time></trkpt><trkpt lat="45.8240436" lon="13.6650919"><ele>306.0</ele><time>2026-05-02T10:39:28.263Z</time></trkpt><trkpt lat="45.8239994" lon="13.6651818"><ele>306.0</ele><time>2026-05-02T10:39:29.263Z</time></trkpt><trkpt lat="45.8239518" lon="13.6652779"><ele>306.0</ele><time>2026-05-02T10:39:30.263Z</time></trkpt><trkpt lat="45.8239036" lon="13.6653676"><ele>306.0</ele><time>2026-05-02T10:39:31.263Z</time></trkpt><trkpt lat="45.8238551" lon="13.6654615"><ele>306.0</ele><time>2026-05-02T10:39:32.263Z</time></trkpt><trkpt lat="45.823803" lon="13.6655614"><ele>306.0</ele><time>2026-05-02T10:39:33.263Z</time></trkpt><trkpt lat="45.8237503" lon="13.6656643"><ele>305.8333333333333</ele><time>2026-05-02T10:39:34.263Z</time></trkpt><trkpt lat="45.8237009" lon="13.665767"><ele>305.6666666666667</ele><time>2026-05-02T10:39:35.263Z</time></trkpt><trkpt lat="45.8236506" lon="13.6658654"><ele>305.5</ele><time>2026-05-02T10:39:36.263Z</time></trkpt><trkpt lat="45.8236006" lon="13.6659595"><ele>305.33333333333337</ele><time>2026-05-02T10:39:37.263Z</time></trkpt><trkpt lat="45.8235464" lon="13.666058"><ele>305.1666666666667</ele><time>2026-05-02T10:39:38.263Z</time></trkpt><trkpt lat="45.8234917" lon="13.666156"><ele>305.0</ele><time>2026-05-02T10:39:39.263Z</time></trkpt><trkpt lat="45.8234404" lon="13.6662552"><ele>304.83333333333337</ele><time>2026-05-02T10:39:40.263Z</time></trkpt><trkpt lat="45.8233892" lon="13.6663445"><ele>304.6666666666667</ele><time>2026-05-02T10:39:41.263Z</time></trkpt><trkpt lat="45.8233377" lon="13.6664364"><ele>304.5</ele><time>2026-05-02T10:39:42.263Z</time></trkpt><trkpt lat="45.8232863" lon="13.6665339"><ele>304.3333333333333</ele><time>2026-05-02T10:39:43.263Z</time></trkpt><trkpt lat="45.8232348" lon="13.6666359"><ele>304.16666666666663</ele><time>2026-05-02T10:39:44.263Z</time></trkpt><trkpt lat="45.8231834" lon="13.6667328"><ele>304.0</ele><time>2026-05-02T10:39:45.263Z</time></trkpt><trkpt lat="45.823133" lon="13.666825"><ele>304.0</ele><time>2026-05-02T10:39:46.263Z</time></trkpt><trkpt lat="45.8230855" lon="13.6669136"><ele>304.0</ele><time>2026-05-02T10:39:47.263Z</time></trkpt><trkpt lat="45.823038" lon="13.667"><ele>304.0</ele><time>2026-05-02T10:39:48.263Z</time></trkpt><trkpt lat="45.8229912" lon="13.6670895"><ele>304.0</ele><time>2026-05-02T10:39:49.264Z</time></trkpt><trkpt lat="45.8229473" lon="13.6671722"><ele>304.0</ele><time>2026-05-02T10:39:50.264Z</time></trkpt><trkpt lat="45.8228902" lon="13.6672807"><ele>304.0</ele><time>2026-05-02T10:39:52.263Z</time></trkpt><trkpt lat="45.8228284" lon="13.6673407"><ele>303.8333333333333</ele><time>2026-05-02T10:39:54.263Z</time></trkpt><trkpt lat="45.8227178" lon="13.6674176"><ele>303.66666666666663</ele><time>2026-05-02T10:39:56.263Z</time></trkpt><trkpt lat="45.82265" lon="13.6674688"><ele>303.5</ele><time>2026-05-02T10:39:57.264Z</time></trkpt><trkpt lat="45.8225791" lon="13.667528"><ele>303.3333333333333</ele><time>2026-05-02T10:39:58.264Z</time></trkpt><trkpt lat="45.8225083" lon="13.6675926"><ele>303.1666666666667</ele><time>2026-05-02T10:39:59.263Z</time></trkpt><trkpt lat="45.8224346" lon="13.667649"><ele>303.0</ele><time>2026-05-02T10:40:00.263Z</time></trkpt><trkpt lat="45.8223631" lon="13.6677005"><ele>303.0</ele><time>2026-05-02T10:40:01.263Z</time></trkpt><trkpt lat="45.822297" lon="13.6677514"><ele>303.0</ele><time>2026-05-02T10:40:02.263Z</time></trkpt><trkpt lat="45.8222256" lon="13.6678013"><ele>303.0</ele><time>2026-05-02T10:40:03.263Z</time></trkpt><trkpt lat="45.822155" lon="13.6678503"><ele>303.0</ele><time>2026-05-02T10:40:04.263Z</time></trkpt><trkpt lat="45.8220888" lon="13.6678907"><ele>303.0</ele><time>2026-05-02T10:40:05.263Z</time></trkpt><trkpt lat="45.8220233" lon="13.6679289"><ele>303.0</ele><time>2026-05-02T10:40:06.264Z</time></trkpt><trkpt lat="45.8219585" lon="13.6679731"><ele>303.0</ele><time>2026-05-02T10:40:07.263Z</time></trkpt><trkpt lat="45.8219006" lon="13.6680313"><ele>301.8571428571429</ele><time>2026-05-02T10:40:08.263Z</time></trkpt><trkpt lat="45.8218459" lon="13.6681059"><ele>300.7142857142857</ele><time>2026-05-02T10:40:09.263Z</time></trkpt><trkpt lat="45.8217845" lon="13.6681813"><ele>299.57142857142856</ele><time>2026-05-02T10:40:10.263Z</time></trkpt><trkpt lat="45.8217234" lon="13.6682449"><ele>298.42857142857144</ele><time>2026-05-02T10:40:11.263Z</time></trkpt><trkpt lat="45.8216692" lon="13.6683067"><ele>297.2857142857143</ele><time>2026-05-02T10:40:12.263Z</time></trkpt><trkpt lat="45.8216242" lon="13.6683747"><ele>296.14285714285717</ele><time>2026-05-02T10:40:13.263Z</time></trkpt><trkpt lat="45.8215921" lon="13.6684569"><ele>295.0</ele><time>2026-05-02T10:40:14.263Z</time></trkpt><trkpt lat="45.821566" lon="13.6685474"><ele>294.7142857142857</ele><time>2026-05-02T10:40:15.264Z</time></trkpt><trkpt lat="45.8215372" lon="13.6686402"><ele>294.42857142857144</ele><time>2026-05-02T10:40:16.263Z</time></trkpt><trkpt lat="45.8214983" lon="13.6687324"><ele>294.1428571428571</ele><time>2026-05-02T10:40:17.263Z</time></trkpt><trkpt lat="45.8214532" lon="13.668817"><ele>293.8571428571429</ele><time>2026-05-02T10:40:18.264Z</time></trkpt><trkpt lat="45.8214091" lon="13.6688917"><ele>293.57142857142856</ele><time>2026-05-02T10:40:19.263Z</time></trkpt><trkpt lat="45.8213695" lon="13.6689632"><ele>293.2857142857143</ele><time>2026-05-02T10:40:20.263Z</time></trkpt><trkpt lat="45.8212964" lon="13.6690527"><ele>293.0</ele><time>2026-05-02T10:40:22.263Z</time></trkpt><trkpt lat="45.8212234" lon="13.669095"><ele>293.0</ele><time>2026-05-02T10:40:24.263Z</time></trkpt><trkpt lat="45.8211338" lon="13.6691231"><ele>293.0</ele><time>2026-05-02T10:40:26.263Z</time></trkpt><trkpt lat="45.8210147" lon="13.6691565"><ele>293.0</ele><time>2026-05-02T10:40:28.263Z</time></trkpt><trkpt lat="45.8209518" lon="13.6691642"><ele>293.0</ele><time>2026-05-02T10:40:29.263Z</time></trkpt><trkpt lat="45.820886" lon="13.669178"><ele>293.0</ele><time>2026-05-02T10:40:30.263Z</time></trkpt><trkpt lat="45.8208232" lon="13.6691983"><ele>293.0</ele><time>2026-05-02T10:40:31.263Z</time></trkpt><trkpt lat="45.8207025" lon="13.6692379"><ele>292.33333333333337</ele><time>2026-05-02T10:40:33.263Z</time></trkpt><trkpt lat="45.8205906" lon="13.6693228"><ele>291.6666666666667</ele><time>2026-05-02T10:40:35.264Z</time></trkpt><trkpt lat="45.8205379" lon="13.6693809"><ele>291.0</ele><time>2026-05-02T10:40:36.263Z</time></trkpt><trkpt lat="45.8204858" lon="13.6694417"><ele>290.3333333333333</ele><time>2026-05-02T10:40:37.263Z</time></trkpt><trkpt lat="45.820436" lon="13.6694985"><ele>289.66666666666663</ele><time>2026-05-02T10:40:38.263Z</time></trkpt><trkpt lat="45.8203342" lon="13.6695984"><ele>289.0</ele><time>2026-05-02T10:40:40.263Z</time></trkpt><trkpt lat="45.8202226" lon="13.6696573"><ele>287.8</ele><time>2026-05-02T10:40:42.263Z</time></trkpt><trkpt lat="45.8201207" lon="13.6696928"><ele>286.59999999999997</ele><time>2026-05-02T10:40:44.263Z</time></trkpt><trkpt lat="45.8200245" lon="13.6696683"><ele>285.4</ele><time>2026-05-02T10:40:46.263Z</time></trkpt><trkpt lat="45.8199254" lon="13.6695799"><ele>284.2</ele><time>2026-05-02T10:40:48.263Z</time></trkpt><trkpt lat="45.8198663" lon="13.6695391"><ele>283.0</ele><time>2026-05-02T10:40:49.264Z</time></trkpt><trkpt lat="45.8198006" lon="13.6695074"><ele>283.0</ele><time>2026-05-02T10:40:50.263Z</time></trkpt><trkpt lat="45.8197314" lon="13.6694812"><ele>283.0</ele><time>2026-05-02T10:40:51.263Z</time></trkpt><trkpt lat="45.819663" lon="13.6694591"><ele>283.0</ele><time>2026-05-02T10:40:52.263Z</time></trkpt><trkpt lat="45.819596" lon="13.66944"><ele>283.0</ele><time>2026-05-02T10:40:53.263Z</time></trkpt><trkpt lat="45.819533" lon="13.6694245"><ele>283.0</ele><time>2026-05-02T10:40:54.263Z</time></trkpt><trkpt lat="45.8194152" lon="13.6693857"><ele>283.0</ele><time>2026-05-02T10:40:56.263Z</time></trkpt><trkpt lat="45.8193077" lon="13.6693402"><ele>281.8333333333333</ele><time>2026-05-02T10:40:58.263Z</time></trkpt><trkpt lat="45.8192247" lon="13.6692908"><ele>280.66666666666663</ele><time>2026-05-02T10:41:00.263Z</time></trkpt><trkpt lat="45.8191697" lon="13.6692341"><ele>279.5</ele><time>2026-05-02T10:41:02.263Z</time></trkpt><trkpt lat="45.8191051" lon="13.6691633"><ele>278.3333333333333</ele><time>2026-05-02T10:41:05.263Z</time></trkpt><trkpt lat="45.819055" lon="13.6690841"><ele>277.1666666666667</ele><time>2026-05-02T10:41:09.263Z</time></trkpt><trkpt lat="45.8190316" lon="13.6689877"><ele>276.0</ele><time>2026-05-02T10:41:12.264Z</time></trkpt><trkpt lat="45.8189868" lon="13.6689034"><ele>276.0</ele><time>2026-05-02T10:41:16.263Z</time></trkpt><trkpt lat="45.8189223" lon="13.6689252"><ele>276.0</ele><time>2026-05-02T10:41:31.263Z</time></trkpt><trkpt lat="45.8188502" lon="13.6689595"><ele>276.0</ele><time>2026-05-02T10:41:35.263Z</time></trkpt><trkpt lat="45.8187845" lon="13.6689033"><ele>276.0</ele><time>2026-05-02T10:41:39.263Z</time></trkpt><trkpt lat="45.8187618" lon="13.668814"><ele>276.0</ele><time>2026-05-02T10:41:42.263Z</time></trkpt><trkpt lat="45.8187506" lon="13.6687167"><ele>276.0</ele><time>2026-05-02T10:41:45.263Z</time></trkpt><trkpt lat="45.8187368" lon="13.6686157"><ele>276.0</ele><time>2026-05-02T10:41:49.263Z</time></trkpt><trkpt lat="45.8187241" lon="13.6685253"><ele>276.0</ele><time>2026-05-02T10:42:13.264Z</time></trkpt><trkpt lat="45.8186931" lon="13.6684384"><ele>276.0</ele><time>2026-05-02T10:42:18.263Z</time></trkpt><trkpt lat="45.8186758" lon="13.6683382"><ele>276.0</ele><time>2026-05-02T10:42:24.263Z</time></trkpt><trkpt lat="45.8186682" lon="13.6682353"><ele>276.0</ele><time>2026-05-02T10:42:30.263Z</time></trkpt><trkpt lat="45.81868" lon="13.6681311"><ele>276.0</ele><time>2026-05-02T10:42:36.263Z</time></trkpt><trkpt lat="45.8186815" lon="13.6680244"><ele>276.0</ele><time>2026-05-02T10:42:41.233Z</time></trkpt><trkpt lat="45.8186836" lon="13.6679288"><ele>276.0</ele><time>2026-05-02T10:42:47.236Z</time></trkpt><trkpt lat="45.8187157" lon="13.6678205"><ele>274.1666666666667</ele><time>2026-05-02T10:42:54.263Z</time></trkpt><trkpt lat="45.818738" lon="13.667718"><ele>272.3333333333333</ele><time>2026-05-02T10:42:59.263Z</time></trkpt><trkpt lat="45.8187441" lon="13.6676277"><ele>270.5</ele><time>2026-05-02T10:43:03.263Z</time></trkpt><trkpt lat="45.8187491" lon="13.6675182"><ele>268.66666666666663</ele><time>2026-05-02T10:43:07.263Z</time></trkpt><trkpt lat="45.818746" lon="13.6674217"><ele>266.8333333333333</ele><time>2026-05-02T10:43:10.263Z</time></trkpt><trkpt lat="45.8187393" lon="13.6672864"><ele>265.0</ele><time>2026-05-02T10:43:13.264Z</time></trkpt><trkpt lat="45.8187231" lon="13.6671832"><ele>265.0</ele><time>2026-05-02T10:43:15.263Z</time></trkpt><trkpt lat="45.8186986" lon="13.6670769"><ele>265.0</ele><time>2026-05-02T10:43:17.263Z</time></trkpt><trkpt lat="45.8186623" lon="13.6669744"><ele>265.0</ele><time>2026-05-02T10:43:19.263Z</time></trkpt><trkpt lat="45.8186194" lon="13.6668647"><ele>265.0</ele><time>2026-05-02T10:43:21.263Z</time></trkpt><trkpt lat="45.8185855" lon="13.666747"><ele>265.0</ele><time>2026-05-02T10:43:23.263Z</time></trkpt><trkpt lat="45.8185583" lon="13.6666187"><ele>265.0</ele><time>2026-05-02T10:43:25.263Z</time></trkpt><trkpt lat="45.8185235" lon="13.6664811"><ele>258.66666666666663</ele><time>2026-05-02T10:43:27.263Z</time></trkpt><trkpt lat="45.8184845" lon="13.6663431"><ele>252.33333333333331</ele><time>2026-05-02T10:43:29.263Z</time></trkpt><trkpt lat="45.8184519" lon="13.666213"><ele>246.0</ele><time>2026-05-02T10:43:31.263Z</time></trkpt><trkpt lat="45.818426" lon="13.666098"><ele>239.66666666666669</ele><time>2026-05-02T10:43:33.263Z</time></trkpt><trkpt lat="45.818406" lon="13.6660101"><ele>233.33333333333334</ele><time>2026-05-02T10:43:35.263Z</time></trkpt><trkpt lat="45.8183825" lon="13.6659258"><ele>227.0</ele><time>2026-05-02T10:43:37.263Z</time></trkpt><trkpt lat="45.8183413" lon="13.6658144"><ele>226.8</ele><time>2026-05-02T10:43:40.264Z</time></trkpt><trkpt lat="45.8182969" lon="13.6656937"><ele>226.6</ele><time>2026-05-02T10:43:42.173Z</time></trkpt><trkpt lat="45.8182478" lon="13.6655916"><ele>226.40000000000003</ele><time>2026-05-02T10:43:44.263Z</time></trkpt><trkpt lat="45.8181927" lon="13.6654906"><ele>226.20000000000002</ele><time>2026-05-02T10:43:46.263Z</time></trkpt><trkpt lat="45.8181351" lon="13.6653716"><ele>226.0</ele><time>2026-05-02T10:43:48.263Z</time></trkpt><trkpt lat="45.8180729" lon="13.6652402"><ele>225.8</ele><time>2026-05-02T10:43:50.264Z</time></trkpt><trkpt lat="45.8180019" lon="13.6651057"><ele>225.60000000000002</ele><time>2026-05-02T10:43:52.263Z</time></trkpt><trkpt lat="45.8179416" lon="13.664979"><ele>225.4</ele><time>2026-05-02T10:43:54.263Z</time></trkpt><trkpt lat="45.8178871" lon="13.6648508"><ele>225.2</ele><time>2026-05-02T10:43:56.263Z</time></trkpt><trkpt lat="45.8178423" lon="13.6647209"><ele>225.0</ele><time>2026-05-02T10:43:58.263Z</time></trkpt><trkpt lat="45.8177862" lon="13.6645947"><ele>225.0</ele><time>2026-05-02T10:44:00.263Z</time></trkpt><trkpt lat="45.8177354" lon="13.6644667"><ele>225.0</ele><time>2026-05-02T10:44:02.263Z</time></trkpt><trkpt lat="45.8176871" lon="13.6643179"><ele>225.0</ele><time>2026-05-02T10:44:04.263Z</time></trkpt><trkpt lat="45.8176361" lon="13.6641736"><ele>225.0</ele><time>2026-05-02T10:44:06.263Z</time></trkpt><trkpt lat="45.8175879" lon="13.6640451"><ele>225.0</ele><time>2026-05-02T10:44:08.263Z</time></trkpt><trkpt lat="45.8175397" lon="13.6639185"><ele>221.4</ele><time>2026-05-02T10:44:10.263Z</time></trkpt><trkpt lat="45.8174955" lon="13.6637722"><ele>217.8</ele><time>2026-05-02T10:44:12.263Z</time></trkpt><trkpt lat="45.8174477" lon="13.6636063"><ele>214.2</ele><time>2026-05-02T10:44:14.263Z</time></trkpt><trkpt lat="45.8174278" lon="13.6635169"><ele>210.6</ele><time>2026-05-02T10:44:15.263Z</time></trkpt><trkpt lat="45.8174119" lon="13.663429"><ele>207.0</ele><time>2026-05-02T10:44:16.263Z</time></trkpt><trkpt lat="45.8173815" lon="13.6632475"><ele>207.0</ele><time>2026-05-02T10:44:18.263Z</time></trkpt><trkpt lat="45.8173614" lon="13.6631499"><ele>207.0</ele><time>2026-05-02T10:44:19.263Z</time></trkpt><trkpt lat="45.8173378" lon="13.6629804"><ele>207.0</ele><time>2026-05-02T10:44:21.263Z</time></trkpt><trkpt lat="45.8173363" lon="13.6628264"><ele>207.0</ele><time>2026-05-02T10:44:23.263Z</time></trkpt><trkpt lat="45.8173787" lon="13.6626673"><ele>207.0</ele><time>2026-05-02T10:44:25.263Z</time></trkpt><trkpt lat="45.8174047" lon="13.6625755"><ele>207.16666666666666</ele><time>2026-05-02T10:44:26.264Z</time></trkpt><trkpt lat="45.8174332" lon="13.6624849"><ele>207.33333333333331</ele><time>2026-05-02T10:44:27.263Z</time></trkpt><trkpt lat="45.8174646" lon="13.6623993"><ele>207.5</ele><time>2026-05-02T10:44:28.263Z</time></trkpt><trkpt lat="45.8175129" lon="13.6622723"><ele>207.66666666666666</ele><time>2026-05-02T10:44:30.264Z</time></trkpt><trkpt lat="45.8174794" lon="13.6621738"><ele>207.83333333333331</ele><time>2026-05-02T10:44:32.263Z</time></trkpt><trkpt lat="45.8173829" lon="13.6621482"><ele>208.0</ele><time>2026-05-02T10:44:34.263Z</time></trkpt><trkpt lat="45.8173187" lon="13.6621527"><ele>207.99999999999997</ele><time>2026-05-02T10:44:35.264Z</time></trkpt><trkpt lat="45.8172508" lon="13.6621483"><ele>208.0</ele><time>2026-05-02T10:44:36.263Z</time></trkpt><trkpt lat="45.8171858" lon="13.6621274"><ele>208.0</ele><time>2026-05-02T10:44:37.263Z</time></trkpt><trkpt lat="45.8171213" lon="13.6620989"><ele>208.0</ele><time>2026-05-02T10:44:38.263Z</time></trkpt><trkpt lat="45.817011" lon="13.6620296"><ele>207.99999999999997</ele><time>2026-05-02T10:44:40.263Z</time></trkpt><trkpt lat="45.8169178" lon="13.6619602"><ele>208.0</ele><time>2026-05-02T10:44:42.263Z</time></trkpt><trkpt lat="45.8168315" lon="13.661919"><ele>205.99999999999997</ele><time>2026-05-02T10:44:44.264Z</time></trkpt><trkpt lat="45.816756" lon="13.6619055"><ele>204.0</ele><time>2026-05-02T10:44:47.263Z</time></trkpt><trkpt lat="45.816697" lon="13.6618519"><ele>202.0</ele><time>2026-05-02T10:44:51.264Z</time></trkpt><trkpt lat="45.8166274" lon="13.6618488"><ele>200.0</ele><time>2026-05-02T10:45:00.17Z</time></trkpt><trkpt lat="45.8165134" lon="13.6617864"><ele>197.99999999999997</ele><time>2026-05-02T10:45:02.263Z</time></trkpt><trkpt lat="45.8164218" lon="13.6616974"><ele>196.0</ele><time>2026-05-02T10:45:04.263Z</time></trkpt><trkpt lat="45.8163243" lon="13.6616113"><ele>196.0</ele><time>2026-05-02T10:45:06.263Z</time></trkpt><trkpt lat="45.8162138" lon="13.6615316"><ele>196.0</ele><time>2026-05-02T10:45:08.263Z</time></trkpt><trkpt lat="45.816114" lon="13.6614644"><ele>196.0</ele><time>2026-05-02T10:45:10.264Z</time></trkpt><trkpt lat="45.816028" lon="13.6614111"><ele>196.0</ele><time>2026-05-02T10:45:12.263Z</time></trkpt><trkpt lat="45.8159282" lon="13.6613466"><ele>196.0</ele><time>2026-05-02T10:45:14.263Z</time></trkpt><trkpt lat="45.8158217" lon="13.6612652"><ele>194.66666666666666</ele><time>2026-05-02T10:45:16.263Z</time></trkpt><trkpt lat="45.815772" lon="13.6612067"><ele>193.33333333333331</ele><time>2026-05-02T10:45:17.264Z</time></trkpt><trkpt lat="45.8157225" lon="13.6611446"><ele>192.0</ele><time>2026-05-02T10:45:18.263Z</time></trkpt><trkpt lat="45.8156774" lon="13.6610756"><ele>190.66666666666666</ele><time>2026-05-02T10:45:19.264Z</time></trkpt><trkpt lat="45.8156334" lon="13.6610061"><ele>189.33333333333331</ele><time>2026-05-02T10:45:20.263Z</time></trkpt><trkpt lat="45.8155419" lon="13.6609207"><ele>188.0</ele><time>2026-05-02T10:45:22.263Z</time></trkpt><trkpt lat="45.815453" lon="13.6608855"><ele>188.0</ele><time>2026-05-02T10:45:24.263Z</time></trkpt><trkpt lat="45.8153662" lon="13.6609077"><ele>188.0</ele><time>2026-05-02T10:45:26.263Z</time></trkpt><trkpt lat="45.8153073" lon="13.6609954"><ele>188.0</ele><time>2026-05-02T10:45:28.263Z</time></trkpt><trkpt lat="45.8152889" lon="13.6611087"><ele>188.0</ele><time>2026-05-02T10:45:30.263Z</time></trkpt><trkpt lat="45.8152786" lon="13.6612365"><ele>188.0</ele><time>2026-05-02T10:45:32.263Z</time></trkpt><trkpt lat="45.8152734" lon="13.6613881"><ele>186.66666666666666</ele><time>2026-05-02T10:45:34.263Z</time></trkpt><trkpt lat="45.8152608" lon="13.6615125"><ele>185.33333333333331</ele><time>2026-05-02T10:45:36.263Z</time></trkpt><trkpt lat="45.8152434" lon="13.6616305"><ele>184.0</ele><time>2026-05-02T10:45:38.263Z</time></trkpt><trkpt lat="45.8152175" lon="13.661764"><ele>182.66666666666666</ele><time>2026-05-02T10:45:40.263Z</time></trkpt><trkpt lat="45.8151934" lon="13.6618663"><ele>181.33333333333334</ele><time>2026-05-02T10:45:42.263Z</time></trkpt><trkpt lat="45.8151338" lon="13.6619587"><ele>180.0</ele><time>2026-05-02T10:45:45.263Z</time></trkpt><trkpt lat="45.8150595" lon="13.6620072"><ele>177.0</ele><time>2026-05-02T10:45:47.263Z</time></trkpt><trkpt lat="45.8149732" lon="13.6619621"><ele>174.0</ele><time>2026-05-02T10:45:49.263Z</time></trkpt><trkpt lat="45.8149076" lon="13.6619214"><ele>171.0</ele><time>2026-05-02T10:45:50.263Z</time></trkpt><trkpt lat="45.8148383" lon="13.6618834"><ele>168.0</ele><time>2026-05-02T10:45:51.263Z</time></trkpt><trkpt lat="45.8147636" lon="13.6618462"><ele>165.0</ele><time>2026-05-02T10:45:52.264Z</time></trkpt><trkpt lat="45.8146799" lon="13.6618125"><ele>162.0</ele><time>2026-05-02T10:45:53.264Z</time></trkpt><trkpt lat="45.8145913" lon="13.6617751"><ele>162.0</ele><time>2026-05-02T10:45:54.263Z</time></trkpt><trkpt lat="45.8144987" lon="13.6617355"><ele>162.0</ele><time>2026-05-02T10:45:55.263Z</time></trkpt><trkpt lat="45.8144165" lon="13.6617053"><ele>162.0</ele><time>2026-05-02T10:45:56.263Z</time></trkpt><trkpt lat="45.8143494" lon="13.6616853"><ele>162.0</ele><time>2026-05-02T10:45:57.263Z</time></trkpt><trkpt lat="45.8142429" lon="13.6616867"><ele>162.0</ele><time>2026-05-02T10:45:59.263Z</time></trkpt><trkpt lat="45.8141516" lon="13.661771"><ele>159.33333333333334</ele><time>2026-05-02T10:46:01.263Z</time></trkpt><trkpt lat="45.8141019" lon="13.6618359"><ele>156.66666666666666</ele><time>2026-05-02T10:46:02.263Z</time></trkpt><trkpt lat="45.8140439" lon="13.6618953"><ele>154.0</ele><time>2026-05-02T10:46:03.263Z</time></trkpt><trkpt lat="45.8139778" lon="13.6619532"><ele>151.33333333333331</ele><time>2026-05-02T10:46:04.264Z</time></trkpt><trkpt lat="45.8139067" lon="13.6620072"><ele>148.66666666666666</ele><time>2026-05-02T10:46:05.263Z</time></trkpt><trkpt lat="45.8138324" lon="13.6620683"><ele>146.0</ele><time>2026-05-02T10:46:06.263Z</time></trkpt><trkpt lat="45.813758" lon="13.6621196"><ele>145.16666666666666</ele><time>2026-05-02T10:46:07.263Z</time></trkpt><trkpt lat="45.8136822" lon="13.662155"><ele>144.33333333333331</ele><time>2026-05-02T10:46:08.263Z</time></trkpt><trkpt lat="45.8136105" lon="13.6622035"><ele>143.5</ele><time>2026-05-02T10:46:09.263Z</time></trkpt><trkpt lat="45.8135533" lon="13.66229"><ele>142.66666666666666</ele><time>2026-05-02T10:46:10.263Z</time></trkpt><trkpt lat="45.8135099" lon="13.6623794"><ele>141.83333333333334</ele><time>2026-05-02T10:46:11.263Z</time></trkpt><trkpt lat="45.8134706" lon="13.6624641"><ele>141.0</ele><time>2026-05-02T10:46:12.263Z</time></trkpt><trkpt lat="45.813402" lon="13.6625951"><ele>138.83333333333334</ele><time>2026-05-02T10:46:14.263Z</time></trkpt><trkpt lat="45.813352" lon="13.6627147"><ele>136.66666666666666</ele><time>2026-05-02T10:46:16.263Z</time></trkpt><trkpt lat="45.8133165" lon="13.662851"><ele>134.5</ele><time>2026-05-02T10:46:18.263Z</time></trkpt><trkpt lat="45.8132773" lon="13.6629727"><ele>132.33333333333331</ele><time>2026-05-02T10:46:20.264Z</time></trkpt><trkpt lat="45.8132374" lon="13.663064"><ele>130.16666666666666</ele><time>2026-05-02T10:46:22.263Z</time></trkpt><trkpt lat="45.8131809" lon="13.6631181"><ele>128.0</ele><time>2026-05-02T10:46:25.263Z</time></trkpt><trkpt lat="45.8131505" lon="13.6632881"><ele>127.25</ele><time>2026-05-02T10:46:29.263Z</time></trkpt><trkpt lat="45.8131544" lon="13.6634406"><ele>126.5</ele><time>2026-05-02T10:46:30.263Z</time></trkpt><trkpt lat="45.8131577" lon="13.6636332"><ele>125.75</ele><time>2026-05-02T10:46:31.263Z</time></trkpt><trkpt lat="45.813154" lon="13.6638446"><ele>125.0</ele><time>2026-05-02T10:46:32.263Z</time></trkpt><trkpt lat="45.813148" lon="13.6640484"><ele>125.0</ele><time>2026-05-02T10:46:33.263Z</time></trkpt><trkpt lat="45.8131408" lon="13.6642414"><ele>125.0</ele><time>2026-05-02T10:46:34.264Z</time></trkpt><trkpt lat="45.8131265" lon="13.6644403"><ele>125.0</ele><time>2026-05-02T10:46:35.263Z</time></trkpt><trkpt lat="45.8131012" lon="13.664636"><ele>125.0</ele><time>2026-05-02T10:46:36.263Z</time></trkpt><trkpt lat="45.8130746" lon="13.6648261"><ele>125.0</ele><time>2026-05-02T10:46:37.263Z</time></trkpt><trkpt lat="45.8130497" lon="13.6650164"><ele>125.0</ele><time>2026-05-02T10:46:38.264Z</time></trkpt><trkpt lat="45.8130281" lon="13.6652056"><ele>125.0</ele><time>2026-05-02T10:46:39.263Z</time></trkpt><trkpt lat="45.8130111" lon="13.6653927"><ele>125.0</ele><time>2026-05-02T10:46:40.263Z</time></trkpt><trkpt lat="45.8129966" lon="13.665581"><ele>125.0</ele><time>2026-05-02T10:46:41.263Z</time></trkpt><trkpt lat="45.8129749" lon="13.6657766"><ele>125.0</ele><time>2026-05-02T10:46:42.264Z</time></trkpt><trkpt lat="45.8129582" lon="13.6659924"><ele>125.0</ele><time>2026-05-02T10:46:43.263Z</time></trkpt><trkpt lat="45.8129636" lon="13.6662308"><ele>123.0</ele><time>2026-05-02T10:46:44.263Z</time></trkpt><trkpt lat="45.8129817" lon="13.6664991"><ele>121.0</ele><time>2026-05-02T10:46:45.263Z</time></trkpt><trkpt lat="45.8130088" lon="13.6667911"><ele>119.0</ele><time>2026-05-02T10:46:46.263Z</time></trkpt><trkpt lat="45.8130382" lon="13.6671087"><ele>118.0</ele><time>2026-05-02T10:46:47.263Z</time></trkpt><trkpt lat="45.8130567" lon="13.6674241"><ele>117.0</ele><time>2026-05-02T10:46:48.263Z</time></trkpt><trkpt lat="45.8130663" lon="13.6677138"><ele>116.0</ele><time>2026-05-02T10:46:49.263Z</time></trkpt><trkpt lat="45.8130717" lon="13.6679861"><ele>116.0</ele><time>2026-05-02T10:46:50.263Z</time></trkpt><trkpt lat="45.8130726" lon="13.6682395"><ele>116.0</ele><time>2026-05-02T10:46:51.263Z</time></trkpt><trkpt lat="45.8130619" lon="13.6684672"><ele>116.0</ele><time>2026-05-02T10:46:52.263Z</time></trkpt><trkpt lat="45.8130302" lon="13.6686737"><ele>116.0</ele><time>2026-05-02T10:46:53.263Z</time></trkpt><trkpt lat="45.8129835" lon="13.6688643"><ele>116.0</ele><time>2026-05-02T10:46:54.263Z</time></trkpt><trkpt lat="45.8129395" lon="13.6690247"><ele>116.0</ele><time>2026-05-02T10:46:55.263Z</time></trkpt><trkpt lat="45.8129037" lon="13.6691627"><ele>116.0</ele><time>2026-05-02T10:46:56.263Z</time></trkpt><trkpt lat="45.8128765" lon="13.6692813"><ele>115.99999999999999</ele><time>2026-05-02T10:46:57.263Z</time></trkpt><trkpt lat="45.8128579" lon="13.6693788"><ele>116.0</ele><time>2026-05-02T10:46:58.263Z</time></trkpt><trkpt lat="45.8128276" lon="13.6694821"><ele>116.0</ele><time>2026-05-02T10:47:00.263Z</time></trkpt><trkpt lat="45.8127634" lon="13.6694521"><ele>116.0</ele><time>2026-05-02T10:49:39.263Z</time></trkpt><trkpt lat="45.8126179" lon="13.6693791"><ele>115.99999999999999</ele><time>2026-05-02T10:49:43.263Z</time></trkpt><trkpt lat="45.8125497" lon="13.6693436"><ele>116.0</ele><time>2026-05-02T10:49:44.263Z</time></trkpt><trkpt lat="45.8124486" lon="13.6693034"><ele>115.0</ele><time>2026-05-02T10:49:46.263Z</time></trkpt><trkpt lat="45.8123535" lon="13.6692584"><ele>114.0</ele><time>2026-05-02T10:49:48.263Z</time></trkpt><trkpt lat="45.8122524" lon="13.669223"><ele>113.0</ele><time>2026-05-02T10:49:50.263Z</time></trkpt><trkpt lat="45.8121514" lon="13.6691792"><ele>112.0</ele><time>2026-05-02T10:49:52.263Z</time></trkpt><trkpt lat="45.8120382" lon="13.6691319"><ele>111.0</ele><time>2026-05-02T10:49:54.263Z</time></trkpt><trkpt lat="45.8119223" lon="13.6690787"><ele>110.57142857142857</ele><time>2026-05-02T10:49:56.263Z</time></trkpt><trkpt lat="45.8118028" lon="13.669035"><ele>110.14285714285715</ele><time>2026-05-02T10:49:58.263Z</time></trkpt><trkpt lat="45.8117407" lon="13.669011"><ele>109.71428571428572</ele><time>2026-05-02T10:49:59.263Z</time></trkpt><trkpt lat="45.8116792" lon="13.6689833"><ele>109.28571428571428</ele><time>2026-05-02T10:50:00.263Z</time></trkpt><trkpt lat="45.8116154" lon="13.6689583"><ele>108.85714285714286</ele><time>2026-05-02T10:50:01.263Z</time></trkpt><trkpt lat="45.8115521" lon="13.6689377"><ele>108.42857142857143</ele><time>2026-05-02T10:50:02.263Z</time></trkpt><trkpt lat="45.811489" lon="13.6689184"><ele>108.0</ele><time>2026-05-02T10:50:03.263Z</time></trkpt><trkpt lat="45.811364" lon="13.6689022"><ele>108.0</ele><time>2026-05-02T10:50:05.263Z</time></trkpt><trkpt lat="45.8112375" lon="13.6688875"><ele>108.0</ele><time>2026-05-02T10:50:07.263Z</time></trkpt><trkpt lat="45.8111726" lon="13.6688647"><ele>108.0</ele><time>2026-05-02T10:50:08.263Z</time></trkpt><trkpt lat="45.8111061" lon="13.6688428"><ele>108.0</ele><time>2026-05-02T10:50:09.263Z</time></trkpt><trkpt lat="45.8110412" lon="13.668821"><ele>108.0</ele><time>2026-05-02T10:50:10.263Z</time></trkpt><trkpt lat="45.8109743" lon="13.668804"><ele>108.0</ele><time>2026-05-02T10:50:11.263Z</time></trkpt><trkpt lat="45.8109036" lon="13.6687893"><ele>108.14285714285714</ele><time>2026-05-02T10:50:12.263Z</time></trkpt><trkpt lat="45.8108318" lon="13.6687734"><ele>108.28571428571428</ele><time>2026-05-02T10:50:13.264Z</time></trkpt><trkpt lat="45.8107593" lon="13.6687584"><ele>108.42857142857143</ele><time>2026-05-02T10:50:14.263Z</time></trkpt><trkpt lat="45.8106888" lon="13.668748"><ele>108.57142857142857</ele><time>2026-05-02T10:50:15.263Z</time></trkpt><trkpt lat="45.8106211" lon="13.6687362"><ele>108.71428571428572</ele><time>2026-05-02T10:50:16.263Z</time></trkpt><trkpt lat="45.810556" lon="13.6687129"><ele>108.85714285714286</ele><time>2026-05-02T10:50:17.263Z</time></trkpt><trkpt lat="45.8104824" lon="13.6686975"><ele>109.0</ele><time>2026-05-02T10:50:18.263Z</time></trkpt><trkpt lat="45.8104058" lon="13.6686941"><ele>109.00000000000001</ele><time>2026-05-02T10:50:19.263Z</time></trkpt><trkpt lat="45.8103321" lon="13.6686889"><ele>109.0</ele><time>2026-05-02T10:50:20.263Z</time></trkpt><trkpt lat="45.8102637" lon="13.6686818"><ele>109.0</ele><time>2026-05-02T10:50:21.263Z</time></trkpt><trkpt lat="45.8102001" lon="13.6686741"><ele>109.0</ele><time>2026-05-02T10:50:22.263Z</time></trkpt><trkpt lat="45.8100876" lon="13.6686774"><ele>109.00000000000001</ele><time>2026-05-02T10:50:24.264Z</time></trkpt><trkpt lat="45.8099946" lon="13.6686995"><ele>109.0</ele><time>2026-05-02T10:50:26.263Z</time></trkpt><trkpt lat="45.8099056" lon="13.6687238"><ele>108.83333333333334</ele><time>2026-05-02T10:50:29.263Z</time></trkpt><trkpt lat="45.8098376" lon="13.6687562"><ele>108.66666666666667</ele><time>2026-05-02T10:50:32.304Z</time></trkpt><trkpt lat="45.809759" lon="13.6687971"><ele>108.5</ele><time>2026-05-02T10:50:35.272Z</time></trkpt><trkpt lat="45.8096939" lon="13.668787"><ele>108.33333333333334</ele><time>2026-05-02T10:50:37.196Z</time></trkpt><trkpt lat="45.8096212" lon="13.6687464"><ele>108.16666666666667</ele><time>2026-05-02T10:50:39.263Z</time></trkpt><trkpt lat="45.8095521" lon="13.6686832"><ele>108.0</ele><time>2026-05-02T10:50:41.263Z</time></trkpt><trkpt lat="45.8095158" lon="13.6685761"><ele>107.5</ele><time>2026-05-02T10:50:43.263Z</time></trkpt><trkpt lat="45.8094774" lon="13.6684616"><ele>107.0</ele><time>2026-05-02T10:50:45.263Z</time></trkpt><trkpt lat="45.8094375" lon="13.6683866"><ele>106.5</ele><time>2026-05-02T10:50:47.263Z</time></trkpt><trkpt lat="45.8094041" lon="13.668307"><ele>106.0</ele><time>2026-05-02T10:50:49.263Z</time></trkpt><trkpt lat="45.8093531" lon="13.6682243"><ele>105.5</ele><time>2026-05-02T10:50:51.263Z</time></trkpt><trkpt lat="45.809243" lon="13.6682014"><ele>105.0</ele><time>2026-05-02T10:50:55.262Z</time></trkpt><trkpt lat="45.8091719" lon="13.6682342"><ele>104.33333333333333</ele><time>2026-05-02T10:50:57.263Z</time></trkpt><trkpt lat="45.8091012" lon="13.6682723"><ele>103.66666666666666</ele><time>2026-05-02T10:50:59.264Z</time></trkpt><trkpt lat="45.80903" lon="13.6683136"><ele>103.0</ele><time>2026-05-02T10:51:01.263Z</time></trkpt><trkpt lat="45.8089623" lon="13.6683332"><ele>102.33333333333333</ele><time>2026-05-02T10:51:03.263Z</time></trkpt><trkpt lat="45.808895" lon="13.6683231"><ele>101.66666666666666</ele><time>2026-05-02T10:51:05.263Z</time></trkpt><trkpt lat="45.8088212" lon="13.6682968"><ele>101.0</ele><time>2026-05-02T10:51:07.263Z</time></trkpt><trkpt lat="45.8087498" lon="13.6682155"><ele>101.0</ele><time>2026-05-02T10:51:09.263Z</time></trkpt><trkpt lat="45.808679" lon="13.6680916"><ele>101.0</ele><time>2026-05-02T10:51:11.264Z</time></trkpt><trkpt lat="45.8086117" lon="13.6679545"><ele>101.0</ele><time>2026-05-02T10:51:13.263Z</time></trkpt><trkpt lat="45.8085461" lon="13.6678203"><ele>101.0</ele><time>2026-05-02T10:51:15.263Z</time></trkpt><trkpt lat="45.808479" lon="13.6676734"><ele>99.49999999999999</ele><time>2026-05-02T10:51:17.263Z</time></trkpt><trkpt lat="45.8084421" lon="13.6675979"><ele>98.0</ele><time>2026-05-02T10:51:18.263Z</time></trkpt><trkpt lat="45.8084042" lon="13.6675242"><ele>96.5</ele><time>2026-05-02T10:51:19.263Z</time></trkpt><trkpt lat="45.8083255" lon="13.6673856"><ele>95.0</ele><time>2026-05-02T10:51:21.263Z</time></trkpt><trkpt lat="45.8082854" lon="13.6673147"><ele>93.5</ele><time>2026-05-02T10:51:22.263Z</time></trkpt><trkpt lat="45.8082101" lon="13.6671764"><ele>92.0</ele><time>2026-05-02T10:51:24.263Z</time></trkpt><trkpt lat="45.8081685" lon="13.6671044"><ele>92.0</ele><time>2026-05-02T10:51:25.263Z</time></trkpt><trkpt lat="45.8081297" lon="13.6670329"><ele>92.0</ele><time>2026-05-02T10:51:26.263Z</time></trkpt><trkpt lat="45.8080561" lon="13.6669001"><ele>92.0</ele><time>2026-05-02T10:51:28.263Z</time></trkpt><trkpt lat="45.8079724" lon="13.6667804"><ele>92.0</ele><time>2026-05-02T10:51:30.263Z</time></trkpt><trkpt lat="45.8079102" lon="13.6666947"><ele>92.0</ele><time>2026-05-02T10:51:32.263Z</time></trkpt><trkpt lat="45.8078481" lon="13.6666523"><ele>92.0</ele><time>2026-05-02T10:51:34.263Z</time></trkpt><trkpt lat="45.807755" lon="13.6666377"><ele>92.0</ele><time>2026-05-02T10:51:37.263Z</time></trkpt><trkpt lat="45.807659" lon="13.6666859"><ele>92.0</ele><time>2026-05-02T10:51:40.171Z</time></trkpt><trkpt lat="45.8075817" lon="13.6667492"><ele>92.0</ele><time>2026-05-02T10:51:41.263Z</time></trkpt><trkpt lat="45.8075089" lon="13.6668035"><ele>92.0</ele><time>2026-05-02T10:51:43.263Z</time></trkpt><trkpt lat="45.8074442" lon="13.666818"><ele>92.0</ele><time>2026-05-02T10:51:45.263Z</time></trkpt><trkpt lat="45.8073752" lon="13.666829"><ele>90.8</ele><time>2026-05-02T10:51:47.263Z</time></trkpt><trkpt lat="45.8072957" lon="13.6668128"><ele>89.6</ele><time>2026-05-02T10:51:49.263Z</time></trkpt><trkpt lat="45.8071973" lon="13.6667872"><ele>88.39999999999999</ele><time>2026-05-02T10:51:51.263Z</time></trkpt><trkpt lat="45.8070929" lon="13.6667594"><ele>87.19999999999999</ele><time>2026-05-02T10:51:53.263Z</time></trkpt><trkpt lat="45.8069925" lon="13.6667494"><ele>86.0</ele><time>2026-05-02T10:51:55.264Z</time></trkpt><trkpt lat="45.8069028" lon="13.666701"><ele>86.4</ele><time>2026-05-02T10:51:57.263Z</time></trkpt><trkpt lat="45.8068208" lon="13.6666269"><ele>86.8</ele><time>2026-05-02T10:51:59.263Z</time></trkpt><trkpt lat="45.8067376" lon="13.6665325"><ele>87.2</ele><time>2026-05-02T10:52:01.263Z</time></trkpt><trkpt lat="45.8066539" lon="13.6664383"><ele>87.60000000000001</ele><time>2026-05-02T10:52:03.263Z</time></trkpt><trkpt lat="45.8065618" lon="13.666353"><ele>88.0</ele><time>2026-05-02T10:52:05.263Z</time></trkpt><trkpt lat="45.8064767" lon="13.6662649"><ele>88.0</ele><time>2026-05-02T10:52:07.263Z</time></trkpt><trkpt lat="45.8064014" lon="13.6661991"><ele>88.0</ele><time>2026-05-02T10:52:09.263Z</time></trkpt><trkpt lat="45.8063455" lon="13.6661285"><ele>88.0</ele><time>2026-05-02T10:52:11.263Z</time></trkpt><trkpt lat="45.8063082" lon="13.6660438"><ele>88.0</ele><time>2026-05-02T10:52:13.263Z</time></trkpt><trkpt lat="45.8062374" lon="13.6659669"><ele>88.0</ele><time>2026-05-02T10:52:15.263Z</time></trkpt><trkpt lat="45.806184" lon="13.6659062"><ele>88.0</ele><time>2026-05-02T10:52:17.263Z</time></trkpt><trkpt lat="45.8061079" lon="13.6657909"><ele>88.80000000000001</ele><time>2026-05-02T10:52:20.264Z</time></trkpt><trkpt lat="45.8060577" lon="13.6656984"><ele>89.6</ele><time>2026-05-02T10:52:22.264Z</time></trkpt><trkpt lat="45.8059983" lon="13.665613"><ele>90.4</ele><time>2026-05-02T10:52:24.239Z</time></trkpt><trkpt lat="45.8059492" lon="13.6654882"><ele>91.19999999999999</ele><time>2026-05-02T10:52:26.263Z</time></trkpt><trkpt lat="45.8058967" lon="13.6653469"><ele>92.0</ele><time>2026-05-02T10:52:28.263Z</time></trkpt><trkpt lat="45.8058691" lon="13.6652296"><ele>95.8</ele><time>2026-05-02T10:52:30.263Z</time></trkpt><trkpt lat="45.8058414" lon="13.6650974"><ele>99.6</ele><time>2026-05-02T10:52:32.263Z</time></trkpt><trkpt lat="45.8058262" lon="13.6649751"><ele>103.39999999999999</ele><time>2026-05-02T10:52:34.263Z</time></trkpt><trkpt lat="45.8057996" lon="13.6648277"><ele>107.19999999999999</ele><time>2026-05-02T10:52:37.264Z</time></trkpt><trkpt lat="45.8057598" lon="13.6646666"><ele>111.0</ele><time>2026-05-02T10:52:39.263Z</time></trkpt><trkpt lat="45.8057171" lon="13.664541"><ele>111.8</ele><time>2026-05-02T10:52:41.263Z</time></trkpt><trkpt lat="45.8056736" lon="13.6644164"><ele>112.6</ele><time>2026-05-02T10:52:43.263Z</time></trkpt><trkpt lat="45.8056382" lon="13.6642961"><ele>113.4</ele><time>2026-05-02T10:52:45.263Z</time></trkpt><trkpt lat="45.8056188" lon="13.6641672"><ele>114.2</ele><time>2026-05-02T10:52:47.263Z</time></trkpt><trkpt lat="45.8055732" lon="13.6640265"><ele>115.0</ele><time>2026-05-02T10:52:49.263Z</time></trkpt><trkpt lat="45.8055281" lon="13.6639146"><ele>115.00000000000001</ele><time>2026-05-02T10:52:51.263Z</time></trkpt><trkpt lat="45.8054921" lon="13.6637984"><ele>115.0</ele><time>2026-05-02T10:52:54.193Z</time></trkpt><trkpt lat="45.8054604" lon="13.6636598"><ele>115.0</ele><time>2026-05-02T10:52:56.263Z</time></trkpt><trkpt lat="45.8054232" lon="13.663559"><ele>115.0</ele><time>2026-05-02T10:52:58.193Z</time></trkpt><trkpt lat="45.8053781" lon="13.6634749"><ele>115.00000000000001</ele><time>2026-05-02T10:53:00.199Z</time></trkpt><trkpt lat="45.8053594" lon="13.6633755"><ele>115.0</ele><time>2026-05-02T10:53:02.263Z</time></trkpt><trkpt lat="45.8053398" lon="13.663239"><ele>115.8</ele><time>2026-05-02T10:53:04.263Z</time></trkpt><trkpt lat="45.8053033" lon="13.6631005"><ele>116.6</ele><time>2026-05-02T10:53:06.263Z</time></trkpt><trkpt lat="45.8052606" lon="13.662955"><ele>117.4</ele><time>2026-05-02T10:53:08.263Z</time></trkpt><trkpt lat="45.8051887" lon="13.6628561"><ele>118.2</ele><time>2026-05-02T10:53:10.263Z</time></trkpt><trkpt lat="45.8051204" lon="13.662835"><ele>119.0</ele><time>2026-05-02T10:53:12.263Z</time></trkpt><trkpt lat="45.8050492" lon="13.6628646"><ele>120.83333333333333</ele><time>2026-05-02T10:53:14.264Z</time></trkpt><trkpt lat="45.8049733" lon="13.6629211"><ele>122.66666666666666</ele><time>2026-05-02T10:53:16.264Z</time></trkpt><trkpt lat="45.8049092" lon="13.6629854"><ele>124.5</ele><time>2026-05-02T10:53:18.263Z</time></trkpt><trkpt lat="45.8048129" lon="13.6630426"><ele>126.33333333333334</ele><time>2026-05-02T10:53:20.264Z</time></trkpt><trkpt lat="45.8047358" lon="13.6630595"><ele>128.16666666666669</ele><time>2026-05-02T10:53:22.263Z</time></trkpt><trkpt lat="45.8046497" lon="13.6630418"><ele>130.0</ele><time>2026-05-02T10:53:24.264Z</time></trkpt><trkpt lat="45.8045856" lon="13.662977"><ele>130.0</ele><time>2026-05-02T10:53:26.263Z</time></trkpt><trkpt lat="45.8044822" lon="13.6628706"><ele>130.0</ele><time>2026-05-02T10:53:29.263Z</time></trkpt><trkpt lat="45.8043743" lon="13.6628073"><ele>130.0</ele><time>2026-05-02T10:53:31.263Z</time></trkpt><trkpt lat="45.8042732" lon="13.6627569"><ele>130.0</ele><time>2026-05-02T10:53:33.263Z</time></trkpt><trkpt lat="45.8041835" lon="13.6626624"><ele>132.4</ele><time>2026-05-02T10:53:35.263Z</time></trkpt><trkpt lat="45.804108" lon="13.6626023"><ele>134.8</ele><time>2026-05-02T10:53:37.263Z</time></trkpt><trkpt lat="45.8040072" lon="13.6625743"><ele>137.2</ele><time>2026-05-02T10:53:39.263Z</time></trkpt><trkpt lat="45.8038969" lon="13.6625569"><ele>139.6</ele><time>2026-05-02T10:53:41.264Z</time></trkpt><trkpt lat="45.8038031" lon="13.6625123"><ele>142.0</ele><time>2026-05-02T10:53:43.263Z</time></trkpt><trkpt lat="45.8037099" lon="13.6624536"><ele>142.0</ele><time>2026-05-02T10:53:45.263Z</time></trkpt><trkpt lat="45.8036245" lon="13.662384"><ele>142.0</ele><time>2026-05-02T10:53:47.263Z</time></trkpt><trkpt lat="45.8035397" lon="13.6623199"><ele>142.0</ele><time>2026-05-02T10:53:49.263Z</time></trkpt><trkpt lat="45.8034492" lon="13.6622736"><ele>142.0</ele><time>2026-05-02T10:53:51.263Z</time></trkpt><trkpt lat="45.8033537" lon="13.6621952"><ele>142.0</ele><time>2026-05-02T10:53:53.263Z</time></trkpt><trkpt lat="45.8032748" lon="13.6621066"><ele>143.79999999999998</ele><time>2026-05-02T10:53:55.263Z</time></trkpt><trkpt lat="45.8032009" lon="13.662014"><ele>145.6</ele><time>2026-05-02T10:53:57.264Z</time></trkpt><trkpt lat="45.8031132" lon="13.6619422"><ele>147.39999999999998</ele><time>2026-05-02T10:53:59.263Z</time></trkpt><trkpt lat="45.8030257" lon="13.6618721"><ele>149.2</ele><time>2026-05-02T10:54:01.263Z</time></trkpt><trkpt lat="45.8029362" lon="13.6618317"><ele>151.0</ele><time>2026-05-02T10:54:03.263Z</time></trkpt><trkpt lat="45.8028553" lon="13.6618012"><ele>151.0</ele><time>2026-05-02T10:54:05.263Z</time></trkpt><trkpt lat="45.8027856" lon="13.6617606"><ele>151.0</ele><time>2026-05-02T10:54:08.263Z</time></trkpt><trkpt lat="45.8027647" lon="13.6618595"><ele>151.0</ele><time>2026-05-02T10:54:12.263Z</time></trkpt><trkpt lat="45.8027702" lon="13.6619799"><ele>151.0</ele><time>2026-05-02T10:54:15.264Z</time></trkpt><trkpt lat="45.8027366" lon="13.662083"><ele>151.0</ele><time>2026-05-02T10:54:17.264Z</time></trkpt><trkpt lat="45.8026711" lon="13.6621619"><ele>151.0</ele><time>2026-05-02T10:54:19.263Z</time></trkpt><trkpt lat="45.8026066" lon="13.6622078"><ele>152.16666666666669</ele><time>2026-05-02T10:54:21.126Z</time></trkpt><trkpt lat="45.8025182" lon="13.6622685"><ele>153.33333333333334</ele><time>2026-05-02T10:54:23.263Z</time></trkpt><trkpt lat="45.8024435" lon="13.6623029"><ele>154.5</ele><time>2026-05-02T10:54:25.263Z</time></trkpt><trkpt lat="45.802377" lon="13.6623606"><ele>155.66666666666666</ele><time>2026-05-02T10:54:27.263Z</time></trkpt><trkpt lat="45.8023499" lon="13.6624495"><ele>156.83333333333331</ele><time>2026-05-02T10:54:30.263Z</time></trkpt><trkpt lat="45.8022878" lon="13.6625962"><ele>158.0</ele><time>2026-05-02T10:55:30.263Z</time></trkpt><trkpt lat="45.8022467" lon="13.662665"><ele>158.0</ele><time>2026-05-02T10:55:31.263Z</time></trkpt><trkpt lat="45.8021889" lon="13.6627528"><ele>158.0</ele><time>2026-05-02T10:55:33.263Z</time></trkpt><trkpt lat="45.8021489" lon="13.6629035"><ele>158.0</ele><time>2026-05-02T10:56:32.263Z</time></trkpt><trkpt lat="45.8021258" lon="13.6630166"><ele>158.0</ele><time>2026-05-02T10:56:33.263Z</time></trkpt><trkpt lat="45.8021091" lon="13.66311"><ele>158.0</ele><time>2026-05-02T10:56:34.263Z</time></trkpt><trkpt lat="45.8020808" lon="13.663271"><ele>158.0</ele><time>2026-05-02T10:56:36.263Z</time></trkpt><trkpt lat="45.8020582" lon="13.6634372"><ele>158.0</ele><time>2026-05-02T10:56:38.263Z</time></trkpt><trkpt lat="45.8020474" lon="13.6635268"><ele>158.0</ele><time>2026-05-02T10:56:39.263Z</time></trkpt><trkpt lat="45.8020331" lon="13.6636181"><ele>158.0</ele><time>2026-05-02T10:56:40.264Z</time></trkpt><trkpt lat="45.8020148" lon="13.6637082"><ele>158.0</ele><time>2026-05-02T10:56:41.263Z</time></trkpt><trkpt lat="45.8019973" lon="13.6637992"><ele>158.0</ele><time>2026-05-02T10:56:42.263Z</time></trkpt><trkpt lat="45.801971" lon="13.6639531"><ele>158.0</ele><time>2026-05-02T10:56:44.263Z</time></trkpt><trkpt lat="45.8019637" lon="13.6640962"><ele>158.0</ele><time>2026-05-02T10:56:46.263Z</time></trkpt><trkpt lat="45.8019752" lon="13.6642371"><ele>158.0</ele><time>2026-05-02T10:56:48.263Z</time></trkpt><trkpt lat="45.8020097" lon="13.6643554"><ele>158.0</ele><time>2026-05-02T10:56:50.264Z</time></trkpt><trkpt lat="45.8020353" lon="13.6644726"><ele>158.0</ele><time>2026-05-02T10:56:52.263Z</time></trkpt><trkpt lat="45.8020526" lon="13.6646141"><ele>157.5</ele><time>2026-05-02T10:56:54.264Z</time></trkpt><trkpt lat="45.8020568" lon="13.6647702"><ele>157.0</ele><time>2026-05-02T10:56:56.263Z</time></trkpt><trkpt lat="45.8020678" lon="13.6649416"><ele>156.5</ele><time>2026-05-02T10:56:58.263Z</time></trkpt><trkpt lat="45.8020718" lon="13.6651137"><ele>156.0</ele><time>2026-05-02T10:57:00.263Z</time></trkpt><trkpt lat="45.8020646" lon="13.665262"><ele>155.8</ele><time>2026-05-02T10:57:02.264Z</time></trkpt><trkpt lat="45.8020722" lon="13.6654034"><ele>155.6</ele><time>2026-05-02T10:57:04.263Z</time></trkpt><trkpt lat="45.8020754" lon="13.6655547"><ele>155.4</ele><time>2026-05-02T10:57:06.264Z</time></trkpt><trkpt lat="45.8020717" lon="13.6656984"><ele>155.2</ele><time>2026-05-02T10:57:08.263Z</time></trkpt><trkpt lat="45.8020676" lon="13.6658446"><ele>155.0</ele><time>2026-05-02T10:57:10.263Z</time></trkpt><trkpt lat="45.8020546" lon="13.6659962"><ele>154.5</ele><time>2026-05-02T10:57:12.264Z</time></trkpt><trkpt lat="45.8020382" lon="13.666168"><ele>154.0</ele><time>2026-05-02T10:57:14.263Z</time></trkpt><trkpt lat="45.8020365" lon="13.6663339"><ele>153.5</ele><time>2026-05-02T10:57:16.264Z</time></trkpt><trkpt lat="45.8020387" lon="13.6665088"><ele>153.0</ele><time>2026-05-02T10:57:18.263Z</time></trkpt><trkpt lat="45.8020503" lon="13.6666809"><ele>153.0</ele><time>2026-05-02T10:57:20.263Z</time></trkpt><trkpt lat="45.8020528" lon="13.6668594"><ele>153.0</ele><time>2026-05-02T10:57:22.263Z</time></trkpt><trkpt lat="45.8020583" lon="13.6670251"><ele>153.0</ele><time>2026-05-02T10:57:24.263Z</time></trkpt><trkpt lat="45.8020684" lon="13.6671994"><ele>153.0</ele><time>2026-05-02T10:57:26.264Z</time></trkpt><trkpt lat="45.8020683" lon="13.6673729"><ele>152.4</ele><time>2026-05-02T10:57:28.263Z</time></trkpt><trkpt lat="45.8020487" lon="13.6675412"><ele>151.8</ele><time>2026-05-02T10:57:30.263Z</time></trkpt><trkpt lat="45.802043" lon="13.6677117"><ele>151.2</ele><time>2026-05-02T10:57:32.263Z</time></trkpt><trkpt lat="45.8020252" lon="13.6678446"><ele>150.6</ele><time>2026-05-02T10:57:34.263Z</time></trkpt><trkpt lat="45.8019857" lon="13.667917"><ele>150.0</ele><time>2026-05-02T10:57:36.263Z</time></trkpt><trkpt lat="45.8019625" lon="13.6680448"><ele>149.5</ele><time>2026-05-02T10:57:38.263Z</time></trkpt><trkpt lat="45.8019465" lon="13.6681778"><ele>149.0</ele><time>2026-05-02T10:57:40.263Z</time></trkpt><trkpt lat="45.8019056" lon="13.6683133"><ele>148.5</ele><time>2026-05-02T10:57:43.263Z</time></trkpt><trkpt lat="45.8018812" lon="13.6684121"><ele>148.0</ele><time>2026-05-02T10:57:46.263Z</time></trkpt><trkpt lat="45.8019125" lon="13.6685126"><ele>147.5</ele><time>2026-05-02T10:58:34.263Z</time></trkpt><trkpt lat="45.8018695" lon="13.6686114"><ele>147.0</ele><time>2026-05-02T10:58:36.263Z</time></trkpt><trkpt lat="45.8017886" lon="13.6686874"><ele>149.0</ele><time>2026-05-02T10:58:38.263Z</time></trkpt><trkpt lat="45.8016974" lon="13.6687532"><ele>151.0</ele><time>2026-05-02T10:58:40.263Z</time></trkpt><trkpt lat="45.8016312" lon="13.668789"><ele>153.0</ele><time>2026-05-02T10:58:41.263Z</time></trkpt><trkpt lat="45.8015659" lon="13.6688122"><ele>155.0</ele><time>2026-05-02T10:58:42.263Z</time></trkpt><trkpt lat="45.8014618" lon="13.6688516"><ele>157.0</ele><time>2026-05-02T10:58:44.263Z</time></trkpt><trkpt lat="45.8013545" lon="13.668888"><ele>157.0</ele><time>2026-05-02T10:58:46.263Z</time></trkpt><trkpt lat="45.8012566" lon="13.6689373"><ele>157.0</ele><time>2026-05-02T10:58:48.263Z</time></trkpt><trkpt lat="45.801167" lon="13.6689881"><ele>157.0</ele><time>2026-05-02T10:58:50.263Z</time></trkpt><trkpt lat="45.8010719" lon="13.669045"><ele>157.0</ele><time>2026-05-02T10:58:52.264Z</time></trkpt><trkpt lat="45.8009839" lon="13.6691205"><ele>157.0</ele><time>2026-05-02T10:58:54.264Z</time></trkpt><trkpt lat="45.8008991" lon="13.6691768"><ele>157.6</ele><time>2026-05-02T10:58:56.263Z</time></trkpt><trkpt lat="45.8008363" lon="13.6692281"><ele>158.2</ele><time>2026-05-02T10:58:58.263Z</time></trkpt><trkpt lat="45.8007385" lon="13.6692513"><ele>158.8</ele><time>2026-05-02T10:59:00.263Z</time></trkpt><trkpt lat="45.8006382" lon="13.6692388"><ele>159.4</ele><time>2026-05-02T10:59:02.263Z</time></trkpt><trkpt lat="45.8005375" lon="13.6692218"><ele>160.0</ele><time>2026-05-02T10:59:04.263Z</time></trkpt><trkpt lat="45.8004236" lon="13.66923"><ele>160.0</ele><time>2026-05-02T10:59:06.263Z</time></trkpt><trkpt lat="45.8003103" lon="13.6692638"><ele>160.0</ele><time>2026-05-02T10:59:08.263Z</time></trkpt><trkpt lat="45.8002038" lon="13.669284"><ele>160.0</ele><time>2026-05-02T10:59:10.263Z</time></trkpt><trkpt lat="45.8000997" lon="13.6693052"><ele>160.0</ele><time>2026-05-02T10:59:12.263Z</time></trkpt><trkpt lat="45.7999918" lon="13.6693244"><ele>160.0</ele><time>2026-05-02T10:59:14.263Z</time></trkpt><trkpt lat="45.7999086" lon="13.6693373"><ele>160.6</ele><time>2026-05-02T10:59:16.264Z</time></trkpt><trkpt lat="45.799819" lon="13.6693377"><ele>161.2</ele><time>2026-05-02T10:59:18.263Z</time></trkpt><trkpt lat="45.7997156" lon="13.6693948"><ele>161.8</ele><time>2026-05-02T10:59:20.263Z</time></trkpt><trkpt lat="45.7996218" lon="13.6694787"><ele>162.4</ele><time>2026-05-02T10:59:22.264Z</time></trkpt><trkpt lat="45.7995349" lon="13.6695737"><ele>163.0</ele><time>2026-05-02T10:59:24.263Z</time></trkpt><trkpt lat="45.7994541" lon="13.6696666"><ele>163.0</ele><time>2026-05-02T10:59:26.263Z</time></trkpt><trkpt lat="45.799369" lon="13.6697375"><ele>163.0</ele><time>2026-05-02T10:59:28.263Z</time></trkpt><trkpt lat="45.7992991" lon="13.6698327"><ele>163.0</ele><time>2026-05-02T10:59:30.263Z</time></trkpt><trkpt lat="45.7992224" lon="13.6699375"><ele>163.0</ele><time>2026-05-02T10:59:32.264Z</time></trkpt><trkpt lat="45.7991456" lon="13.6700385"><ele>163.0</ele><time>2026-05-02T10:59:34.264Z</time></trkpt><trkpt lat="45.799078" lon="13.6701255"><ele>165.60000000000002</ele><time>2026-05-02T10:59:36.263Z</time></trkpt><trkpt lat="45.7989901" lon="13.6701928"><ele>168.20000000000002</ele><time>2026-05-02T10:59:38.263Z</time></trkpt><trkpt lat="45.7989014" lon="13.6702495"><ele>170.8</ele><time>2026-05-02T10:59:40.263Z</time></trkpt><trkpt lat="45.7988327" lon="13.6702977"><ele>173.4</ele><time>2026-05-02T10:59:42.263Z</time></trkpt><trkpt lat="45.7986768" lon="13.6703881"><ele>176.0</ele><time>2026-05-02T11:00:24.263Z</time></trkpt><trkpt lat="45.7985941" lon="13.6704355"><ele>176.0</ele><time>2026-05-02T11:00:25.264Z</time></trkpt><trkpt lat="45.7985258" lon="13.6704753"><ele>176.0</ele><time>2026-05-02T11:00:26.263Z</time></trkpt><trkpt lat="45.7984137" lon="13.6705335"><ele>176.0</ele><time>2026-05-02T11:00:28.264Z</time></trkpt><trkpt lat="45.7983072" lon="13.6705867"><ele>176.0</ele><time>2026-05-02T11:00:30.263Z</time></trkpt><trkpt lat="45.7982055" lon="13.6706485"><ele>176.0</ele><time>2026-05-02T11:00:32.263Z</time></trkpt><trkpt lat="45.798104" lon="13.670706"><ele>176.20000000000002</ele><time>2026-05-02T11:00:34.263Z</time></trkpt><trkpt lat="45.7979954" lon="13.6707737"><ele>176.4</ele><time>2026-05-02T11:00:36.263Z</time></trkpt><trkpt lat="45.7978975" lon="13.6708307"><ele>176.6</ele><time>2026-05-02T11:00:38.263Z</time></trkpt><trkpt lat="45.7978291" lon="13.6708588"><ele>176.8</ele><time>2026-05-02T11:00:40.263Z</time></trkpt><trkpt lat="45.7977426" lon="13.6708889"><ele>177.0</ele><time>2026-05-02T11:00:42.263Z</time></trkpt><trkpt lat="45.7976762" lon="13.6709463"><ele>178.8</ele><time>2026-05-02T11:00:44.263Z</time></trkpt><trkpt lat="45.7976394" lon="13.6710487"><ele>180.6</ele><time>2026-05-02T11:00:47.264Z</time></trkpt><trkpt lat="45.7975983" lon="13.6711906"><ele>182.4</ele><time>2026-05-02T11:00:50.263Z</time></trkpt><trkpt lat="45.7975277" lon="13.6712949"><ele>184.20000000000002</ele><time>2026-05-02T11:00:52.264Z</time></trkpt><trkpt lat="45.7974798" lon="13.6713643"><ele>186.0</ele><time>2026-05-02T11:00:53.263Z</time></trkpt><trkpt lat="45.7974158" lon="13.6714694"><ele>186.0</ele><time>2026-05-02T11:00:55.263Z</time></trkpt><trkpt lat="45.7973848" lon="13.6715595"><ele>186.0</ele><time>2026-05-02T11:00:57.263Z</time></trkpt><trkpt lat="45.7973459" lon="13.671645"><ele>186.0</ele><time>2026-05-02T11:00:59.263Z</time></trkpt><trkpt lat="45.7973041" lon="13.6717243"><ele>186.0</ele><time>2026-05-02T11:01:01.263Z</time></trkpt><trkpt lat="45.797254" lon="13.6718296"><ele>186.0</ele><time>2026-05-02T11:01:04.263Z</time></trkpt><trkpt lat="45.7971944" lon="13.6719237"><ele>186.0</ele><time>2026-05-02T11:01:06.264Z</time></trkpt><trkpt lat="45.7971156" lon="13.6720319"><ele>186.60000000000002</ele><time>2026-05-02T11:01:08.263Z</time></trkpt><trkpt lat="45.7970252" lon="13.672118"><ele>187.2</ele><time>2026-05-02T11:01:10.263Z</time></trkpt><trkpt lat="45.7969392" lon="13.6721364"><ele>187.8</ele><time>2026-05-02T11:01:12.263Z</time></trkpt><trkpt lat="45.7968551" lon="13.6720688"><ele>188.39999999999998</ele><time>2026-05-02T11:01:14.264Z</time></trkpt><trkpt lat="45.7967766" lon="13.6719687"><ele>189.0</ele><time>2026-05-02T11:01:16.263Z</time></trkpt><trkpt lat="45.7967001" lon="13.671909"><ele>190.0</ele><time>2026-05-02T11:01:18.263Z</time></trkpt><trkpt lat="45.7966322" lon="13.6719228"><ele>191.0</ele><time>2026-05-02T11:01:20.263Z</time></trkpt><trkpt lat="45.7965337" lon="13.6719367"><ele>192.0</ele><time>2026-05-02T11:01:22.264Z</time></trkpt><trkpt lat="45.7964355" lon="13.671965"><ele>193.0</ele><time>2026-05-02T11:01:24.263Z</time></trkpt><trkpt lat="45.7963437" lon="13.6720464"><ele>194.0</ele><time>2026-05-02T11:01:26.263Z</time></trkpt><trkpt lat="45.7962509" lon="13.6721354"><ele>194.00000000000003</ele><time>2026-05-02T11:01:28.263Z</time></trkpt><trkpt lat="45.7961753" lon="13.6722065"><ele>194.0</ele><time>2026-05-02T11:01:30.263Z</time></trkpt><trkpt lat="45.7961053" lon="13.6722917"><ele>194.0</ele><time>2026-05-02T11:01:32.263Z</time></trkpt><trkpt lat="45.7960557" lon="13.6723891"><ele>194.0</ele><time>2026-05-02T11:01:34.264Z</time></trkpt><trkpt lat="45.7960174" lon="13.6724832"><ele>194.00000000000003</ele><time>2026-05-02T11:01:36.263Z</time></trkpt><trkpt lat="45.7959817" lon="13.6725884"><ele>194.0</ele><time>2026-05-02T11:01:39.263Z</time></trkpt><trkpt lat="45.7959587" lon="13.6726929"><ele>194.39999999999998</ele><time>2026-05-02T11:01:42.264Z</time></trkpt><trkpt lat="45.7959428" lon="13.6727994"><ele>194.8</ele><time>2026-05-02T11:01:44.263Z</time></trkpt><trkpt lat="45.7959566" lon="13.6729183"><ele>195.2</ele><time>2026-05-02T11:01:46.193Z</time></trkpt><trkpt lat="45.7960106" lon="13.6730271"><ele>195.60000000000002</ele><time>2026-05-02T11:01:48.264Z</time></trkpt><trkpt lat="45.7960433" lon="13.6731527"><ele>196.0</ele><time>2026-05-02T11:01:50.263Z</time></trkpt><trkpt lat="45.7960869" lon="13.6732915"><ele>196.0</ele><time>2026-05-02T11:01:52.263Z</time></trkpt><trkpt lat="45.796115" lon="13.6734401"><ele>196.0</ele><time>2026-05-02T11:01:54.263Z</time></trkpt><trkpt lat="45.7961118" lon="13.6735979"><ele>196.0</ele><time>2026-05-02T11:01:56.263Z</time></trkpt><trkpt lat="45.7960904" lon="13.6737527"><ele>196.0</ele><time>2026-05-02T11:01:58.264Z</time></trkpt><trkpt lat="45.7960674" lon="13.6739078"><ele>196.0</ele><time>2026-05-02T11:02:00.263Z</time></trkpt><trkpt lat="45.7960428" lon="13.6740746"><ele>197.33333333333331</ele><time>2026-05-02T11:02:02.263Z</time></trkpt><trkpt lat="45.7960294" lon="13.6742312"><ele>198.66666666666666</ele><time>2026-05-02T11:02:04.263Z</time></trkpt><trkpt lat="45.7960084" lon="13.6743609"><ele>200.0</ele><time>2026-05-02T11:02:06.263Z</time></trkpt><trkpt lat="45.7959883" lon="13.6744748"><ele>201.33333333333331</ele><time>2026-05-02T11:02:08.263Z</time></trkpt><trkpt lat="45.7959894" lon="13.6745918"><ele>202.66666666666666</ele><time>2026-05-02T11:02:11.263Z</time></trkpt><trkpt lat="45.796015" lon="13.6746765"><ele>204.0</ele><time>2026-05-02T11:02:18.263Z</time></trkpt><trkpt lat="45.7960823" lon="13.6747314"><ele>204.33333333333334</ele><time>2026-05-02T11:02:21.263Z</time></trkpt><trkpt lat="45.7960036" lon="13.6746875"><ele>204.66666666666669</ele><time>2026-05-02T11:02:41.263Z</time></trkpt><trkpt lat="45.795934" lon="13.6746795"><ele>205.0</ele><time>2026-05-02T11:02:43.263Z</time></trkpt><trkpt lat="45.7958545" lon="13.6747033"><ele>205.33333333333334</ele><time>2026-05-02T11:02:45.263Z</time></trkpt><trkpt lat="45.7957766" lon="13.6747091"><ele>205.66666666666669</ele><time>2026-05-02T11:02:47.263Z</time></trkpt><trkpt lat="45.7957037" lon="13.6747256"><ele>206.0</ele><time>2026-05-02T11:02:49.223Z</time></trkpt><trkpt lat="45.7956364" lon="13.6747489"><ele>206.16666666666669</ele><time>2026-05-02T11:02:51.263Z</time></trkpt><trkpt lat="45.7955676" lon="13.6747831"><ele>206.33333333333334</ele><time>2026-05-02T11:02:53.263Z</time></trkpt><trkpt lat="45.7955018" lon="13.6748441"><ele>206.5</ele><time>2026-05-02T11:02:55.263Z</time></trkpt><trkpt lat="45.7954431" lon="13.6749298"><ele>206.66666666666669</ele><time>2026-05-02T11:02:57.263Z</time></trkpt><trkpt lat="45.7953921" lon="13.6750246"><ele>206.83333333333334</ele><time>2026-05-02T11:02:59.264Z</time></trkpt><trkpt lat="45.7953296" lon="13.6750985"><ele>207.0</ele><time>2026-05-02T11:03:01.263Z</time></trkpt><trkpt lat="45.7952618" lon="13.6751403"><ele>207.0</ele><time>2026-05-02T11:03:03.183Z</time></trkpt><trkpt lat="45.7951869" lon="13.6751543"><ele>207.0</ele><time>2026-05-02T11:03:05.208Z</time></trkpt><trkpt lat="45.7951104" lon="13.6751955"><ele>207.0</ele><time>2026-05-02T11:03:07.165Z</time></trkpt><trkpt lat="45.7950447" lon="13.6752656"><ele>207.0</ele><time>2026-05-02T11:03:09.18Z</time></trkpt><trkpt lat="45.7949875" lon="13.6753425"><ele>207.0</ele><time>2026-05-02T11:03:11.263Z</time></trkpt><trkpt lat="45.7949841" lon="13.6754576"><ele>207.0</ele><time>2026-05-02T11:03:13.263Z</time></trkpt><trkpt lat="45.7950203" lon="13.6755818"><ele>205.33333333333334</ele><time>2026-05-02T11:03:15.263Z</time></trkpt><trkpt lat="45.7950338" lon="13.6757186"><ele>203.66666666666669</ele><time>2026-05-02T11:03:17.263Z</time></trkpt><trkpt lat="45.7950419" lon="13.675838"><ele>202.0</ele><time>2026-05-02T11:03:19.263Z</time></trkpt><trkpt lat="45.7950669" lon="13.6759393"><ele>200.33333333333334</ele><time>2026-05-02T11:03:21.263Z</time></trkpt><trkpt lat="45.7951277" lon="13.6760397"><ele>198.66666666666669</ele><time>2026-05-02T11:03:23.263Z</time></trkpt><trkpt lat="45.7952142" lon="13.6761169"><ele>197.0</ele><time>2026-05-02T11:03:25.263Z</time></trkpt><trkpt lat="45.7952838" lon="13.6761901"><ele>196.8</ele><time>2026-05-02T11:03:27.263Z</time></trkpt><trkpt lat="45.7953317" lon="13.6763082"><ele>196.6</ele><time>2026-05-02T11:03:29.263Z</time></trkpt><trkpt lat="45.7953435" lon="13.6764416"><ele>196.4</ele><time>2026-05-02T11:03:31.263Z</time></trkpt><trkpt lat="45.7953232" lon="13.6766025"><ele>196.20000000000002</ele><time>2026-05-02T11:03:33.263Z</time></trkpt><trkpt lat="45.795295" lon="13.6767653"><ele>196.0</ele><time>2026-05-02T11:03:35.263Z</time></trkpt><trkpt lat="45.7952696" lon="13.676915"><ele>195.4</ele><time>2026-05-02T11:03:37.263Z</time></trkpt><trkpt lat="45.7952569" lon="13.6770728"><ele>194.8</ele><time>2026-05-02T11:03:39.263Z</time></trkpt><trkpt lat="45.7952249" lon="13.6771953"><ele>194.20000000000002</ele><time>2026-05-02T11:03:41.263Z</time></trkpt><trkpt lat="45.7951331" lon="13.6772995"><ele>193.60000000000002</ele><time>2026-05-02T11:03:43.263Z</time></trkpt><trkpt lat="45.7950782" lon="13.6773469"><ele>193.0</ele><time>2026-05-02T11:03:44.263Z</time></trkpt><trkpt lat="45.7950262" lon="13.6774062"><ele>193.0</ele><time>2026-05-02T11:03:45.263Z</time></trkpt><trkpt lat="45.7949327" lon="13.6775119"><ele>193.0</ele><time>2026-05-02T11:03:47.263Z</time></trkpt><trkpt lat="45.7948609" lon="13.6776119"><ele>193.0</ele><time>2026-05-02T11:03:49.264Z</time></trkpt><trkpt lat="45.7948193" lon="13.6777333"><ele>193.0</ele><time>2026-05-02T11:03:51.263Z</time></trkpt><trkpt lat="45.7947927" lon="13.6778733"><ele>193.0</ele><time>2026-05-02T11:03:53.263Z</time></trkpt><trkpt lat="45.7947797" lon="13.6780279"><ele>193.0</ele><time>2026-05-02T11:03:55.263Z</time></trkpt><trkpt lat="45.794812" lon="13.6781745"><ele>193.0</ele><time>2026-05-02T11:03:57.264Z</time></trkpt><trkpt lat="45.7948675" lon="13.6783339"><ele>193.0</ele><time>2026-05-02T11:03:59.263Z</time></trkpt><trkpt lat="45.7949134" lon="13.6784764"><ele>193.0</ele><time>2026-05-02T11:04:01.263Z</time></trkpt><trkpt lat="45.7949477" lon="13.6785965"><ele>193.0</ele><time>2026-05-02T11:04:03.263Z</time></trkpt><trkpt lat="45.7949234" lon="13.6787195"><ele>193.4</ele><time>2026-05-02T11:04:05.263Z</time></trkpt><trkpt lat="45.7948461" lon="13.6788719"><ele>193.8</ele><time>2026-05-02T11:04:07.263Z</time></trkpt><trkpt lat="45.7948041" lon="13.6789558"><ele>194.2</ele><time>2026-05-02T11:04:08.263Z</time></trkpt><trkpt lat="45.7947391" lon="13.6790879"><ele>194.6</ele><time>2026-05-02T11:04:10.263Z</time></trkpt><trkpt lat="45.7946644" lon="13.6791761"><ele>195.0</ele><time>2026-05-02T11:04:12.263Z</time></trkpt><trkpt lat="45.7945671" lon="13.6792138"><ele>195.0</ele><time>2026-05-02T11:04:14.263Z</time></trkpt><trkpt lat="45.7944613" lon="13.6792831"><ele>195.0</ele><time>2026-05-02T11:04:16.263Z</time></trkpt><trkpt lat="45.7943804" lon="13.6793938"><ele>195.0</ele><time>2026-05-02T11:04:18.263Z</time></trkpt><trkpt lat="45.7943288" lon="13.6794726"><ele>195.0</ele><time>2026-05-02T11:04:20.263Z</time></trkpt><trkpt lat="45.7943567" lon="13.6795655"><ele>195.0</ele><time>2026-05-02T11:04:36.263Z</time></trkpt><trkpt lat="45.7943155" lon="13.6794716"><ele>194.8</ele><time>2026-05-02T11:05:19.223Z</time></trkpt><trkpt lat="45.7942644" lon="13.6793968"><ele>194.6</ele><time>2026-05-02T11:05:20.263Z</time></trkpt><trkpt lat="45.7942098" lon="13.6793059"><ele>194.39999999999998</ele><time>2026-05-02T11:05:21.263Z</time></trkpt><trkpt lat="45.7941394" lon="13.6791924"><ele>194.2</ele><time>2026-05-02T11:05:23.263Z</time></trkpt><trkpt lat="45.794069" lon="13.679094"><ele>194.0</ele><time>2026-05-02T11:05:25.263Z</time></trkpt><trkpt lat="45.7939861" lon="13.6789906"><ele>194.0</ele><time>2026-05-02T11:05:27.263Z</time></trkpt><trkpt lat="45.7939046" lon="13.6788645"><ele>194.0</ele><time>2026-05-02T11:05:29.263Z</time></trkpt><trkpt lat="45.79383" lon="13.678723"><ele>194.0</ele><time>2026-05-02T11:05:31.263Z</time></trkpt><trkpt lat="45.7937529" lon="13.6785813"><ele>194.0</ele><time>2026-05-02T11:05:33.263Z</time></trkpt><trkpt lat="45.7936778" lon="13.6784366"><ele>194.0</ele><time>2026-05-02T11:05:35.263Z</time></trkpt><trkpt lat="45.7936397" lon="13.6783628"><ele>194.0</ele><time>2026-05-02T11:05:36.263Z</time></trkpt><trkpt lat="45.7935704" lon="13.678215"><ele>194.0</ele><time>2026-05-02T11:05:38.263Z</time></trkpt><trkpt lat="45.7934998" lon="13.6780809"><ele>194.0</ele><time>2026-05-02T11:05:40.263Z</time></trkpt><trkpt lat="45.7934243" lon="13.6779393"><ele>194.0</ele><time>2026-05-02T11:05:42.264Z</time></trkpt><trkpt lat="45.7933641" lon="13.6777948"><ele>193.50000000000003</ele><time>2026-05-02T11:05:44.263Z</time></trkpt><trkpt lat="45.7932969" lon="13.6776479"><ele>193.0</ele><time>2026-05-02T11:05:46.263Z</time></trkpt><trkpt lat="45.7932517" lon="13.677572"><ele>192.5</ele><time>2026-05-02T11:05:47.263Z</time></trkpt><trkpt lat="45.7932048" lon="13.6774986"><ele>192.0</ele><time>2026-05-02T11:05:48.263Z</time></trkpt><trkpt lat="45.7931591" lon="13.6774219"><ele>191.5</ele><time>2026-05-02T11:05:49.263Z</time></trkpt><trkpt lat="45.7931157" lon="13.677343"><ele>191.0</ele><time>2026-05-02T11:05:50.263Z</time></trkpt><trkpt lat="45.7930697" lon="13.6772582"><ele>191.0</ele><time>2026-05-02T11:05:51.263Z</time></trkpt><trkpt lat="45.7930209" lon="13.6771676"><ele>191.0</ele><time>2026-05-02T11:05:52.264Z</time></trkpt><trkpt lat="45.7929752" lon="13.6770733"><ele>191.0</ele><time>2026-05-02T11:05:53.263Z</time></trkpt><trkpt lat="45.7929278" lon="13.6769873"><ele>191.0</ele><time>2026-05-02T11:05:54.263Z</time></trkpt><trkpt lat="45.7928795" lon="13.676899"><ele>191.0</ele><time>2026-05-02T11:05:55.263Z</time></trkpt><trkpt lat="45.792833" lon="13.6767944"><ele>191.0</ele><time>2026-05-02T11:05:56.263Z</time></trkpt><trkpt lat="45.7927962" lon="13.6766859"><ele>190.85714285714286</ele><time>2026-05-02T11:05:57.264Z</time></trkpt><trkpt lat="45.7927685" lon="13.6765835"><ele>190.7142857142857</ele><time>2026-05-02T11:05:58.264Z</time></trkpt><trkpt lat="45.792747" lon="13.6764867"><ele>190.57142857142856</ele><time>2026-05-02T11:05:59.263Z</time></trkpt><trkpt lat="45.7927272" lon="13.6763823"><ele>190.42857142857144</ele><time>2026-05-02T11:06:00.263Z</time></trkpt><trkpt lat="45.7927085" lon="13.676282"><ele>190.28571428571428</ele><time>2026-05-02T11:06:01.263Z</time></trkpt><trkpt lat="45.7926855" lon="13.6761931"><ele>190.14285714285714</ele><time>2026-05-02T11:06:02.263Z</time></trkpt><trkpt lat="45.7926472" lon="13.6761082"><ele>190.0</ele><time>2026-05-02T11:06:03.264Z</time></trkpt><trkpt lat="45.7925929" lon="13.6760351"><ele>189.66666666666669</ele><time>2026-05-02T11:06:04.263Z</time></trkpt><trkpt lat="45.7925268" lon="13.6759602"><ele>189.33333333333334</ele><time>2026-05-02T11:06:05.264Z</time></trkpt><trkpt lat="45.7924598" lon="13.6758915"><ele>189.0</ele><time>2026-05-02T11:06:06.263Z</time></trkpt><trkpt lat="45.7923901" lon="13.6758409"><ele>188.66666666666666</ele><time>2026-05-02T11:06:07.263Z</time></trkpt><trkpt lat="45.7923216" lon="13.6758037"><ele>188.33333333333331</ele><time>2026-05-02T11:06:08.263Z</time></trkpt><trkpt lat="45.7922572" lon="13.6757727"><ele>188.0</ele><time>2026-05-02T11:06:09.263Z</time></trkpt><trkpt lat="45.7921875" lon="13.6757516"><ele>188.0</ele><time>2026-05-02T11:06:10.263Z</time></trkpt><trkpt lat="45.7921205" lon="13.6757394"><ele>188.0</ele><time>2026-05-02T11:06:11.263Z</time></trkpt><trkpt lat="45.7919941" lon="13.6757499"><ele>188.0</ele><time>2026-05-02T11:06:13.263Z</time></trkpt><trkpt lat="45.7919195" lon="13.6757745"><ele>188.0</ele><time>2026-05-02T11:06:14.263Z</time></trkpt><trkpt lat="45.7918488" lon="13.6758125"><ele>188.0</ele><time>2026-05-02T11:06:15.263Z</time></trkpt><trkpt lat="45.7917839" lon="13.6758533"><ele>188.0</ele><time>2026-05-02T11:06:16.263Z</time></trkpt><trkpt lat="45.7917173" lon="13.6758918"><ele>187.5</ele><time>2026-05-02T11:06:17.263Z</time></trkpt><trkpt lat="45.7916473" lon="13.6759182"><ele>187.0</ele><time>2026-05-02T11:06:18.264Z</time></trkpt><trkpt lat="45.7915822" lon="13.6759345"><ele>186.5</ele><time>2026-05-02T11:06:19.263Z</time></trkpt><trkpt lat="45.7914577" lon="13.6759426"><ele>186.0</ele><time>2026-05-02T11:06:21.263Z</time></trkpt><trkpt lat="45.7913946" lon="13.6759123"><ele>185.5</ele><time>2026-05-02T11:06:22.263Z</time></trkpt><trkpt lat="45.7913369" lon="13.6758663"><ele>185.0</ele><time>2026-05-02T11:06:23.263Z</time></trkpt><trkpt lat="45.7912327" lon="13.6757599"><ele>185.0</ele><time>2026-05-02T11:06:25.263Z</time></trkpt><trkpt lat="45.79118" lon="13.6756881"><ele>185.0</ele><time>2026-05-02T11:06:26.264Z</time></trkpt><trkpt lat="45.7911342" lon="13.6756163"><ele>185.0</ele><time>2026-05-02T11:06:27.263Z</time></trkpt><trkpt lat="45.7910842" lon="13.6755269"><ele>185.0</ele><time>2026-05-02T11:06:29.263Z</time></trkpt><trkpt lat="45.791032" lon="13.6754113"><ele>185.0</ele><time>2026-05-02T11:06:32.263Z</time></trkpt><trkpt lat="45.7909927" lon="13.6753219"><ele>185.0</ele><time>2026-05-02T11:06:34.263Z</time></trkpt><trkpt lat="45.7909277" lon="13.6752013"><ele>185.66666666666666</ele><time>2026-05-02T11:06:36.263Z</time></trkpt><trkpt lat="45.7908503" lon="13.6750887"><ele>186.33333333333331</ele><time>2026-05-02T11:06:38.263Z</time></trkpt><trkpt lat="45.790803" lon="13.6750266"><ele>187.0</ele><time>2026-05-02T11:06:39.263Z</time></trkpt><trkpt lat="45.7907228" lon="13.6748859"><ele>187.66666666666666</ele><time>2026-05-02T11:06:41.263Z</time></trkpt><trkpt lat="45.7906886" lon="13.6748042"><ele>188.33333333333334</ele><time>2026-05-02T11:06:42.263Z</time></trkpt><trkpt lat="45.7906591" lon="13.6747206"><ele>189.0</ele><time>2026-05-02T11:06:43.264Z</time></trkpt><trkpt lat="45.7906321" lon="13.6746377"><ele>189.0</ele><time>2026-05-02T11:06:44.263Z</time></trkpt><trkpt lat="45.7905751" lon="13.6744865"><ele>189.0</ele><time>2026-05-02T11:06:46.263Z</time></trkpt><trkpt lat="45.7905145" lon="13.6743625"><ele>189.0</ele><time>2026-05-02T11:06:48.263Z</time></trkpt><trkpt lat="45.7904414" lon="13.6742377"><ele>189.0</ele><time>2026-05-02T11:06:50.263Z</time></trkpt><trkpt lat="45.7903644" lon="13.6741396"><ele>189.0</ele><time>2026-05-02T11:06:52.263Z</time></trkpt><trkpt lat="45.7903036" lon="13.6740312"><ele>189.25</ele><time>2026-05-02T11:06:54.263Z</time></trkpt><trkpt lat="45.7902563" lon="13.6738996"><ele>189.5</ele><time>2026-05-02T11:06:56.263Z</time></trkpt><trkpt lat="45.7902137" lon="13.673746"><ele>189.75</ele><time>2026-05-02T11:06:58.263Z</time></trkpt><trkpt lat="45.7901641" lon="13.6735895"><ele>190.0</ele><time>2026-05-02T11:07:00.263Z</time></trkpt><trkpt lat="45.7901131" lon="13.6734454"><ele>188.85714285714286</ele><time>2026-05-02T11:07:02.263Z</time></trkpt><trkpt lat="45.7900908" lon="13.6733573"><ele>187.71428571428572</ele><time>2026-05-02T11:07:03.263Z</time></trkpt><trkpt lat="45.7900576" lon="13.673263"><ele>186.57142857142856</ele><time>2026-05-02T11:07:04.264Z</time></trkpt><trkpt lat="45.7900276" lon="13.6731681"><ele>185.42857142857144</ele><time>2026-05-02T11:07:05.264Z</time></trkpt><trkpt lat="45.7899975" lon="13.6730699"><ele>184.28571428571428</ele><time>2026-05-02T11:07:06.263Z</time></trkpt><trkpt lat="45.7899687" lon="13.6729696"><ele>183.14285714285714</ele><time>2026-05-02T11:07:07.263Z</time></trkpt><trkpt lat="45.7899376" lon="13.6728728"><ele>182.0</ele><time>2026-05-02T11:07:08.263Z</time></trkpt><trkpt lat="45.7899059" lon="13.6727797"><ele>181.8</ele><time>2026-05-02T11:07:09.264Z</time></trkpt><trkpt lat="45.7898818" lon="13.672688"><ele>181.6</ele><time>2026-05-02T11:07:10.263Z</time></trkpt><trkpt lat="45.7898609" lon="13.6726023"><ele>181.4</ele><time>2026-05-02T11:07:11.263Z</time></trkpt><trkpt lat="45.7898077" lon="13.6724586"><ele>181.20000000000002</ele><time>2026-05-02T11:07:13.263Z</time></trkpt><trkpt lat="45.7897423" lon="13.6723321"><ele>181.0</ele><time>2026-05-02T11:07:15.263Z</time></trkpt><trkpt lat="45.7896183" lon="13.6722825"><ele>181.0</ele><time>2026-05-02T11:07:17.263Z</time></trkpt><trkpt lat="45.7895376" lon="13.6722768"><ele>181.0</ele><time>2026-05-02T11:07:18.263Z</time></trkpt><trkpt lat="45.7894648" lon="13.6722735"><ele>181.0</ele><time>2026-05-02T11:07:19.263Z</time></trkpt><trkpt lat="45.7893967" lon="13.672252"><ele>181.0</ele><time>2026-05-02T11:07:20.263Z</time></trkpt><trkpt lat="45.789335" lon="13.6722225"><ele>181.0</ele><time>2026-05-02T11:07:21.263Z</time></trkpt><trkpt lat="45.7892428" lon="13.6721552"><ele>181.0</ele><time>2026-05-02T11:07:23.263Z</time></trkpt><trkpt lat="45.7891679" lon="13.6720668"><ele>181.60000000000002</ele><time>2026-05-02T11:07:25.263Z</time></trkpt><trkpt lat="45.7890961" lon="13.6719528"><ele>182.2</ele><time>2026-05-02T11:07:27.263Z</time></trkpt><trkpt lat="45.7890275" lon="13.6718105"><ele>182.8</ele><time>2026-05-02T11:07:29.263Z</time></trkpt><trkpt lat="45.7889702" lon="13.671656"><ele>183.39999999999998</ele><time>2026-05-02T11:07:31.263Z</time></trkpt><trkpt lat="45.7889485" lon="13.6715647"><ele>184.0</ele><time>2026-05-02T11:07:32.263Z</time></trkpt><trkpt lat="45.7889274" lon="13.6714651"><ele>184.0</ele><time>2026-05-02T11:07:33.263Z</time></trkpt><trkpt lat="45.788908" lon="13.6713546"><ele>184.0</ele><time>2026-05-02T11:07:34.263Z</time></trkpt><trkpt lat="45.7888887" lon="13.671241"><ele>184.0</ele><time>2026-05-02T11:07:35.263Z</time></trkpt><trkpt lat="45.7888697" lon="13.6711331"><ele>184.0</ele><time>2026-05-02T11:07:36.263Z</time></trkpt><trkpt lat="45.7888548" lon="13.6710299"><ele>184.0</ele><time>2026-05-02T11:07:37.263Z</time></trkpt><trkpt lat="45.7888403" lon="13.6709296"><ele>184.0</ele><time>2026-05-02T11:07:38.263Z</time></trkpt><trkpt lat="45.7888173" lon="13.6708215"><ele>183.85714285714286</ele><time>2026-05-02T11:07:39.263Z</time></trkpt><trkpt lat="45.7887887" lon="13.6707159"><ele>183.7142857142857</ele><time>2026-05-02T11:07:40.263Z</time></trkpt><trkpt lat="45.7887697" lon="13.670622"><ele>183.57142857142856</ele><time>2026-05-02T11:07:41.264Z</time></trkpt><trkpt lat="45.7887558" lon="13.670526"><ele>183.42857142857144</ele><time>2026-05-02T11:07:42.263Z</time></trkpt><trkpt lat="45.7887354" lon="13.6704228"><ele>183.28571428571428</ele><time>2026-05-02T11:07:43.264Z</time></trkpt><trkpt lat="45.7887113" lon="13.670321"><ele>183.14285714285714</ele><time>2026-05-02T11:07:44.263Z</time></trkpt><trkpt lat="45.7886887" lon="13.6702283"><ele>183.0</ele><time>2026-05-02T11:07:45.263Z</time></trkpt><trkpt lat="45.7886569" lon="13.6700659"><ele>183.5</ele><time>2026-05-02T11:07:47.263Z</time></trkpt><trkpt lat="45.7886073" lon="13.6699235"><ele>184.0</ele><time>2026-05-02T11:07:49.263Z</time></trkpt><trkpt lat="45.7885375" lon="13.669802"><ele>184.5</ele><time>2026-05-02T11:07:51.263Z</time></trkpt><trkpt lat="45.7884507" lon="13.6697113"><ele>185.0</ele><time>2026-05-02T11:07:53.263Z</time></trkpt><trkpt lat="45.7883238" lon="13.6696536"><ele>185.0</ele><time>2026-05-02T11:07:55.263Z</time></trkpt><trkpt lat="45.7882541" lon="13.669629"><ele>185.0</ele><time>2026-05-02T11:07:56.263Z</time></trkpt><trkpt lat="45.7881892" lon="13.6696041"><ele>185.0</ele><time>2026-05-02T11:07:57.263Z</time></trkpt><trkpt lat="45.7880693" lon="13.6695622"><ele>185.0</ele><time>2026-05-02T11:07:59.264Z</time></trkpt><trkpt lat="45.7880078" lon="13.6695395"><ele>185.0</ele><time>2026-05-02T11:08:00.263Z</time></trkpt><trkpt lat="45.7879079" lon="13.6694759"><ele>185.0</ele><time>2026-05-02T11:08:02.263Z</time></trkpt><trkpt lat="45.7878205" lon="13.6693348"><ele>185.16666666666666</ele><time>2026-05-02T11:08:04.264Z</time></trkpt><trkpt lat="45.7877749" lon="13.6692457"><ele>185.33333333333331</ele><time>2026-05-02T11:08:05.263Z</time></trkpt><trkpt lat="45.7877214" lon="13.6691508"><ele>185.5</ele><time>2026-05-02T11:08:06.263Z</time></trkpt><trkpt lat="45.7876629" lon="13.6690531"><ele>185.66666666666666</ele><time>2026-05-02T11:08:07.263Z</time></trkpt><trkpt lat="45.7876069" lon="13.6689588"><ele>185.83333333333334</ele><time>2026-05-02T11:08:08.263Z</time></trkpt><trkpt lat="45.7875522" lon="13.6688718"><ele>186.0</ele><time>2026-05-02T11:08:09.263Z</time></trkpt><trkpt lat="45.7874919" lon="13.6687814"><ele>185.66666666666666</ele><time>2026-05-02T11:08:10.263Z</time></trkpt><trkpt lat="45.7874345" lon="13.6686972"><ele>185.33333333333334</ele><time>2026-05-02T11:08:11.263Z</time></trkpt><trkpt lat="45.7873814" lon="13.6686114"><ele>185.0</ele><time>2026-05-02T11:08:12.263Z</time></trkpt><trkpt lat="45.7873373" lon="13.6685333"><ele>184.66666666666669</ele><time>2026-05-02T11:08:13.263Z</time></trkpt><trkpt lat="45.7873016" lon="13.6684586"><ele>184.33333333333334</ele><time>2026-05-02T11:08:14.263Z</time></trkpt><trkpt lat="45.7872578" lon="13.6683043"><ele>184.0</ele><time>2026-05-02T11:08:16.263Z</time></trkpt><trkpt lat="45.7872439" lon="13.6681289"><ele>183.83333333333334</ele><time>2026-05-02T11:08:18.263Z</time></trkpt><trkpt lat="45.7872551" lon="13.6679584"><ele>183.66666666666669</ele><time>2026-05-02T11:08:20.263Z</time></trkpt><trkpt lat="45.7872725" lon="13.66787"><ele>183.5</ele><time>2026-05-02T11:08:21.263Z</time></trkpt><trkpt lat="45.7872914" lon="13.6677752"><ele>183.33333333333334</ele><time>2026-05-02T11:08:22.263Z</time></trkpt><trkpt lat="45.7873088" lon="13.6676752"><ele>183.16666666666666</ele><time>2026-05-02T11:08:23.263Z</time></trkpt><trkpt lat="45.7873352" lon="13.6675734"><ele>183.0</ele><time>2026-05-02T11:08:24.263Z</time></trkpt><trkpt lat="45.7873555" lon="13.667471"><ele>182.66666666666666</ele><time>2026-05-02T11:08:25.263Z</time></trkpt><trkpt lat="45.78738" lon="13.6673592"><ele>182.33333333333334</ele><time>2026-05-02T11:08:26.263Z</time></trkpt><trkpt lat="45.7874108" lon="13.6672406"><ele>182.0</ele><time>2026-05-02T11:08:27.263Z</time></trkpt><trkpt lat="45.7874347" lon="13.6671283"><ele>181.66666666666669</ele><time>2026-05-02T11:08:28.263Z</time></trkpt><trkpt lat="45.7874556" lon="13.6670258"><ele>181.33333333333334</ele><time>2026-05-02T11:08:29.263Z</time></trkpt><trkpt lat="45.7874776" lon="13.6669351"><ele>181.0</ele><time>2026-05-02T11:08:30.263Z</time></trkpt><trkpt lat="45.7874743" lon="13.6667493"><ele>181.0</ele><time>2026-05-02T11:08:32.264Z</time></trkpt><trkpt lat="45.7874536" lon="13.6666512"><ele>181.0</ele><time>2026-05-02T11:08:33.263Z</time></trkpt><trkpt lat="45.787424" lon="13.6665548"><ele>181.0</ele><time>2026-05-02T11:08:34.263Z</time></trkpt><trkpt lat="45.7873917" lon="13.6664578"><ele>181.0</ele><time>2026-05-02T11:08:35.263Z</time></trkpt><trkpt lat="45.7873563" lon="13.6663775"><ele>181.0</ele><time>2026-05-02T11:08:36.263Z</time></trkpt><trkpt lat="45.7873248" lon="13.6662897"><ele>181.0</ele><time>2026-05-02T11:08:37.263Z</time></trkpt><trkpt lat="45.7872973" lon="13.6662043"><ele>181.0</ele><time>2026-05-02T11:08:38.263Z</time></trkpt><trkpt lat="45.7872575" lon="13.6661235"><ele>181.16666666666669</ele><time>2026-05-02T11:08:39.263Z</time></trkpt><trkpt lat="45.7872169" lon="13.6660468"><ele>181.33333333333334</ele><time>2026-05-02T11:08:40.263Z</time></trkpt><trkpt lat="45.7871726" lon="13.6659682"><ele>181.5</ele><time>2026-05-02T11:08:41.263Z</time></trkpt><trkpt lat="45.7871258" lon="13.6658912"><ele>181.66666666666666</ele><time>2026-05-02T11:08:42.263Z</time></trkpt><trkpt lat="45.7870758" lon="13.6658212"><ele>181.83333333333331</ele><time>2026-05-02T11:08:43.263Z</time></trkpt><trkpt lat="45.7869827" lon="13.6657091"><ele>182.0</ele><time>2026-05-02T11:08:45.263Z</time></trkpt><trkpt lat="45.7869334" lon="13.6656526"><ele>182.16666666666666</ele><time>2026-05-02T11:08:46.264Z</time></trkpt><trkpt lat="45.7868416" lon="13.6655633"><ele>182.33333333333331</ele><time>2026-05-02T11:08:48.264Z</time></trkpt><trkpt lat="45.7867501" lon="13.6654774"><ele>182.5</ele><time>2026-05-02T11:08:50.263Z</time></trkpt><trkpt lat="45.7866937" lon="13.6654154"><ele>182.66666666666666</ele><time>2026-05-02T11:08:51.263Z</time></trkpt><trkpt lat="45.786639" lon="13.6653536"><ele>182.83333333333334</ele><time>2026-05-02T11:08:52.263Z</time></trkpt><trkpt lat="45.7865889" lon="13.6652954"><ele>183.0</ele><time>2026-05-02T11:08:53.263Z</time></trkpt><trkpt lat="45.7865381" lon="13.6652213"><ele>183.0</ele><time>2026-05-02T11:08:54.264Z</time></trkpt><trkpt lat="45.786484" lon="13.665143"><ele>183.0</ele><time>2026-05-02T11:08:55.263Z</time></trkpt><trkpt lat="45.7864331" lon="13.66506"><ele>183.0</ele><time>2026-05-02T11:08:56.263Z</time></trkpt><trkpt lat="45.7863811" lon="13.6649673"><ele>183.0</ele><time>2026-05-02T11:08:57.264Z</time></trkpt><trkpt lat="45.7863335" lon="13.6648658"><ele>183.0</ele><time>2026-05-02T11:08:58.263Z</time></trkpt><trkpt lat="45.7862931" lon="13.6647524"><ele>183.0</ele><time>2026-05-02T11:08:59.263Z</time></trkpt><trkpt lat="45.7862534" lon="13.6646337"><ele>183.0</ele><time>2026-05-02T11:09:00.263Z</time></trkpt><trkpt lat="45.7862143" lon="13.6645187"><ele>183.0</ele><time>2026-05-02T11:09:01.264Z</time></trkpt><trkpt lat="45.7861772" lon="13.6644103"><ele>183.0</ele><time>2026-05-02T11:09:02.263Z</time></trkpt><trkpt lat="45.7861451" lon="13.6642897"><ele>183.0</ele><time>2026-05-02T11:09:03.263Z</time></trkpt><trkpt lat="45.7861167" lon="13.6641654"><ele>183.0</ele><time>2026-05-02T11:09:04.263Z</time></trkpt><trkpt lat="45.7860966" lon="13.6640459"><ele>183.0</ele><time>2026-05-02T11:09:05.263Z</time></trkpt><trkpt lat="45.7860748" lon="13.6639306"><ele>182.66666666666666</ele><time>2026-05-02T11:09:06.263Z</time></trkpt><trkpt lat="45.7860486" lon="13.6638109"><ele>182.33333333333334</ele><time>2026-05-02T11:09:07.263Z</time></trkpt><trkpt lat="45.7860239" lon="13.6636905"><ele>182.0</ele><time>2026-05-02T11:09:08.263Z</time></trkpt><trkpt lat="45.7860007" lon="13.6635787"><ele>181.66666666666669</ele><time>2026-05-02T11:09:09.264Z</time></trkpt><trkpt lat="45.7859773" lon="13.6634592"><ele>181.33333333333334</ele><time>2026-05-02T11:09:10.264Z</time></trkpt><trkpt lat="45.7859581" lon="13.6633348"><ele>181.0</ele><time>2026-05-02T11:09:11.263Z</time></trkpt><trkpt lat="45.7859398" lon="13.6632089"><ele>181.66666666666669</ele><time>2026-05-02T11:09:12.263Z</time></trkpt><trkpt lat="45.7859236" lon="13.6630853"><ele>182.33333333333334</ele><time>2026-05-02T11:09:13.263Z</time></trkpt><trkpt lat="45.7859136" lon="13.6629627"><ele>183.0</ele><time>2026-05-02T11:09:14.264Z</time></trkpt><trkpt lat="45.7859091" lon="13.6628337"><ele>183.66666666666666</ele><time>2026-05-02T11:09:15.263Z</time></trkpt><trkpt lat="45.7859102" lon="13.6627082"><ele>184.33333333333331</ele><time>2026-05-02T11:09:16.264Z</time></trkpt><trkpt lat="45.785916" lon="13.6625922"><ele>185.0</ele><time>2026-05-02T11:09:17.263Z</time></trkpt><trkpt lat="45.7859155" lon="13.6624691"><ele>185.0</ele><time>2026-05-02T11:09:18.264Z</time></trkpt><trkpt lat="45.7859062" lon="13.662333"><ele>185.0</ele><time>2026-05-02T11:09:19.263Z</time></trkpt><trkpt lat="45.7858913" lon="13.6621977"><ele>185.0</ele><time>2026-05-02T11:09:20.264Z</time></trkpt><trkpt lat="45.7858875" lon="13.6620725"><ele>185.0</ele><time>2026-05-02T11:09:21.264Z</time></trkpt><trkpt lat="45.7858881" lon="13.6619497"><ele>185.0</ele><time>2026-05-02T11:09:22.263Z</time></trkpt><trkpt lat="45.7858856" lon="13.6618341"><ele>185.0</ele><time>2026-05-02T11:09:23.263Z</time></trkpt><trkpt lat="45.7858849" lon="13.661732"><ele>184.66666666666666</ele><time>2026-05-02T11:09:24.263Z</time></trkpt><trkpt lat="45.7858875" lon="13.6616395"><ele>184.33333333333331</ele><time>2026-05-02T11:09:25.263Z</time></trkpt><trkpt lat="45.7859009" lon="13.6615495"><ele>184.0</ele><time>2026-05-02T11:09:26.263Z</time></trkpt><trkpt lat="45.785921" lon="13.6614629"><ele>183.66666666666666</ele><time>2026-05-02T11:09:27.263Z</time></trkpt><trkpt lat="45.7859703" lon="13.6613302"><ele>183.33333333333334</ele><time>2026-05-02T11:09:29.263Z</time></trkpt><trkpt lat="45.7860158" lon="13.6612393"><ele>183.0</ele><time>2026-05-02T11:09:33.263Z</time></trkpt><trkpt lat="45.7860553" lon="13.6610854"><ele>183.0</ele><time>2026-05-02T11:09:35.176Z</time></trkpt><trkpt lat="45.7860845" lon="13.6609647"><ele>183.0</ele><time>2026-05-02T11:09:36.263Z</time></trkpt><trkpt lat="45.7861042" lon="13.6608122"><ele>183.0</ele><time>2026-05-02T11:09:38.263Z</time></trkpt><trkpt lat="45.7861065" lon="13.6606785"><ele>183.0</ele><time>2026-05-02T11:09:40.264Z</time></trkpt></trkseg></trk></gpx>